﻿<?xml version="1.0" encoding="utf-8"?><gpx creator="Garmin Desktop App" version="1.1" xsi:schemaLocation="http://www.topografix.com/GPX/1/1 http://www.topografix.com/GPX/1/1/gpx.xsd http://www.garmin.com/xmlschemas/WaypointExtension/v1 http://www8.garmin.com/xmlschemas/WaypointExtensionv1.xsd http://www.garmin.com/xmlschemas/TrackPointExtension/v1 http://www.garmin.com/xmlschemas/TrackPointExtensionv1.xsd http://www.garmin.com/xmlschemas/GpxExtensions/v3 http://www8.garmin.com/xmlschemas/GpxExtensionsv3.xsd http://www.garmin.com/xmlschemas/ActivityExtension/v1 http://www8.garmin.com/xmlschemas/ActivityExtensionv1.xsd http://www.garmin.com/xmlschemas/AdventuresExtensions/v1 http://www8.garmin.com/xmlschemas/AdventuresExtensionv1.xsd http://www.garmin.com/xmlschemas/PressureExtension/v1 http://www.garmin.com/xmlschemas/PressureExtensionv1.xsd http://www.garmin.com/xmlschemas/TripExtensions/v1 http://www.garmin.com/xmlschemas/TripExtensionsv1.xsd http://www.garmin.com/xmlschemas/TripMetaDataExtensions/v1 http://www.garmin.com/xmlschemas/TripMetaDataExtensionsv1.xsd http://www.garmin.com/xmlschemas/ViaPointTransportationModeExtensions/v1 http://www.garmin.com/xmlschemas/ViaPointTransportationModeExtensionsv1.xsd http://www.garmin.com/xmlschemas/CreationTimeExtension/v1 http://www.garmin.com/xmlschemas/CreationTimeExtensionsv1.xsd http://www.garmin.com/xmlschemas/AccelerationExtension/v1 http://www.garmin.com/xmlschemas/AccelerationExtensionv1.xsd http://www.garmin.com/xmlschemas/PowerExtension/v1 http://www.garmin.com/xmlschemas/PowerExtensionv1.xsd http://www.garmin.com/xmlschemas/VideoExtension/v1 http://www.garmin.com/xmlschemas/VideoExtensionv1.xsd" xmlns="http://www.topografix.com/GPX/1/1" xmlns:xsi="http://www.w3.org/2001/XMLSchema-instance" xmlns:wptx1="http://www.garmin.com/xmlschemas/WaypointExtension/v1" xmlns:gpxtrx="http://www.garmin.com/xmlschemas/GpxExtensions/v3" xmlns:gpxtpx="http://www.garmin.com/xmlschemas/TrackPointExtension/v1" xmlns:gpxx="http://www.garmin.com/xmlschemas/GpxExtensions/v3" xmlns:trp="http://www.garmin.com/xmlschemas/TripExtensions/v1" xmlns:adv="http://www.garmin.com/xmlschemas/AdventuresExtensions/v1" xmlns:prs="http://www.garmin.com/xmlschemas/PressureExtension/v1" xmlns:tmd="http://www.garmin.com/xmlschemas/TripMetaDataExtensions/v1" xmlns:vptm="http://www.garmin.com/xmlschemas/ViaPointTransportationModeExtensions/v1" xmlns:ctx="http://www.garmin.com/xmlschemas/CreationTimeExtension/v1" xmlns:gpxacc="http://www.garmin.com/xmlschemas/AccelerationExtension/v1" xmlns:gpxpx="http://www.garmin.com/xmlschemas/PowerExtension/v1" xmlns:vidx1="http://www.garmin.com/xmlschemas/VideoExtension/v1">

  <metadata>
    <link href="http://www.garmin.com">
      <text>Garmin International</text>
    </link>
    <time>2021-01-09T14:25:32Z</time>
    <bounds maxlat="46.060603866353631" maxlon="8.08056402951479" minlat="46.021383265033364" minlon="8.037052983418107" />
  </metadata>

  <trk>
    <name>valle-antrona-giro-dei-laghi2018-06-19</name>
    <extensions>
      <gpxx:TrackExtension>
        <gpxx:DisplayColor>Yellow</gpxx:DisplayColor>
      </gpxx:TrackExtension>
      <gpxtrkx:TrackStatsExtension xmlns:gpxtrkx="http://www.garmin.com/xmlschemas/TrackStatsExtension/v1">
        <gpxtrkx:Distance>20263</gpxtrkx:Distance>
        <gpxtrkx:TotalElapsedTime>28326</gpxtrkx:TotalElapsedTime>
        <gpxtrkx:MovingTime>21690</gpxtrkx:MovingTime>
        <gpxtrkx:StoppedTime>6585</gpxtrkx:StoppedTime>
        <gpxtrkx:MovingSpeed>1</gpxtrkx:MovingSpeed>
        <gpxtrkx:MaxSpeed>2</gpxtrkx:MaxSpeed>
        <gpxtrkx:MaxElevation>2340</gpxtrkx:MaxElevation>
        <gpxtrkx:MinElevation>1353</gpxtrkx:MinElevation>
        <gpxtrkx:Ascent>1188</gpxtrkx:Ascent>
        <gpxtrkx:Descent>1177</gpxtrkx:Descent>
        <gpxtrkx:AvgAscentRate>0</gpxtrkx:AvgAscentRate>
        <gpxtrkx:MaxAscentRate>0</gpxtrkx:MaxAscentRate>
        <gpxtrkx:AvgDescentRate>0</gpxtrkx:AvgDescentRate>
        <gpxtrkx:MaxDescentRate>-1</gpxtrkx:MaxDescentRate>
      </gpxtrkx:TrackStatsExtension>
    </extensions>
    <trkseg>
      <trkpt lat="46.047027865424752" lon="8.078966774046421">
        <ele>1365.21</ele>
        <time>2018-06-19T13:26:43Z</time>
      </trkpt>
      <trkpt lat="46.04703901335597" lon="8.078977838158608">
        <ele>1364.73</ele>
        <time>2018-06-19T13:26:32Z</time>
      </trkpt>
      <trkpt lat="46.047008503228426" lon="8.079088479280472">
        <ele>1366.1700000000001</ele>
        <time>2018-06-19T13:26:21Z</time>
      </trkpt>
      <trkpt lat="46.047006826847792" lon="8.079108009114862">
        <ele>1366.1700000000001</ele>
        <time>2018-06-19T13:26:20Z</time>
      </trkpt>
      <trkpt lat="46.046998277306557" lon="8.079179925844073">
        <ele>1367.6099999999999</ele>
        <time>2018-06-19T13:26:16Z</time>
      </trkpt>
      <trkpt lat="46.046970952302217" lon="8.079370027408004">
        <ele>1369.05</ele>
        <time>2018-06-19T13:26:05Z</time>
      </trkpt>
      <trkpt lat="46.046946560963988" lon="8.079598434269428">
        <ele>1371.9400000000001</ele>
        <time>2018-06-19T13:25:52Z</time>
      </trkpt>
      <trkpt lat="46.046946896240115" lon="8.079617125913501">
        <ele>1371.9400000000001</ele>
        <time>2018-06-19T13:25:51Z</time>
      </trkpt>
      <trkpt lat="46.046948824077845" lon="8.079631542786956">
        <ele>1371.9400000000001</ele>
        <time>2018-06-19T13:25:50Z</time>
      </trkpt>
      <trkpt lat="46.046947231516242" lon="8.079648055136204">
        <ele>1372.4200000000001</ele>
        <time>2018-06-19T13:25:49Z</time>
      </trkpt>
      <trkpt lat="46.046946225687861" lon="8.079678900539875">
        <ele>1372.9000000000001</ele>
        <time>2018-06-19T13:25:47Z</time>
      </trkpt>
      <trkpt lat="46.046938262879848" lon="8.079886855557561">
        <ele>1375.3</ele>
        <time>2018-06-19T13:25:34Z</time>
      </trkpt>
      <trkpt lat="46.046941531822085" lon="8.079909402877092">
        <ele>1375.3</ele>
        <time>2018-06-19T13:25:33Z</time>
      </trkpt>
      <trkpt lat="46.046945303678513" lon="8.079972099512816">
        <ele>1375.78</ele>
        <time>2018-06-19T13:25:31Z</time>
      </trkpt>
      <trkpt lat="46.047002216801047" lon="8.080193800851703">
        <ele>1378.1900000000001</ele>
        <time>2018-06-19T13:25:19Z</time>
      </trkpt>
      <trkpt lat="46.047003557905555" lon="8.080213414505124">
        <ele>1378.1900000000001</ele>
        <time>2018-06-19T13:25:18Z</time>
      </trkpt>
      <trkpt lat="46.047012777999043" lon="8.080253144726157">
        <ele>1378.6700000000001</ele>
        <time>2018-06-19T13:25:16Z</time>
      </trkpt>
      <trkpt lat="46.04702677577734" lon="8.080314332619309">
        <ele>1379.6300000000001</ele>
        <time>2018-06-19T13:25:12Z</time>
      </trkpt>
      <trkpt lat="46.047041192650795" lon="8.080360684543848">
        <ele>1380.1099999999999</ele>
        <time>2018-06-19T13:25:09Z</time>
      </trkpt>
      <trkpt lat="46.047072624787688" lon="8.080540560185909">
        <ele>1382.03</ele>
        <time>2018-06-19T13:24:58Z</time>
      </trkpt>
      <trkpt lat="46.047067679464817" lon="8.080554977059364">
        <ele>1382.51</ele>
        <time>2018-06-19T13:24:57Z</time>
      </trkpt>
      <trkpt lat="46.047057202085853" lon="8.08056402951479">
        <ele>1382.51</ele>
        <time>2018-06-19T13:24:56Z</time>
      </trkpt>
      <trkpt lat="46.047008419409394" lon="8.080488508567214">
        <ele>1382.99</ele>
        <time>2018-06-19T13:24:51Z</time>
      </trkpt>
      <trkpt lat="46.046986039727926" lon="8.080363785848022">
        <ele>1382.51</ele>
        <time>2018-06-19T13:24:41Z</time>
      </trkpt>
      <trkpt lat="46.046885708346963" lon="8.080196315422654">
        <ele>1382.51</ele>
        <time>2018-06-19T13:24:29Z</time>
      </trkpt>
      <trkpt lat="46.04680398479104" lon="8.080021888017654">
        <ele>1382.03</ele>
        <time>2018-06-19T13:24:17Z</time>
      </trkpt>
      <trkpt lat="46.046763584017754" lon="8.079784428700805">
        <ele>1382.51</ele>
        <time>2018-06-19T13:24:04Z</time>
      </trkpt>
      <trkpt lat="46.046765930950642" lon="8.079719385132194">
        <ele>1382.03</ele>
        <time>2018-06-19T13:24:01Z</time>
      </trkpt>
      <trkpt lat="46.046755872666836" lon="8.07961218059063">
        <ele>1382.03</ele>
        <time>2018-06-19T13:23:55Z</time>
      </trkpt>
      <trkpt lat="46.046759728342295" lon="8.079593237489462">
        <ele>1382.03</ele>
        <time>2018-06-19T13:23:54Z</time>
      </trkpt>
      <trkpt lat="46.046762242913246" lon="8.079478070139885">
        <ele>1382.51</ele>
        <time>2018-06-19T13:23:48Z</time>
      </trkpt>
      <trkpt lat="46.046759141609073" lon="8.079275814816356">
        <ele>1382.51</ele>
        <time>2018-06-19T13:23:37Z</time>
      </trkpt>
      <trkpt lat="46.046752771362662" lon="8.079074732959271">
        <ele>1382.03</ele>
        <time>2018-06-19T13:23:26Z</time>
      </trkpt>
      <trkpt lat="46.046755369752645" lon="8.07905662804842">
        <ele>1382.51</ele>
        <time>2018-06-19T13:23:25Z</time>
      </trkpt>
      <trkpt lat="46.046756291761994" lon="8.078986052423716">
        <ele>1382.03</ele>
        <time>2018-06-19T13:23:21Z</time>
      </trkpt>
      <trkpt lat="46.04676584713161" lon="8.078933665528894">
        <ele>1382.51</ele>
        <time>2018-06-19T13:23:18Z</time>
      </trkpt>
      <trkpt lat="46.046763081103563" lon="8.078880775719881">
        <ele>1382.51</ele>
        <time>2018-06-19T13:23:15Z</time>
      </trkpt>
      <trkpt lat="46.046773726120591" lon="8.078715987503529">
        <ele>1382.51</ele>
        <time>2018-06-19T13:23:05Z</time>
      </trkpt>
      <trkpt lat="46.046825526282191" lon="8.078540889546275">
        <ele>1382.51</ele>
        <time>2018-06-19T13:22:53Z</time>
      </trkpt>
      <trkpt lat="46.046836841851473" lon="8.078325306996703">
        <ele>1382.51</ele>
        <time>2018-06-19T13:22:41Z</time>
      </trkpt>
      <trkpt lat="46.046842290088534" lon="8.078313237056136">
        <ele>1382.99</ele>
        <time>2018-06-19T13:22:40Z</time>
      </trkpt>
      <trkpt lat="46.046864669770002" lon="8.078274428844452">
        <ele>1382.51</ele>
        <time>2018-06-19T13:22:36Z</time>
      </trkpt>
      <trkpt lat="46.046876488253474" lon="8.078142749145627">
        <ele>1382.99</ele>
        <time>2018-06-19T13:22:25Z</time>
      </trkpt>
      <trkpt lat="46.046667695045471" lon="8.077435400336981">
        <ele>1384.4400000000001</ele>
        <time>2018-06-19T13:22:15Z</time>
      </trkpt>
      <trkpt lat="46.046803230419755" lon="8.077746955677867">
        <ele>1384.9200000000001</ele>
        <time>2018-06-19T13:22:06Z</time>
      </trkpt>
      <trkpt lat="46.046825526282191" lon="8.077671686187387">
        <ele>1383.96</ele>
        <time>2018-06-19T13:21:59Z</time>
      </trkpt>
      <trkpt lat="46.046828208491206" lon="8.077661376446486">
        <ele>1383.96</ele>
        <time>2018-06-19T13:21:58Z</time>
      </trkpt>
      <trkpt lat="46.046847570687532" lon="8.077570768073201">
        <ele>1384.4400000000001</ele>
        <time>2018-06-19T13:21:48Z</time>
      </trkpt>
      <trkpt lat="46.046860311180353" lon="8.077575461938977">
        <ele>1384.9200000000001</ele>
        <time>2018-06-19T13:21:34Z</time>
      </trkpt>
      <trkpt lat="46.046798536553979" lon="8.077597673982382">
        <ele>1384.4400000000001</ele>
        <time>2018-06-19T13:21:16Z</time>
      </trkpt>
      <trkpt lat="46.046748664230108" lon="8.077540760859847">
        <ele>1384.4400000000001</ele>
        <time>2018-06-19T13:21:07Z</time>
      </trkpt>
      <trkpt lat="46.046684877946973" lon="8.077517123892903">
        <ele>1384.9200000000001</ele>
        <time>2018-06-19T13:20:59Z</time>
      </trkpt>
      <trkpt lat="46.046594101935625" lon="8.077387120574713">
        <ele>1384.9200000000001</ele>
        <time>2018-06-19T13:20:49Z</time>
      </trkpt>
      <trkpt lat="46.046518245711923" lon="8.077323921024799">
        <ele>1384.9200000000001</ele>
        <time>2018-06-19T13:20:42Z</time>
      </trkpt>
      <trkpt lat="46.046374915167689" lon="8.077197941020131">
        <ele>1384.9200000000001</ele>
        <time>2018-06-19T13:20:28Z</time>
      </trkpt>
      <trkpt lat="46.046254215762019" lon="8.077130299061537">
        <ele>1384.4400000000001</ele>
        <time>2018-06-19T13:20:17Z</time>
      </trkpt>
      <trkpt lat="46.046137204393744" lon="8.07706936262548">
        <ele>1385.4000000000001</ele>
        <time>2018-06-19T13:20:06Z</time>
      </trkpt>
      <trkpt lat="46.046125134453177" lon="8.077060896903276">
        <ele>1386.3599999999999</ele>
        <time>2018-06-19T13:20:05Z</time>
      </trkpt>
      <trkpt lat="46.046112393960357" lon="8.077051928266883">
        <ele>1385.4000000000001</ele>
        <time>2018-06-19T13:20:04Z</time>
      </trkpt>
      <trkpt lat="46.046100994572043" lon="8.077040864154697">
        <ele>1385.4000000000001</ele>
        <time>2018-06-19T13:20:03Z</time>
      </trkpt>
      <trkpt lat="46.046088673174381" lon="8.077028626576066">
        <ele>1385.4000000000001</ele>
        <time>2018-06-19T13:20:02Z</time>
      </trkpt>
      <trkpt lat="46.046073250472546" lon="8.077016053721309">
        <ele>1384.9200000000001</ele>
        <time>2018-06-19T13:20:01Z</time>
      </trkpt>
      <trkpt lat="46.046058833599091" lon="8.077001972123981">
        <ele>1384.9200000000001</ele>
        <time>2018-06-19T13:20:00Z</time>
      </trkpt>
      <trkpt lat="46.046047601848841" lon="8.076991243287921">
        <ele>1384.9200000000001</ele>
        <time>2018-06-19T13:19:59Z</time>
      </trkpt>
      <trkpt lat="46.045990772545338" lon="8.076947154477239">
        <ele>1384.9200000000001</ele>
        <time>2018-06-19T13:19:54Z</time>
      </trkpt>
      <trkpt lat="46.045856913551688" lon="8.076867023482919">
        <ele>1385.4000000000001</ele>
        <time>2018-06-19T13:19:43Z</time>
      </trkpt>
      <trkpt lat="46.045768484473228" lon="8.076798040419817">
        <ele>1385.4000000000001</ele>
        <time>2018-06-19T13:19:35Z</time>
      </trkpt>
      <trkpt lat="46.045689946040511" lon="8.076744060963392">
        <ele>1385.4000000000001</ele>
        <time>2018-06-19T13:19:28Z</time>
      </trkpt>
      <trkpt lat="46.045630685985088" lon="8.076711874455214">
        <ele>1385.4000000000001</ele>
        <time>2018-06-19T13:19:20Z</time>
      </trkpt>
      <trkpt lat="46.045616939663887" lon="8.076707348227501">
        <ele>1385.4000000000001</ele>
        <time>2018-06-19T13:19:19Z</time>
      </trkpt>
      <trkpt lat="46.04555893689394" lon="8.076680777594447">
        <ele>1385.8800000000001</ele>
        <time>2018-06-19T13:19:10Z</time>
      </trkpt>
      <trkpt lat="46.04543823748827" lon="8.07665160857141">
        <ele>1385.4000000000001</ele>
        <time>2018-06-19T13:19:01Z</time>
      </trkpt>
      <trkpt lat="46.045321980491281" lon="8.076614057645202">
        <ele>1385.4000000000001</ele>
        <time>2018-06-19T13:18:51Z</time>
      </trkpt>
      <trkpt lat="46.045201532542706" lon="8.076547170057893">
        <ele>1385.4000000000001</ele>
        <time>2018-06-19T13:18:42Z</time>
      </trkpt>
      <trkpt lat="46.045053172856569" lon="8.076492352411151">
        <ele>1385.4000000000001</ele>
        <time>2018-06-19T13:18:30Z</time>
      </trkpt>
      <trkpt lat="46.045039845630527" lon="8.076490424573422">
        <ele>1385.4000000000001</ele>
        <time>2018-06-19T13:18:29Z</time>
      </trkpt>
      <trkpt lat="46.044958792626858" lon="8.076486233621836">
        <ele>1385.4000000000001</ele>
        <time>2018-06-19T13:18:22Z</time>
      </trkpt>
      <trkpt lat="46.044891905039549" lon="8.076448682695627">
        <ele>1384.9200000000001</ele>
        <time>2018-06-19T13:18:15Z</time>
      </trkpt>
      <trkpt lat="46.044785957783461" lon="8.076353296637535">
        <ele>1385.4000000000001</ele>
        <time>2018-06-19T13:18:05Z</time>
      </trkpt>
      <trkpt lat="46.044700043275952" lon="8.076297473162413">
        <ele>1385.4000000000001</ele>
        <time>2018-06-19T13:17:57Z</time>
      </trkpt>
      <trkpt lat="46.044642208144069" lon="8.076293701305986">
        <ele>1385.4000000000001</ele>
        <time>2018-06-19T13:17:53Z</time>
      </trkpt>
      <trkpt lat="46.044525112956762" lon="8.076307782903314">
        <ele>1385.4000000000001</ele>
        <time>2018-06-19T13:17:44Z</time>
      </trkpt>
      <trkpt lat="46.044349428266287" lon="8.076264364644885">
        <ele>1385.4000000000001</ele>
        <time>2018-06-19T13:17:31Z</time>
      </trkpt>
      <trkpt lat="46.044261334463954" lon="8.076256820932031">
        <ele>1385.4000000000001</ele>
        <time>2018-06-19T13:17:24Z</time>
      </trkpt>
      <trkpt lat="46.044120518490672" lon="8.076212732121348">
        <ele>1384.9200000000001</ele>
        <time>2018-06-19T13:17:11Z</time>
      </trkpt>
      <trkpt lat="46.043995209038258" lon="8.07608624920249">
        <ele>1385.8800000000001</ele>
        <time>2018-06-19T13:17:00Z</time>
      </trkpt>
      <trkpt lat="46.043868055567145" lon="8.075935374945402">
        <ele>1385.4000000000001</ele>
        <time>2018-06-19T13:16:51Z</time>
      </trkpt>
      <trkpt lat="46.043846681714058" lon="8.075916767120361">
        <ele>1385.4000000000001</ele>
        <time>2018-06-19T13:16:49Z</time>
      </trkpt>
      <trkpt lat="46.043760515749454" lon="8.075827164575458">
        <ele>1385.4000000000001</ele>
        <time>2018-06-19T13:16:41Z</time>
      </trkpt>
      <trkpt lat="46.043667728081346" lon="8.075684420764446">
        <ele>1385.8800000000001</ele>
        <time>2018-06-19T13:16:31Z</time>
      </trkpt>
      <trkpt lat="46.043545100837946" lon="8.075534636154771">
        <ele>1385.8800000000001</ele>
        <time>2018-06-19T13:16:20Z</time>
      </trkpt>
      <trkpt lat="46.043535629287362" lon="8.075529858469963">
        <ele>1385.8800000000001</ele>
        <time>2018-06-19T13:16:19Z</time>
      </trkpt>
      <trkpt lat="46.043439069762826" lon="8.0754070635885">
        <ele>1385.4000000000001</ele>
        <time>2018-06-19T13:16:07Z</time>
      </trkpt>
      <trkpt lat="46.04339481331408" lon="8.075363142415881">
        <ele>1385.4000000000001</ele>
        <time>2018-06-19T13:16:02Z</time>
      </trkpt>
      <trkpt lat="46.043330105021596" lon="8.075286950916052">
        <ele>1386.3599999999999</ele>
        <time>2018-06-19T13:15:55Z</time>
      </trkpt>
      <trkpt lat="46.04325458407402" lon="8.075189301744103">
        <ele>1386.3599999999999</ele>
        <time>2018-06-19T13:15:46Z</time>
      </trkpt>
      <trkpt lat="46.043152995407581" lon="8.075088718906045">
        <ele>1386.3599999999999</ele>
        <time>2018-06-19T13:15:35Z</time>
      </trkpt>
      <trkpt lat="46.043119383975863" lon="8.075059130787849">
        <ele>1386.3599999999999</ele>
        <time>2018-06-19T13:15:31Z</time>
      </trkpt>
      <trkpt lat="46.043077725917101" lon="8.075049910694361">
        <ele>1386.3599999999999</ele>
        <time>2018-06-19T13:15:27Z</time>
      </trkpt>
      <trkpt lat="46.043041097000241" lon="8.075021831318736">
        <ele>1386.3599999999999</ele>
        <time>2018-06-19T13:15:22Z</time>
      </trkpt>
      <trkpt lat="46.042979573830962" lon="8.074980257079005">
        <ele>1386.3599999999999</ele>
        <time>2018-06-19T13:15:11Z</time>
      </trkpt>
      <trkpt lat="46.042934143915772" lon="8.07493994012475">
        <ele>1386.8399999999999</ele>
        <time>2018-06-19T13:15:06Z</time>
      </trkpt>
      <trkpt lat="46.042857449501753" lon="8.074887217953801">
        <ele>1386.8399999999999</ele>
        <time>2018-06-19T13:14:56Z</time>
      </trkpt>
      <trkpt lat="46.042793244123459" lon="8.07483097538352">
        <ele>1387.3199999999999</ele>
        <time>2018-06-19T13:14:49Z</time>
      </trkpt>
      <trkpt lat="46.042661815881729" lon="8.074729721993208">
        <ele>1386.8399999999999</ele>
        <time>2018-06-19T13:14:36Z</time>
      </trkpt>
      <trkpt lat="46.042649745941162" lon="8.074706336483359">
        <ele>1386.8399999999999</ele>
        <time>2018-06-19T13:14:34Z</time>
      </trkpt>
      <trkpt lat="46.042555114254355" lon="8.074607765302062">
        <ele>1386.8399999999999</ele>
        <time>2018-06-19T13:14:24Z</time>
      </trkpt>
      <trkpt lat="46.042531812563539" lon="8.0745988804847">
        <ele>1386.8399999999999</ele>
        <time>2018-06-19T13:14:22Z</time>
      </trkpt>
      <trkpt lat="46.04242779314518" lon="8.074544230476022">
        <ele>1386.8399999999999</ele>
        <time>2018-06-19T13:14:11Z</time>
      </trkpt>
      <trkpt lat="46.042326288297772" lon="8.074474241584539">
        <ele>1387.3199999999999</ele>
        <time>2018-06-19T13:14:00Z</time>
      </trkpt>
      <trkpt lat="46.042314134538174" lon="8.074468206614256">
        <ele>1387.3199999999999</ele>
        <time>2018-06-19T13:13:59Z</time>
      </trkpt>
      <trkpt lat="46.042134426534176" lon="8.074305346235633">
        <ele>1387.3199999999999</ele>
        <time>2018-06-19T13:13:46Z</time>
      </trkpt>
      <trkpt lat="46.042034849524498" lon="8.07419621385634">
        <ele>1387.8</ele>
        <time>2018-06-19T13:13:38Z</time>
      </trkpt>
      <trkpt lat="46.041927980259061" lon="8.074079034850001">
        <ele>1387.8</ele>
        <time>2018-06-19T13:13:29Z</time>
      </trkpt>
      <trkpt lat="46.041823122650385" lon="8.073981469497085">
        <ele>1388.28</ele>
        <time>2018-06-19T13:13:20Z</time>
      </trkpt>
      <trkpt lat="46.041694292798638" lon="8.073876611888409">
        <ele>1388.28</ele>
        <time>2018-06-19T13:13:08Z</time>
      </trkpt>
      <trkpt lat="46.041546016931534" lon="8.073753397911787">
        <ele>1388.76</ele>
        <time>2018-06-19T13:12:55Z</time>
      </trkpt>
      <trkpt lat="46.041400842368603" lon="8.073639906942844">
        <ele>1388.76</ele>
        <time>2018-06-19T13:12:43Z</time>
      </trkpt>
      <trkpt lat="46.041358849033713" lon="8.073604870587587">
        <ele>1388.76</ele>
        <time>2018-06-19T13:12:39Z</time>
      </trkpt>
      <trkpt lat="46.041246866807342" lon="8.073503784835339">
        <ele>1389.24</ele>
        <time>2018-06-19T13:12:26Z</time>
      </trkpt>
      <trkpt lat="46.041155084967613" lon="8.073457097634673">
        <ele>1389.24</ele>
        <time>2018-06-19T13:12:17Z</time>
      </trkpt>
      <trkpt lat="46.04103279300034" lon="8.073381325230002">
        <ele>1389.24</ele>
        <time>2018-06-19T13:12:07Z</time>
      </trkpt>
      <trkpt lat="46.040921062231064" lon="8.073367243632674">
        <ele>1388.76</ele>
        <time>2018-06-19T13:11:55Z</time>
      </trkpt>
      <trkpt lat="46.04088569059968" lon="8.073372775688767">
        <ele>1389.24</ele>
        <time>2018-06-19T13:11:51Z</time>
      </trkpt>
      <trkpt lat="46.040837243199348" lon="8.073381828144193">
        <ele>1389.24</ele>
        <time>2018-06-19T13:11:46Z</time>
      </trkpt>
      <trkpt lat="46.040698103606701" lon="8.073297003284097">
        <ele>1389.24</ele>
        <time>2018-06-19T13:11:36Z</time>
      </trkpt>
      <trkpt lat="46.040648398920894" lon="8.073283927515149">
        <ele>1389.24</ele>
        <time>2018-06-19T13:11:31Z</time>
      </trkpt>
      <trkpt lat="46.040522754192352" lon="8.073265152052045">
        <ele>1389.24</ele>
        <time>2018-06-19T13:11:22Z</time>
      </trkpt>
      <trkpt lat="46.040474390611053" lon="8.07326003909111">
        <ele>1389.72</ele>
        <time>2018-06-19T13:11:18Z</time>
      </trkpt>
      <trkpt lat="46.040364168584347" lon="8.073249645531178">
        <ele>1389.72</ele>
        <time>2018-06-19T13:11:08Z</time>
      </trkpt>
      <trkpt lat="46.040281355381012" lon="8.073250148445368">
        <ele>1389.72</ele>
        <time>2018-06-19T13:11:00Z</time>
      </trkpt>
      <trkpt lat="46.040193680673838" lon="8.073209160938859">
        <ele>1389.24</ele>
        <time>2018-06-19T13:10:49Z</time>
      </trkpt>
      <trkpt lat="46.040129223838449" lon="8.0731569416821">
        <ele>1389.24</ele>
        <time>2018-06-19T13:10:40Z</time>
      </trkpt>
      <trkpt lat="46.039990168064833" lon="8.073019813746214">
        <ele>1389.24</ele>
        <time>2018-06-19T13:10:27Z</time>
      </trkpt>
      <trkpt lat="46.039950689300895" lon="8.072994332760572">
        <ele>1389.72</ele>
        <time>2018-06-19T13:10:19Z</time>
      </trkpt>
      <trkpt lat="46.039881203323603" lon="8.072960637509823">
        <ele>1389.24</ele>
        <time>2018-06-19T13:10:09Z</time>
      </trkpt>
      <trkpt lat="46.039837449789047" lon="8.072940520942211">
        <ele>1389.24</ele>
        <time>2018-06-19T13:10:05Z</time>
      </trkpt>
      <trkpt lat="46.039723204448819" lon="8.072883943095803">
        <ele>1389.24</ele>
        <time>2018-06-19T13:09:54Z</time>
      </trkpt>
      <trkpt lat="46.039697807282209" lon="8.072860725224018">
        <ele>1389.24</ele>
        <time>2018-06-19T13:09:51Z</time>
      </trkpt>
      <trkpt lat="46.039668722078204" lon="8.072853516787291">
        <ele>1389.24</ele>
        <time>2018-06-19T13:09:48Z</time>
      </trkpt>
      <trkpt lat="46.039641732349992" lon="8.072830550372601">
        <ele>1389.24</ele>
        <time>2018-06-19T13:09:45Z</time>
      </trkpt>
      <trkpt lat="46.039497563615441" lon="8.072720328345895">
        <ele>1389.24</ele>
        <time>2018-06-19T13:09:32Z</time>
      </trkpt>
      <trkpt lat="46.039405195042491" lon="8.072668695822358">
        <ele>1389.24</ele>
        <time>2018-06-19T13:09:23Z</time>
      </trkpt>
      <trkpt lat="46.039366135373712" lon="8.072658972814679">
        <ele>1389.24</ele>
        <time>2018-06-19T13:09:19Z</time>
      </trkpt>
      <trkpt lat="46.03926102630794" lon="8.072596862912178">
        <ele>1388.76</ele>
        <time>2018-06-19T13:09:08Z</time>
      </trkpt>
      <trkpt lat="46.039202520623803" lon="8.072502817958593">
        <ele>1388.76</ele>
        <time>2018-06-19T13:09:00Z</time>
      </trkpt>
      <trkpt lat="46.039134208112955" lon="8.072459232062101">
        <ele>1388.76</ele>
        <time>2018-06-19T13:08:53Z</time>
      </trkpt>
      <trkpt lat="46.039110152050853" lon="8.072456298395991">
        <ele>1388.76</ele>
        <time>2018-06-19T13:08:51Z</time>
      </trkpt>
      <trkpt lat="46.039078803732991" lon="8.072458980605006">
        <ele>1389.24</ele>
        <time>2018-06-19T13:08:48Z</time>
      </trkpt>
      <trkpt lat="46.038965731859207" lon="8.072441965341568">
        <ele>1389.24</ele>
        <time>2018-06-19T13:08:36Z</time>
      </trkpt>
      <trkpt lat="46.038938406854868" lon="8.072432577610016">
        <ele>1389.24</ele>
        <time>2018-06-19T13:08:33Z</time>
      </trkpt>
      <trkpt lat="46.038864478468895" lon="8.072426291182637">
        <ele>1388.76</ele>
        <time>2018-06-19T13:08:25Z</time>
      </trkpt>
      <trkpt lat="46.038850313052535" lon="8.072436936199665">
        <ele>1389.24</ele>
        <time>2018-06-19T13:08:23Z</time>
      </trkpt>
      <trkpt lat="46.038768505677581" lon="8.072440875694156">
        <ele>1388.76</ele>
        <time>2018-06-19T13:08:14Z</time>
      </trkpt>
      <trkpt lat="46.038762303069234" lon="8.072439366951585">
        <ele>1389.24</ele>
        <time>2018-06-19T13:08:13Z</time>
      </trkpt>
      <trkpt lat="46.038640849292278" lon="8.072291677817702">
        <ele>1388.76</ele>
        <time>2018-06-19T13:07:59Z</time>
      </trkpt>
      <trkpt lat="46.038630036637187" lon="8.072259575128555">
        <ele>1389.24</ele>
        <time>2018-06-19T13:07:57Z</time>
      </trkpt>
      <trkpt lat="46.038614697754383" lon="8.072233255952597">
        <ele>1389.24</ele>
        <time>2018-06-19T13:07:55Z</time>
      </trkpt>
      <trkpt lat="46.038583349436522" lon="8.072163769975305">
        <ele>1389.24</ele>
        <time>2018-06-19T13:07:50Z</time>
      </trkpt>
      <trkpt lat="46.038591396063566" lon="8.072147173807025">
        <ele>1389.24</ele>
        <time>2018-06-19T13:07:46Z</time>
      </trkpt>
      <trkpt lat="46.038506403565407" lon="8.072172570973635">
        <ele>1389.24</ele>
        <time>2018-06-19T13:07:35Z</time>
      </trkpt>
      <trkpt lat="46.038366928696632" lon="8.07214398868382">
        <ele>1389.24</ele>
        <time>2018-06-19T13:07:24Z</time>
      </trkpt>
      <trkpt lat="46.03834580630064" lon="8.072121944278479">
        <ele>1389.24</ele>
        <time>2018-06-19T13:07:18Z</time>
      </trkpt>
      <trkpt lat="46.038355529308319" lon="8.072096798568964">
        <ele>1389.24</ele>
        <time>2018-06-19T13:07:05Z</time>
      </trkpt>
      <trkpt lat="46.038235416635871" lon="8.071985822170973">
        <ele>1388.76</ele>
        <time>2018-06-19T13:06:55Z</time>
      </trkpt>
      <trkpt lat="46.038165343925357" lon="8.071916755288839">
        <ele>1389.24</ele>
        <time>2018-06-19T13:06:46Z</time>
      </trkpt>
      <trkpt lat="46.038084626197815" lon="8.07178339920938">
        <ele>1388.76</ele>
        <time>2018-06-19T13:06:38Z</time>
      </trkpt>
      <trkpt lat="46.037969207391143" lon="8.071619952097535">
        <ele>1388.76</ele>
        <time>2018-06-19T13:06:25Z</time>
      </trkpt>
      <trkpt lat="46.037887400016189" lon="8.071465222164989">
        <ele>1388.76</ele>
        <time>2018-06-19T13:06:13Z</time>
      </trkpt>
      <trkpt lat="46.037777010351419" lon="8.071275120601058">
        <ele>1388.76</ele>
        <time>2018-06-19T13:06:00Z</time>
      </trkpt>
      <trkpt lat="46.037740046158433" lon="8.071221057325602">
        <ele>1389.24</ele>
        <time>2018-06-19T13:05:48Z</time>
      </trkpt>
      <trkpt lat="46.037629991769791" lon="8.071089461445808">
        <ele>1389.24</ele>
        <time>2018-06-19T13:05:37Z</time>
      </trkpt>
      <trkpt lat="46.037584645673633" lon="8.071113601326942">
        <ele>1388.76</ele>
        <time>2018-06-19T13:05:31Z</time>
      </trkpt>
      <trkpt lat="46.037582214921713" lon="8.071140591055155">
        <ele>1388.76</ele>
        <time>2018-06-19T13:05:29Z</time>
      </trkpt>
      <trkpt lat="46.037541227415204" lon="8.071131706237793">
        <ele>1388.76</ele>
        <time>2018-06-19T13:05:20Z</time>
      </trkpt>
      <trkpt lat="46.037520105019212" lon="8.071128940209746">
        <ele>1389.24</ele>
        <time>2018-06-19T13:05:18Z</time>
      </trkpt>
      <trkpt lat="46.03752831928432" lon="8.07110857218504">
        <ele>1389.24</ele>
        <time>2018-06-19T13:05:08Z</time>
      </trkpt>
      <trkpt lat="46.037543322890997" lon="8.071031626313925">
        <ele>1389.24</ele>
        <time>2018-06-19T13:05:00Z</time>
      </trkpt>
      <trkpt lat="46.037548435851932" lon="8.070907155051827">
        <ele>1389.24</ele>
        <time>2018-06-19T13:04:49Z</time>
      </trkpt>
      <trkpt lat="46.037547513842583" lon="8.070885445922613">
        <ele>1389.24</ele>
        <time>2018-06-19T13:04:30Z</time>
      </trkpt>
      <trkpt lat="46.0375483520329" lon="8.070765333250165">
        <ele>1389.72</ele>
        <time>2018-06-19T13:04:16Z</time>
      </trkpt>
      <trkpt lat="46.037544999271631" lon="8.070741780102253">
        <ele>1389.72</ele>
        <time>2018-06-19T13:04:15Z</time>
      </trkpt>
      <trkpt lat="46.037472831085324" lon="8.070564921945334">
        <ele>1389.72</ele>
        <time>2018-06-19T13:04:05Z</time>
      </trkpt>
      <trkpt lat="46.037343414500356" lon="8.070393931120634">
        <ele>1389.72</ele>
        <time>2018-06-19T13:03:51Z</time>
      </trkpt>
      <trkpt lat="46.037363111972809" lon="8.070428883656859">
        <ele>1389.72</ele>
        <time>2018-06-19T13:03:43Z</time>
      </trkpt>
      <trkpt lat="46.037360010668635" lon="8.070371467620134">
        <ele>1387.3199999999999</ele>
        <time>2018-06-19T13:03:32Z</time>
      </trkpt>
      <trkpt lat="46.037319023162127" lon="8.070255629718304">
        <ele>1386.3599999999999</ele>
        <time>2018-06-19T13:03:22Z</time>
      </trkpt>
      <trkpt lat="46.037294799461961" lon="8.070173570886254">
        <ele>1386.3599999999999</ele>
        <time>2018-06-19T13:03:12Z</time>
      </trkpt>
      <trkpt lat="46.037258338183165" lon="8.070117076858878">
        <ele>1385.4000000000001</ele>
        <time>2018-06-19T13:03:03Z</time>
      </trkpt>
      <trkpt lat="46.037190780043602" lon="8.070010542869568">
        <ele>1385.4000000000001</ele>
        <time>2018-06-19T13:02:53Z</time>
      </trkpt>
      <trkpt lat="46.037104446440935" lon="8.069903841242194">
        <ele>1385.8800000000001</ele>
        <time>2018-06-19T13:02:42Z</time>
      </trkpt>
      <trkpt lat="46.037017442286015" lon="8.069816837087274">
        <ele>1386.8399999999999</ele>
        <time>2018-06-19T13:02:34Z</time>
      </trkpt>
      <trkpt lat="46.037011994048953" lon="8.069795966148377">
        <ele>1386.8399999999999</ele>
        <time>2018-06-19T13:02:32Z</time>
      </trkpt>
      <trkpt lat="46.037016101181507" lon="8.069771742448211">
        <ele>1387.8</ele>
        <time>2018-06-19T13:02:29Z</time>
      </trkpt>
      <trkpt lat="46.037000846117735" lon="8.069628914818168">
        <ele>1388.76</ele>
        <time>2018-06-19T13:02:18Z</time>
      </trkpt>
      <trkpt lat="46.036958182230592" lon="8.069470832124353">
        <ele>1389.72</ele>
        <time>2018-06-19T13:02:07Z</time>
      </trkpt>
      <trkpt lat="46.03693513199687" lon="8.069413164630532">
        <ele>1390.6800000000001</ele>
        <time>2018-06-19T13:02:02Z</time>
      </trkpt>
      <trkpt lat="46.036943513900042" lon="8.069287771359086">
        <ele>1392.1300000000001</ele>
        <time>2018-06-19T13:01:51Z</time>
      </trkpt>
      <trkpt lat="46.036951979622245" lon="8.069250304251909">
        <ele>1393.5699999999999</ele>
        <time>2018-06-19T13:01:48Z</time>
      </trkpt>
      <trkpt lat="46.036955919116735" lon="8.069234630092979">
        <ele>1393.5699999999999</ele>
        <time>2018-06-19T13:01:47Z</time>
      </trkpt>
      <trkpt lat="46.036928510293365" lon="8.069114852696657">
        <ele>1395.01</ele>
        <time>2018-06-19T13:01:38Z</time>
      </trkpt>
      <trkpt lat="46.036879057064652" lon="8.068952830508351">
        <ele>1396.45</ele>
        <time>2018-06-19T13:01:28Z</time>
      </trkpt>
      <trkpt lat="46.036858940497041" lon="8.068833304569125">
        <ele>1397.8900000000001</ele>
        <time>2018-06-19T13:01:21Z</time>
      </trkpt>
      <trkpt lat="46.036801021546125" lon="8.068803548812866">
        <ele>1399.3399999999999</ele>
        <time>2018-06-19T13:01:13Z</time>
      </trkpt>
      <trkpt lat="46.036762800067663" lon="8.068675138056278">
        <ele>1401.26</ele>
        <time>2018-06-19T13:01:02Z</time>
      </trkpt>
      <trkpt lat="46.036745281890035" lon="8.068652506917715">
        <ele>1401.74</ele>
        <time>2018-06-19T13:00:59Z</time>
      </trkpt>
      <trkpt lat="46.03672944009304" lon="8.068544464185834">
        <ele>1403.6600000000001</ele>
        <time>2018-06-19T13:00:49Z</time>
      </trkpt>
      <trkpt lat="46.036731032654643" lon="8.06853742338717">
        <ele>1403.6600000000001</ele>
        <time>2018-06-19T13:00:48Z</time>
      </trkpt>
      <trkpt lat="46.036713095381856" lon="8.068420831114054">
        <ele>1406.0699999999999</ele>
        <time>2018-06-19T13:00:38Z</time>
      </trkpt>
      <trkpt lat="46.03667906485498" lon="8.068327456712723">
        <ele>1407.99</ele>
        <time>2018-06-19T13:00:30Z</time>
      </trkpt>
      <trkpt lat="46.036640256643295" lon="8.068255120888352">
        <ele>1409.4300000000001</ele>
        <time>2018-06-19T13:00:25Z</time>
      </trkpt>
      <trkpt lat="46.036636987701058" lon="8.068243805319071">
        <ele>1409.4300000000001</ele>
        <time>2018-06-19T13:00:22Z</time>
      </trkpt>
      <trkpt lat="46.03662290610373" lon="8.068164512515068">
        <ele>1410.8699999999999</ele>
        <time>2018-06-19T13:00:11Z</time>
      </trkpt>
      <trkpt lat="46.03658527135849" lon="8.068032329902053">
        <ele>1413.28</ele>
        <time>2018-06-19T13:00:00Z</time>
      </trkpt>
      <trkpt lat="46.036565657705069" lon="8.067943314090371">
        <ele>1416.1600000000001</ele>
        <time>2018-06-19T12:59:50Z</time>
      </trkpt>
      <trkpt lat="46.036553923040628" lon="8.067899476736784">
        <ele>1417.1199999999999</ele>
        <time>2018-06-19T12:59:46Z</time>
      </trkpt>
      <trkpt lat="46.036559036001563" lon="8.067888077348471">
        <ele>1418.0799999999999</ele>
        <time>2018-06-19T12:59:35Z</time>
      </trkpt>
      <trkpt lat="46.036575296893716" lon="8.067904086783528">
        <ele>1417.1199999999999</ele>
        <time>2018-06-19T12:59:21Z</time>
      </trkpt>
      <trkpt lat="46.036572949960828" lon="8.067872067913413">
        <ele>1417.5999999999999</ele>
        <time>2018-06-19T12:59:02Z</time>
      </trkpt>
      <trkpt lat="46.036576218903065" lon="8.067850610241294">
        <ele>1418.0799999999999</ele>
        <time>2018-06-19T12:58:53Z</time>
      </trkpt>
      <trkpt lat="46.036520395427942" lon="8.067784309387207">
        <ele>1419.04</ele>
        <time>2018-06-19T12:58:42Z</time>
      </trkpt>
      <trkpt lat="46.036442946642637" lon="8.067721948027611">
        <ele>1419.52</ele>
        <time>2018-06-19T12:58:32Z</time>
      </trkpt>
      <trkpt lat="46.036448646336794" lon="8.06772287003696">
        <ele>1420</ele>
        <time>2018-06-19T12:58:21Z</time>
      </trkpt>
      <trkpt lat="46.036446383222938" lon="8.067740807309747">
        <ele>1420.49</ele>
        <time>2018-06-19T12:58:12Z</time>
      </trkpt>
      <trkpt lat="46.036392487585545" lon="8.067693114280701">
        <ele>1420.97</ele>
        <time>2018-06-19T12:58:00Z</time>
      </trkpt>
      <trkpt lat="46.036359211429954" lon="8.067670315504074">
        <ele>1420.97</ele>
        <time>2018-06-19T12:57:57Z</time>
      </trkpt>
      <trkpt lat="46.036341022700071" lon="8.067673584446311">
        <ele>1420.97</ele>
        <time>2018-06-19T12:57:53Z</time>
      </trkpt>
      <trkpt lat="46.036282097920775" lon="8.06769504211843">
        <ele>1420</ele>
        <time>2018-06-19T12:57:44Z</time>
      </trkpt>
      <trkpt lat="46.036272123456001" lon="8.067690599709749">
        <ele>1420</ele>
        <time>2018-06-19T12:57:43Z</time>
      </trkpt>
      <trkpt lat="46.036191070452332" lon="8.067756481468678">
        <ele>1421.9300000000001</ele>
        <time>2018-06-19T12:57:33Z</time>
      </trkpt>
      <trkpt lat="46.0361841134727" lon="8.067763103172183">
        <ele>1421.9300000000001</ele>
        <time>2018-06-19T12:57:32Z</time>
      </trkpt>
      <trkpt lat="46.036097276955843" lon="8.067769054323435">
        <ele>1424.3299999999999</ele>
        <time>2018-06-19T12:57:21Z</time>
      </trkpt>
      <trkpt lat="46.036034999415278" lon="8.067689845338464">
        <ele>1424.3299999999999</ele>
        <time>2018-06-19T12:57:12Z</time>
      </trkpt>
      <trkpt lat="46.035952856764197" lon="8.067628741264343">
        <ele>1424.8099999999999</ele>
        <time>2018-06-19T12:57:06Z</time>
      </trkpt>
      <trkpt lat="46.035826457664371" lon="8.067587837576866">
        <ele>1426.73</ele>
        <time>2018-06-19T12:56:57Z</time>
      </trkpt>
      <trkpt lat="46.035677762702107" lon="8.067519692704082">
        <ele>1427.21</ele>
        <time>2018-06-19T12:56:42Z</time>
      </trkpt>
      <trkpt lat="46.035624369978905" lon="8.067491864785552">
        <ele>1426.73</ele>
        <time>2018-06-19T12:56:37Z</time>
      </trkpt>
      <trkpt lat="46.035618167370558" lon="8.067456157878041">
        <ele>1426.73</ele>
        <time>2018-06-19T12:56:35Z</time>
      </trkpt>
      <trkpt lat="46.03546972386539" lon="8.067465545609593">
        <ele>1427.21</ele>
        <time>2018-06-19T12:56:20Z</time>
      </trkpt>
      <trkpt lat="46.035358160734177" lon="8.067474011331797">
        <ele>1427.21</ele>
        <time>2018-06-19T12:56:11Z</time>
      </trkpt>
      <trkpt lat="46.035245843231678" lon="8.067444590851665">
        <ele>1426.25</ele>
        <time>2018-06-19T12:56:00Z</time>
      </trkpt>
      <trkpt lat="46.035100165754557" lon="8.067406369373202">
        <ele>1426.25</ele>
        <time>2018-06-19T12:55:49Z</time>
      </trkpt>
      <trkpt lat="46.034976951777935" lon="8.06729824282229">
        <ele>1427.21</ele>
        <time>2018-06-19T12:55:38Z</time>
      </trkpt>
      <trkpt lat="46.034935377538204" lon="8.067246107384563">
        <ele>1426.73</ele>
        <time>2018-06-19T12:55:33Z</time>
      </trkpt>
      <trkpt lat="46.03492490015924" lon="8.067185673862696">
        <ele>1426.73</ele>
        <time>2018-06-19T12:55:29Z</time>
      </trkpt>
      <trkpt lat="46.034894557669759" lon="8.067085007205606">
        <ele>1426.73</ele>
        <time>2018-06-19T12:55:22Z</time>
      </trkpt>
      <trkpt lat="46.034879051148891" lon="8.067023986950517">
        <ele>1426.73</ele>
        <time>2018-06-19T12:55:18Z</time>
      </trkpt>
      <trkpt lat="46.034819120541215" lon="8.066870430484414">
        <ele>1426.73</ele>
        <time>2018-06-19T12:55:09Z</time>
      </trkpt>
      <trkpt lat="46.034788778051734" lon="8.066765740513802">
        <ele>1427.21</ele>
        <time>2018-06-19T12:55:02Z</time>
      </trkpt>
      <trkpt lat="46.034747622907162" lon="8.066731877624989">
        <ele>1427.21</ele>
        <time>2018-06-19T12:54:58Z</time>
      </trkpt>
      <trkpt lat="46.034704875200987" lon="8.066669516265392">
        <ele>1427.7</ele>
        <time>2018-06-19T12:54:53Z</time>
      </trkpt>
      <trkpt lat="46.034699426963925" lon="8.066525766626">
        <ele>1427.21</ele>
        <time>2018-06-19T12:54:45Z</time>
      </trkpt>
      <trkpt lat="46.034692889079452" lon="8.066477654501796">
        <ele>1427.21</ele>
        <time>2018-06-19T12:54:42Z</time>
      </trkpt>
      <trkpt lat="46.034680064767599" lon="8.066449323669076">
        <ele>1427.21</ele>
        <time>2018-06-19T12:54:35Z</time>
      </trkpt>
      <trkpt lat="46.034646537154913" lon="8.066431051120162">
        <ele>1427.21</ele>
        <time>2018-06-19T12:54:24Z</time>
      </trkpt>
      <trkpt lat="46.034563472494483" lon="8.066354272887111">
        <ele>1426.73</ele>
        <time>2018-06-19T12:54:14Z</time>
      </trkpt>
      <trkpt lat="46.034506307914853" lon="8.066204572096467">
        <ele>1428.1800000000001</ele>
        <time>2018-06-19T12:54:03Z</time>
      </trkpt>
      <trkpt lat="46.03445291519165" lon="8.066143468022347">
        <ele>1428.6600000000001</ele>
        <time>2018-06-19T12:53:57Z</time>
      </trkpt>
      <trkpt lat="46.034431289881468" lon="8.066101474687457">
        <ele>1429.6199999999999</ele>
        <time>2018-06-19T12:53:54Z</time>
      </trkpt>
      <trkpt lat="46.034414609894156" lon="8.06605470366776">
        <ele>1431.0599999999999</ele>
        <time>2018-06-19T12:53:51Z</time>
      </trkpt>
      <trkpt lat="46.034352499991655" lon="8.065947163850069">
        <ele>1430.5799999999999</ele>
        <time>2018-06-19T12:53:43Z</time>
      </trkpt>
      <trkpt lat="46.03431754745543" lon="8.065906930714846">
        <ele>1431.54</ele>
        <time>2018-06-19T12:53:39Z</time>
      </trkpt>
      <trkpt lat="46.034228280186653" lon="8.0657659471035">
        <ele>1433.46</ele>
        <time>2018-06-19T12:53:27Z</time>
      </trkpt>
      <trkpt lat="46.034224843606353" lon="8.0657331738621">
        <ele>1433.46</ele>
        <time>2018-06-19T12:53:25Z</time>
      </trkpt>
      <trkpt lat="46.034142533317208" lon="8.065653461962938">
        <ele>1434.4200000000001</ele>
        <time>2018-06-19T12:53:15Z</time>
      </trkpt>
      <trkpt lat="46.034014541655779" lon="8.065616665408015">
        <ele>1435.3900000000001</ele>
        <time>2018-06-19T12:53:06Z</time>
      </trkpt>
      <trkpt lat="46.033915467560291" lon="8.065511891618371">
        <ele>1436.8299999999999</ele>
        <time>2018-06-19T12:52:56Z</time>
      </trkpt>
      <trkpt lat="46.033840617164969" lon="8.065412901341915">
        <ele>1437.3099999999999</ele>
        <time>2018-06-19T12:52:48Z</time>
      </trkpt>
      <trkpt lat="46.033829553052783" lon="8.065409464761615">
        <ele>1437.3099999999999</ele>
        <time>2018-06-19T12:52:47Z</time>
      </trkpt>
      <trkpt lat="46.033725533634424" lon="8.065353557467461">
        <ele>1438.27</ele>
        <time>2018-06-19T12:52:38Z</time>
      </trkpt>
      <trkpt lat="46.033699298277497" lon="8.065322544425726">
        <ele>1438.27</ele>
        <time>2018-06-19T12:52:35Z</time>
      </trkpt>
      <trkpt lat="46.033593183383346" lon="8.065093802288175">
        <ele>1439.23</ele>
        <time>2018-06-19T12:52:22Z</time>
      </trkpt>
      <trkpt lat="46.033529648557305" lon="8.065033704042435">
        <ele>1439.23</ele>
        <time>2018-06-19T12:52:14Z</time>
      </trkpt>
      <trkpt lat="46.033419845625758" lon="8.064943263307214">
        <ele>1440.1900000000001</ele>
        <time>2018-06-19T12:52:02Z</time>
      </trkpt>
      <trkpt lat="46.033369973301888" lon="8.064835220575333">
        <ele>1440.1900000000001</ele>
        <time>2018-06-19T12:51:55Z</time>
      </trkpt>
      <trkpt lat="46.03335153311491" lon="8.064807476475835">
        <ele>1440.1900000000001</ele>
        <time>2018-06-19T12:51:52Z</time>
      </trkpt>
      <trkpt lat="46.03326846845448" lon="8.064616452902556">
        <ele>1440.6700000000001</ele>
        <time>2018-06-19T12:51:39Z</time>
      </trkpt>
      <trkpt lat="46.033216081559658" lon="8.064568843692541">
        <ele>1441.6300000000001</ele>
        <time>2018-06-19T12:51:34Z</time>
      </trkpt>
      <trkpt lat="46.033121114596725" lon="8.064469769597054">
        <ele>1443.0799999999999</ele>
        <time>2018-06-19T12:51:24Z</time>
      </trkpt>
      <trkpt lat="46.032945597544312" lon="8.064366253092885">
        <ele>1445.48</ele>
        <time>2018-06-19T12:51:09Z</time>
      </trkpt>
      <trkpt lat="46.032923134043813" lon="8.064347729086876">
        <ele>1445.96</ele>
        <time>2018-06-19T12:51:07Z</time>
      </trkpt>
      <trkpt lat="46.032869406044483" lon="8.064326606690884">
        <ele>1447.4000000000001</ele>
        <time>2018-06-19T12:51:03Z</time>
      </trkpt>
      <trkpt lat="46.032776786014438" lon="8.064316129311919">
        <ele>1448.3599999999999</ele>
        <time>2018-06-19T12:50:56Z</time>
      </trkpt>
      <trkpt lat="46.03264887817204" lon="8.064259048551321">
        <ele>1450.77</ele>
        <time>2018-06-19T12:50:46Z</time>
      </trkpt>
      <trkpt lat="46.032614009454846" lon="8.064255444332957">
        <ele>1451.73</ele>
        <time>2018-06-19T12:50:42Z</time>
      </trkpt>
      <trkpt lat="46.032518539577723" lon="8.06424530223012">
        <ele>1453.6500000000001</ele>
        <time>2018-06-19T12:50:30Z</time>
      </trkpt>
      <trkpt lat="46.032426506280899" lon="8.064229963347316">
        <ele>1455.5699999999999</ele>
        <time>2018-06-19T12:50:18Z</time>
      </trkpt>
      <trkpt lat="46.032316870987415" lon="8.064148491248488">
        <ele>1457.5</ele>
        <time>2018-06-19T12:50:07Z</time>
      </trkpt>
      <trkpt lat="46.032234225422144" lon="8.06414220482111">
        <ele>1458.46</ele>
        <time>2018-06-19T12:50:00Z</time>
      </trkpt>
      <trkpt lat="46.032158536836505" lon="8.064107419922948">
        <ele>1458.9400000000001</ele>
        <time>2018-06-19T12:49:54Z</time>
      </trkpt>
      <trkpt lat="46.032014116644859" lon="8.064079256728292">
        <ele>1461.3399999999999</ele>
        <time>2018-06-19T12:49:43Z</time>
      </trkpt>
      <trkpt lat="46.031913366168737" lon="8.064077747985721">
        <ele>1461.8199999999999</ele>
        <time>2018-06-19T12:49:34Z</time>
      </trkpt>
      <trkpt lat="46.03178596124053" lon="8.064078502357006">
        <ele>1464.23</ele>
        <time>2018-06-19T12:49:24Z</time>
      </trkpt>
      <trkpt lat="46.031710607931018" lon="8.064162656664848">
        <ele>1466.1500000000001</ele>
        <time>2018-06-19T12:49:16Z</time>
      </trkpt>
      <trkpt lat="46.031627375632524" lon="8.064169446006417">
        <ele>1469.03</ele>
        <time>2018-06-19T12:49:06Z</time>
      </trkpt>
      <trkpt lat="46.0315509326756" lon="8.064072551205754">
        <ele>1471.9200000000001</ele>
        <time>2018-06-19T12:48:57Z</time>
      </trkpt>
      <trkpt lat="46.031468622386456" lon="8.064021086320281">
        <ele>1474.3199999999999</ele>
        <time>2018-06-19T12:48:49Z</time>
      </trkpt>
      <trkpt lat="46.03134130127728" lon="8.064006250351667">
        <ele>1476.72</ele>
        <time>2018-06-19T12:48:36Z</time>
      </trkpt>
      <trkpt lat="46.031311796978116" lon="8.064011614769697">
        <ele>1476.72</ele>
        <time>2018-06-19T12:48:33Z</time>
      </trkpt>
      <trkpt lat="46.031168634071946" lon="8.063970627263188">
        <ele>1477.6800000000001</ele>
        <time>2018-06-19T12:48:23Z</time>
      </trkpt>
      <trkpt lat="46.031142733991146" lon="8.063982948660851">
        <ele>1478.1600000000001</ele>
        <time>2018-06-19T12:48:20Z</time>
      </trkpt>
      <trkpt lat="46.031044078990817" lon="8.063967945054174">
        <ele>1479.1300000000001</ele>
        <time>2018-06-19T12:48:10Z</time>
      </trkpt>
      <trkpt lat="46.030938718467951" lon="8.063929220661521">
        <ele>1480.0899999999999</ele>
        <time>2018-06-19T12:48:00Z</time>
      </trkpt>
      <trkpt lat="46.030887421220541" lon="8.063959730789065">
        <ele>1481.05</ele>
        <time>2018-06-19T12:47:54Z</time>
      </trkpt>
      <trkpt lat="46.0307945497334" lon="8.064061235636473">
        <ele>1482.49</ele>
        <time>2018-06-19T12:47:41Z</time>
      </trkpt>
      <trkpt lat="46.030724728479981" lon="8.064042460173369">
        <ele>1483.45</ele>
        <time>2018-06-19T12:47:36Z</time>
      </trkpt>
      <trkpt lat="46.03070561774075" lon="8.06405327282846">
        <ele>1483.45</ele>
        <time>2018-06-19T12:47:34Z</time>
      </trkpt>
      <trkpt lat="46.030593384057283" lon="8.06407623924315">
        <ele>1484.4100000000001</ele>
        <time>2018-06-19T12:47:24Z</time>
      </trkpt>
      <trkpt lat="46.030394062399864" lon="8.064122591167688">
        <ele>1485.8499999999999</ele>
        <time>2018-06-19T12:47:12Z</time>
      </trkpt>
      <trkpt lat="46.03038601577282" lon="8.064112951979041">
        <ele>1486.3399999999999</ele>
        <time>2018-06-19T12:47:11Z</time>
      </trkpt>
      <trkpt lat="46.030292306095362" lon="8.063957635313273">
        <ele>1488.74</ele>
        <time>2018-06-19T12:46:59Z</time>
      </trkpt>
      <trkpt lat="46.030222736299038" lon="8.063909523189068">
        <ele>1487.78</ele>
        <time>2018-06-19T12:46:50Z</time>
      </trkpt>
      <trkpt lat="46.030214186757803" lon="8.063902147114277">
        <ele>1487.78</ele>
        <time>2018-06-19T12:46:49Z</time>
      </trkpt>
      <trkpt lat="46.030099773779511" lon="8.063833583146334">
        <ele>1488.74</ele>
        <time>2018-06-19T12:46:39Z</time>
      </trkpt>
      <trkpt lat="46.029995586723089" lon="8.063790751621127">
        <ele>1489.7</ele>
        <time>2018-06-19T12:46:29Z</time>
      </trkpt>
      <trkpt lat="46.029906738549471" lon="8.063719421625137">
        <ele>1490.1800000000001</ele>
        <time>2018-06-19T12:46:21Z</time>
      </trkpt>
      <trkpt lat="46.029877485707402" lon="8.063678853213787">
        <ele>1489.7</ele>
        <time>2018-06-19T12:46:17Z</time>
      </trkpt>
      <trkpt lat="46.029791235923767" lon="8.06360425427556">
        <ele>1489.22</ele>
        <time>2018-06-19T12:46:08Z</time>
      </trkpt>
      <trkpt lat="46.029741279780865" lon="8.063547089695931">
        <ele>1489.22</ele>
        <time>2018-06-19T12:46:03Z</time>
      </trkpt>
      <trkpt lat="46.029717475175858" lon="8.063512891530991">
        <ele>1489.22</ele>
        <time>2018-06-19T12:46:00Z</time>
      </trkpt>
      <trkpt lat="46.029591411352158" lon="8.063374757766724">
        <ele>1489.22</ele>
        <time>2018-06-19T12:45:48Z</time>
      </trkpt>
      <trkpt lat="46.029556710273027" lon="8.063321951776743">
        <ele>1489.22</ele>
        <time>2018-06-19T12:45:44Z</time>
      </trkpt>
      <trkpt lat="46.029524188488722" lon="8.063262356445193">
        <ele>1491.1400000000001</ele>
        <time>2018-06-19T12:45:39Z</time>
      </trkpt>
      <trkpt lat="46.029458977282047" lon="8.063118774443865">
        <ele>1491.1400000000001</ele>
        <time>2018-06-19T12:45:31Z</time>
      </trkpt>
      <trkpt lat="46.029426455497742" lon="8.063028333708644">
        <ele>1491.6199999999999</ele>
        <time>2018-06-19T12:45:24Z</time>
      </trkpt>
      <trkpt lat="46.029390078037977" lon="8.062963373959065">
        <ele>1491.6199999999999</ele>
        <time>2018-06-19T12:45:20Z</time>
      </trkpt>
      <trkpt lat="46.029379433020949" lon="8.062882740050554">
        <ele>1492.0999999999999</ele>
        <time>2018-06-19T12:45:14Z</time>
      </trkpt>
      <trkpt lat="46.029298882931471" lon="8.062755754217506">
        <ele>1493.55</ele>
        <time>2018-06-19T12:45:04Z</time>
      </trkpt>
      <trkpt lat="46.029273234307766" lon="8.062727926298976">
        <ele>1494.03</ele>
        <time>2018-06-19T12:45:01Z</time>
      </trkpt>
      <trkpt lat="46.029252782464027" lon="8.062675790861249">
        <ele>1494.03</ele>
        <time>2018-06-19T12:44:57Z</time>
      </trkpt>
      <trkpt lat="46.029229061678052" lon="8.062644777819514">
        <ele>1494.03</ele>
        <time>2018-06-19T12:44:54Z</time>
      </trkpt>
      <trkpt lat="46.029233084991574" lon="8.062628684565425">
        <ele>1494.03</ele>
        <time>2018-06-19T12:44:43Z</time>
      </trkpt>
      <trkpt lat="46.02915178053081" lon="8.062538830563426">
        <ele>1494.03</ele>
        <time>2018-06-19T12:44:32Z</time>
      </trkpt>
      <trkpt lat="46.029122360050678" lon="8.062494406476617">
        <ele>1494.03</ele>
        <time>2018-06-19T12:44:26Z</time>
      </trkpt>
      <trkpt lat="46.029097801074386" lon="8.062479738146067">
        <ele>1494.03</ele>
        <time>2018-06-19T12:44:16Z</time>
      </trkpt>
      <trkpt lat="46.029070308431983" lon="8.062453083693981">
        <ele>1494.03</ele>
        <time>2018-06-19T12:44:03Z</time>
      </trkpt>
      <trkpt lat="46.029060669243336" lon="8.062478480860591">
        <ele>1494.03</ele>
        <time>2018-06-19T12:43:57Z</time>
      </trkpt>
      <trkpt lat="46.029073828831315" lon="8.062470853328705">
        <ele>1493.0599999999999</ele>
        <time>2018-06-19T12:43:39Z</time>
      </trkpt>
      <trkpt lat="46.029067626222968" lon="8.062473619356751">
        <ele>1494.51</ele>
        <time>2018-06-19T12:43:30Z</time>
      </trkpt>
      <trkpt lat="46.029053712263703" lon="8.06243984028697">
        <ele>1494.51</ele>
        <time>2018-06-19T12:43:20Z</time>
      </trkpt>
      <trkpt lat="46.029037870466709" lon="8.062216462567449">
        <ele>1495.95</ele>
        <time>2018-06-19T12:43:08Z</time>
      </trkpt>
      <trkpt lat="46.029083551838994" lon="8.06205821223557">
        <ele>1498.8299999999999</ele>
        <time>2018-06-19T12:42:59Z</time>
      </trkpt>
      <trkpt lat="46.029033847153187" lon="8.061940781772137">
        <ele>1499.79</ele>
        <time>2018-06-19T12:42:48Z</time>
      </trkpt>
      <trkpt lat="46.028992105275393" lon="8.061842378228903">
        <ele>1500.27</ele>
        <time>2018-06-19T12:42:41Z</time>
      </trkpt>
      <trkpt lat="46.028966456651688" lon="8.061822261661291">
        <ele>1500.76</ele>
        <time>2018-06-19T12:42:39Z</time>
      </trkpt>
      <trkpt lat="46.028912058100104" lon="8.061798959970474">
        <ele>1500.76</ele>
        <time>2018-06-19T12:42:35Z</time>
      </trkpt>
      <trkpt lat="46.028890935704112" lon="8.061753446236253">
        <ele>1500.76</ele>
        <time>2018-06-19T12:42:32Z</time>
      </trkpt>
      <trkpt lat="46.028854222968221" lon="8.061732491478324">
        <ele>1500.76</ele>
        <time>2018-06-19T12:42:28Z</time>
      </trkpt>
      <trkpt lat="46.028757579624653" lon="8.061668453738093">
        <ele>1500.76</ele>
        <time>2018-06-19T12:42:17Z</time>
      </trkpt>
      <trkpt lat="46.028679460287094" lon="8.061611037701368">
        <ele>1500.27</ele>
        <time>2018-06-19T12:42:09Z</time>
      </trkpt>
      <trkpt lat="46.028581224381924" lon="8.061525458469987">
        <ele>1500.76</ele>
        <time>2018-06-19T12:41:59Z</time>
      </trkpt>
      <trkpt lat="46.028518611565232" lon="8.061430994421244">
        <ele>1502.6800000000001</ele>
        <time>2018-06-19T12:41:51Z</time>
      </trkpt>
      <trkpt lat="46.028500841930509" lon="8.061406183987856">
        <ele>1503.1600000000001</ele>
        <time>2018-06-19T12:41:49Z</time>
      </trkpt>
      <trkpt lat="46.028411742299795" lon="8.061321945860982">
        <ele>1504.1199999999999</ele>
        <time>2018-06-19T12:41:40Z</time>
      </trkpt>
      <trkpt lat="46.028366396203637" lon="8.06126612238586">
        <ele>1505.5599999999999</ele>
        <time>2018-06-19T12:41:35Z</time>
      </trkpt>
      <trkpt lat="46.0282560903579" lon="8.061175178736448">
        <ele>1508.9300000000001</ele>
        <time>2018-06-19T12:41:24Z</time>
      </trkpt>
      <trkpt lat="46.028188448399305" lon="8.061072500422597">
        <ele>1511.3299999999999</ele>
        <time>2018-06-19T12:41:15Z</time>
      </trkpt>
      <trkpt lat="46.028162715956569" lon="8.061054311692715">
        <ele>1511.8099999999999</ele>
        <time>2018-06-19T12:41:12Z</time>
      </trkpt>
      <trkpt lat="46.028085267171264" lon="8.060962781310082">
        <ele>1514.21</ele>
        <time>2018-06-19T12:41:02Z</time>
      </trkpt>
      <trkpt lat="46.028002621605992" lon="8.060908885672689">
        <ele>1515.6600000000001</ele>
        <time>2018-06-19T12:40:54Z</time>
      </trkpt>
      <trkpt lat="46.027973452582955" lon="8.060858678072691">
        <ele>1516.1400000000001</ele>
        <time>2018-06-19T12:40:50Z</time>
      </trkpt>
      <trkpt lat="46.027893237769604" lon="8.060743845999241">
        <ele>1516.6199999999999</ele>
        <time>2018-06-19T12:40:41Z</time>
      </trkpt>
      <trkpt lat="46.027875300496817" lon="8.060728339478374">
        <ele>1516.6199999999999</ele>
        <time>2018-06-19T12:40:39Z</time>
      </trkpt>
      <trkpt lat="46.027781004086137" lon="8.060605293139815">
        <ele>1517.5799999999999</ele>
        <time>2018-06-19T12:40:28Z</time>
      </trkpt>
      <trkpt lat="46.027723168954253" lon="8.06054200977087">
        <ele>1518.54</ele>
        <time>2018-06-19T12:40:23Z</time>
      </trkpt>
      <trkpt lat="46.027688048779964" lon="8.060488114133477">
        <ele>1518.54</ele>
        <time>2018-06-19T12:40:18Z</time>
      </trkpt>
      <trkpt lat="46.027667596936226" lon="8.060462214052677">
        <ele>1519.02</ele>
        <time>2018-06-19T12:40:16Z</time>
      </trkpt>
      <trkpt lat="46.027572881430387" lon="8.06038317270577">
        <ele>1519.02</ele>
        <time>2018-06-19T12:40:07Z</time>
      </trkpt>
      <trkpt lat="46.027527451515198" lon="8.060276471078396">
        <ele>1518.54</ele>
        <time>2018-06-19T12:40:00Z</time>
      </trkpt>
      <trkpt lat="46.027470203116536" lon="8.06022877804935">
        <ele>1519.02</ele>
        <time>2018-06-19T12:39:54Z</time>
      </trkpt>
      <trkpt lat="46.02742837741971" lon="8.060177313163877">
        <ele>1518.54</ele>
        <time>2018-06-19T12:39:50Z</time>
      </trkpt>
      <trkpt lat="46.027384288609028" lon="8.0601173825562">
        <ele>1518.54</ele>
        <time>2018-06-19T12:39:44Z</time>
      </trkpt>
      <trkpt lat="46.027314383536577" lon="8.059971202164888">
        <ele>1519.02</ele>
        <time>2018-06-19T12:39:34Z</time>
      </trkpt>
      <trkpt lat="46.027224697172642" lon="8.059875229373574">
        <ele>1521.9000000000001</ele>
        <time>2018-06-19T12:39:23Z</time>
      </trkpt>
      <trkpt lat="46.027152864262462" lon="8.059822842478752">
        <ele>1522.3900000000001</ele>
        <time>2018-06-19T12:39:15Z</time>
      </trkpt>
      <trkpt lat="46.027139956131577" lon="8.059809850528836">
        <ele>1522.8699999999999</ele>
        <time>2018-06-19T12:39:12Z</time>
      </trkpt>
      <trkpt lat="46.027123862877488" lon="8.059813790023327">
        <ele>1522.8699999999999</ele>
        <time>2018-06-19T12:38:56Z</time>
      </trkpt>
      <trkpt lat="46.027103830128908" lon="8.059767773374915">
        <ele>1524.3099999999999</ele>
        <time>2018-06-19T12:38:47Z</time>
      </trkpt>
      <trkpt lat="46.027027890086174" lon="8.059656545519829">
        <ele>1526.71</ele>
        <time>2018-06-19T12:38:36Z</time>
      </trkpt>
      <trkpt lat="46.027009030804038" lon="8.059632908552885">
        <ele>1527.1900000000001</ele>
        <time>2018-06-19T12:38:34Z</time>
      </trkpt>
      <trkpt lat="46.026970976963639" lon="8.059595106169581">
        <ele>1527.6700000000001</ele>
        <time>2018-06-19T12:38:30Z</time>
      </trkpt>
      <trkpt lat="46.026882212609053" lon="8.059512628242374">
        <ele>1528.1500000000001</ele>
        <time>2018-06-19T12:38:22Z</time>
      </trkpt>
      <trkpt lat="46.026737038046122" lon="8.059441298246384">
        <ele>1528.1500000000001</ele>
        <time>2018-06-19T12:38:10Z</time>
      </trkpt>
      <trkpt lat="46.026678029447794" lon="8.059403663501144">
        <ele>1528.1500000000001</ele>
        <time>2018-06-19T12:38:05Z</time>
      </trkpt>
      <trkpt lat="46.026669647544622" lon="8.059399891644716">
        <ele>1529.1099999999999</ele>
        <time>2018-06-19T12:38:04Z</time>
      </trkpt>
      <trkpt lat="46.026559509336948" lon="8.059292603284121">
        <ele>1529.5899999999999</ele>
        <time>2018-06-19T12:37:52Z</time>
      </trkpt>
      <trkpt lat="46.026472756639123" lon="8.059242395684123">
        <ele>1530.5599999999999</ele>
        <time>2018-06-19T12:37:44Z</time>
      </trkpt>
      <trkpt lat="46.026385668665171" lon="8.059091940522194">
        <ele>1530.5599999999999</ele>
        <time>2018-06-19T12:37:32Z</time>
      </trkpt>
      <trkpt lat="46.026344764977694" lon="8.059024047106504">
        <ele>1531.04</ele>
        <time>2018-06-19T12:37:26Z</time>
      </trkpt>
      <trkpt lat="46.026275781914592" lon="8.058880800381303">
        <ele>1530.5599999999999</ele>
        <time>2018-06-19T12:37:15Z</time>
      </trkpt>
      <trkpt lat="46.026223143562675" lon="8.058780217543244">
        <ele>1530.5599999999999</ele>
        <time>2018-06-19T12:37:04Z</time>
      </trkpt>
      <trkpt lat="46.026175366714597" lon="8.058645017445087">
        <ele>1532</ele>
        <time>2018-06-19T12:36:53Z</time>
      </trkpt>
      <trkpt lat="46.026121387258172" lon="8.058527670800686">
        <ele>1532.96</ele>
        <time>2018-06-19T12:36:44Z</time>
      </trkpt>
      <trkpt lat="46.026091128587723" lon="8.058389201760292">
        <ele>1533.4400000000001</ele>
        <time>2018-06-19T12:36:35Z</time>
      </trkpt>
      <trkpt lat="46.026032790541649" lon="8.058310076594353">
        <ele>1534.4000000000001</ele>
        <time>2018-06-19T12:36:27Z</time>
      </trkpt>
      <trkpt lat="46.025924999266863" lon="8.058272860944271">
        <ele>1536.3199999999999</ele>
        <time>2018-06-19T12:36:16Z</time>
      </trkpt>
      <trkpt lat="46.025821985676885" lon="8.058262383565307">
        <ele>1538.73</ele>
        <time>2018-06-19T12:36:05Z</time>
      </trkpt>
      <trkpt lat="46.025751912966371" lon="8.058237656950951">
        <ele>1541.1300000000001</ele>
        <time>2018-06-19T12:35:56Z</time>
      </trkpt>
      <trkpt lat="46.025651413947344" lon="8.05821854621172">
        <ele>1543.53</ele>
        <time>2018-06-19T12:35:46Z</time>
      </trkpt>
      <trkpt lat="46.025621658191085" lon="8.05818434804678">
        <ele>1544.98</ele>
        <time>2018-06-19T12:35:42Z</time>
      </trkpt>
      <trkpt lat="46.025589471682906" lon="8.058096589520574">
        <ele>1546.4200000000001</ele>
        <time>2018-06-19T12:35:32Z</time>
      </trkpt>
      <trkpt lat="46.025608582422137" lon="8.058051075786352">
        <ele>1549.3</ele>
        <time>2018-06-19T12:35:22Z</time>
      </trkpt>
      <trkpt lat="46.025608917698264" lon="8.057906152680516">
        <ele>1551.71</ele>
        <time>2018-06-19T12:35:10Z</time>
      </trkpt>
      <trkpt lat="46.025582514703274" lon="8.057812359184027">
        <ele>1553.1500000000001</ele>
        <time>2018-06-19T12:35:01Z</time>
      </trkpt>
      <trkpt lat="46.02552954107523" lon="8.057736251503229">
        <ele>1554.1099999999999</ele>
        <time>2018-06-19T12:34:53Z</time>
      </trkpt>
      <trkpt lat="46.02545041590929" lon="8.057630555704236">
        <ele>1556.03</ele>
        <time>2018-06-19T12:34:43Z</time>
      </trkpt>
      <trkpt lat="46.025428958237171" lon="8.05759996175766">
        <ele>1556.51</ele>
        <time>2018-06-19T12:34:37Z</time>
      </trkpt>
      <trkpt lat="46.025346228852868" lon="8.05752569809556">
        <ele>1557.95</ele>
        <time>2018-06-19T12:34:27Z</time>
      </trkpt>
      <trkpt lat="46.02528621442616" lon="8.057418074458838">
        <ele>1558.4300000000001</ele>
        <time>2018-06-19T12:34:16Z</time>
      </trkpt>
      <trkpt lat="46.025283699855208" lon="8.05741036310792">
        <ele>1558.9200000000001</ele>
        <time>2018-06-19T12:34:15Z</time>
      </trkpt>
      <trkpt lat="46.02521731518209" lon="8.057366777211428">
        <ele>1560.3599999999999</ele>
        <time>2018-06-19T12:34:04Z</time>
      </trkpt>
      <trkpt lat="46.025200551375747" lon="8.05733609944582">
        <ele>1563.24</ele>
        <time>2018-06-19T12:34:01Z</time>
      </trkpt>
      <trkpt lat="46.025129053741693" lon="8.057279186323285">
        <ele>1563.24</ele>
        <time>2018-06-19T12:33:50Z</time>
      </trkpt>
      <trkpt lat="46.025050431489944" lon="8.057296117767692">
        <ele>1564.2</ele>
        <time>2018-06-19T12:33:41Z</time>
      </trkpt>
      <trkpt lat="46.024976084008813" lon="8.057254711166024">
        <ele>1565.1600000000001</ele>
        <time>2018-06-19T12:33:32Z</time>
      </trkpt>
      <trkpt lat="46.024960158392787" lon="8.057233253493905">
        <ele>1565.6400000000001</ele>
        <time>2018-06-19T12:33:30Z</time>
      </trkpt>
      <trkpt lat="46.024908442050219" lon="8.057096628472209">
        <ele>1568.53</ele>
        <time>2018-06-19T12:33:20Z</time>
      </trkpt>
      <trkpt lat="46.024877177551389" lon="8.057075925171375">
        <ele>1569.49</ele>
        <time>2018-06-19T12:33:16Z</time>
      </trkpt>
      <trkpt lat="46.024782126769423" lon="8.057008367031813">
        <ele>1572.3699999999999</ele>
        <time>2018-06-19T12:33:05Z</time>
      </trkpt>
      <trkpt lat="46.024709455668926" lon="8.057021023705602">
        <ele>1573.8199999999999</ele>
        <time>2018-06-19T12:32:58Z</time>
      </trkpt>
      <trkpt lat="46.02463535964489" lon="8.056957153603435">
        <ele>1576.7</ele>
        <time>2018-06-19T12:32:49Z</time>
      </trkpt>
      <trkpt lat="46.024540141224861" lon="8.056922452524304">
        <ele>1579.0999999999999</ele>
        <time>2018-06-19T12:32:38Z</time>
      </trkpt>
      <trkpt lat="46.024516001343727" lon="8.056893367320299">
        <ele>1580.0599999999999</ele>
        <time>2018-06-19T12:32:34Z</time>
      </trkpt>
      <trkpt lat="46.024477863684297" lon="8.056905269622803">
        <ele>1581.03</ele>
        <time>2018-06-19T12:32:23Z</time>
      </trkpt>
      <trkpt lat="46.024422543123364" lon="8.056878447532654">
        <ele>1583.4300000000001</ele>
        <time>2018-06-19T12:32:13Z</time>
      </trkpt>
      <trkpt lat="46.02433679625392" lon="8.056888673454523">
        <ele>1585.8299999999999</ele>
        <time>2018-06-19T12:32:02Z</time>
      </trkpt>
      <trkpt lat="46.024293042719364" lon="8.056888924911618">
        <ele>1587.27</ele>
        <time>2018-06-19T12:31:55Z</time>
      </trkpt>
      <trkpt lat="46.02425180375576" lon="8.056872999295592">
        <ele>1589.2</ele>
        <time>2018-06-19T12:31:46Z</time>
      </trkpt>
      <trkpt lat="46.024260269477963" lon="8.056766884401441">
        <ele>1591.5999999999999</ele>
        <time>2018-06-19T12:31:36Z</time>
      </trkpt>
      <trkpt lat="46.024271165952086" lon="8.056685663759708">
        <ele>1594</ele>
        <time>2018-06-19T12:31:27Z</time>
      </trkpt>
      <trkpt lat="46.024220455437899" lon="8.05664861574769">
        <ele>1596.4100000000001</ele>
        <time>2018-06-19T12:31:18Z</time>
      </trkpt>
      <trkpt lat="46.024187430739403" lon="8.056648448109627">
        <ele>1597.8499999999999</ele>
        <time>2018-06-19T12:31:13Z</time>
      </trkpt>
      <trkpt lat="46.02416186593473" lon="8.056601006537676">
        <ele>1599.29</ele>
        <time>2018-06-19T12:31:09Z</time>
      </trkpt>
      <trkpt lat="46.0240856744349" lon="8.05657334625721">
        <ele>1602.1700000000001</ele>
        <time>2018-06-19T12:31:00Z</time>
      </trkpt>
      <trkpt lat="46.024001520127058" lon="8.056558594107628">
        <ele>1604.5799999999999</ele>
        <time>2018-06-19T12:30:50Z</time>
      </trkpt>
      <trkpt lat="46.023967489600182" lon="8.056535208597779">
        <ele>1605.54</ele>
        <time>2018-06-19T12:30:46Z</time>
      </trkpt>
      <trkpt lat="46.023937063291669" lon="8.056534454226494">
        <ele>1606.5</ele>
        <time>2018-06-19T12:30:43Z</time>
      </trkpt>
      <trkpt lat="46.023851148784161" lon="8.056505536660552">
        <ele>1608.4200000000001</ele>
        <time>2018-06-19T12:30:34Z</time>
      </trkpt>
      <trkpt lat="46.023806892335415" lon="8.056459603831172">
        <ele>1609.8599999999999</ele>
        <time>2018-06-19T12:30:29Z</time>
      </trkpt>
      <trkpt lat="46.023846790194511" lon="8.0563925486058">
        <ele>1612.75</ele>
        <time>2018-06-19T12:30:20Z</time>
      </trkpt>
      <trkpt lat="46.023854417726398" lon="8.056359859183431">
        <ele>1614.1900000000001</ele>
        <time>2018-06-19T12:30:14Z</time>
      </trkpt>
      <trkpt lat="46.023815525695682" lon="8.056303951889277">
        <ele>1616.1099999999999</ele>
        <time>2018-06-19T12:30:05Z</time>
      </trkpt>
      <trkpt lat="46.023750901222229" lon="8.056220887228847">
        <ele>1619.48</ele>
        <time>2018-06-19T12:29:54Z</time>
      </trkpt>
      <trkpt lat="46.023667920380831" lon="8.056159783154726">
        <ele>1622.8399999999999</ele>
        <time>2018-06-19T12:29:46Z</time>
      </trkpt>
      <trkpt lat="46.023654425516725" lon="8.056139163672924">
        <ele>1623.8</ele>
        <time>2018-06-19T12:29:44Z</time>
      </trkpt>
      <trkpt lat="46.023595500737429" lon="8.056102031841874">
        <ele>1626.6900000000001</ele>
        <time>2018-06-19T12:29:37Z</time>
      </trkpt>
      <trkpt lat="46.023513022810221" lon="8.056042185053229">
        <ele>1629.5699999999999</ele>
        <time>2018-06-19T12:29:26Z</time>
      </trkpt>
      <trkpt lat="46.023475890979171" lon="8.055982002988458">
        <ele>1631.49</ele>
        <time>2018-06-19T12:29:19Z</time>
      </trkpt>
      <trkpt lat="46.023378744721413" lon="8.055869098752737">
        <ele>1634.3800000000001</ele>
        <time>2018-06-19T12:29:08Z</time>
      </trkpt>
      <trkpt lat="46.023354772478342" lon="8.055789554491639">
        <ele>1634.8599999999999</ele>
        <time>2018-06-19T12:29:03Z</time>
      </trkpt>
      <trkpt lat="46.023335410282016" lon="8.055726606398821">
        <ele>1635.3399999999999</ele>
        <time>2018-06-19T12:28:59Z</time>
      </trkpt>
      <trkpt lat="46.023266427218914" lon="8.055572714656591">
        <ele>1638.22</ele>
        <time>2018-06-19T12:28:48Z</time>
      </trkpt>
      <trkpt lat="46.023243125528097" lon="8.055540528148413">
        <ele>1639.1900000000001</ele>
        <time>2018-06-19T12:28:45Z</time>
      </trkpt>
      <trkpt lat="46.023214040324092" lon="8.055520411580801">
        <ele>1639.6700000000001</ele>
        <time>2018-06-19T12:28:42Z</time>
      </trkpt>
      <trkpt lat="46.023107590153813" lon="8.055404908955097">
        <ele>1640.6300000000001</ele>
        <time>2018-06-19T12:28:31Z</time>
      </trkpt>
      <trkpt lat="46.023063333705068" lon="8.055322011932731">
        <ele>1639.1900000000001</ele>
        <time>2018-06-19T12:28:24Z</time>
      </trkpt>
      <trkpt lat="46.023031566292048" lon="8.055157978087664">
        <ele>1639.1900000000001</ele>
        <time>2018-06-19T12:28:15Z</time>
      </trkpt>
      <trkpt lat="46.023012539371848" lon="8.055155798792839">
        <ele>1639.1900000000001</ele>
        <time>2018-06-19T12:28:13Z</time>
      </trkpt>
      <trkpt lat="46.0229701269418" lon="8.055115146562457">
        <ele>1639.1900000000001</ele>
        <time>2018-06-19T12:28:08Z</time>
      </trkpt>
      <trkpt lat="46.0229476634413" lon="8.05501950904727">
        <ele>1640.6300000000001</ele>
        <time>2018-06-19T12:28:02Z</time>
      </trkpt>
      <trkpt lat="46.022887816652656" lon="8.054853212088347">
        <ele>1641.5899999999999</ele>
        <time>2018-06-19T12:27:51Z</time>
      </trkpt>
      <trkpt lat="46.022869041189551" lon="8.05483334697783">
        <ele>1641.5899999999999</ele>
        <time>2018-06-19T12:27:49Z</time>
      </trkpt>
      <trkpt lat="46.022797375917435" lon="8.054688759148121">
        <ele>1642.55</ele>
        <time>2018-06-19T12:27:39Z</time>
      </trkpt>
      <trkpt lat="46.022790502756834" lon="8.054660093039274">
        <ele>1643.03</ele>
        <time>2018-06-19T12:27:37Z</time>
      </trkpt>
      <trkpt lat="46.022754795849323" lon="8.05450594983995">
        <ele>1643.99</ele>
        <time>2018-06-19T12:27:28Z</time>
      </trkpt>
      <trkpt lat="46.022713305428624" lon="8.054353566840291">
        <ele>1643.51</ele>
        <time>2018-06-19T12:27:17Z</time>
      </trkpt>
      <trkpt lat="46.022699978202581" lon="8.054272932931781">
        <ele>1643.99</ele>
        <time>2018-06-19T12:27:11Z</time>
      </trkpt>
      <trkpt lat="46.022715652361512" lon="8.054210403934121">
        <ele>1643.03</ele>
        <time>2018-06-19T12:27:06Z</time>
      </trkpt>
      <trkpt lat="46.022718083113432" lon="8.054065899923444">
        <ele>1642.0699999999999</ele>
        <time>2018-06-19T12:26:55Z</time>
      </trkpt>
      <trkpt lat="46.022714478895068" lon="8.054022816941142">
        <ele>1641.1099999999999</ele>
        <time>2018-06-19T12:26:52Z</time>
      </trkpt>
      <trkpt lat="46.022715484723449" lon="8.053875882178545">
        <ele>1639.6700000000001</ele>
        <time>2018-06-19T12:26:41Z</time>
      </trkpt>
      <trkpt lat="46.022704336792231" lon="8.053816538304091">
        <ele>1639.6700000000001</ele>
        <time>2018-06-19T12:26:37Z</time>
      </trkpt>
      <trkpt lat="46.022654548287392" lon="8.053675889968872">
        <ele>1640.1500000000001</ele>
        <time>2018-06-19T12:26:27Z</time>
      </trkpt>
      <trkpt lat="46.022601407021284" lon="8.05359416641295">
        <ele>1638.7</ele>
        <time>2018-06-19T12:26:15Z</time>
      </trkpt>
      <trkpt lat="46.022557150572538" lon="8.053441029042006">
        <ele>1638.22</ele>
        <time>2018-06-19T12:26:04Z</time>
      </trkpt>
      <trkpt lat="46.022533178329468" lon="8.053418062627316">
        <ele>1638.22</ele>
        <time>2018-06-19T12:26:01Z</time>
      </trkpt>
      <trkpt lat="46.022526975721121" lon="8.053410435095429">
        <ele>1638.22</ele>
        <time>2018-06-19T12:26:00Z</time>
      </trkpt>
      <trkpt lat="46.022498644888401" lon="8.053300715982914">
        <ele>1636.3</ele>
        <time>2018-06-19T12:25:50Z</time>
      </trkpt>
      <trkpt lat="46.022476349025965" lon="8.053133077919483">
        <ele>1634.8599999999999</ele>
        <time>2018-06-19T12:25:38Z</time>
      </trkpt>
      <trkpt lat="46.022472912445664" lon="8.053076919168234">
        <ele>1634.8599999999999</ele>
        <time>2018-06-19T12:25:34Z</time>
      </trkpt>
      <trkpt lat="46.022453550249338" lon="8.053046828135848">
        <ele>1633.9000000000001</ele>
        <time>2018-06-19T12:25:31Z</time>
      </trkpt>
      <trkpt lat="46.022421699017286" lon="8.052974073216319">
        <ele>1633.9000000000001</ele>
        <time>2018-06-19T12:25:24Z</time>
      </trkpt>
      <trkpt lat="46.022422788664699" lon="8.052946915850043">
        <ele>1633.9000000000001</ele>
        <time>2018-06-19T12:25:23Z</time>
      </trkpt>
      <trkpt lat="46.022409461438656" lon="8.052904084324837">
        <ele>1633.9000000000001</ele>
        <time>2018-06-19T12:25:20Z</time>
      </trkpt>
      <trkpt lat="46.022378448396921" lon="8.052826635539532">
        <ele>1634.3800000000001</ele>
        <time>2018-06-19T12:25:15Z</time>
      </trkpt>
      <trkpt lat="46.022353805601597" lon="8.052817080169916">
        <ele>1634.8599999999999</ele>
        <time>2018-06-19T12:25:12Z</time>
      </trkpt>
      <trkpt lat="46.022329414263368" lon="8.052763268351555">
        <ele>1634.8599999999999</ele>
        <time>2018-06-19T12:25:07Z</time>
      </trkpt>
      <trkpt lat="46.0223104711622" lon="8.052632762119174">
        <ele>1635.3399999999999</ele>
        <time>2018-06-19T12:24:59Z</time>
      </trkpt>
      <trkpt lat="46.022311560809612" lon="8.05258909240365">
        <ele>1635.8199999999999</ele>
        <time>2018-06-19T12:24:56Z</time>
      </trkpt>
      <trkpt lat="46.022309213876724" lon="8.052573585882783">
        <ele>1635.8199999999999</ele>
        <time>2018-06-19T12:24:54Z</time>
      </trkpt>
      <trkpt lat="46.022288678213954" lon="8.052485324442387">
        <ele>1636.3</ele>
        <time>2018-06-19T12:24:35Z</time>
      </trkpt>
      <trkpt lat="46.022301251068711" lon="8.05243955925107">
        <ele>1636.3</ele>
        <time>2018-06-19T12:24:23Z</time>
      </trkpt>
      <trkpt lat="46.02232220582664" lon="8.052271418273449">
        <ele>1637.26</ele>
        <time>2018-06-19T12:24:12Z</time>
      </trkpt>
      <trkpt lat="46.022346932440996" lon="8.052103947848082">
        <ele>1638.7</ele>
        <time>2018-06-19T12:24:03Z</time>
      </trkpt>
      <trkpt lat="46.022352464497089" lon="8.052062038332224">
        <ele>1639.1900000000001</ele>
        <time>2018-06-19T12:24:01Z</time>
      </trkpt>
      <trkpt lat="46.022258754819632" lon="8.051893226802349">
        <ele>1639.6700000000001</ele>
        <time>2018-06-19T12:23:49Z</time>
      </trkpt>
      <trkpt lat="46.022180635482073" lon="8.051716620102525">
        <ele>1640.1500000000001</ele>
        <time>2018-06-19T12:23:37Z</time>
      </trkpt>
      <trkpt lat="46.022168900817633" lon="8.051664484664798">
        <ele>1640.6300000000001</ele>
        <time>2018-06-19T12:23:32Z</time>
      </trkpt>
      <trkpt lat="46.02211793884635" lon="8.051553256809712">
        <ele>1641.1099999999999</ele>
        <time>2018-06-19T12:23:25Z</time>
      </trkpt>
      <trkpt lat="46.022114669904113" lon="8.051541270688176">
        <ele>1641.5899999999999</ele>
        <time>2018-06-19T12:23:24Z</time>
      </trkpt>
      <trkpt lat="46.022072089836001" lon="8.05134454742074">
        <ele>1642.55</ele>
        <time>2018-06-19T12:23:12Z</time>
      </trkpt>
      <trkpt lat="46.02207250893116" lon="8.0512585490942">
        <ele>1643.03</ele>
        <time>2018-06-19T12:23:07Z</time>
      </trkpt>
      <trkpt lat="46.022010650485754" lon="8.051083199679852">
        <ele>1643.51</ele>
        <time>2018-06-19T12:22:56Z</time>
      </trkpt>
      <trkpt lat="46.021945020183921" lon="8.050936600193381">
        <ele>1643.99</ele>
        <time>2018-06-19T12:22:46Z</time>
      </trkpt>
      <trkpt lat="46.021933117881417" lon="8.050700146704912">
        <ele>1646.8800000000001</ele>
        <time>2018-06-19T12:22:31Z</time>
      </trkpt>
      <trkpt lat="46.021892130374908" lon="8.050516163930297">
        <ele>1647.8399999999999</ele>
        <time>2018-06-19T12:22:20Z</time>
      </trkpt>
      <trkpt lat="46.021864470094442" lon="8.05025783367455">
        <ele>1649.76</ele>
        <time>2018-06-19T12:22:05Z</time>
      </trkpt>
      <trkpt lat="46.021830774843693" lon="8.050162447616458">
        <ele>1650.72</ele>
        <time>2018-06-19T12:21:59Z</time>
      </trkpt>
      <trkpt lat="46.021817615255713" lon="8.050064882263541">
        <ele>1651.2</ele>
        <time>2018-06-19T12:21:53Z</time>
      </trkpt>
      <trkpt lat="46.021803030744195" lon="8.049953738227487">
        <ele>1652.1600000000001</ele>
        <time>2018-06-19T12:21:47Z</time>
      </trkpt>
      <trkpt lat="46.021830188110471" lon="8.049917528405786">
        <ele>1652.6400000000001</ele>
        <time>2018-06-19T12:21:44Z</time>
      </trkpt>
      <trkpt lat="46.021810825914145" lon="8.049807893112302">
        <ele>1653.1199999999999</ele>
        <time>2018-06-19T12:21:37Z</time>
      </trkpt>
      <trkpt lat="46.02177495136857" lon="8.049770426005125">
        <ele>1653.5999999999999</ele>
        <time>2018-06-19T12:21:33Z</time>
      </trkpt>
      <trkpt lat="46.02174854837358" lon="8.049728432670236">
        <ele>1654.0899999999999</ele>
        <time>2018-06-19T12:21:30Z</time>
      </trkpt>
      <trkpt lat="46.021718960255384" lon="8.049626341089606">
        <ele>1655.05</ele>
        <time>2018-06-19T12:21:23Z</time>
      </trkpt>
      <trkpt lat="46.021713176742196" lon="8.049613935872912">
        <ele>1655.53</ele>
        <time>2018-06-19T12:21:22Z</time>
      </trkpt>
      <trkpt lat="46.021685348823667" lon="8.049411429092288">
        <ele>1656.49</ele>
        <time>2018-06-19T12:21:09Z</time>
      </trkpt>
      <trkpt lat="46.021642601117492" lon="8.049235325306654">
        <ele>1657.9300000000001</ele>
        <time>2018-06-19T12:20:58Z</time>
      </trkpt>
      <trkpt lat="46.021637907251716" lon="8.049193164333701">
        <ele>1658.4100000000001</ele>
        <time>2018-06-19T12:20:56Z</time>
      </trkpt>
      <trkpt lat="46.021581161767244" lon="8.049053689464927">
        <ele>1658.4100000000001</ele>
        <time>2018-06-19T12:20:46Z</time>
      </trkpt>
      <trkpt lat="46.021578647196293" lon="8.049002727493644">
        <ele>1658.8900000000001</ele>
        <time>2018-06-19T12:20:42Z</time>
      </trkpt>
      <trkpt lat="46.021563308313489" lon="8.048854703083634">
        <ele>1660.8099999999999</ele>
        <time>2018-06-19T12:20:31Z</time>
      </trkpt>
      <trkpt lat="46.021552244201303" lon="8.048694273456931">
        <ele>1662.26</ele>
        <time>2018-06-19T12:20:20Z</time>
      </trkpt>
      <trkpt lat="46.02154235355556" lon="8.048672061413527">
        <ele>1663.22</ele>
        <time>2018-06-19T12:20:18Z</time>
      </trkpt>
      <trkpt lat="46.021536234766245" lon="8.048657644540072">
        <ele>1663.7</ele>
        <time>2018-06-19T12:20:16Z</time>
      </trkpt>
      <trkpt lat="46.021522404626012" lon="8.048519007861614">
        <ele>1664.1800000000001</ele>
        <time>2018-06-19T12:20:05Z</time>
      </trkpt>
      <trkpt lat="46.021508825942874" lon="8.048456478863955">
        <ele>1664.1800000000001</ele>
        <time>2018-06-19T12:20:01Z</time>
      </trkpt>
      <trkpt lat="46.021493235602975" lon="8.048415323719382">
        <ele>1664.1800000000001</ele>
        <time>2018-06-19T12:19:58Z</time>
      </trkpt>
      <trkpt lat="46.021453170105815" lon="8.048276351764798">
        <ele>1664.6600000000001</ele>
        <time>2018-06-19T12:19:47Z</time>
      </trkpt>
      <trkpt lat="46.021408494561911" lon="8.048180881887674">
        <ele>1665.6199999999999</ele>
        <time>2018-06-19T12:19:36Z</time>
      </trkpt>
      <trkpt lat="46.021383265033364" lon="8.048125561326742">
        <ele>1667.0599999999999</ele>
        <time>2018-06-19T12:19:30Z</time>
      </trkpt>
      <trkpt lat="46.021393071860075" lon="8.048095721751452">
        <ele>1668.51</ele>
        <time>2018-06-19T12:19:23Z</time>
      </trkpt>
      <trkpt lat="46.021447302773595" lon="8.048148108646274">
        <ele>1670.4300000000001</ele>
        <time>2018-06-19T12:19:12Z</time>
      </trkpt>
      <trkpt lat="46.021481500938535" lon="8.048107204958797">
        <ele>1672.3499999999999</ele>
        <time>2018-06-19T12:19:06Z</time>
      </trkpt>
      <trkpt lat="46.021470353007317" lon="8.048050375655294">
        <ele>1673.79</ele>
        <time>2018-06-19T12:18:56Z</time>
      </trkpt>
      <trkpt lat="46.021499522030354" lon="8.048019530251622">
        <ele>1675.23</ele>
        <time>2018-06-19T12:18:46Z</time>
      </trkpt>
      <trkpt lat="46.021531373262405" lon="8.048025900498033">
        <ele>1676.6800000000001</ele>
        <time>2018-06-19T12:18:35Z</time>
      </trkpt>
      <trkpt lat="46.021567080169916" lon="8.048030007630587">
        <ele>1678.1199999999999</ele>
        <time>2018-06-19T12:18:23Z</time>
      </trkpt>
      <trkpt lat="46.021566158160567" lon="8.0479671433568">
        <ele>1681</ele>
        <time>2018-06-19T12:18:13Z</time>
      </trkpt>
      <trkpt lat="46.021550903096795" lon="8.047912828624249">
        <ele>1681.96</ele>
        <time>2018-06-19T12:18:04Z</time>
      </trkpt>
      <trkpt lat="46.021587951108813" lon="8.047786261886358">
        <ele>1684.3699999999999</ele>
        <time>2018-06-19T12:17:53Z</time>
      </trkpt>
      <trkpt lat="46.02158828638494" lon="8.047716775909066">
        <ele>1686.77</ele>
        <time>2018-06-19T12:17:45Z</time>
      </trkpt>
      <trkpt lat="46.021581748500466" lon="8.047653576359153">
        <ele>1688.21</ele>
        <time>2018-06-19T12:17:39Z</time>
      </trkpt>
      <trkpt lat="46.021565403789282" lon="8.047627760097385">
        <ele>1688.21</ele>
        <time>2018-06-19T12:17:19Z</time>
      </trkpt>
      <trkpt lat="46.021574288606644" lon="8.047609319910407">
        <ele>1688.21</ele>
        <time>2018-06-19T12:17:02Z</time>
      </trkpt>
      <trkpt lat="46.021559704095125" lon="8.047635974362493">
        <ele>1688.21</ele>
        <time>2018-06-19T12:16:45Z</time>
      </trkpt>
      <trkpt lat="46.021581077948213" lon="8.047585766762495">
        <ele>1688.21</ele>
        <time>2018-06-19T12:16:31Z</time>
      </trkpt>
      <trkpt lat="46.021554172039032" lon="8.047531619668007">
        <ele>1689.1700000000001</ele>
        <time>2018-06-19T12:16:20Z</time>
      </trkpt>
      <trkpt lat="46.021522907540202" lon="8.047412261366844">
        <ele>1691.5799999999999</ele>
        <time>2018-06-19T12:16:11Z</time>
      </trkpt>
      <trkpt lat="46.021471945568919" lon="8.047296507284045">
        <ele>1692.54</ele>
        <time>2018-06-19T12:16:02Z</time>
      </trkpt>
      <trkpt lat="46.021487200632691" lon="8.047282677143812">
        <ele>1693.5</ele>
        <time>2018-06-19T12:16:00Z</time>
      </trkpt>
      <trkpt lat="46.021526260301471" lon="8.047288293018937">
        <ele>1694.46</ele>
        <time>2018-06-19T12:15:56Z</time>
      </trkpt>
      <trkpt lat="46.021564733237028" lon="8.047317042946816">
        <ele>1695.9000000000001</ele>
        <time>2018-06-19T12:15:51Z</time>
      </trkpt>
      <trkpt lat="46.021606223657727" lon="8.047328861430287">
        <ele>1697.3399999999999</ele>
        <time>2018-06-19T12:15:45Z</time>
      </trkpt>
      <trkpt lat="46.021672273054719" lon="8.047382002696395">
        <ele>1699.75</ele>
        <time>2018-06-19T12:15:36Z</time>
      </trkpt>
      <trkpt lat="46.021690294146538" lon="8.047355348244309">
        <ele>1699.75</ele>
        <time>2018-06-19T12:15:33Z</time>
      </trkpt>
      <trkpt lat="46.021712590008974" lon="8.047340344637632">
        <ele>1699.75</ele>
        <time>2018-06-19T12:15:30Z</time>
      </trkpt>
      <trkpt lat="46.021758522838354" lon="8.047354845330119">
        <ele>1701.1900000000001</ele>
        <time>2018-06-19T12:15:26Z</time>
      </trkpt>
      <trkpt lat="46.02177788503468" lon="8.047348558902741">
        <ele>1701.6700000000001</ele>
        <time>2018-06-19T12:15:24Z</time>
      </trkpt>
      <trkpt lat="46.021831445395947" lon="8.047337578609586">
        <ele>1702.6300000000001</ele>
        <time>2018-06-19T12:15:18Z</time>
      </trkpt>
      <trkpt lat="46.021849634125829" lon="8.047340512275696">
        <ele>1703.1099999999999</ele>
        <time>2018-06-19T12:15:16Z</time>
      </trkpt>
      <trkpt lat="46.021835971623659" lon="8.047451069578528">
        <ele>1705.52</ele>
        <time>2018-06-19T12:15:06Z</time>
      </trkpt>
      <trkpt lat="46.021874947473407" lon="8.047493230551481">
        <ele>1707.4400000000001</ele>
        <time>2018-06-19T12:14:58Z</time>
      </trkpt>
      <trkpt lat="46.021935464814305" lon="8.047479148954153">
        <ele>1710.8</ele>
        <time>2018-06-19T12:14:48Z</time>
      </trkpt>
      <trkpt lat="46.022025402635336" lon="8.047501109540463">
        <ele>1713.6900000000001</ele>
        <time>2018-06-19T12:14:36Z</time>
      </trkpt>
      <trkpt lat="46.022086339071393" lon="8.047522902488709">
        <ele>1716.0899999999999</ele>
        <time>2018-06-19T12:14:26Z</time>
      </trkpt>
      <trkpt lat="46.022033365443349" lon="8.047627341002226">
        <ele>1718.97</ele>
        <time>2018-06-19T12:14:14Z</time>
      </trkpt>
      <trkpt lat="46.022035209462047" lon="8.047685846686363">
        <ele>1719.46</ele>
        <time>2018-06-19T12:13:53Z</time>
      </trkpt>
      <trkpt lat="46.022053230553865" lon="8.047689702361822">
        <ele>1719.46</ele>
        <time>2018-06-19T12:13:43Z</time>
      </trkpt>
      <trkpt lat="46.022178707644343" lon="8.047715686261654">
        <ele>1722.3399999999999</ele>
        <time>2018-06-19T12:13:30Z</time>
      </trkpt>
      <trkpt lat="46.022186670452356" lon="8.047716859728098">
        <ele>1722.3399999999999</ele>
        <time>2018-06-19T12:13:29Z</time>
      </trkpt>
      <trkpt lat="46.022250121459365" lon="8.047737563028932">
        <ele>1724.26</ele>
        <time>2018-06-19T12:13:20Z</time>
      </trkpt>
      <trkpt lat="46.022260598838329" lon="8.047737143933773">
        <ele>1724.74</ele>
        <time>2018-06-19T12:13:19Z</time>
      </trkpt>
      <trkpt lat="46.022331928834319" lon="8.047797325998545">
        <ele>1728.1099999999999</ele>
        <time>2018-06-19T12:13:08Z</time>
      </trkpt>
      <trkpt lat="46.022341484203935" lon="8.047812581062317">
        <ele>1729.0699999999999</ele>
        <time>2018-06-19T12:13:06Z</time>
      </trkpt>
      <trkpt lat="46.022397726774216" lon="8.04788013920188">
        <ele>1731.95</ele>
        <time>2018-06-19T12:12:57Z</time>
      </trkpt>
      <trkpt lat="46.022485485300422" lon="8.04790704511106">
        <ele>1734.8399999999999</ele>
        <time>2018-06-19T12:12:46Z</time>
      </trkpt>
      <trkpt lat="46.022533681243658" lon="8.047960186377168">
        <ele>1738.2</ele>
        <time>2018-06-19T12:12:36Z</time>
      </trkpt>
      <trkpt lat="46.022593360394239" lon="8.048009555786848">
        <ele>1741.0799999999999</ele>
        <time>2018-06-19T12:12:25Z</time>
      </trkpt>
      <trkpt lat="46.022636108100414" lon="8.048050291836262">
        <ele>1743.01</ele>
        <time>2018-06-19T12:12:19Z</time>
      </trkpt>
      <trkpt lat="46.022677514702082" lon="8.048101086169481">
        <ele>1744.9300000000001</ele>
        <time>2018-06-19T12:12:08Z</time>
      </trkpt>
      <trkpt lat="46.022704839706421" lon="8.048203177750111">
        <ele>1746.8499999999999</ele>
        <time>2018-06-19T12:11:57Z</time>
      </trkpt>
      <trkpt lat="46.022724034264684" lon="8.048259587958455">
        <ele>1749.74</ele>
        <time>2018-06-19T12:11:48Z</time>
      </trkpt>
      <trkpt lat="46.022791173309088" lon="8.048335444182158">
        <ele>1752.1400000000001</ele>
        <time>2018-06-19T12:11:38Z</time>
      </trkpt>
      <trkpt lat="46.022824281826615" lon="8.048375090584159">
        <ele>1752.6199999999999</ele>
        <time>2018-06-19T12:11:32Z</time>
      </trkpt>
      <trkpt lat="46.022853031754494" lon="8.048429321497679">
        <ele>1754.0599999999999</ele>
        <time>2018-06-19T12:11:22Z</time>
      </trkpt>
      <trkpt lat="46.022887146100402" lon="8.048485647886992">
        <ele>1755.99</ele>
        <time>2018-06-19T12:11:12Z</time>
      </trkpt>
      <trkpt lat="46.022915644571185" lon="8.048562258481979">
        <ele>1756.95</ele>
        <time>2018-06-19T12:11:06Z</time>
      </trkpt>
      <trkpt lat="46.022948836907744" lon="8.048586649820209">
        <ele>1759.3499999999999</ele>
        <time>2018-06-19T12:11:01Z</time>
      </trkpt>
      <trkpt lat="46.022966355085373" lon="8.048614226281643">
        <ele>1760.79</ele>
        <time>2018-06-19T12:10:51Z</time>
      </trkpt>
      <trkpt lat="46.022977167740464" lon="8.048708438873291">
        <ele>1763.2</ele>
        <time>2018-06-19T12:10:42Z</time>
      </trkpt>
      <trkpt lat="46.023000385612249" lon="8.048747079446912">
        <ele>1764.6400000000001</ele>
        <time>2018-06-19T12:10:37Z</time>
      </trkpt>
      <trkpt lat="46.02301605977118" lon="8.048870544880629">
        <ele>1766.5599999999999</ele>
        <time>2018-06-19T12:10:27Z</time>
      </trkpt>
      <trkpt lat="46.023012874647975" lon="8.048937851563096">
        <ele>1768.48</ele>
        <time>2018-06-19T12:10:20Z</time>
      </trkpt>
      <trkpt lat="46.022974820807576" lon="8.049070285633206">
        <ele>1771.3699999999999</ele>
        <time>2018-06-19T12:10:09Z</time>
      </trkpt>
      <trkpt lat="46.022959565743804" lon="8.049193415790796">
        <ele>1772.3299999999999</ele>
        <time>2018-06-19T12:10:02Z</time>
      </trkpt>
      <trkpt lat="46.022956715896726" lon="8.049237504601479">
        <ele>1772.3299999999999</ele>
        <time>2018-06-19T12:09:59Z</time>
      </trkpt>
      <trkpt lat="46.022954620420933" lon="8.04929475300014">
        <ele>1772.8099999999999</ele>
        <time>2018-06-19T12:09:56Z</time>
      </trkpt>
      <trkpt lat="46.02298378944397" lon="8.049412770196796">
        <ele>1774.73</ele>
        <time>2018-06-19T12:09:49Z</time>
      </trkpt>
      <trkpt lat="46.022991668432951" lon="8.049411009997129">
        <ele>1774.73</ele>
        <time>2018-06-19T12:09:48Z</time>
      </trkpt>
      <trkpt lat="46.023046905174851" lon="8.049429031088948">
        <ele>1777.6099999999999</ele>
        <time>2018-06-19T12:09:39Z</time>
      </trkpt>
      <trkpt lat="46.023059897124767" lon="8.049411764368415">
        <ele>1777.6099999999999</ele>
        <time>2018-06-19T12:09:37Z</time>
      </trkpt>
      <trkpt lat="46.023076325654984" lon="8.049506647512317">
        <ele>1780.5</ele>
        <time>2018-06-19T12:09:27Z</time>
      </trkpt>
      <trkpt lat="46.023141536861658" lon="8.049549646675587">
        <ele>1782.9000000000001</ele>
        <time>2018-06-19T12:09:16Z</time>
      </trkpt>
      <trkpt lat="46.023166934028268" lon="8.049501199275255">
        <ele>1783.3800000000001</ele>
        <time>2018-06-19T12:09:12Z</time>
      </trkpt>
      <trkpt lat="46.023178165778518" lon="8.049499439075589">
        <ele>1783.3800000000001</ele>
        <time>2018-06-19T12:09:11Z</time>
      </trkpt>
      <trkpt lat="46.023239102214575" lon="8.049490135163069">
        <ele>1785.79</ele>
        <time>2018-06-19T12:09:03Z</time>
      </trkpt>
      <trkpt lat="46.023280844092369" lon="8.049451243132353">
        <ele>1787.71</ele>
        <time>2018-06-19T12:08:52Z</time>
      </trkpt>
      <trkpt lat="46.023312276229262" lon="8.049448812380433">
        <ele>1788.6700000000001</ele>
        <time>2018-06-19T12:08:41Z</time>
      </trkpt>
      <trkpt lat="46.023384779691696" lon="8.049499103799462">
        <ele>1791.55</ele>
        <time>2018-06-19T12:08:31Z</time>
      </trkpt>
      <trkpt lat="46.023442531004548" lon="8.04957034997642">
        <ele>1794.9200000000001</ele>
        <time>2018-06-19T12:08:21Z</time>
      </trkpt>
      <trkpt lat="46.023478154093027" lon="8.049612678587437">
        <ele>1796.8399999999999</ele>
        <time>2018-06-19T12:08:12Z</time>
      </trkpt>
      <trkpt lat="46.02351495064795" lon="8.049690295010805">
        <ele>1799.24</ele>
        <time>2018-06-19T12:08:01Z</time>
      </trkpt>
      <trkpt lat="46.023558788001537" lon="8.049762127920985">
        <ele>1801.6500000000001</ele>
        <time>2018-06-19T12:07:51Z</time>
      </trkpt>
      <trkpt lat="46.023565409705043" lon="8.049873942509294">
        <ele>1802.6099999999999</ele>
        <time>2018-06-19T12:07:42Z</time>
      </trkpt>
      <trkpt lat="46.023571277037263" lon="8.049960946664214">
        <ele>1805.01</ele>
        <time>2018-06-19T12:07:32Z</time>
      </trkpt>
      <trkpt lat="46.023599859327078" lon="8.05007359944284">
        <ele>1806.9400000000001</ele>
        <time>2018-06-19T12:07:22Z</time>
      </trkpt>
      <trkpt lat="46.023599021136761" lon="8.050096146762371">
        <ele>1807.9000000000001</ele>
        <time>2018-06-19T12:07:20Z</time>
      </trkpt>
      <trkpt lat="46.023613605648279" lon="8.050185162574053">
        <ele>1810.78</ele>
        <time>2018-06-19T12:07:10Z</time>
      </trkpt>
      <trkpt lat="46.023667166009545" lon="8.050305945798755">
        <ele>1813.6600000000001</ele>
        <time>2018-06-19T12:06:58Z</time>
      </trkpt>
      <trkpt lat="46.023724749684334" lon="8.050360344350338">
        <ele>1814.6300000000001</ele>
        <time>2018-06-19T12:06:52Z</time>
      </trkpt>
      <trkpt lat="46.023757103830576" lon="8.050364619120956">
        <ele>1814.6300000000001</ele>
        <time>2018-06-19T12:06:49Z</time>
      </trkpt>
      <trkpt lat="46.02378903888166" lon="8.050371240824461">
        <ele>1815.1099999999999</ele>
        <time>2018-06-19T12:06:46Z</time>
      </trkpt>
      <trkpt lat="46.023896243423223" lon="8.050448689609766">
        <ele>1817.99</ele>
        <time>2018-06-19T12:06:34Z</time>
      </trkpt>
      <trkpt lat="46.023913593962789" lon="8.050467716529965">
        <ele>1818.95</ele>
        <time>2018-06-19T12:06:32Z</time>
      </trkpt>
      <trkpt lat="46.023960532620549" lon="8.050517924129963">
        <ele>1820.3900000000001</ele>
        <time>2018-06-19T12:06:27Z</time>
      </trkpt>
      <trkpt lat="46.023986851796508" lon="8.05054223164916">
        <ele>1820.8699999999999</ele>
        <time>2018-06-19T12:06:23Z</time>
      </trkpt>
      <trkpt lat="46.023966316133738" lon="8.050483474507928">
        <ele>1821.3499999999999</ele>
        <time>2018-06-19T12:06:15Z</time>
      </trkpt>
      <trkpt lat="46.023973440751433" lon="8.050493281334639">
        <ele>1821.8399999999999</ele>
        <time>2018-06-19T12:05:59Z</time>
      </trkpt>
      <trkpt lat="46.023997748270631" lon="8.050485150888562">
        <ele>1821.8399999999999</ele>
        <time>2018-06-19T12:05:42Z</time>
      </trkpt>
      <trkpt lat="46.024008812382817" lon="8.050451455637813">
        <ele>1821.8399999999999</ele>
        <time>2018-06-19T12:05:27Z</time>
      </trkpt>
      <trkpt lat="46.024003196507692" lon="8.050449946895242">
        <ele>1821.8399999999999</ele>
        <time>2018-06-19T12:05:06Z</time>
      </trkpt>
      <trkpt lat="46.024011243134737" lon="8.050371576100588">
        <ele>1823.28</ele>
        <time>2018-06-19T12:04:56Z</time>
      </trkpt>
      <trkpt lat="46.024009734392166" lon="8.050288427621126">
        <ele>1824.72</ele>
        <time>2018-06-19T12:04:47Z</time>
      </trkpt>
      <trkpt lat="46.024015937000513" lon="8.050203686580062">
        <ele>1826.6400000000001</ele>
        <time>2018-06-19T12:04:38Z</time>
      </trkpt>
      <trkpt lat="46.024050554260612" lon="8.05020947009325">
        <ele>1828.0799999999999</ele>
        <time>2018-06-19T12:04:29Z</time>
      </trkpt>
      <trkpt lat="46.024050386622548" lon="8.0502725020051">
        <ele>1829.05</ele>
        <time>2018-06-19T12:04:16Z</time>
      </trkpt>
      <trkpt lat="46.024093385785818" lon="8.050335198640823">
        <ele>1830.97</ele>
        <time>2018-06-19T12:04:05Z</time>
      </trkpt>
      <trkpt lat="46.024117525666952" lon="8.050463693216443">
        <ele>1833.3699999999999</ele>
        <time>2018-06-19T12:03:55Z</time>
      </trkpt>
      <trkpt lat="46.024220623075962" lon="8.050594031810761">
        <ele>1834.8099999999999</ele>
        <time>2018-06-19T12:03:43Z</time>
      </trkpt>
      <trkpt lat="46.024232357740402" lon="8.050614651292563">
        <ele>1835.77</ele>
        <time>2018-06-19T12:03:41Z</time>
      </trkpt>
      <trkpt lat="46.024255240336061" lon="8.050670558586717">
        <ele>1837.22</ele>
        <time>2018-06-19T12:03:34Z</time>
      </trkpt>
      <trkpt lat="46.024262700229883" lon="8.05069712921977">
        <ele>1837.7</ele>
        <time>2018-06-19T12:03:32Z</time>
      </trkpt>
      <trkpt lat="46.024337215349078" lon="8.050814894959331">
        <ele>1839.1400000000001</ele>
        <time>2018-06-19T12:03:22Z</time>
      </trkpt>
      <trkpt lat="46.024448024109006" lon="8.050940372049809">
        <ele>1840.0999999999999</ele>
        <time>2018-06-19T12:03:10Z</time>
      </trkpt>
      <trkpt lat="46.024548774585128" lon="8.051055790856481">
        <ele>1841.0599999999999</ele>
        <time>2018-06-19T12:02:59Z</time>
      </trkpt>
      <trkpt lat="46.024573836475611" lon="8.051056880503893">
        <ele>1841.54</ele>
        <time>2018-06-19T12:02:56Z</time>
      </trkpt>
      <trkpt lat="46.024601999670267" lon="8.051032740622759">
        <ele>1842.98</ele>
        <time>2018-06-19T12:02:51Z</time>
      </trkpt>
      <trkpt lat="46.024578781798482" lon="8.050936097279191">
        <ele>1845.3900000000001</ele>
        <time>2018-06-19T12:02:41Z</time>
      </trkpt>
      <trkpt lat="46.024555144831538" lon="8.050807435065508">
        <ele>1848.75</ele>
        <time>2018-06-19T12:02:30Z</time>
      </trkpt>
      <trkpt lat="46.024492112919688" lon="8.050660081207752">
        <ele>1849.71</ele>
        <time>2018-06-19T12:02:19Z</time>
      </trkpt>
      <trkpt lat="46.02445456199348" lon="8.05054516531527">
        <ele>1853.0799999999999</ele>
        <time>2018-06-19T12:02:08Z</time>
      </trkpt>
      <trkpt lat="46.024444587528706" lon="8.05052706040442">
        <ele>1853.5599999999999</ele>
        <time>2018-06-19T12:02:06Z</time>
      </trkpt>
      <trkpt lat="46.024429919198155" lon="8.050407785922289">
        <ele>1855.96</ele>
        <time>2018-06-19T12:01:56Z</time>
      </trkpt>
      <trkpt lat="46.024411479011178" lon="8.050280883908272">
        <ele>1858.8499999999999</ele>
        <time>2018-06-19T12:01:46Z</time>
      </trkpt>
      <trkpt lat="46.024405527859926" lon="8.050243249163032">
        <ele>1859.3299999999999</ele>
        <time>2018-06-19T12:01:42Z</time>
      </trkpt>
      <trkpt lat="46.024419441819191" lon="8.050123555585742">
        <ele>1862.6900000000001</ele>
        <time>2018-06-19T12:01:31Z</time>
      </trkpt>
      <trkpt lat="46.024449616670609" lon="8.050111653283238">
        <ele>1864.1300000000001</ele>
        <time>2018-06-19T12:01:22Z</time>
      </trkpt>
      <trkpt lat="46.024481216445565" lon="8.050246853381395">
        <ele>1866.0599999999999</ele>
        <time>2018-06-19T12:01:11Z</time>
      </trkpt>
      <trkpt lat="46.024524299427867" lon="8.050417089834809">
        <ele>1867.02</ele>
        <time>2018-06-19T12:01:00Z</time>
      </trkpt>
      <trkpt lat="46.024600407108665" lon="8.050445336848497">
        <ele>1869.4200000000001</ele>
        <time>2018-06-19T12:00:50Z</time>
      </trkpt>
      <trkpt lat="46.024625468999147" lon="8.05047576315701">
        <ele>1869.4200000000001</ele>
        <time>2018-06-19T12:00:46Z</time>
      </trkpt>
      <trkpt lat="46.024634269997478" lon="8.050483390688896">
        <ele>1869.4200000000001</ele>
        <time>2018-06-19T12:00:42Z</time>
      </trkpt>
      <trkpt lat="46.024660086259246" lon="8.05055882781744">
        <ele>1869.9000000000001</ele>
        <time>2018-06-19T12:00:31Z</time>
      </trkpt>
      <trkpt lat="46.024757903069258" lon="8.050628649070859">
        <ele>1870.8599999999999</ele>
        <time>2018-06-19T12:00:21Z</time>
      </trkpt>
      <trkpt lat="46.024764105677605" lon="8.050602246075869">
        <ele>1871.3399999999999</ele>
        <time>2018-06-19T12:00:19Z</time>
      </trkpt>
      <trkpt lat="46.024751449003816" lon="8.050467800348997">
        <ele>1873.75</ele>
        <time>2018-06-19T12:00:07Z</time>
      </trkpt>
      <trkpt lat="46.024732086807489" lon="8.050348358228803">
        <ele>1875.6700000000001</ele>
        <time>2018-06-19T11:59:56Z</time>
      </trkpt>
      <trkpt lat="46.024735439568758" lon="8.050270238891244">
        <ele>1877.5899999999999</ele>
        <time>2018-06-19T11:59:46Z</time>
      </trkpt>
      <trkpt lat="46.024753712117672" lon="8.050133530050516">
        <ele>1880</ele>
        <time>2018-06-19T11:59:35Z</time>
      </trkpt>
      <trkpt lat="46.024818755686283" lon="8.050077958032489">
        <ele>1882.4000000000001</ele>
        <time>2018-06-19T11:59:24Z</time>
      </trkpt>
      <trkpt lat="46.024890253320336" lon="8.050087848678231">
        <ele>1884.8</ele>
        <time>2018-06-19T11:59:14Z</time>
      </trkpt>
      <trkpt lat="46.024929983541369" lon="8.05001744069159">
        <ele>1886.72</ele>
        <time>2018-06-19T11:59:06Z</time>
      </trkpt>
      <trkpt lat="46.024957979097962" lon="8.050073347985745">
        <ele>1888.6500000000001</ele>
        <time>2018-06-19T11:58:58Z</time>
      </trkpt>
      <trkpt lat="46.025005169212818" lon="8.050028923898935">
        <ele>1891.05</ele>
        <time>2018-06-19T11:58:48Z</time>
      </trkpt>
      <trkpt lat="46.025063339620829" lon="8.050141325220466">
        <ele>1893.9300000000001</ele>
        <time>2018-06-19T11:58:38Z</time>
      </trkpt>
      <trkpt lat="46.025087898597121" lon="8.05012296885252">
        <ele>1894.4200000000001</ele>
        <time>2018-06-19T11:58:35Z</time>
      </trkpt>
      <trkpt lat="46.025081528350711" lon="8.050092877820134">
        <ele>1894.4200000000001</ele>
        <time>2018-06-19T11:58:33Z</time>
      </trkpt>
      <trkpt lat="46.0250907484442" lon="8.049983074888587">
        <ele>1896.8199999999999</ele>
        <time>2018-06-19T11:58:23Z</time>
      </trkpt>
      <trkpt lat="46.025087479501963" lon="8.049946362152696">
        <ele>1897.78</ele>
        <time>2018-06-19T11:58:19Z</time>
      </trkpt>
      <trkpt lat="46.025115810334682" lon="8.049825243651867">
        <ele>1899.22</ele>
        <time>2018-06-19T11:58:09Z</time>
      </trkpt>
      <trkpt lat="46.025163754820824" lon="8.049957258626819">
        <ele>1901.6300000000001</ele>
        <time>2018-06-19T11:57:59Z</time>
      </trkpt>
      <trkpt lat="46.025213040411472" lon="8.05003646761179">
        <ele>1903.0699999999999</ele>
        <time>2018-06-19T11:57:52Z</time>
      </trkpt>
      <trkpt lat="46.025240700691938" lon="8.049969160929322">
        <ele>1904.51</ele>
        <time>2018-06-19T11:57:45Z</time>
      </trkpt>
      <trkpt lat="46.025316473096609" lon="8.049846701323986">
        <ele>1905.95</ele>
        <time>2018-06-19T11:57:34Z</time>
      </trkpt>
      <trkpt lat="46.025304403156042" lon="8.049724996089935">
        <ele>1908.3499999999999</ele>
        <time>2018-06-19T11:57:25Z</time>
      </trkpt>
      <trkpt lat="46.02531312033534" lon="8.049658192321658">
        <ele>1909.8</ele>
        <time>2018-06-19T11:57:21Z</time>
      </trkpt>
      <trkpt lat="46.025312533602118" lon="8.049650229513645">
        <ele>1909.3199999999999</ele>
        <time>2018-06-19T11:57:20Z</time>
      </trkpt>
      <trkpt lat="46.025319071486592" lon="8.049599351361394">
        <ele>1911.72</ele>
        <time>2018-06-19T11:57:09Z</time>
      </trkpt>
      <trkpt lat="46.025264421477914" lon="8.049499271437526">
        <ele>1912.6800000000001</ele>
        <time>2018-06-19T11:56:58Z</time>
      </trkpt>
      <trkpt lat="46.025201473385096" lon="8.04940857924521">
        <ele>1911.72</ele>
        <time>2018-06-19T11:56:48Z</time>
      </trkpt>
      <trkpt lat="46.025195606052876" lon="8.049404053017497">
        <ele>1911.72</ele>
        <time>2018-06-19T11:56:47Z</time>
      </trkpt>
      <trkpt lat="46.025159815326333" lon="8.049326268956065">
        <ele>1911.72</ele>
        <time>2018-06-19T11:56:39Z</time>
      </trkpt>
      <trkpt lat="46.025136010721326" lon="8.049223506823182">
        <ele>1913.1600000000001</ele>
        <time>2018-06-19T11:56:32Z</time>
      </trkpt>
      <trkpt lat="46.025108015164733" lon="8.049146980047226">
        <ele>1914.5999999999999</ele>
        <time>2018-06-19T11:56:27Z</time>
      </trkpt>
      <trkpt lat="46.025077840313315" lon="8.049103645607829">
        <ele>1916.04</ele>
        <time>2018-06-19T11:56:16Z</time>
      </trkpt>
      <trkpt lat="46.025022100657225" lon="8.049026615917683">
        <ele>1918.45</ele>
        <time>2018-06-19T11:56:05Z</time>
      </trkpt>
      <trkpt lat="46.025000307708979" lon="8.049002308398485">
        <ele>1918.9300000000001</ele>
        <time>2018-06-19T11:56:00Z</time>
      </trkpt>
      <trkpt lat="46.024984549731016" lon="8.048977246508002">
        <ele>1918.45</ele>
        <time>2018-06-19T11:55:50Z</time>
      </trkpt>
      <trkpt lat="46.024943394586444" lon="8.048856044188142">
        <ele>1918.9300000000001</ele>
        <time>2018-06-19T11:55:39Z</time>
      </trkpt>
      <trkpt lat="46.024970132857561" lon="8.048673905432224">
        <ele>1920.8499999999999</ele>
        <time>2018-06-19T11:55:28Z</time>
      </trkpt>
      <trkpt lat="46.02497935295105" lon="8.048644568771124">
        <ele>1920.3699999999999</ele>
        <time>2018-06-19T11:55:25Z</time>
      </trkpt>
      <trkpt lat="46.025059316307306" lon="8.048506183549762">
        <ele>1919.8900000000001</ele>
        <time>2018-06-19T11:55:13Z</time>
      </trkpt>
      <trkpt lat="46.025059735402465" lon="8.048485480248928">
        <ele>1919.8900000000001</ele>
        <time>2018-06-19T11:55:11Z</time>
      </trkpt>
      <trkpt lat="46.025100303813815" lon="8.048379365354776">
        <ele>1919.4100000000001</ele>
        <time>2018-06-19T11:55:01Z</time>
      </trkpt>
      <trkpt lat="46.025096196681261" lon="8.048318428918719">
        <ele>1918.45</ele>
        <time>2018-06-19T11:54:55Z</time>
      </trkpt>
      <trkpt lat="46.025108601897955" lon="8.048252798616886">
        <ele>1917.49</ele>
        <time>2018-06-19T11:54:49Z</time>
      </trkpt>
      <trkpt lat="46.025148248299956" lon="8.048207620158792">
        <ele>1917.49</ele>
        <time>2018-06-19T11:54:44Z</time>
      </trkpt>
      <trkpt lat="46.025157300755382" lon="8.048180462792516">
        <ele>1917.49</ele>
        <time>2018-06-19T11:54:42Z</time>
      </trkpt>
      <trkpt lat="46.025210274383426" lon="8.048114748671651">
        <ele>1916.53</ele>
        <time>2018-06-19T11:54:33Z</time>
      </trkpt>
      <trkpt lat="46.025274395942688" lon="8.048074431717396">
        <ele>1916.53</ele>
        <time>2018-06-19T11:54:24Z</time>
      </trkpt>
      <trkpt lat="46.025330722332001" lon="8.048020033165813">
        <ele>1915.5599999999999</ele>
        <time>2018-06-19T11:54:15Z</time>
      </trkpt>
      <trkpt lat="46.025392916053534" lon="8.047969490289688">
        <ele>1914.5999999999999</ele>
        <time>2018-06-19T11:54:07Z</time>
      </trkpt>
      <trkpt lat="46.025432897731662" lon="8.047950631007552">
        <ele>1915.0799999999999</ele>
        <time>2018-06-19T11:54:04Z</time>
      </trkpt>
      <trkpt lat="46.025457791984081" lon="8.047942249104381">
        <ele>1915.0799999999999</ele>
        <time>2018-06-19T11:54:02Z</time>
      </trkpt>
      <trkpt lat="46.025497438386083" lon="8.047875696793199">
        <ele>1914.5999999999999</ele>
        <time>2018-06-19T11:53:56Z</time>
      </trkpt>
      <trkpt lat="46.025505317375064" lon="8.047867482528091">
        <ele>1914.1199999999999</ele>
        <time>2018-06-19T11:53:55Z</time>
      </trkpt>
      <trkpt lat="46.025623753666878" lon="8.047777460888028">
        <ele>1914.1199999999999</ele>
        <time>2018-06-19T11:53:42Z</time>
      </trkpt>
      <trkpt lat="46.025674967095256" lon="8.047736892476678">
        <ele>1915.5599999999999</ele>
        <time>2018-06-19T11:53:35Z</time>
      </trkpt>
      <trkpt lat="46.025727856904268" lon="8.047694144770503">
        <ele>1915.0799999999999</ele>
        <time>2018-06-19T11:53:26Z</time>
      </trkpt>
      <trkpt lat="46.025775969028473" lon="8.04764905013144">
        <ele>1914.5999999999999</ele>
        <time>2018-06-19T11:53:16Z</time>
      </trkpt>
      <trkpt lat="46.025839168578386" lon="8.047656426206231">
        <ele>1914.1199999999999</ele>
        <time>2018-06-19T11:53:08Z</time>
      </trkpt>
      <trkpt lat="46.025865487754345" lon="8.047626921907067">
        <ele>1913.6400000000001</ele>
        <time>2018-06-19T11:53:02Z</time>
      </trkpt>
      <trkpt lat="46.025925250723958" lon="8.047567158937454">
        <ele>1912.6800000000001</ele>
        <time>2018-06-19T11:52:53Z</time>
      </trkpt>
      <trkpt lat="46.025986690074205" lon="8.047496415674686">
        <ele>1912.2</ele>
        <time>2018-06-19T11:52:45Z</time>
      </trkpt>
      <trkpt lat="46.026036562398076" lon="8.047429444268346">
        <ele>1911.24</ele>
        <time>2018-06-19T11:52:35Z</time>
      </trkpt>
      <trkpt lat="46.026079393923283" lon="8.047399604693055">
        <ele>1910.28</ele>
        <time>2018-06-19T11:52:30Z</time>
      </trkpt>
      <trkpt lat="46.026096325367689" lon="8.047369513660669">
        <ele>1909.8</ele>
        <time>2018-06-19T11:52:26Z</time>
      </trkpt>
      <trkpt lat="46.026140917092562" lon="8.047308074310422">
        <ele>1907.3900000000001</ele>
        <time>2018-06-19T11:52:17Z</time>
      </trkpt>
      <trkpt lat="46.026171930134296" lon="8.047293657436967">
        <ele>1907.3900000000001</ele>
        <time>2018-06-19T11:52:12Z</time>
      </trkpt>
      <trkpt lat="46.026239907369018" lon="8.047218471765518">
        <ele>1907.8699999999999</ele>
        <time>2018-06-19T11:52:00Z</time>
      </trkpt>
      <trkpt lat="46.026278212666512" lon="8.047149572521448">
        <ele>1908.8299999999999</ele>
        <time>2018-06-19T11:51:53Z</time>
      </trkpt>
      <trkpt lat="46.026273937895894" lon="8.047119984403253">
        <ele>1908.8299999999999</ele>
        <time>2018-06-19T11:51:51Z</time>
      </trkpt>
      <trkpt lat="46.026210989803076" lon="8.047029376029968">
        <ele>1909.8</ele>
        <time>2018-06-19T11:51:43Z</time>
      </trkpt>
      <trkpt lat="46.026242086663842" lon="8.046973468735814">
        <ele>1911.72</ele>
        <time>2018-06-19T11:51:37Z</time>
      </trkpt>
      <trkpt lat="46.026249127462506" lon="8.046952011063695">
        <ele>1911.72</ele>
        <time>2018-06-19T11:51:27Z</time>
      </trkpt>
      <trkpt lat="46.026260778307915" lon="8.047004649415612">
        <ele>1912.2</ele>
        <time>2018-06-19T11:51:17Z</time>
      </trkpt>
      <trkpt lat="46.026331773027778" lon="8.047144543379545">
        <ele>1914.1199999999999</ele>
        <time>2018-06-19T11:51:04Z</time>
      </trkpt>
      <trkpt lat="46.026347950100899" lon="8.04715502075851">
        <ele>1914.5999999999999</ele>
        <time>2018-06-19T11:51:02Z</time>
      </trkpt>
      <trkpt lat="46.026409221813083" lon="8.047117637470365">
        <ele>1917.01</ele>
        <time>2018-06-19T11:50:52Z</time>
      </trkpt>
      <trkpt lat="46.026409724727273" lon="8.047105316072702">
        <ele>1917.01</ele>
        <time>2018-06-19T11:50:51Z</time>
      </trkpt>
      <trkpt lat="46.026388853788376" lon="8.047023257240653">
        <ele>1918.9300000000001</ele>
        <time>2018-06-19T11:50:42Z</time>
      </trkpt>
      <trkpt lat="46.026376867666841" lon="8.046985454857349">
        <ele>1920.8499999999999</ele>
        <time>2018-06-19T11:50:33Z</time>
      </trkpt>
      <trkpt lat="46.026439815759659" lon="8.046876406297088">
        <ele>1923.74</ele>
        <time>2018-06-19T11:50:20Z</time>
      </trkpt>
      <trkpt lat="46.026432188227773" lon="8.047004397958517">
        <ele>1925.6600000000001</ele>
        <time>2018-06-19T11:50:08Z</time>
      </trkpt>
      <trkpt lat="46.026449957862496" lon="8.047019401565194">
        <ele>1926.1400000000001</ele>
        <time>2018-06-19T11:50:06Z</time>
      </trkpt>
      <trkpt lat="46.02646236307919" lon="8.046951340511441">
        <ele>1928.0599999999999</ele>
        <time>2018-06-19T11:49:57Z</time>
      </trkpt>
      <trkpt lat="46.026498572900891" lon="8.04687992669642">
        <ele>1929.98</ele>
        <time>2018-06-19T11:49:46Z</time>
      </trkpt>
      <trkpt lat="46.026511816307902" lon="8.046860480681062">
        <ele>1930.95</ele>
        <time>2018-06-19T11:49:42Z</time>
      </trkpt>
      <trkpt lat="46.026551797986031" lon="8.046744642779231">
        <ele>1932.8699999999999</ele>
        <time>2018-06-19T11:49:31Z</time>
      </trkpt>
      <trkpt lat="46.0265361238271" lon="8.046704409644008">
        <ele>1934.79</ele>
        <time>2018-06-19T11:49:24Z</time>
      </trkpt>
      <trkpt lat="46.026522377505898" lon="8.046698207035661">
        <ele>1935.27</ele>
        <time>2018-06-19T11:49:12Z</time>
      </trkpt>
      <trkpt lat="46.026530675590038" lon="8.046659482643008">
        <ele>1936.23</ele>
        <time>2018-06-19T11:49:03Z</time>
      </trkpt>
      <trkpt lat="46.026573171839118" lon="8.046584548428655">
        <ele>1937.1900000000001</ele>
        <time>2018-06-19T11:48:53Z</time>
      </trkpt>
      <trkpt lat="46.026623379439116" lon="8.046470219269395">
        <ele>1938.1600000000001</ele>
        <time>2018-06-19T11:48:41Z</time>
      </trkpt>
      <trkpt lat="46.026635365560651" lon="8.046440212056041">
        <ele>1938.6400000000001</ele>
        <time>2018-06-19T11:48:37Z</time>
      </trkpt>
      <trkpt lat="46.026670150458813" lon="8.046374749392271">
        <ele>1940.0799999999999</ele>
        <time>2018-06-19T11:48:28Z</time>
      </trkpt>
      <trkpt lat="46.026695547625422" lon="8.046299144625664">
        <ele>1941.04</ele>
        <time>2018-06-19T11:48:21Z</time>
      </trkpt>
      <trkpt lat="46.026730835437775" lon="8.046252205967903">
        <ele>1942.48</ele>
        <time>2018-06-19T11:48:14Z</time>
      </trkpt>
      <trkpt lat="46.026777271181345" lon="8.046205854043365">
        <ele>1944.8800000000001</ele>
        <time>2018-06-19T11:48:04Z</time>
      </trkpt>
      <trkpt lat="46.026798393577337" lon="8.046103343367577">
        <ele>1945.8499999999999</ele>
        <time>2018-06-19T11:47:53Z</time>
      </trkpt>
      <trkpt lat="46.026808870956302" lon="8.046054728329182">
        <ele>1946.3299999999999</ele>
        <time>2018-06-19T11:47:47Z</time>
      </trkpt>
      <trkpt lat="46.026808116585016" lon="8.046024888753891">
        <ele>1947.29</ele>
        <time>2018-06-19T11:47:38Z</time>
      </trkpt>
      <trkpt lat="46.026819348335266" lon="8.045959090813994">
        <ele>1948.73</ele>
        <time>2018-06-19T11:47:28Z</time>
      </trkpt>
      <trkpt lat="46.026831166818738" lon="8.045893795788288">
        <ele>1951.6099999999999</ele>
        <time>2018-06-19T11:47:24Z</time>
      </trkpt>
      <trkpt lat="46.026839967817068" lon="8.045868230983615">
        <ele>1951.6099999999999</ele>
        <time>2018-06-19T11:47:18Z</time>
      </trkpt>
      <trkpt lat="46.026861676946282" lon="8.045833948999643">
        <ele>1952.0899999999999</ele>
        <time>2018-06-19T11:47:09Z</time>
      </trkpt>
      <trkpt lat="46.026887577027082" lon="8.045741161331534">
        <ele>1953.0599999999999</ele>
        <time>2018-06-19T11:47:00Z</time>
      </trkpt>
      <trkpt lat="46.026891767978668" lon="8.04573361761868">
        <ele>1953.54</ele>
        <time>2018-06-19T11:46:59Z</time>
      </trkpt>
      <trkpt lat="46.026910627260804" lon="8.045644769445062">
        <ele>1954.98</ele>
        <time>2018-06-19T11:46:48Z</time>
      </trkpt>
      <trkpt lat="46.026959577575326" lon="8.04555868729949">
        <ele>1956.9000000000001</ele>
        <time>2018-06-19T11:46:38Z</time>
      </trkpt>
      <trkpt lat="46.026963097974658" lon="8.045548209920526">
        <ele>1956.9000000000001</ele>
        <time>2018-06-19T11:46:37Z</time>
      </trkpt>
      <trkpt lat="46.026985393837094" lon="8.045448632910848">
        <ele>1958.8199999999999</ele>
        <time>2018-06-19T11:46:27Z</time>
      </trkpt>
      <trkpt lat="46.02696712128818" lon="8.045390630140901">
        <ele>1960.75</ele>
        <time>2018-06-19T11:46:16Z</time>
      </trkpt>
      <trkpt lat="46.026980951428413" lon="8.045316701754928">
        <ele>1961.71</ele>
        <time>2018-06-19T11:46:06Z</time>
      </trkpt>
      <trkpt lat="46.026997044682503" lon="8.045241683721542">
        <ele>1963.1500000000001</ele>
        <time>2018-06-19T11:45:56Z</time>
      </trkpt>
      <trkpt lat="46.027036774903536" lon="8.045116374269128">
        <ele>1965.0699999999999</ele>
        <time>2018-06-19T11:45:46Z</time>
      </trkpt>
      <trkpt lat="46.027059908956289" lon="8.045043954625726">
        <ele>1966.03</ele>
        <time>2018-06-19T11:45:39Z</time>
      </trkpt>
      <trkpt lat="46.027082037180662" lon="8.044961057603359">
        <ele>1967.96</ele>
        <time>2018-06-19T11:45:30Z</time>
      </trkpt>
      <trkpt lat="46.0271249525249" lon="8.044880591332912">
        <ele>1969.8800000000001</ele>
        <time>2018-06-19T11:45:20Z</time>
      </trkpt>
      <trkpt lat="46.027131574228406" lon="8.044776655733585">
        <ele>1972.28</ele>
        <time>2018-06-19T11:45:10Z</time>
      </trkpt>
      <trkpt lat="46.027127634733915" lon="8.044712198898196">
        <ele>1973.72</ele>
        <time>2018-06-19T11:45:03Z</time>
      </trkpt>
      <trkpt lat="46.02715227752924" lon="8.044696105644107">
        <ele>1973.72</ele>
        <time>2018-06-19T11:45:00Z</time>
      </trkpt>
      <trkpt lat="46.027175914496183" lon="8.044658051803708">
        <ele>1974.6900000000001</ele>
        <time>2018-06-19T11:44:56Z</time>
      </trkpt>
      <trkpt lat="46.027193181216717" lon="8.044642880558968">
        <ele>1975.1700000000001</ele>
        <time>2018-06-19T11:44:54Z</time>
      </trkpt>
      <trkpt lat="46.027211453765631" lon="8.044627960771322">
        <ele>1975.1700000000001</ele>
        <time>2018-06-19T11:44:52Z</time>
      </trkpt>
      <trkpt lat="46.027283957228065" lon="8.044538944959641">
        <ele>1976.1300000000001</ele>
        <time>2018-06-19T11:44:41Z</time>
      </trkpt>
      <trkpt lat="46.027292674407363" lon="8.04452913813293">
        <ele>1975.6500000000001</ele>
        <time>2018-06-19T11:44:40Z</time>
      </trkpt>
      <trkpt lat="46.027302145957947" lon="8.044521845877171">
        <ele>1976.1300000000001</ele>
        <time>2018-06-19T11:44:39Z</time>
      </trkpt>
      <trkpt lat="46.027363082394004" lon="8.044468453153968">
        <ele>1978.05</ele>
        <time>2018-06-19T11:44:30Z</time>
      </trkpt>
      <trkpt lat="46.027415469288826" lon="8.044396452605724">
        <ele>1978.53</ele>
        <time>2018-06-19T11:44:21Z</time>
      </trkpt>
      <trkpt lat="46.027428964152932" lon="8.044385220855475">
        <ele>1978.53</ele>
        <time>2018-06-19T11:44:20Z</time>
      </trkpt>
      <trkpt lat="46.027442961931229" lon="8.044338030740619">
        <ele>1979.01</ele>
        <time>2018-06-19T11:44:10Z</time>
      </trkpt>
      <trkpt lat="46.027467353269458" lon="8.044292768463492">
        <ele>1979.49</ele>
        <time>2018-06-19T11:43:59Z</time>
      </trkpt>
      <trkpt lat="46.027482189238071" lon="8.04426921531558">
        <ele>1981.4100000000001</ele>
        <time>2018-06-19T11:43:53Z</time>
      </trkpt>
      <trkpt lat="46.027494259178638" lon="8.044232251122594">
        <ele>1982.8599999999999</ele>
        <time>2018-06-19T11:43:40Z</time>
      </trkpt>
      <trkpt lat="46.027522087097168" lon="8.044137116521597">
        <ele>1982.3800000000001</ele>
        <time>2018-06-19T11:43:31Z</time>
      </trkpt>
      <trkpt lat="46.027484033256769" lon="8.044112138450146">
        <ele>1982.3800000000001</ele>
        <time>2018-06-19T11:43:19Z</time>
      </trkpt>
      <trkpt lat="46.027439273893833" lon="8.044011471793056">
        <ele>1982.8599999999999</ele>
        <time>2018-06-19T11:43:07Z</time>
      </trkpt>
      <trkpt lat="46.027435921132565" lon="8.043927066028118">
        <ele>1984.3</ele>
        <time>2018-06-19T11:42:58Z</time>
      </trkpt>
      <trkpt lat="46.027442459017038" lon="8.043916085734963">
        <ele>1984.3</ele>
        <time>2018-06-19T11:42:57Z</time>
      </trkpt>
      <trkpt lat="46.027477746829391" lon="8.043826902285218">
        <ele>1985.74</ele>
        <time>2018-06-19T11:42:45Z</time>
      </trkpt>
      <trkpt lat="46.027516555041075" lon="8.043748363852501">
        <ele>1987.1800000000001</ele>
        <time>2018-06-19T11:42:34Z</time>
      </trkpt>
      <trkpt lat="46.027493169531226" lon="8.043672675266862">
        <ele>1986.22</ele>
        <time>2018-06-19T11:42:23Z</time>
      </trkpt>
      <trkpt lat="46.027439273893833" lon="8.043638812378049">
        <ele>1985.74</ele>
        <time>2018-06-19T11:42:13Z</time>
      </trkpt>
      <trkpt lat="46.027380265295506" lon="8.04359145462513">
        <ele>1985.74</ele>
        <time>2018-06-19T11:42:04Z</time>
      </trkpt>
      <trkpt lat="46.02736140601337" lon="8.043575948104262">
        <ele>1985.74</ele>
        <time>2018-06-19T11:42:02Z</time>
      </trkpt>
      <trkpt lat="46.027348497882485" lon="8.043569996953011">
        <ele>1986.22</ele>
        <time>2018-06-19T11:42:00Z</time>
      </trkpt>
      <trkpt lat="46.027293177321553" lon="8.043542504310608">
        <ele>1986.22</ele>
        <time>2018-06-19T11:41:51Z</time>
      </trkpt>
      <trkpt lat="46.027282364666462" lon="8.04354946129024">
        <ele>1986.22</ele>
        <time>2018-06-19T11:41:50Z</time>
      </trkpt>
      <trkpt lat="46.027275994420052" lon="8.043562788516283">
        <ele>1986.22</ele>
        <time>2018-06-19T11:41:49Z</time>
      </trkpt>
      <trkpt lat="46.027268534526229" lon="8.04358365945518">
        <ele>1986.22</ele>
        <time>2018-06-19T11:41:46Z</time>
      </trkpt>
      <trkpt lat="46.027251519262791" lon="8.043593466281891">
        <ele>1986.7</ele>
        <time>2018-06-19T11:41:38Z</time>
      </trkpt>
      <trkpt lat="46.027207430452108" lon="8.043586341664195">
        <ele>1988.6199999999999</ele>
        <time>2018-06-19T11:41:27Z</time>
      </trkpt>
      <trkpt lat="46.027190499007702" lon="8.043517023324966">
        <ele>1991.03</ele>
        <time>2018-06-19T11:41:16Z</time>
      </trkpt>
      <trkpt lat="46.027143225073814" lon="8.043582318350673">
        <ele>1991.99</ele>
        <time>2018-06-19T11:41:07Z</time>
      </trkpt>
      <trkpt lat="46.027132412418723" lon="8.04359195753932">
        <ele>1991.99</ele>
        <time>2018-06-19T11:41:06Z</time>
      </trkpt>
      <trkpt lat="46.02711028419435" lon="8.043567985296249">
        <ele>1993.9100000000001</ele>
        <time>2018-06-19T11:40:57Z</time>
      </trkpt>
      <trkpt lat="46.027134256437421" lon="8.043467234820128">
        <ele>1996.3199999999999</ele>
        <time>2018-06-19T11:40:47Z</time>
      </trkpt>
      <trkpt lat="46.027153450995684" lon="8.043408393859863">
        <ele>1997.76</ele>
        <time>2018-06-19T11:40:37Z</time>
      </trkpt>
      <trkpt lat="46.027158731594682" lon="8.043393306434155">
        <ele>1997.76</ele>
        <time>2018-06-19T11:40:36Z</time>
      </trkpt>
      <trkpt lat="46.027175495401025" lon="8.043361371383071">
        <ele>1999.2</ele>
        <time>2018-06-19T11:40:29Z</time>
      </trkpt>
      <trkpt lat="46.027183709666133" lon="8.043283754959703">
        <ele>2001.5999999999999</ele>
        <time>2018-06-19T11:40:17Z</time>
      </trkpt>
      <trkpt lat="46.027166359126568" lon="8.043228015303612">
        <ele>2002.5599999999999</ele>
        <time>2018-06-19T11:40:08Z</time>
      </trkpt>
      <trkpt lat="46.027108859270811" lon="8.04327679798007">
        <ele>2004.97</ele>
        <time>2018-06-19T11:39:56Z</time>
      </trkpt>
      <trkpt lat="46.027074912562966" lon="8.043344104662538">
        <ele>2005.45</ele>
        <time>2018-06-19T11:39:47Z</time>
      </trkpt>
      <trkpt lat="46.027032667770982" lon="8.043406214565039">
        <ele>2007.3699999999999</ele>
        <time>2018-06-19T11:39:38Z</time>
      </trkpt>
      <trkpt lat="46.027015568688512" lon="8.043390540406108">
        <ele>2008.8099999999999</ele>
        <time>2018-06-19T11:39:29Z</time>
      </trkpt>
      <trkpt lat="46.026996457949281" lon="8.043278977274895">
        <ele>2010.73</ele>
        <time>2018-06-19T11:39:19Z</time>
      </trkpt>
      <trkpt lat="46.026931330561638" lon="8.043332537636161">
        <ele>2012.6600000000001</ele>
        <time>2018-06-19T11:39:07Z</time>
      </trkpt>
      <trkpt lat="46.026882464066148" lon="8.043398503214121">
        <ele>2013.6199999999999</ele>
        <time>2018-06-19T11:38:58Z</time>
      </trkpt>
      <trkpt lat="46.026832340285182" lon="8.043415769934654">
        <ele>2014.5799999999999</ele>
        <time>2018-06-19T11:38:51Z</time>
      </trkpt>
      <trkpt lat="46.02678045630455" lon="8.043453991413117">
        <ele>2016.02</ele>
        <time>2018-06-19T11:38:41Z</time>
      </trkpt>
      <trkpt lat="46.026725471019745" lon="8.043504701927304">
        <ele>2016.02</ele>
        <time>2018-06-19T11:38:33Z</time>
      </trkpt>
      <trkpt lat="46.026704767718911" lon="8.043521549552679">
        <ele>2016.02</ele>
        <time>2018-06-19T11:38:31Z</time>
      </trkpt>
      <trkpt lat="46.026679370552301" lon="8.043526578694582">
        <ele>2016.5</ele>
        <time>2018-06-19T11:38:25Z</time>
      </trkpt>
      <trkpt lat="46.02663729339838" lon="8.043514173477888">
        <ele>2018.4300000000001</ele>
        <time>2018-06-19T11:38:15Z</time>
      </trkpt>
      <trkpt lat="46.026577614247799" lon="8.043523309752345">
        <ele>2020.8299999999999</ele>
        <time>2018-06-19T11:38:04Z</time>
      </trkpt>
      <trkpt lat="46.02651416324079" lon="8.043531021103263">
        <ele>2022.27</ele>
        <time>2018-06-19T11:37:54Z</time>
      </trkpt>
      <trkpt lat="46.026465883478522" lon="8.043513000011444">
        <ele>2023.71</ele>
        <time>2018-06-19T11:37:45Z</time>
      </trkpt>
      <trkpt lat="46.026385920122266" lon="8.043555496260524">
        <ele>2026.1199999999999</ele>
        <time>2018-06-19T11:37:33Z</time>
      </trkpt>
      <trkpt lat="46.026378711685538" lon="8.043562788516283">
        <ele>2026.1199999999999</ele>
        <time>2018-06-19T11:37:32Z</time>
      </trkpt>
      <trkpt lat="46.026345854625106" lon="8.043580809608102">
        <ele>2028.04</ele>
        <time>2018-06-19T11:37:22Z</time>
      </trkpt>
      <trkpt lat="46.026328252628446" lon="8.043573265895248">
        <ele>2029.48</ele>
        <time>2018-06-19T11:37:14Z</time>
      </trkpt>
      <trkpt lat="46.026290953159332" lon="8.043496906757355">
        <ele>2030.4400000000001</ele>
        <time>2018-06-19T11:37:08Z</time>
      </trkpt>
      <trkpt lat="46.02624736726284" lon="8.043544180691242">
        <ele>2031.8800000000001</ele>
        <time>2018-06-19T11:36:58Z</time>
      </trkpt>
      <trkpt lat="46.026218952611089" lon="8.043607799336314">
        <ele>2033.8099999999999</ele>
        <time>2018-06-19T11:36:49Z</time>
      </trkpt>
      <trkpt lat="46.026203949004412" lon="8.043614001944661">
        <ele>2035.25</ele>
        <time>2018-06-19T11:36:41Z</time>
      </trkpt>
      <trkpt lat="46.026202272623777" lon="8.043501432985067">
        <ele>2036.21</ele>
        <time>2018-06-19T11:36:33Z</time>
      </trkpt>
      <trkpt lat="46.026192465797067" lon="8.043486597016454">
        <ele>2036.6900000000001</ele>
        <time>2018-06-19T11:36:31Z</time>
      </trkpt>
      <trkpt lat="46.026202104985714" lon="8.043416272848845">
        <ele>2039.0899999999999</ele>
        <time>2018-06-19T11:36:21Z</time>
      </trkpt>
      <trkpt lat="46.026195818558335" lon="8.043334884569049">
        <ele>2041.5</ele>
        <time>2018-06-19T11:36:11Z</time>
      </trkpt>
      <trkpt lat="46.02612717077136" lon="8.043296914547682">
        <ele>2043.9000000000001</ele>
        <time>2018-06-19T11:36:00Z</time>
      </trkpt>
      <trkpt lat="46.026112670078874" lon="8.043293142691255">
        <ele>2044.8599999999999</ele>
        <time>2018-06-19T11:35:58Z</time>
      </trkpt>
      <trkpt lat="46.026123063638806" lon="8.043259279802442">
        <ele>2045.3399999999999</ele>
        <time>2018-06-19T11:35:55Z</time>
      </trkpt>
      <trkpt lat="46.026130272075534" lon="8.043246287852526">
        <ele>2045.8199999999999</ele>
        <time>2018-06-19T11:35:54Z</time>
      </trkpt>
      <trkpt lat="46.026135217398405" lon="8.043230613693595">
        <ele>2045.8199999999999</ele>
        <time>2018-06-19T11:35:53Z</time>
      </trkpt>
      <trkpt lat="46.026137731969357" lon="8.043213430792093">
        <ele>2046.3</ele>
        <time>2018-06-19T11:35:52Z</time>
      </trkpt>
      <trkpt lat="46.026137648150325" lon="8.04319323040545">
        <ele>2046.78</ele>
        <time>2018-06-19T11:35:51Z</time>
      </trkpt>
      <trkpt lat="46.026134882122278" lon="8.043176382780075">
        <ele>2046.78</ele>
        <time>2018-06-19T11:35:50Z</time>
      </trkpt>
      <trkpt lat="46.02612323127687" lon="8.043123073875904">
        <ele>2048.71</ele>
        <time>2018-06-19T11:35:41Z</time>
      </trkpt>
      <trkpt lat="46.026112921535969" lon="8.043055683374405">
        <ele>2050.1500000000001</ele>
        <time>2018-06-19T11:35:32Z</time>
      </trkpt>
      <trkpt lat="46.026067491620779" lon="8.043092899024487">
        <ele>2051.5900000000001</ele>
        <time>2018-06-19T11:35:23Z</time>
      </trkpt>
      <trkpt lat="46.026011249050498" lon="8.043054090812802">
        <ele>2053.9899999999998</ele>
        <time>2018-06-19T11:35:12Z</time>
      </trkpt>
      <trkpt lat="46.025947462767363" lon="8.043047888204455">
        <ele>2055.9200000000001</ele>
        <time>2018-06-19T11:35:03Z</time>
      </trkpt>
      <trkpt lat="46.025892226025462" lon="8.043005643412471">
        <ele>2057.3600000000001</ele>
        <time>2018-06-19T11:34:54Z</time>
      </trkpt>
      <trkpt lat="46.025835983455181" lon="8.042987789958715">
        <ele>2059.2800000000002</ele>
        <time>2018-06-19T11:34:44Z</time>
      </trkpt>
      <trkpt lat="46.025760965421796" lon="8.043033974245191">
        <ele>2061.6799999999998</ele>
        <time>2018-06-19T11:34:32Z</time>
      </trkpt>
      <trkpt lat="46.025708243250847" lon="8.042897684499621">
        <ele>2061.1999999999998</ele>
        <time>2018-06-19T11:34:20Z</time>
      </trkpt>
      <trkpt lat="46.025703549385071" lon="8.042881591245532">
        <ele>2061.1999999999998</ele>
        <time>2018-06-19T11:34:19Z</time>
      </trkpt>
      <trkpt lat="46.025698520243168" lon="8.042864911258221">
        <ele>2061.6799999999998</ele>
        <time>2018-06-19T11:34:18Z</time>
      </trkpt>
      <trkpt lat="46.025675050914288" lon="8.042820990085602">
        <ele>2062.6500000000001</ele>
        <time>2018-06-19T11:34:13Z</time>
      </trkpt>
      <trkpt lat="46.025615036487579" lon="8.042765753343701">
        <ele>2064.5700000000002</ele>
        <time>2018-06-19T11:34:03Z</time>
      </trkpt>
      <trkpt lat="46.025568768382072" lon="8.042708337306976">
        <ele>2066.4899999999998</ele>
        <time>2018-06-19T11:33:52Z</time>
      </trkpt>
      <trkpt lat="46.025518644601107" lon="8.042682185769081">
        <ele>2066.9699999999998</ele>
        <time>2018-06-19T11:33:44Z</time>
      </trkpt>
      <trkpt lat="46.025498108938336" lon="8.042667349800468">
        <ele>2067.4499999999998</ele>
        <time>2018-06-19T11:33:42Z</time>
      </trkpt>
      <trkpt lat="46.025492493063211" lon="8.042652094736695">
        <ele>2067.9299999999998</ele>
        <time>2018-06-19T11:33:41Z</time>
      </trkpt>
      <trkpt lat="46.02548654191196" lon="8.042637845501304">
        <ele>2067.9299999999998</ele>
        <time>2018-06-19T11:33:40Z</time>
      </trkpt>
      <trkpt lat="46.025430802255869" lon="8.04261764511466">
        <ele>2068.8899999999999</ele>
        <time>2018-06-19T11:33:34Z</time>
      </trkpt>
      <trkpt lat="46.025419402867556" lon="8.042613621801138">
        <ele>2068.8899999999999</ele>
        <time>2018-06-19T11:33:33Z</time>
      </trkpt>
      <trkpt lat="46.025408841669559" lon="8.042604653164744">
        <ele>2068.8899999999999</ele>
        <time>2018-06-19T11:33:32Z</time>
      </trkpt>
      <trkpt lat="46.02536978200078" lon="8.042574813589454">
        <ele>2070.3400000000001</ele>
        <time>2018-06-19T11:33:25Z</time>
      </trkpt>
      <trkpt lat="46.025298368185759" lon="8.04255947470665">
        <ele>2071.7800000000002</ele>
        <time>2018-06-19T11:33:13Z</time>
      </trkpt>
      <trkpt lat="46.025287639349699" lon="8.042546566575766">
        <ele>2072.2600000000002</ele>
        <time>2018-06-19T11:33:12Z</time>
      </trkpt>
      <trkpt lat="46.025277161970735" lon="8.042531730607152">
        <ele>2072.2600000000002</ele>
        <time>2018-06-19T11:33:11Z</time>
      </trkpt>
      <trkpt lat="46.02521438151598" lon="8.042548913508654">
        <ele>2074.6599999999999</ele>
        <time>2018-06-19T11:33:01Z</time>
      </trkpt>
      <trkpt lat="46.025146655738354" lon="8.042536843568087">
        <ele>2077.5500000000002</ele>
        <time>2018-06-19T11:32:50Z</time>
      </trkpt>
      <trkpt lat="46.02511128410697" lon="8.042534161359072">
        <ele>2078.9899999999998</ele>
        <time>2018-06-19T11:32:42Z</time>
      </trkpt>
      <trkpt lat="46.025084545835853" lon="8.042464172467589">
        <ele>2080.9099999999999</ele>
        <time>2018-06-19T11:32:34Z</time>
      </trkpt>
      <trkpt lat="46.025028051808476" lon="8.042478589341044">
        <ele>2082.3499999999999</ele>
        <time>2018-06-19T11:32:24Z</time>
      </trkpt>
      <trkpt lat="46.02500039152801" lon="8.042445899918675">
        <ele>2083.79</ele>
        <time>2018-06-19T11:32:15Z</time>
      </trkpt>
      <trkpt lat="46.025007516145706" lon="8.042425615713">
        <ele>2084.7600000000002</ele>
        <time>2018-06-19T11:32:13Z</time>
      </trkpt>
      <trkpt lat="46.025000894442201" lon="8.042373228818178">
        <ele>2087.1599999999999</ele>
        <time>2018-06-19T11:32:03Z</time>
      </trkpt>
      <trkpt lat="46.025028638541698" lon="8.0423479154706">
        <ele>2088.5999999999999</ele>
        <time>2018-06-19T11:31:55Z</time>
      </trkpt>
      <trkpt lat="46.025049006566405" lon="8.04230734705925">
        <ele>2090.04</ele>
        <time>2018-06-19T11:31:45Z</time>
      </trkpt>
      <trkpt lat="46.025097705423832" lon="8.04226141422987">
        <ele>2091.9699999999998</ele>
        <time>2018-06-19T11:31:36Z</time>
      </trkpt>
      <trkpt lat="46.025120420381427" lon="8.042197711765766">
        <ele>2093.8899999999999</ele>
        <time>2018-06-19T11:31:27Z</time>
      </trkpt>
      <trkpt lat="46.025117821991444" lon="8.042152114212513">
        <ele>2095.8099999999999</ele>
        <time>2018-06-19T11:31:18Z</time>
      </trkpt>
      <trkpt lat="46.025164425373077" lon="8.042068378999829">
        <ele>2098.6999999999998</ele>
        <time>2018-06-19T11:31:06Z</time>
      </trkpt>
      <trkpt lat="46.025188146159053" lon="8.041994282975793">
        <ele>2100.6199999999999</ele>
        <time>2018-06-19T11:31:00Z</time>
      </trkpt>
      <trkpt lat="46.025197533890605" lon="8.041947679594159">
        <ele>2102.0599999999999</ele>
        <time>2018-06-19T11:30:52Z</time>
      </trkpt>
      <trkpt lat="46.025253860279918" lon="8.041952792555094">
        <ele>2103.02</ele>
        <time>2018-06-19T11:30:45Z</time>
      </trkpt>
      <trkpt lat="46.025253022089601" lon="8.041891353204846">
        <ele>2104.9400000000001</ele>
        <time>2018-06-19T11:30:38Z</time>
      </trkpt>
      <trkpt lat="46.025268277153373" lon="8.04187148809433">
        <ele>2107.3499999999999</ele>
        <time>2018-06-19T11:30:30Z</time>
      </trkpt>
      <trkpt lat="46.025256710126996" lon="8.04183728992939">
        <ele>2108.3099999999999</ele>
        <time>2018-06-19T11:30:22Z</time>
      </trkpt>
      <trkpt lat="46.025281688198447" lon="8.041849695146084">
        <ele>2108.3099999999999</ele>
        <time>2018-06-19T11:30:19Z</time>
      </trkpt>
      <trkpt lat="46.025292668491602" lon="8.041859837248921">
        <ele>2108.3099999999999</ele>
        <time>2018-06-19T11:30:18Z</time>
      </trkpt>
      <trkpt lat="46.025323094800115" lon="8.041841061785817">
        <ele>2111.1900000000001</ele>
        <time>2018-06-19T11:30:09Z</time>
      </trkpt>
      <trkpt lat="46.025334075093269" lon="8.041790099814534">
        <ele>2113.1199999999999</ele>
        <time>2018-06-19T11:30:05Z</time>
      </trkpt>
      <trkpt lat="46.025316808372736" lon="8.041745005175471">
        <ele>2114.0799999999999</ele>
        <time>2018-06-19T11:30:00Z</time>
      </trkpt>
      <trkpt lat="46.025267690420151" lon="8.041673423722386">
        <ele>2117.4400000000001</ele>
        <time>2018-06-19T11:29:50Z</time>
      </trkpt>
      <trkpt lat="46.025252854451537" lon="8.041672753170133">
        <ele>2117.4400000000001</ele>
        <time>2018-06-19T11:29:48Z</time>
      </trkpt>
      <trkpt lat="46.025192756205797" lon="8.041604775935412">
        <ele>2119.3600000000001</ele>
        <time>2018-06-19T11:29:38Z</time>
      </trkpt>
      <trkpt lat="46.025190325453877" lon="8.04161299020052">
        <ele>2119.3600000000001</ele>
        <time>2018-06-19T11:29:29Z</time>
      </trkpt>
      <trkpt lat="46.025215303525329" lon="8.041537804529071">
        <ele>2120.8099999999999</ele>
        <time>2018-06-19T11:29:19Z</time>
      </trkpt>
      <trkpt lat="46.025221087038517" lon="8.041535625234246">
        <ele>2120.8099999999999</ele>
        <time>2018-06-19T11:29:18Z</time>
      </trkpt>
      <trkpt lat="46.025282107293606" lon="8.041533445939422">
        <ele>2122.25</ele>
        <time>2018-06-19T11:29:10Z</time>
      </trkpt>
      <trkpt lat="46.025338098406792" lon="8.041549287736416">
        <ele>2123.21</ele>
        <time>2018-06-19T11:29:00Z</time>
      </trkpt>
      <trkpt lat="46.025402136147022" lon="8.041489692404866">
        <ele>2124.6500000000001</ele>
        <time>2018-06-19T11:28:51Z</time>
      </trkpt>
      <trkpt lat="46.025406997650862" lon="8.041478376835585">
        <ele>2124.6500000000001</ele>
        <time>2018-06-19T11:28:50Z</time>
      </trkpt>
      <trkpt lat="46.025414876639843" lon="8.041454404592514">
        <ele>2125.1300000000001</ele>
        <time>2018-06-19T11:28:48Z</time>
      </trkpt>
      <trkpt lat="46.025418816134334" lon="8.041442669928074">
        <ele>2124.6500000000001</ele>
        <time>2018-06-19T11:28:47Z</time>
      </trkpt>
      <trkpt lat="46.025422923266888" lon="8.041431438177824">
        <ele>2124.1700000000001</ele>
        <time>2018-06-19T11:28:46Z</time>
      </trkpt>
      <trkpt lat="46.025425773113966" lon="8.041397910565138">
        <ele>2123.6900000000001</ele>
        <time>2018-06-19T11:28:43Z</time>
      </trkpt>
      <trkpt lat="46.025444129481912" lon="8.041355414316058">
        <ele>2122.73</ele>
        <time>2018-06-19T11:28:37Z</time>
      </trkpt>
      <trkpt lat="46.025508418679237" lon="8.041271427646279">
        <ele>2123.21</ele>
        <time>2018-06-19T11:28:28Z</time>
      </trkpt>
      <trkpt lat="46.025514956563711" lon="8.041256675496697">
        <ele>2123.6900000000001</ele>
        <time>2018-06-19T11:28:27Z</time>
      </trkpt>
      <trkpt lat="46.025507915765047" lon="8.0411805678159">
        <ele>2125.1300000000001</ele>
        <time>2018-06-19T11:28:20Z</time>
      </trkpt>
      <trkpt lat="46.025504563003778" lon="8.041166318580508">
        <ele>2125.6100000000001</ele>
        <time>2018-06-19T11:28:19Z</time>
      </trkpt>
      <trkpt lat="46.025478076189756" lon="8.041103202849627">
        <ele>2127.0500000000002</ele>
        <time>2018-06-19T11:28:10Z</time>
      </trkpt>
      <trkpt lat="46.025416636839509" lon="8.041073027998209">
        <ele>2128.02</ele>
        <time>2018-06-19T11:28:01Z</time>
      </trkpt>
      <trkpt lat="46.025406578555703" lon="8.041064981371164">
        <ele>2128.02</ele>
        <time>2018-06-19T11:28:00Z</time>
      </trkpt>
      <trkpt lat="46.025395765900612" lon="8.041060958057642">
        <ele>2128.02</ele>
        <time>2018-06-19T11:27:59Z</time>
      </trkpt>
      <trkpt lat="46.025386126711965" lon="8.041061628609896">
        <ele>2128.02</ele>
        <time>2018-06-19T11:27:58Z</time>
      </trkpt>
      <trkpt lat="46.025316137820482" lon="8.041032962501049">
        <ele>2130.9000000000001</ele>
        <time>2018-06-19T11:27:48Z</time>
      </trkpt>
      <trkpt lat="46.025260901078582" lon="8.041054671630263">
        <ele>2132.3400000000001</ele>
        <time>2018-06-19T11:27:39Z</time>
      </trkpt>
      <trkpt lat="46.025250339880586" lon="8.041050732135773">
        <ele>2132.8200000000002</ele>
        <time>2018-06-19T11:27:38Z</time>
      </trkpt>
      <trkpt lat="46.025245478376746" lon="8.04101443849504">
        <ele>2134.2600000000002</ele>
        <time>2018-06-19T11:27:32Z</time>
      </trkpt>
      <trkpt lat="46.025269869714975" lon="8.040980575606227">
        <ele>2135.23</ele>
        <time>2018-06-19T11:27:28Z</time>
      </trkpt>
      <trkpt lat="46.025291327387094" lon="8.040979905053973">
        <ele>2135.23</ele>
        <time>2018-06-19T11:27:26Z</time>
      </trkpt>
      <trkpt lat="46.025296943262219" lon="8.040969092398882">
        <ele>2135.23</ele>
        <time>2018-06-19T11:27:25Z</time>
      </trkpt>
      <trkpt lat="46.025322256609797" lon="8.040912263095379">
        <ele>2137.1500000000001</ele>
        <time>2018-06-19T11:27:17Z</time>
      </trkpt>
      <trkpt lat="46.025317227467895" lon="8.040881250053644">
        <ele>2138.5900000000001</ele>
        <time>2018-06-19T11:27:14Z</time>
      </trkpt>
      <trkpt lat="46.025314377620816" lon="8.040818301960826">
        <ele>2140.0300000000002</ele>
        <time>2018-06-19T11:27:04Z</time>
      </trkpt>
      <trkpt lat="46.025315718725324" lon="8.040749486535788">
        <ele>2141.9499999999998</ele>
        <time>2018-06-19T11:26:53Z</time>
      </trkpt>
      <trkpt lat="46.025332901626825" lon="8.040708750486374">
        <ele>2142.9200000000001</ele>
        <time>2018-06-19T11:26:49Z</time>
      </trkpt>
      <trkpt lat="46.025336170569062" lon="8.040684275329113">
        <ele>2142.9200000000001</ele>
        <time>2018-06-19T11:26:47Z</time>
      </trkpt>
      <trkpt lat="46.025341367349029" lon="8.040647814050317">
        <ele>2143.8800000000001</ele>
        <time>2018-06-19T11:26:42Z</time>
      </trkpt>
      <trkpt lat="46.025336673483253" lon="8.040639851242304">
        <ele>2144.3600000000001</ele>
        <time>2018-06-19T11:26:39Z</time>
      </trkpt>
      <trkpt lat="46.025332314893603" lon="8.040580842643976">
        <ele>2144.8400000000001</ele>
        <time>2018-06-19T11:26:28Z</time>
      </trkpt>
      <trkpt lat="46.025316808372736" lon="8.040548823773861">
        <ele>2146.2800000000002</ele>
        <time>2018-06-19T11:26:17Z</time>
      </trkpt>
      <trkpt lat="46.025314209982753" lon="8.04054924286902">
        <ele>2146.2800000000002</ele>
        <time>2018-06-19T11:26:12Z</time>
      </trkpt>
      <trkpt lat="46.025298871099949" lon="8.040545303374529">
        <ele>2147.2399999999998</ele>
        <time>2018-06-19T11:26:01Z</time>
      </trkpt>
      <trkpt lat="46.025313036516309" lon="8.040522169321775">
        <ele>2148.1999999999998</ele>
        <time>2018-06-19T11:25:53Z</time>
      </trkpt>
      <trkpt lat="46.025317227467895" lon="8.040501214563847">
        <ele>2148.1999999999998</ele>
        <time>2018-06-19T11:25:45Z</time>
      </trkpt>
      <trkpt lat="46.025307672098279" lon="8.040472129359841">
        <ele>2149.6500000000001</ele>
        <time>2018-06-19T11:25:35Z</time>
      </trkpt>
      <trkpt lat="46.025323513895273" lon="8.040478499606252">
        <ele>2150.6100000000001</ele>
        <time>2018-06-19T11:25:30Z</time>
      </trkpt>
      <trkpt lat="46.02533021941781" lon="8.040451845154166">
        <ele>2151.0900000000001</ele>
        <time>2018-06-19T11:25:21Z</time>
      </trkpt>
      <trkpt lat="46.025333320721984" lon="8.04044371470809">
        <ele>2152.0500000000002</ele>
        <time>2018-06-19T11:25:13Z</time>
      </trkpt>
      <trkpt lat="46.025368524715304" lon="8.040413958951831">
        <ele>2153.9699999999998</ele>
        <time>2018-06-19T11:25:03Z</time>
      </trkpt>
      <trkpt lat="46.025399034842849" lon="8.040389819070697">
        <ele>2155.4099999999999</ele>
        <time>2018-06-19T11:24:53Z</time>
      </trkpt>
      <trkpt lat="46.025408590212464" lon="8.040367187932134">
        <ele>2155.8899999999999</ele>
        <time>2018-06-19T11:24:42Z</time>
      </trkpt>
      <trkpt lat="46.025440189987421" lon="8.040362326428294">
        <ele>2157.3400000000001</ele>
        <time>2018-06-19T11:24:31Z</time>
      </trkpt>
      <trkpt lat="46.025477237999439" lon="8.040374564006925">
        <ele>2158.7800000000002</ele>
        <time>2018-06-19T11:24:22Z</time>
      </trkpt>
      <trkpt lat="46.025508083403111" lon="8.040367774665356">
        <ele>2160.6999999999998</ele>
        <time>2018-06-19T11:24:13Z</time>
      </trkpt>
      <trkpt lat="46.025571031495929" lon="8.040350675582886">
        <ele>2161.6599999999999</ele>
        <time>2018-06-19T11:24:03Z</time>
      </trkpt>
      <trkpt lat="46.025640098378062" lon="8.04029812105">
        <ele>2163.5799999999999</ele>
        <time>2018-06-19T11:23:52Z</time>
      </trkpt>
      <trkpt lat="46.025720061734319" lon="8.040232323110104">
        <ele>2165.9899999999998</ele>
        <time>2018-06-19T11:23:41Z</time>
      </trkpt>
      <trkpt lat="46.025661388412118" lon="8.040149426087737">
        <ele>2168.8699999999999</ele>
        <time>2018-06-19T11:23:31Z</time>
      </trkpt>
      <trkpt lat="46.025649989023805" lon="8.040100140497088">
        <ele>2170.3099999999999</ele>
        <time>2018-06-19T11:23:23Z</time>
      </trkpt>
      <trkpt lat="46.025698520243168" lon="8.040078682824969">
        <ele>2171.7600000000002</ele>
        <time>2018-06-19T11:23:14Z</time>
      </trkpt>
      <trkpt lat="46.025719726458192" lon="8.040083544328809">
        <ele>2172.7199999999998</ele>
        <time>2018-06-19T11:23:11Z</time>
      </trkpt>
      <trkpt lat="46.025729952380061" lon="8.040037443861365">
        <ele>2173.6799999999998</ele>
        <time>2018-06-19T11:23:05Z</time>
      </trkpt>
      <trkpt lat="46.025681002065539" lon="8.039989247918129">
        <ele>2175.1199999999999</ele>
        <time>2018-06-19T11:22:55Z</time>
      </trkpt>
      <trkpt lat="46.025672201067209" lon="8.039982877671719">
        <ele>2175.5999999999999</ele>
        <time>2018-06-19T11:22:53Z</time>
      </trkpt>
      <trkpt lat="46.025660634040833" lon="8.039955971762538">
        <ele>2177.04</ele>
        <time>2018-06-19T11:22:40Z</time>
      </trkpt>
      <trkpt lat="46.025690222159028" lon="8.039937950670719">
        <ele>2178</ele>
        <time>2018-06-19T11:22:36Z</time>
      </trkpt>
      <trkpt lat="46.02575920522213" lon="8.039978183805943">
        <ele>2179.9299999999998</ele>
        <time>2018-06-19T11:22:25Z</time>
      </trkpt>
      <trkpt lat="46.025781417265534" lon="8.039948679506779">
        <ele>2181.3699999999999</ele>
        <time>2018-06-19T11:22:20Z</time>
      </trkpt>
      <trkpt lat="46.025855597108603" lon="8.039937783032656">
        <ele>2183.77</ele>
        <time>2018-06-19T11:22:11Z</time>
      </trkpt>
      <trkpt lat="46.025864062830806" lon="8.039925545454025">
        <ele>2183.77</ele>
        <time>2018-06-19T11:22:10Z</time>
      </trkpt>
      <trkpt lat="46.02586917579174" lon="8.039909284561873">
        <ele>2184.25</ele>
        <time>2018-06-19T11:22:09Z</time>
      </trkpt>
      <trkpt lat="46.025871941819787" lon="8.039890341460705">
        <ele>2184.73</ele>
        <time>2018-06-19T11:22:08Z</time>
      </trkpt>
      <trkpt lat="46.025869930163026" lon="8.039874583482742">
        <ele>2184.73</ele>
        <time>2018-06-19T11:22:07Z</time>
      </trkpt>
      <trkpt lat="46.025863727554679" lon="8.039862178266048">
        <ele>2184.73</ele>
        <time>2018-06-19T11:22:06Z</time>
      </trkpt>
      <trkpt lat="46.025859620422125" lon="8.039849773049355">
        <ele>2185.21</ele>
        <time>2018-06-19T11:22:05Z</time>
      </trkpt>
      <trkpt lat="46.025859033688903" lon="8.039826052263379">
        <ele>2185.21</ele>
        <time>2018-06-19T11:22:03Z</time>
      </trkpt>
      <trkpt lat="46.025860039517283" lon="8.039771318435669">
        <ele>2186.1799999999998</ele>
        <time>2018-06-19T11:21:57Z</time>
      </trkpt>
      <trkpt lat="46.025817543268204" lon="8.03972790017724">
        <ele>2187.1399999999999</ele>
        <time>2018-06-19T11:21:48Z</time>
      </trkpt>
      <trkpt lat="46.025777980685234" lon="8.03969806060195">
        <ele>2187.6199999999999</ele>
        <time>2018-06-19T11:21:38Z</time>
      </trkpt>
      <trkpt lat="46.025739423930645" lon="8.039692444726825">
        <ele>2188.0999999999999</ele>
        <time>2018-06-19T11:21:29Z</time>
      </trkpt>
      <trkpt lat="46.02572550997138" lon="8.039694707840681">
        <ele>2189.0599999999999</ele>
        <time>2018-06-19T11:21:27Z</time>
      </trkpt>
      <trkpt lat="46.025775298476219" lon="8.039677189663053">
        <ele>2190.98</ele>
        <time>2018-06-19T11:21:17Z</time>
      </trkpt>
      <trkpt lat="46.025785356760025" lon="8.039679285138845">
        <ele>2191.46</ele>
        <time>2018-06-19T11:21:16Z</time>
      </trkpt>
      <trkpt lat="46.025806646794081" lon="8.03965263068676">
        <ele>2193.3899999999999</ele>
        <time>2018-06-19T11:21:11Z</time>
      </trkpt>
      <trkpt lat="46.025877557694912" lon="8.03964676335454">
        <ele>2193.8699999999999</ele>
        <time>2018-06-19T11:21:01Z</time>
      </trkpt>
      <trkpt lat="46.025903290137649" lon="8.039660342037678">
        <ele>2194.8299999999999</ele>
        <time>2018-06-19T11:20:57Z</time>
      </trkpt>
      <trkpt lat="46.02595517411828" lon="8.039656989276409">
        <ele>2196.75</ele>
        <time>2018-06-19T11:20:49Z</time>
      </trkpt>
      <trkpt lat="46.026023738086224" lon="8.039627736434341">
        <ele>2199.1500000000001</ele>
        <time>2018-06-19T11:20:39Z</time>
      </trkpt>
      <trkpt lat="46.026048799976707" lon="8.039588173851371">
        <ele>2201.0799999999999</ele>
        <time>2018-06-19T11:20:29Z</time>
      </trkpt>
      <trkpt lat="46.026094565168023" lon="8.039565794169903">
        <ele>2202.04</ele>
        <time>2018-06-19T11:20:22Z</time>
      </trkpt>
      <trkpt lat="46.026179976761341" lon="8.039623964577913">
        <ele>2203</ele>
        <time>2018-06-19T11:20:11Z</time>
      </trkpt>
      <trkpt lat="46.02625323459506" lon="8.039628574624658">
        <ele>2203.96</ele>
        <time>2018-06-19T11:20:03Z</time>
      </trkpt>
      <trkpt lat="46.026272010058165" lon="8.039623629301786">
        <ele>2203.96</ele>
        <time>2018-06-19T11:20:01Z</time>
      </trkpt>
      <trkpt lat="46.026278296485543" lon="8.039615582674742">
        <ele>2204.4400000000001</ele>
        <time>2018-06-19T11:20:00Z</time>
      </trkpt>
      <trkpt lat="46.026348704472184" lon="8.03963745944202">
        <ele>2205.4000000000001</ele>
        <time>2018-06-19T11:19:50Z</time>
      </trkpt>
      <trkpt lat="46.026371838524938" lon="8.039650283753872">
        <ele>2205.4000000000001</ele>
        <time>2018-06-19T11:19:41Z</time>
      </trkpt>
      <trkpt lat="46.026406204327941" lon="8.039643578231335">
        <ele>2206.3600000000001</ele>
        <time>2018-06-19T11:19:32Z</time>
      </trkpt>
      <trkpt lat="46.026456076651812" lon="8.039717841893435">
        <ele>2206.8400000000001</ele>
        <time>2018-06-19T11:19:24Z</time>
      </trkpt>
      <trkpt lat="46.026517767459154" lon="8.039725972339511">
        <ele>2208.77</ele>
        <time>2018-06-19T11:19:16Z</time>
      </trkpt>
      <trkpt lat="46.02658499032259" lon="8.03970200009644">
        <ele>2210.21</ele>
        <time>2018-06-19T11:19:07Z</time>
      </trkpt>
      <trkpt lat="46.026598066091537" lon="8.039699988439679">
        <ele>2210.21</ele>
        <time>2018-06-19T11:19:06Z</time>
      </trkpt>
      <trkpt lat="46.026633772999048" lon="8.03969613276422">
        <ele>2210.6900000000001</ele>
        <time>2018-06-19T11:19:02Z</time>
      </trkpt>
      <trkpt lat="46.026655482128263" lon="8.039697725325823">
        <ele>2210.6900000000001</ele>
        <time>2018-06-19T11:18:53Z</time>
      </trkpt>
      <trkpt lat="46.026669899001718" lon="8.039700575172901">
        <ele>2211.1700000000001</ele>
        <time>2018-06-19T11:18:49Z</time>
      </trkpt>
      <trkpt lat="46.026671659201384" lon="8.039691271260381">
        <ele>2211.6500000000001</ele>
        <time>2018-06-19T11:18:34Z</time>
      </trkpt>
      <trkpt lat="46.026721280068159" lon="8.039712896570563">
        <ele>2211.6500000000001</ele>
        <time>2018-06-19T11:18:25Z</time>
      </trkpt>
      <trkpt lat="46.026820773258805" lon="8.039690349251032">
        <ele>2211.6500000000001</ele>
        <time>2018-06-19T11:18:15Z</time>
      </trkpt>
      <trkpt lat="46.026837453246117" lon="8.039687164127827">
        <ele>2211.6500000000001</ele>
        <time>2018-06-19T11:18:13Z</time>
      </trkpt>
      <trkpt lat="46.026911968365312" lon="8.039668807759881">
        <ele>2212.6100000000001</ele>
        <time>2018-06-19T11:18:04Z</time>
      </trkpt>
      <trkpt lat="46.02692412212491" lon="8.039666125550866">
        <ele>2212.6100000000001</ele>
        <time>2018-06-19T11:18:03Z</time>
      </trkpt>
      <trkpt lat="46.02693778462708" lon="8.039641147479415">
        <ele>2213.5700000000002</ele>
        <time>2018-06-19T11:18:01Z</time>
      </trkpt>
      <trkpt lat="46.026926888152957" lon="8.039614576846361">
        <ele>2215.0100000000002</ele>
        <time>2018-06-19T11:17:56Z</time>
      </trkpt>
      <trkpt lat="46.026944573968649" lon="8.039543330669403">
        <ele>2216.46</ele>
        <time>2018-06-19T11:17:47Z</time>
      </trkpt>
      <trkpt lat="46.026928145438433" lon="8.039389103651047">
        <ele>2216.9400000000001</ele>
        <time>2018-06-19T11:17:36Z</time>
      </trkpt>
      <trkpt lat="46.026924457401037" lon="8.039373597130179">
        <ele>2217.4200000000001</ele>
        <time>2018-06-19T11:17:35Z</time>
      </trkpt>
      <trkpt lat="46.026896964758635" lon="8.03934819996357">
        <ele>2218.3800000000001</ele>
        <time>2018-06-19T11:17:31Z</time>
      </trkpt>
      <trkpt lat="46.02686008438468" lon="8.039312744513154">
        <ele>2219.3400000000001</ele>
        <time>2018-06-19T11:17:22Z</time>
      </trkpt>
      <trkpt lat="46.026956224814057" lon="8.039321629330516">
        <ele>2221.7399999999998</ele>
        <time>2018-06-19T11:17:14Z</time>
      </trkpt>
      <trkpt lat="46.027067871764302" lon="8.039238816127181">
        <ele>2223.6700000000001</ele>
        <time>2018-06-19T11:17:03Z</time>
      </trkpt>
      <trkpt lat="46.027132580056787" lon="8.039205372333527">
        <ele>2225.5900000000001</ele>
        <time>2018-06-19T11:16:55Z</time>
      </trkpt>
      <trkpt lat="46.027222350239754" lon="8.03911853581667">
        <ele>2226.5500000000002</ele>
        <time>2018-06-19T11:16:43Z</time>
      </trkpt>
      <trkpt lat="46.027234084904194" lon="8.039114847779274">
        <ele>2227.0300000000002</ele>
        <time>2018-06-19T11:16:42Z</time>
      </trkpt>
      <trkpt lat="46.027245987206697" lon="8.03910780698061">
        <ele>2227.5100000000002</ele>
        <time>2018-06-19T11:16:41Z</time>
      </trkpt>
      <trkpt lat="46.027255794033408" lon="8.039100598543882">
        <ele>2227.5100000000002</ele>
        <time>2018-06-19T11:16:40Z</time>
      </trkpt>
      <trkpt lat="46.027264595031738" lon="8.039090037345886">
        <ele>2228.4699999999998</ele>
        <time>2018-06-19T11:16:39Z</time>
      </trkpt>
      <trkpt lat="46.027271216735244" lon="8.039076961576939">
        <ele>2228.9499999999998</ele>
        <time>2018-06-19T11:16:38Z</time>
      </trkpt>
      <trkpt lat="46.027311952784657" lon="8.039055922999978">
        <ele>2229.4299999999998</ele>
        <time>2018-06-19T11:16:29Z</time>
      </trkpt>
      <trkpt lat="46.027325782924891" lon="8.039053659886122">
        <ele>2229.4299999999998</ele>
        <time>2018-06-19T11:16:28Z</time>
      </trkpt>
      <trkpt lat="46.027337936684489" lon="8.039045697078109">
        <ele>2229.9200000000001</ele>
        <time>2018-06-19T11:16:27Z</time>
      </trkpt>
      <trkpt lat="46.027349000796676" lon="8.039037398993969">
        <ele>2229.9200000000001</ele>
        <time>2018-06-19T11:16:26Z</time>
      </trkpt>
      <trkpt lat="46.027358053252101" lon="8.039025412872434">
        <ele>2230.4000000000001</ele>
        <time>2018-06-19T11:16:25Z</time>
      </trkpt>
      <trkpt lat="46.02736484259367" lon="8.039012923836708">
        <ele>2230.4000000000001</ele>
        <time>2018-06-19T11:16:24Z</time>
      </trkpt>
      <trkpt lat="46.027361741289496" lon="8.03897587582469">
        <ele>2230.8800000000001</ele>
        <time>2018-06-19T11:16:21Z</time>
      </trkpt>
      <trkpt lat="46.027357215061784" lon="8.038959614932537">
        <ele>2231.3600000000001</ele>
        <time>2018-06-19T11:16:19Z</time>
      </trkpt>
      <trkpt lat="46.027413792908192" lon="8.038888033479452">
        <ele>2233.2800000000002</ele>
        <time>2018-06-19T11:16:09Z</time>
      </trkpt>
      <trkpt lat="46.027442710474133" lon="8.038851153105497">
        <ele>2234.7199999999998</ele>
        <time>2018-06-19T11:16:03Z</time>
      </trkpt>
      <trkpt lat="46.027483195066452" lon="8.038814440369606">
        <ele>2237.1300000000001</ele>
        <time>2018-06-19T11:15:54Z</time>
      </trkpt>
      <trkpt lat="46.02756223641336" lon="8.038764819502831">
        <ele>2238.5700000000002</ele>
        <time>2018-06-19T11:15:45Z</time>
      </trkpt>
      <trkpt lat="46.027594255283475" lon="8.038766663521528">
        <ele>2238.5700000000002</ele>
        <time>2018-06-19T11:15:41Z</time>
      </trkpt>
      <trkpt lat="46.027603726834059" lon="8.038771441206336">
        <ele>2239.0500000000002</ele>
        <time>2018-06-19T11:15:40Z</time>
      </trkpt>
      <trkpt lat="46.027613952755928" lon="8.038769513368607">
        <ele>2239.5300000000002</ele>
        <time>2018-06-19T11:15:39Z</time>
      </trkpt>
      <trkpt lat="46.027622418478131" lon="8.038763059303165">
        <ele>2239.5300000000002</ele>
        <time>2018-06-19T11:15:38Z</time>
      </trkpt>
      <trkpt lat="46.02762870490551" lon="8.038752665743232">
        <ele>2240.0100000000002</ele>
        <time>2018-06-19T11:15:37Z</time>
      </trkpt>
      <trkpt lat="46.027635242789984" lon="8.038742020726204">
        <ele>2240.0100000000002</ele>
        <time>2018-06-19T11:15:36Z</time>
      </trkpt>
      <trkpt lat="46.027642283588648" lon="8.038729364052415">
        <ele>2239.5300000000002</ele>
        <time>2018-06-19T11:15:35Z</time>
      </trkpt>
      <trkpt lat="46.027651084586978" lon="8.038715869188309">
        <ele>2240.4899999999998</ele>
        <time>2018-06-19T11:15:34Z</time>
      </trkpt>
      <trkpt lat="46.027651922777295" lon="8.038704134523869">
        <ele>2240.4899999999998</ele>
        <time>2018-06-19T11:15:33Z</time>
      </trkpt>
      <trkpt lat="46.027590399608016" lon="8.038629367947578">
        <ele>2241.9299999999998</ele>
        <time>2018-06-19T11:15:24Z</time>
      </trkpt>
      <trkpt lat="46.027527786791325" lon="8.038564659655094">
        <ele>2245.3000000000002</ele>
        <time>2018-06-19T11:15:14Z</time>
      </trkpt>
      <trkpt lat="46.027486715465784" lon="8.038549488410354">
        <ele>2246.7399999999998</ele>
        <time>2018-06-19T11:15:05Z</time>
      </trkpt>
      <trkpt lat="46.027468359097838" lon="8.03849165327847">
        <ele>2248.6599999999999</ele>
        <time>2018-06-19T11:14:56Z</time>
      </trkpt>
      <trkpt lat="46.027517141774297" lon="8.038418730720878">
        <ele>2249.6199999999999</ele>
        <time>2018-06-19T11:14:47Z</time>
      </trkpt>
      <trkpt lat="46.027624178677797" lon="8.03840515203774">
        <ele>2252.5100000000002</ele>
        <time>2018-06-19T11:14:35Z</time>
      </trkpt>
      <trkpt lat="46.0277293715626" lon="8.038380090147257">
        <ele>2253.4699999999998</ele>
        <time>2018-06-19T11:14:24Z</time>
      </trkpt>
      <trkpt lat="46.027737585827708" lon="8.038369948044419">
        <ele>2253.9499999999998</ele>
        <time>2018-06-19T11:14:23Z</time>
      </trkpt>
      <trkpt lat="46.027744291350245" lon="8.038352429866791">
        <ele>2253.9499999999998</ele>
        <time>2018-06-19T11:14:22Z</time>
      </trkpt>
      <trkpt lat="46.027744542807341" lon="8.038316639140248">
        <ele>2254.4299999999998</ele>
        <time>2018-06-19T11:14:20Z</time>
      </trkpt>
      <trkpt lat="46.027736412361264" lon="8.038301635533571">
        <ele>2254.9099999999999</ele>
        <time>2018-06-19T11:14:19Z</time>
      </trkpt>
      <trkpt lat="46.027719397097826" lon="8.038286548107863">
        <ele>2255.3899999999999</ele>
        <time>2018-06-19T11:14:17Z</time>
      </trkpt>
      <trkpt lat="46.027714535593987" lon="8.038249332457781">
        <ele>2256.8299999999999</ele>
        <time>2018-06-19T11:14:09Z</time>
      </trkpt>
      <trkpt lat="46.027707997709513" lon="8.038222761824727">
        <ele>2258.75</ele>
        <time>2018-06-19T11:14:04Z</time>
      </trkpt>
      <trkpt lat="46.027649911120534" lon="8.038176326081157">
        <ele>2261.1599999999999</ele>
        <time>2018-06-19T11:13:54Z</time>
      </trkpt>
      <trkpt lat="46.027670027688146" lon="8.038134751841426">
        <ele>2261.6399999999999</ele>
        <time>2018-06-19T11:13:43Z</time>
      </trkpt>
      <trkpt lat="46.027696598321199" lon="8.038098374381661">
        <ele>2262.1199999999999</ele>
        <time>2018-06-19T11:13:36Z</time>
      </trkpt>
      <trkpt lat="46.027702214196324" lon="8.038085382431746">
        <ele>2262.5999999999999</ele>
        <time>2018-06-19T11:13:35Z</time>
      </trkpt>
      <trkpt lat="46.027735574170947" lon="8.038042718544602">
        <ele>2263.0799999999999</ele>
        <time>2018-06-19T11:13:29Z</time>
      </trkpt>
      <trkpt lat="46.027743620797992" lon="8.038028050214052">
        <ele>2263.5599999999999</ele>
        <time>2018-06-19T11:13:28Z</time>
      </trkpt>
      <trkpt lat="46.02775133214891" lon="8.038012627512217">
        <ele>2263.5599999999999</ele>
        <time>2018-06-19T11:13:27Z</time>
      </trkpt>
      <trkpt lat="46.027811849489808" lon="8.037943979725242">
        <ele>2265</ele>
        <time>2018-06-19T11:13:20Z</time>
      </trkpt>
      <trkpt lat="46.027862895280123" lon="8.037894023582339">
        <ele>2267.8899999999999</ele>
        <time>2018-06-19T11:13:11Z</time>
      </trkpt>
      <trkpt lat="46.027905307710171" lon="8.037885474041104">
        <ele>2269.3299999999999</ele>
        <time>2018-06-19T11:13:06Z</time>
      </trkpt>
      <trkpt lat="46.027955012395978" lon="8.037848677486181">
        <ele>2268.3699999999999</ele>
        <time>2018-06-19T11:12:57Z</time>
      </trkpt>
      <trkpt lat="46.027957191690803" lon="8.037833757698536">
        <ele>2268.3699999999999</ele>
        <time>2018-06-19T11:12:55Z</time>
      </trkpt>
      <trkpt lat="46.027977643534541" lon="8.037834679707885">
        <ele>2269.3299999999999</ele>
        <time>2018-06-19T11:12:46Z</time>
      </trkpt>
      <trkpt lat="46.027983007952571" lon="8.037830656394362">
        <ele>2268.8499999999999</ele>
        <time>2018-06-19T11:12:41Z</time>
      </trkpt>
      <trkpt lat="46.028052410110831" lon="8.037794111296535">
        <ele>2269.3299999999999</ele>
        <time>2018-06-19T11:12:32Z</time>
      </trkpt>
      <trkpt lat="46.028083004057407" lon="8.037785310298204">
        <ele>2269.8099999999999</ele>
        <time>2018-06-19T11:12:29Z</time>
      </trkpt>
      <trkpt lat="46.028103036805987" lon="8.03779486566782">
        <ele>2270.29</ele>
        <time>2018-06-19T11:12:27Z</time>
      </trkpt>
      <trkpt lat="46.02814125828445" lon="8.03782126866281">
        <ele>2271.25</ele>
        <time>2018-06-19T11:12:22Z</time>
      </trkpt>
      <trkpt lat="46.028152070939541" lon="8.037821101024747">
        <ele>2271.73</ele>
        <time>2018-06-19T11:12:21Z</time>
      </trkpt>
      <trkpt lat="46.028189286589622" lon="8.037827555090189">
        <ele>2273.1700000000001</ele>
        <time>2018-06-19T11:12:17Z</time>
      </trkpt>
      <trkpt lat="46.028220634907484" lon="8.037784053012729">
        <ele>2275.5799999999999</ele>
        <time>2018-06-19T11:12:09Z</time>
      </trkpt>
      <trkpt lat="46.028216695412993" lon="8.03776410408318">
        <ele>2276.0599999999999</ele>
        <time>2018-06-19T11:11:57Z</time>
      </trkpt>
      <trkpt lat="46.02822876535356" lon="8.037720685824752">
        <ele>2276.0599999999999</ele>
        <time>2018-06-19T11:11:49Z</time>
      </trkpt>
      <trkpt lat="46.028267741203308" lon="8.037712555378676">
        <ele>2275.5799999999999</ele>
        <time>2018-06-19T11:11:39Z</time>
      </trkpt>
      <trkpt lat="46.028271680697799" lon="8.037712220102549">
        <ele>2276.0599999999999</ele>
        <time>2018-06-19T11:11:29Z</time>
      </trkpt>
      <trkpt lat="46.028272937983274" lon="8.037713309749961">
        <ele>2275.5799999999999</ele>
        <time>2018-06-19T11:11:15Z</time>
      </trkpt>
      <trkpt lat="46.028289366513491" lon="8.037722613662481">
        <ele>2277.02</ele>
        <time>2018-06-19T11:11:07Z</time>
      </trkpt>
      <trkpt lat="46.028293473646045" lon="8.037767037749291">
        <ele>2276.0599999999999</ele>
        <time>2018-06-19T11:10:57Z</time>
      </trkpt>
      <trkpt lat="46.028287773951888" lon="8.037767037749291">
        <ele>2275.5799999999999</ele>
        <time>2018-06-19T11:10:38Z</time>
      </trkpt>
      <trkpt lat="46.028292467817664" lon="8.037770641967654">
        <ele>2275.5799999999999</ele>
        <time>2018-06-19T11:10:22Z</time>
      </trkpt>
      <trkpt lat="46.028297329321504" lon="8.037726385518909">
        <ele>2276.54</ele>
        <time>2018-06-19T11:10:14Z</time>
      </trkpt>
      <trkpt lat="46.028349297121167" lon="8.037638962268829">
        <ele>2276.0599999999999</ele>
        <time>2018-06-19T11:10:05Z</time>
      </trkpt>
      <trkpt lat="46.028352901339531" lon="8.037591436877847">
        <ele>2276.0599999999999</ele>
        <time>2018-06-19T11:09:55Z</time>
      </trkpt>
      <trkpt lat="46.028348207473755" lon="8.03756570443511">
        <ele>2276.0599999999999</ele>
        <time>2018-06-19T11:09:48Z</time>
      </trkpt>
      <trkpt lat="46.02831426076591" lon="8.037541564553976">
        <ele>2275.0999999999999</ele>
        <time>2018-06-19T11:09:42Z</time>
      </trkpt>
      <trkpt lat="46.028307219967246" lon="8.037548772990704">
        <ele>2275.5799999999999</ele>
        <time>2018-06-19T11:09:31Z</time>
      </trkpt>
      <trkpt lat="46.02833135984838" lon="8.037549275904894">
        <ele>2275.5799999999999</ele>
        <time>2018-06-19T11:09:11Z</time>
      </trkpt>
      <trkpt lat="46.028323229402304" lon="8.037584144622088">
        <ele>2275.5799999999999</ele>
        <time>2018-06-19T11:09:04Z</time>
      </trkpt>
      <trkpt lat="46.02832205593586" lon="8.037581462413073">
        <ele>2275.5799999999999</ele>
        <time>2018-06-19T11:09:03Z</time>
      </trkpt>
      <trkpt lat="46.028323648497462" lon="8.037603758275509">
        <ele>2275.5799999999999</ele>
        <time>2018-06-19T11:08:52Z</time>
      </trkpt>
      <trkpt lat="46.028344687074423" lon="8.037638626992703">
        <ele>2276.54</ele>
        <time>2018-06-19T11:08:42Z</time>
      </trkpt>
      <trkpt lat="46.028396571055055" lon="8.037665784358978">
        <ele>2277.5</ele>
        <time>2018-06-19T11:08:36Z</time>
      </trkpt>
      <trkpt lat="46.028436552733183" lon="8.037695288658142">
        <ele>2278.46</ele>
        <time>2018-06-19T11:08:32Z</time>
      </trkpt>
      <trkpt lat="46.028472846373916" lon="8.037693947553635">
        <ele>2280.3800000000001</ele>
        <time>2018-06-19T11:08:29Z</time>
      </trkpt>
      <trkpt lat="46.028518946841359" lon="8.037706939503551">
        <ele>2281.3499999999999</ele>
        <time>2018-06-19T11:08:25Z</time>
      </trkpt>
      <trkpt lat="46.028550295159221" lon="8.037694785743952">
        <ele>2281.3499999999999</ele>
        <time>2018-06-19T11:08:22Z</time>
      </trkpt>
      <trkpt lat="46.028589606285095" lon="8.037652289494872">
        <ele>2282.3099999999999</ele>
        <time>2018-06-19T11:08:18Z</time>
      </trkpt>
      <trkpt lat="46.028624139726162" lon="8.037559920921922">
        <ele>2282.79</ele>
        <time>2018-06-19T11:08:11Z</time>
      </trkpt>
      <trkpt lat="46.028668479993939" lon="8.037436036393046">
        <ele>2283.27</ele>
        <time>2018-06-19T11:08:02Z</time>
      </trkpt>
      <trkpt lat="46.028672587126493" lon="8.0373624432832">
        <ele>2282.79</ele>
        <time>2018-06-19T11:07:57Z</time>
      </trkpt>
      <trkpt lat="46.028701420873404" lon="8.037289856001735">
        <ele>2282.79</ele>
        <time>2018-06-19T11:07:51Z</time>
      </trkpt>
      <trkpt lat="46.028822455555201" lon="8.037175191566348">
        <ele>2285.1900000000001</ele>
        <time>2018-06-19T11:07:37Z</time>
      </trkpt>
      <trkpt lat="46.028845505788922" lon="8.037142502143979">
        <ele>2285.6700000000001</ele>
        <time>2018-06-19T11:07:33Z</time>
      </trkpt>
      <trkpt lat="46.028867717832327" lon="8.037132611498237">
        <ele>2286.1500000000001</ele>
        <time>2018-06-19T11:07:30Z</time>
      </trkpt>
      <trkpt lat="46.028876267373562" lon="8.037085002288222">
        <ele>2286.1500000000001</ele>
        <time>2018-06-19T11:07:23Z</time>
      </trkpt>
      <trkpt lat="46.028879033401608" lon="8.037053653970361">
        <ele>2285.6700000000001</ele>
        <time>2018-06-19T11:06:58Z</time>
      </trkpt>
      <trkpt lat="46.02887911722064" lon="8.037068909034133">
        <ele>2285.6700000000001</ele>
        <time>2018-06-19T11:06:39Z</time>
      </trkpt>
      <trkpt lat="46.028892444446683" lon="8.037052983418107">
        <ele>2285.1900000000001</ele>
        <time>2018-06-19T11:06:29Z</time>
      </trkpt>
      <trkpt lat="46.028911471366882" lon="8.03706044331193">
        <ele>2285.6700000000001</ele>
        <time>2018-06-19T11:06:24Z</time>
      </trkpt>
      <trkpt lat="46.028924463316798" lon="8.037111153826118">
        <ele>2285.6700000000001</ele>
        <time>2018-06-19T11:06:04Z</time>
      </trkpt>
      <trkpt lat="46.028984813019633" lon="8.037181729450822">
        <ele>2285.1900000000001</ele>
        <time>2018-06-19T11:05:54Z</time>
      </trkpt>
      <trkpt lat="46.029055053368211" lon="8.037274349480867">
        <ele>2286.1500000000001</ele>
        <time>2018-06-19T11:05:44Z</time>
      </trkpt>
      <trkpt lat="46.029047593474388" lon="8.037382392212749">
        <ele>2289.04</ele>
        <time>2018-06-19T11:05:33Z</time>
      </trkpt>
      <trkpt lat="46.029033847153187" lon="8.037430504336953">
        <ele>2289.04</ele>
        <time>2018-06-19T11:05:30Z</time>
      </trkpt>
      <trkpt lat="46.029072823002934" lon="8.037459840998054">
        <ele>2290</ele>
        <time>2018-06-19T11:05:26Z</time>
      </trkpt>
      <trkpt lat="46.029112720862031" lon="8.037511557340622">
        <ele>2290.48</ele>
        <time>2018-06-19T11:05:19Z</time>
      </trkpt>
      <trkpt lat="46.029172483831644" lon="8.037583725526929">
        <ele>2290.48</ele>
        <time>2018-06-19T11:05:10Z</time>
      </trkpt>
      <trkpt lat="46.029205257073045" lon="8.037619013339281">
        <ele>2290.48</ele>
        <time>2018-06-19T11:05:06Z</time>
      </trkpt>
      <trkpt lat="46.029281364753842" lon="8.037665784358978">
        <ele>2290.96</ele>
        <time>2018-06-19T11:04:57Z</time>
      </trkpt>
      <trkpt lat="46.029307600110769" lon="8.037668718025088">
        <ele>2289.52</ele>
        <time>2018-06-19T11:04:49Z</time>
      </trkpt>
      <trkpt lat="46.029341211542487" lon="8.037663521245122">
        <ele>2288.0799999999999</ele>
        <time>2018-06-19T11:04:39Z</time>
      </trkpt>
      <trkpt lat="46.029376499354839" lon="8.037663856521249">
        <ele>2285.6700000000001</ele>
        <time>2018-06-19T11:04:30Z</time>
      </trkpt>
      <trkpt lat="46.029395442456007" lon="8.037681709975004">
        <ele>2284.71</ele>
        <time>2018-06-19T11:04:20Z</time>
      </trkpt>
      <trkpt lat="46.029432155191898" lon="8.03770249709487">
        <ele>2282.79</ele>
        <time>2018-06-19T11:04:10Z</time>
      </trkpt>
      <trkpt lat="46.029472220689058" lon="8.037746418267489">
        <ele>2281.3499999999999</ele>
        <time>2018-06-19T11:04:01Z</time>
      </trkpt>
      <trkpt lat="46.029532738029957" lon="8.0378701351583">
        <ele>2280.3800000000001</ele>
        <time>2018-06-19T11:03:51Z</time>
      </trkpt>
      <trkpt lat="46.029529636725783" lon="8.037949092686176">
        <ele>2278.9400000000001</ele>
        <time>2018-06-19T11:03:41Z</time>
      </trkpt>
      <trkpt lat="46.029585292562842" lon="8.037906680256128">
        <ele>2277.5</ele>
        <time>2018-06-19T11:03:32Z</time>
      </trkpt>
      <trkpt lat="46.029639020562172" lon="8.037864016368985">
        <ele>2275.5799999999999</ele>
        <time>2018-06-19T11:03:21Z</time>
      </trkpt>
      <trkpt lat="46.029677158221602" lon="8.037855215370655">
        <ele>2274.1399999999999</ele>
        <time>2018-06-19T11:03:11Z</time>
      </trkpt>
      <trkpt lat="46.029722169041634" lon="8.037846246734262">
        <ele>2271.73</ele>
        <time>2018-06-19T11:03:00Z</time>
      </trkpt>
      <trkpt lat="46.029787715524435" lon="8.037862339988351">
        <ele>2270.77</ele>
        <time>2018-06-19T11:02:50Z</time>
      </trkpt>
      <trkpt lat="46.029854267835617" lon="8.037848845124245">
        <ele>2269.3299999999999</ele>
        <time>2018-06-19T11:02:40Z</time>
      </trkpt>
      <trkpt lat="46.029886035248637" lon="8.037807522341609">
        <ele>2267.8899999999999</ele>
        <time>2018-06-19T11:02:32Z</time>
      </trkpt>
      <trkpt lat="46.029950240626931" lon="8.037767708301544">
        <ele>2266.4499999999998</ele>
        <time>2018-06-19T11:02:20Z</time>
      </trkpt>
      <trkpt lat="46.030009333044291" lon="8.037753123790026">
        <ele>2265</ele>
        <time>2018-06-19T11:02:13Z</time>
      </trkpt>
      <trkpt lat="46.030019307509065" lon="8.037743400782347">
        <ele>2265</ele>
        <time>2018-06-19T11:02:11Z</time>
      </trkpt>
      <trkpt lat="46.030065156519413" lon="8.037691852077842">
        <ele>2264.04</ele>
        <time>2018-06-19T11:02:01Z</time>
      </trkpt>
      <trkpt lat="46.030102455988526" lon="8.037695959210396">
        <ele>2263.5599999999999</ele>
        <time>2018-06-19T11:01:49Z</time>
      </trkpt>
      <trkpt lat="46.030146712437272" lon="8.037699982523918">
        <ele>2264.04</ele>
        <time>2018-06-19T11:01:39Z</time>
      </trkpt>
      <trkpt lat="46.030152244493365" lon="8.037692019715905">
        <ele>2264.04</ele>
        <time>2018-06-19T11:01:25Z</time>
      </trkpt>
      <trkpt lat="46.030188202857971" lon="8.037708448246121">
        <ele>2264.04</ele>
        <time>2018-06-19T11:01:15Z</time>
      </trkpt>
      <trkpt lat="46.030298927798867" lon="8.037863094359636">
        <ele>2264.04</ele>
        <time>2018-06-19T11:01:00Z</time>
      </trkpt>
      <trkpt lat="46.030327342450619" lon="8.037928054109216">
        <ele>2264.52</ele>
        <time>2018-06-19T11:00:42Z</time>
      </trkpt>
      <trkpt lat="46.030347626656294" lon="8.037980357185006">
        <ele>2264.04</ele>
        <time>2018-06-19T11:00:29Z</time>
      </trkpt>
      <trkpt lat="46.030381489545107" lon="8.038022350519896">
        <ele>2264.52</ele>
        <time>2018-06-19T11:00:25Z</time>
      </trkpt>
      <trkpt lat="46.030386183410883" lon="8.038036096841097">
        <ele>2264.04</ele>
        <time>2018-06-19T11:00:24Z</time>
      </trkpt>
      <trkpt lat="46.030487017706037" lon="8.038234664127231">
        <ele>2264.04</ele>
        <time>2018-06-19T11:00:09Z</time>
      </trkpt>
      <trkpt lat="46.030581230297685" lon="8.038466172292829">
        <ele>2264.52</ele>
        <time>2018-06-19T10:59:53Z</time>
      </trkpt>
      <trkpt lat="46.030583158135414" lon="8.038483522832394">
        <ele>2267.4099999999999</ele>
        <time>2018-06-19T10:59:52Z</time>
      </trkpt>
      <trkpt lat="46.030579386278987" lon="8.038490060716867">
        <ele>2264.52</ele>
        <time>2018-06-19T10:59:48Z</time>
      </trkpt>
      <trkpt lat="46.030602939426899" lon="8.03847354836762">
        <ele>2264.52</ele>
        <time>2018-06-19T10:59:36Z</time>
      </trkpt>
      <trkpt lat="46.030633952468634" lon="8.038549153134227">
        <ele>2264.04</ele>
        <time>2018-06-19T10:59:30Z</time>
      </trkpt>
      <trkpt lat="46.03069924749434" lon="8.038794659078121">
        <ele>2264.04</ele>
        <time>2018-06-19T10:59:14Z</time>
      </trkpt>
      <trkpt lat="46.030718274414539" lon="8.038869509473443">
        <ele>2264.04</ele>
        <time>2018-06-19T10:59:00Z</time>
      </trkpt>
      <trkpt lat="46.030746772885323" lon="8.038990795612335">
        <ele>2264.04</ele>
        <time>2018-06-19T10:58:48Z</time>
      </trkpt>
      <trkpt lat="46.030783653259277" lon="8.039199337363243">
        <ele>2264.04</ele>
        <time>2018-06-19T10:58:33Z</time>
      </trkpt>
      <trkpt lat="46.030802931636572" lon="8.039244180545211">
        <ele>2264.04</ele>
        <time>2018-06-19T10:58:29Z</time>
      </trkpt>
      <trkpt lat="46.030808882787824" lon="8.039268907159567">
        <ele>2264.52</ele>
        <time>2018-06-19T10:58:27Z</time>
      </trkpt>
      <trkpt lat="46.030816677957773" lon="8.039288185536861">
        <ele>2265</ele>
        <time>2018-06-19T10:58:18Z</time>
      </trkpt>
      <trkpt lat="46.030823551118374" lon="8.039322383701801">
        <ele>2264.52</ele>
        <time>2018-06-19T10:57:57Z</time>
      </trkpt>
      <trkpt lat="46.0308429133147" lon="8.039343673735857">
        <ele>2265.96</ele>
        <time>2018-06-19T10:57:46Z</time>
      </trkpt>
      <trkpt lat="46.030823048204184" lon="8.039365215227008">
        <ele>2267.8899999999999</ele>
        <time>2018-06-19T10:57:35Z</time>
      </trkpt>
      <trkpt lat="46.03077988140285" lon="8.039390863850713">
        <ele>2267.8899999999999</ele>
        <time>2018-06-19T10:57:29Z</time>
      </trkpt>
      <trkpt lat="46.030757082626224" lon="8.039444256573916">
        <ele>2268.3699999999999</ele>
        <time>2018-06-19T10:57:24Z</time>
      </trkpt>
      <trkpt lat="46.030736714601517" lon="8.039469318464398">
        <ele>2269.3299999999999</ele>
        <time>2018-06-19T10:57:20Z</time>
      </trkpt>
      <trkpt lat="46.030714837834239" lon="8.039485327899456">
        <ele>2269.8099999999999</ele>
        <time>2018-06-19T10:57:11Z</time>
      </trkpt>
      <trkpt lat="46.03071391582489" lon="8.039477113634348">
        <ele>2269.8099999999999</ele>
        <time>2018-06-19T10:56:57Z</time>
      </trkpt>
      <trkpt lat="46.0307358764112" lon="8.039507623761892">
        <ele>2269.3299999999999</ele>
        <time>2018-06-19T10:56:43Z</time>
      </trkpt>
      <trkpt lat="46.030717771500349" lon="8.039519442245364">
        <ele>2269.3299999999999</ele>
        <time>2018-06-19T10:56:35Z</time>
      </trkpt>
      <trkpt lat="46.030717771500349" lon="8.03952120244503">
        <ele>2268.3699999999999</ele>
        <time>2018-06-19T10:56:29Z</time>
      </trkpt>
      <trkpt lat="46.030690195038915" lon="8.039522375911474">
        <ele>2268.3699999999999</ele>
        <time>2018-06-19T10:56:08Z</time>
      </trkpt>
      <trkpt lat="46.030696146190166" lon="8.039499409496784">
        <ele>2268.3699999999999</ele>
        <time>2018-06-19T10:55:45Z</time>
      </trkpt>
      <trkpt lat="46.030686590820551" lon="8.039501840248704">
        <ele>2267.8899999999999</ele>
        <time>2018-06-19T10:55:18Z</time>
      </trkpt>
      <trkpt lat="46.030686674639583" lon="8.039526483044028">
        <ele>2267.8899999999999</ele>
        <time>2018-06-19T10:54:56Z</time>
      </trkpt>
      <trkpt lat="46.030686171725392" lon="8.039493625983596">
        <ele>2267.8899999999999</ele>
        <time>2018-06-19T10:54:31Z</time>
      </trkpt>
      <trkpt lat="46.030695894733071" lon="8.039493542164564">
        <ele>2268.3699999999999</ele>
        <time>2018-06-19T10:54:03Z</time>
      </trkpt>
      <trkpt lat="46.030694721266627" lon="8.039518101140857">
        <ele>2267.8899999999999</ele>
        <time>2018-06-19T10:53:35Z</time>
      </trkpt>
      <trkpt lat="46.03068851865828" lon="8.039527572691441">
        <ele>2268.3699999999999</ele>
        <time>2018-06-19T10:52:56Z</time>
      </trkpt>
      <trkpt lat="46.030675359070301" lon="8.039532853290439">
        <ele>2268.3699999999999</ele>
        <time>2018-06-19T10:52:35Z</time>
      </trkpt>
      <trkpt lat="46.030665887519717" lon="8.03953436203301">
        <ele>2267.4099999999999</ele>
        <time>2018-06-19T10:52:23Z</time>
      </trkpt>
      <trkpt lat="46.030669575557113" lon="8.039544587954879">
        <ele>2266.4499999999998</ele>
        <time>2018-06-19T10:52:20Z</time>
      </trkpt>
      <trkpt lat="46.030673515051603" lon="8.039537463337183">
        <ele>2267.4099999999999</ele>
        <time>2018-06-19T10:52:15Z</time>
      </trkpt>
      <trkpt lat="46.030685165897012" lon="8.03953587077558">
        <ele>2267.8899999999999</ele>
        <time>2018-06-19T10:51:49Z</time>
      </trkpt>
      <trkpt lat="46.030686423182487" lon="8.039536960422993">
        <ele>2267.4099999999999</ele>
        <time>2018-06-19T10:51:25Z</time>
      </trkpt>
      <trkpt lat="46.030675191432238" lon="8.039536792784929">
        <ele>2267.4099999999999</ele>
        <time>2018-06-19T10:51:00Z</time>
      </trkpt>
      <trkpt lat="46.030698576942086" lon="8.039512066170573">
        <ele>2267.4099999999999</ele>
        <time>2018-06-19T10:50:40Z</time>
      </trkpt>
      <trkpt lat="46.030706791207194" lon="8.039482058957219">
        <ele>2267.4099999999999</ele>
        <time>2018-06-19T10:50:26Z</time>
      </trkpt>
      <trkpt lat="46.030695643275976" lon="8.039525896310806">
        <ele>2270.29</ele>
        <time>2018-06-19T10:50:18Z</time>
      </trkpt>
      <trkpt lat="46.030698912218213" lon="8.039527824148536">
        <ele>2272.21</ele>
        <time>2018-06-19T10:50:17Z</time>
      </trkpt>
      <trkpt lat="46.030698157846928" lon="8.039526734501123">
        <ele>2261.6399999999999</ele>
        <time>2018-06-19T10:50:12Z</time>
      </trkpt>
      <trkpt lat="46.030698828399181" lon="8.039523800835013">
        <ele>2261.6399999999999</ele>
        <time>2018-06-19T10:50:11Z</time>
      </trkpt>
      <trkpt lat="46.030699079856277" lon="8.03951826877892">
        <ele>2266.4499999999998</ele>
        <time>2018-06-19T10:50:09Z</time>
      </trkpt>
      <trkpt lat="46.030699331313372" lon="8.039516089484096">
        <ele>2266.4499999999998</ele>
        <time>2018-06-19T10:50:08Z</time>
      </trkpt>
      <trkpt lat="46.030699834227562" lon="8.039514077827334">
        <ele>2269.8099999999999</ele>
        <time>2018-06-19T10:50:07Z</time>
      </trkpt>
      <trkpt lat="46.030701175332069" lon="8.039513574913144">
        <ele>2274.6199999999999</ele>
        <time>2018-06-19T10:50:06Z</time>
      </trkpt>
      <trkpt lat="46.030706791207194" lon="8.039505863562226">
        <ele>2267.4099999999999</ele>
        <time>2018-06-19T10:49:41Z</time>
      </trkpt>
      <trkpt lat="46.030669994652271" lon="8.03957493044436">
        <ele>2267.4099999999999</ele>
        <time>2018-06-19T10:49:08Z</time>
      </trkpt>
      <trkpt lat="46.03068508207798" lon="8.039550874382258">
        <ele>2267.4099999999999</ele>
        <time>2018-06-19T10:48:35Z</time>
      </trkpt>
      <trkpt lat="46.030679466202855" lon="8.039552718400955">
        <ele>2266.9299999999998</ele>
        <time>2018-06-19T10:48:00Z</time>
      </trkpt>
      <trkpt lat="46.030700756236911" lon="8.039513910189271">
        <ele>2266.4499999999998</ele>
        <time>2018-06-19T10:47:30Z</time>
      </trkpt>
      <trkpt lat="46.030705450102687" lon="8.039520950987935">
        <ele>2264.52</ele>
        <time>2018-06-19T10:47:04Z</time>
      </trkpt>
      <trkpt lat="46.030700169503689" lon="8.039515838027">
        <ele>2264.52</ele>
        <time>2018-06-19T10:46:31Z</time>
      </trkpt>
      <trkpt lat="46.030697990208864" lon="8.039527572691441">
        <ele>2264.04</ele>
        <time>2018-06-19T10:45:56Z</time>
      </trkpt>
      <trkpt lat="46.030706120654941" lon="8.039521370083094">
        <ele>2264.04</ele>
        <time>2018-06-19T10:45:17Z</time>
      </trkpt>
      <trkpt lat="46.030706707388163" lon="8.039519861340523">
        <ele>2264.04</ele>
        <time>2018-06-19T10:45:16Z</time>
      </trkpt>
      <trkpt lat="46.030708467587829" lon="8.039517430588603">
        <ele>2267.4099999999999</ele>
        <time>2018-06-19T10:45:14Z</time>
      </trkpt>
      <trkpt lat="46.030709305778146" lon="8.039517095312476">
        <ele>2272.21</ele>
        <time>2018-06-19T10:45:13Z</time>
      </trkpt>
      <trkpt lat="46.030710898339748" lon="8.039517095312476">
        <ele>2264.52</ele>
        <time>2018-06-19T10:45:11Z</time>
      </trkpt>
      <trkpt lat="46.030712239444256" lon="8.039516089484096">
        <ele>2262.1199999999999</ele>
        <time>2018-06-19T10:45:10Z</time>
      </trkpt>
      <trkpt lat="46.030703941360116" lon="8.039523046463728">
        <ele>2266.9299999999998</ele>
        <time>2018-06-19T10:44:49Z</time>
      </trkpt>
      <trkpt lat="46.030707797035575" lon="8.039516508579254">
        <ele>2266.9299999999998</ele>
        <time>2018-06-19T10:44:10Z</time>
      </trkpt>
      <trkpt lat="46.030706372112036" lon="8.039524555206299">
        <ele>2266.9299999999998</ele>
        <time>2018-06-19T10:43:40Z</time>
      </trkpt>
      <trkpt lat="46.030709557235241" lon="8.039510389789939">
        <ele>2266.9299999999998</ele>
        <time>2018-06-19T10:43:06Z</time>
      </trkpt>
      <trkpt lat="46.03071047924459" lon="8.039507120847702">
        <ele>2265.96</ele>
        <time>2018-06-19T10:43:02Z</time>
      </trkpt>
      <trkpt lat="46.03071290999651" lon="8.039499660953879">
        <ele>2269.3299999999999</ele>
        <time>2018-06-19T10:42:57Z</time>
      </trkpt>
      <trkpt lat="46.030711233615875" lon="8.039493709802628">
        <ele>2266.4499999999998</ele>
        <time>2018-06-19T10:42:35Z</time>
      </trkpt>
      <trkpt lat="46.030712323263288" lon="8.039492452517152">
        <ele>2273.6599999999999</ele>
        <time>2018-06-19T10:42:34Z</time>
      </trkpt>
      <trkpt lat="46.030712742358446" lon="8.039495972916484">
        <ele>2269.3299999999999</ele>
        <time>2018-06-19T10:42:32Z</time>
      </trkpt>
      <trkpt lat="46.030712574720383" lon="8.039498152211309">
        <ele>2269.8099999999999</ele>
        <time>2018-06-19T10:42:31Z</time>
      </trkpt>
      <trkpt lat="46.030711736530066" lon="8.039500080049038">
        <ele>2266.9299999999998</ele>
        <time>2018-06-19T10:42:25Z</time>
      </trkpt>
      <trkpt lat="46.030712239444256" lon="8.03950116969645">
        <ele>2264.52</ele>
        <time>2018-06-19T10:42:22Z</time>
      </trkpt>
      <trkpt lat="46.030712407082319" lon="8.039500499144197">
        <ele>2262.5999999999999</ele>
        <time>2018-06-19T10:42:21Z</time>
      </trkpt>
      <trkpt lat="46.030697487294674" lon="8.039532015100122">
        <ele>2266.4499999999998</ele>
        <time>2018-06-19T10:41:59Z</time>
      </trkpt>
      <trkpt lat="46.030694302171469" lon="8.039530422538519">
        <ele>2268.3699999999999</ele>
        <time>2018-06-19T10:41:49Z</time>
      </trkpt>
      <trkpt lat="46.030677203088999" lon="8.039551209658384">
        <ele>2265</ele>
        <time>2018-06-19T10:41:39Z</time>
      </trkpt>
      <trkpt lat="46.03068214841187" lon="8.039541486650705">
        <ele>2266.9299999999998</ele>
        <time>2018-06-19T10:41:34Z</time>
      </trkpt>
      <trkpt lat="46.030683154240251" lon="8.039552215486765">
        <ele>2265.96</ele>
        <time>2018-06-19T10:41:00Z</time>
      </trkpt>
      <trkpt lat="46.030685417354107" lon="8.039547773078084">
        <ele>2266.9299999999998</ele>
        <time>2018-06-19T10:40:56Z</time>
      </trkpt>
      <trkpt lat="46.030687764286995" lon="8.039541905745864">
        <ele>2264.04</ele>
        <time>2018-06-19T10:40:47Z</time>
      </trkpt>
      <trkpt lat="46.030695978552103" lon="8.03951826877892">
        <ele>2264.04</ele>
        <time>2018-06-19T10:40:10Z</time>
      </trkpt>
      <trkpt lat="46.030717771500349" lon="8.039537882432342">
        <ele>2264.04</ele>
        <time>2018-06-19T10:39:35Z</time>
      </trkpt>
      <trkpt lat="46.030743755400181" lon="8.039509132504463">
        <ele>2264.04</ele>
        <time>2018-06-19T10:39:08Z</time>
      </trkpt>
      <trkpt lat="46.030743587762117" lon="8.039493877440691">
        <ele>2265.96</ele>
        <time>2018-06-19T10:39:04Z</time>
      </trkpt>
      <trkpt lat="46.030741911381483" lon="8.03948943503201">
        <ele>2269.8099999999999</ele>
        <time>2018-06-19T10:39:03Z</time>
      </trkpt>
      <trkpt lat="46.030713580548763" lon="8.039528746157885">
        <ele>2266.4499999999998</ele>
        <time>2018-06-19T10:38:48Z</time>
      </trkpt>
      <trkpt lat="46.030710060149431" lon="8.039525477215648">
        <ele>2265.96</ele>
        <time>2018-06-19T10:38:46Z</time>
      </trkpt>
      <trkpt lat="46.030709305778146" lon="8.039521872997284">
        <ele>2261.6399999999999</ele>
        <time>2018-06-19T10:38:45Z</time>
      </trkpt>
      <trkpt lat="46.03070754557848" lon="8.03952069953084">
        <ele>2265.48</ele>
        <time>2018-06-19T10:38:44Z</time>
      </trkpt>
      <trkpt lat="46.030706288293004" lon="8.039524387568235">
        <ele>2275.0999999999999</ele>
        <time>2018-06-19T10:38:43Z</time>
      </trkpt>
      <trkpt lat="46.030684495344758" lon="8.039543414488435">
        <ele>2265.48</ele>
        <time>2018-06-19T10:38:28Z</time>
      </trkpt>
      <trkpt lat="46.030691200867295" lon="8.039521789178252">
        <ele>2266.4499999999998</ele>
        <time>2018-06-19T10:38:24Z</time>
      </trkpt>
      <trkpt lat="46.030691368505359" lon="8.039517849683762">
        <ele>2268.3699999999999</ele>
        <time>2018-06-19T10:38:23Z</time>
      </trkpt>
      <trkpt lat="46.030706455931067" lon="8.039528159424663">
        <ele>2256.8299999999999</ele>
        <time>2018-06-19T10:38:15Z</time>
      </trkpt>
      <trkpt lat="46.030705953016877" lon="8.03952413611114">
        <ele>2256.8299999999999</ele>
        <time>2018-06-19T10:38:14Z</time>
      </trkpt>
      <trkpt lat="46.030709473416209" lon="8.039519358426333">
        <ele>2263.5599999999999</ele>
        <time>2018-06-19T10:38:12Z</time>
      </trkpt>
      <trkpt lat="46.030708970502019" lon="8.039511730894446">
        <ele>2266.9299999999998</ele>
        <time>2018-06-19T10:38:02Z</time>
      </trkpt>
      <trkpt lat="46.030718274414539" lon="8.039513826370239">
        <ele>2266.9299999999998</ele>
        <time>2018-06-19T10:37:37Z</time>
      </trkpt>
      <trkpt lat="46.030715340748429" lon="8.039512569084764">
        <ele>2266.9299999999998</ele>
        <time>2018-06-19T10:37:20Z</time>
      </trkpt>
      <trkpt lat="46.030739983543754" lon="8.03950360044837">
        <ele>2266.9299999999998</ele>
        <time>2018-06-19T10:36:56Z</time>
      </trkpt>
      <trkpt lat="46.030709892511368" lon="8.039498487487435">
        <ele>2266.4499999999998</ele>
        <time>2018-06-19T10:36:29Z</time>
      </trkpt>
      <trkpt lat="46.030710563063622" lon="8.039500080049038">
        <ele>2266.4499999999998</ele>
        <time>2018-06-19T10:36:08Z</time>
      </trkpt>
      <trkpt lat="46.030743336305022" lon="8.039514580741525">
        <ele>2266.4499999999998</ele>
        <time>2018-06-19T10:35:42Z</time>
      </trkpt>
      <trkpt lat="46.030740486457944" lon="8.039532266557217">
        <ele>2265.96</ele>
        <time>2018-06-19T10:35:19Z</time>
      </trkpt>
      <trkpt lat="46.030779546126723" lon="8.039514664560556">
        <ele>2267.4099999999999</ele>
        <time>2018-06-19T10:34:57Z</time>
      </trkpt>
      <trkpt lat="46.030803099274635" lon="8.039508294314146">
        <ele>2266.4499999999998</ele>
        <time>2018-06-19T10:34:44Z</time>
      </trkpt>
      <trkpt lat="46.030825730413198" lon="8.039528662338853">
        <ele>2265.48</ele>
        <time>2018-06-19T10:34:26Z</time>
      </trkpt>
      <trkpt lat="46.0307945497334" lon="8.039491698145866">
        <ele>2265.48</ele>
        <time>2018-06-19T10:34:04Z</time>
      </trkpt>
      <trkpt lat="46.030794214457273" lon="8.039505025371909">
        <ele>2265</ele>
        <time>2018-06-19T10:33:38Z</time>
      </trkpt>
      <trkpt lat="46.030767979100347" lon="8.039486669003964">
        <ele>2265</ele>
        <time>2018-06-19T10:33:18Z</time>
      </trkpt>
      <trkpt lat="46.030746689066291" lon="8.03949723020196">
        <ele>2265</ele>
        <time>2018-06-19T10:32:56Z</time>
      </trkpt>
      <trkpt lat="46.030747108161449" lon="8.039500582963228">
        <ele>2265</ele>
        <time>2018-06-19T10:32:44Z</time>
      </trkpt>
      <trkpt lat="46.030759010463953" lon="8.039502846077085">
        <ele>2265.48</ele>
        <time>2018-06-19T10:32:32Z</time>
      </trkpt>
      <trkpt lat="46.030758088454604" lon="8.039476359263063">
        <ele>2265</ele>
        <time>2018-06-19T10:32:17Z</time>
      </trkpt>
      <trkpt lat="46.030703522264957" lon="8.039497146382928">
        <ele>2265</ele>
        <time>2018-06-19T10:32:01Z</time>
      </trkpt>
      <trkpt lat="46.030705366283655" lon="8.039496894925833">
        <ele>2265.48</ele>
        <time>2018-06-19T10:31:49Z</time>
      </trkpt>
      <trkpt lat="46.030734954401851" lon="8.039475772529841">
        <ele>2265</ele>
        <time>2018-06-19T10:31:26Z</time>
      </trkpt>
      <trkpt lat="46.030715256929398" lon="8.039495134726167">
        <ele>2265.48</ele>
        <time>2018-06-19T10:31:06Z</time>
      </trkpt>
      <trkpt lat="46.030734535306692" lon="8.039508881047368">
        <ele>2265.48</ele>
        <time>2018-06-19T10:30:40Z</time>
      </trkpt>
      <trkpt lat="46.030749790370464" lon="8.039514245465398">
        <ele>2265</ele>
        <time>2018-06-19T10:30:20Z</time>
      </trkpt>
      <trkpt lat="46.030730176717043" lon="8.039506450295448">
        <ele>2265.48</ele>
        <time>2018-06-19T10:30:00Z</time>
      </trkpt>
      <trkpt lat="46.030749958008528" lon="8.039476275444031">
        <ele>2265.48</ele>
        <time>2018-06-19T10:29:36Z</time>
      </trkpt>
      <trkpt lat="46.030742581933737" lon="8.039482645690441">
        <ele>2265</ele>
        <time>2018-06-19T10:29:18Z</time>
      </trkpt>
      <trkpt lat="46.030742330476642" lon="8.039480466395617">
        <ele>2265</ele>
        <time>2018-06-19T10:28:57Z</time>
      </trkpt>
      <trkpt lat="46.030741408467293" lon="8.039478370919824">
        <ele>2265</ele>
        <time>2018-06-19T10:28:32Z</time>
      </trkpt>
      <trkpt lat="46.030745264142752" lon="8.039491446688771">
        <ele>2265</ele>
        <time>2018-06-19T10:28:12Z</time>
      </trkpt>
      <trkpt lat="46.030729757621884" lon="8.039483651518822">
        <ele>2265</ele>
        <time>2018-06-19T10:27:51Z</time>
      </trkpt>
      <trkpt lat="46.030738390982151" lon="8.039488513022661">
        <ele>2265.48</ele>
        <time>2018-06-19T10:27:35Z</time>
      </trkpt>
      <trkpt lat="46.030746940523386" lon="8.039487842470408">
        <ele>2265</ele>
        <time>2018-06-19T10:27:15Z</time>
      </trkpt>
      <trkpt lat="46.030750293284655" lon="8.039473928511143">
        <ele>2265</ele>
        <time>2018-06-19T10:26:58Z</time>
      </trkpt>
      <trkpt lat="46.030751718208194" lon="8.039468815550208">
        <ele>2265</ele>
        <time>2018-06-19T10:26:31Z</time>
      </trkpt>
      <trkpt lat="46.030743252485991" lon="8.039481891319156">
        <ele>2265</ele>
        <time>2018-06-19T10:26:10Z</time>
      </trkpt>
      <trkpt lat="46.030717520043254" lon="8.039500750601292">
        <ele>2265</ele>
        <time>2018-06-19T10:25:51Z</time>
      </trkpt>
      <trkpt lat="46.030727326869965" lon="8.039500415325165">
        <ele>2265</ele>
        <time>2018-06-19T10:25:24Z</time>
      </trkpt>
      <trkpt lat="46.030750209465623" lon="8.039468815550208">
        <ele>2265</ele>
        <time>2018-06-19T10:25:03Z</time>
      </trkpt>
      <trkpt lat="46.030743839219213" lon="8.039463786408305">
        <ele>2265</ele>
        <time>2018-06-19T10:24:46Z</time>
      </trkpt>
      <trkpt lat="46.030732775107026" lon="8.039472922682762">
        <ele>2265</ele>
        <time>2018-06-19T10:24:24Z</time>
      </trkpt>
      <trkpt lat="46.030740737915039" lon="8.039476359263063">
        <ele>2265</ele>
        <time>2018-06-19T10:24:04Z</time>
      </trkpt>
      <trkpt lat="46.030755825340748" lon="8.03946303203702">
        <ele>2265.48</ele>
        <time>2018-06-19T10:23:43Z</time>
      </trkpt>
      <trkpt lat="46.030736295506358" lon="8.039467642083764">
        <ele>2265</ele>
        <time>2018-06-19T10:23:21Z</time>
      </trkpt>
      <trkpt lat="46.030724393203855" lon="8.039484489709139">
        <ele>2265</ele>
        <time>2018-06-19T10:22:56Z</time>
      </trkpt>
      <trkpt lat="46.030718106776476" lon="8.039481807500124">
        <ele>2265</ele>
        <time>2018-06-19T10:22:35Z</time>
      </trkpt>
      <trkpt lat="46.030721794813871" lon="8.039466720074415">
        <ele>2264.52</ele>
        <time>2018-06-19T10:22:16Z</time>
      </trkpt>
      <trkpt lat="46.030730009078979" lon="8.039458589628339">
        <ele>2265</ele>
        <time>2018-06-19T10:21:56Z</time>
      </trkpt>
      <trkpt lat="46.030732607468963" lon="8.039483902975917">
        <ele>2264.52</ele>
        <time>2018-06-19T10:21:33Z</time>
      </trkpt>
      <trkpt lat="46.030741157010198" lon="8.039462361484766">
        <ele>2264.52</ele>
        <time>2018-06-19T10:21:10Z</time>
      </trkpt>
      <trkpt lat="46.030741324648261" lon="8.039459343999624">
        <ele>2264.52</ele>
        <time>2018-06-19T10:20:46Z</time>
      </trkpt>
      <trkpt lat="46.030731601640582" lon="8.039456410333514">
        <ele>2264.52</ele>
        <time>2018-06-19T10:20:24Z</time>
      </trkpt>
      <trkpt lat="46.030745599418879" lon="8.039461774751544">
        <ele>2264.52</ele>
        <time>2018-06-19T10:20:00Z</time>
      </trkpt>
      <trkpt lat="46.030752556398511" lon="8.039455320686102">
        <ele>2264.04</ele>
        <time>2018-06-19T10:19:39Z</time>
      </trkpt>
      <trkpt lat="46.030745599418879" lon="8.039468564093113">
        <ele>2264.52</ele>
        <time>2018-06-19T10:19:18Z</time>
      </trkpt>
      <trkpt lat="46.030731182545424" lon="8.039486417546868">
        <ele>2264.04</ele>
        <time>2018-06-19T10:18:55Z</time>
      </trkpt>
      <trkpt lat="46.030727829784155" lon="8.039490189403296">
        <ele>2264.04</ele>
        <time>2018-06-19T10:18:35Z</time>
      </trkpt>
      <trkpt lat="46.030735960230231" lon="8.039476443082094">
        <ele>2264.04</ele>
        <time>2018-06-19T10:18:16Z</time>
      </trkpt>
      <trkpt lat="46.030731182545424" lon="8.039476275444031">
        <ele>2264.04</ele>
        <time>2018-06-19T10:17:58Z</time>
      </trkpt>
      <trkpt lat="46.030753729864955" lon="8.039466217160225">
        <ele>2264.04</ele>
        <time>2018-06-19T10:17:38Z</time>
      </trkpt>
      <trkpt lat="46.030757501721382" lon="8.039460349828005">
        <ele>2263.5599999999999</ele>
        <time>2018-06-19T10:17:14Z</time>
      </trkpt>
      <trkpt lat="46.030735792592168" lon="8.039457499980927">
        <ele>2263.5599999999999</ele>
        <time>2018-06-19T10:16:48Z</time>
      </trkpt>
      <trkpt lat="46.030745767056942" lon="8.039453141391277">
        <ele>2263.5599999999999</ele>
        <time>2018-06-19T10:16:28Z</time>
      </trkpt>
      <trkpt lat="46.03075054474175" lon="8.03946303203702">
        <ele>2263.5599999999999</ele>
        <time>2018-06-19T10:16:06Z</time>
      </trkpt>
      <trkpt lat="46.030717687681317" lon="8.039486920461059">
        <ele>2263.0799999999999</ele>
        <time>2018-06-19T10:15:49Z</time>
      </trkpt>
      <trkpt lat="46.030739480629563" lon="8.039497565478087">
        <ele>2263.5599999999999</ele>
        <time>2018-06-19T10:15:27Z</time>
      </trkpt>
      <trkpt lat="46.03071634657681" lon="8.039501337334514">
        <ele>2263.5599999999999</ele>
        <time>2018-06-19T10:15:02Z</time>
      </trkpt>
      <trkpt lat="46.030676700174809" lon="8.039484238252044">
        <ele>2263.0799999999999</ele>
        <time>2018-06-19T10:14:37Z</time>
      </trkpt>
      <trkpt lat="46.030664043501019" lon="8.039489099755883">
        <ele>2263.0799999999999</ele>
        <time>2018-06-19T10:14:07Z</time>
      </trkpt>
      <trkpt lat="46.030684830620885" lon="8.039529751986265">
        <ele>2262.5999999999999</ele>
        <time>2018-06-19T10:13:35Z</time>
      </trkpt>
      <trkpt lat="46.030700001865625" lon="8.039517598226667">
        <ele>2263.0799999999999</ele>
        <time>2018-06-19T10:13:07Z</time>
      </trkpt>
      <trkpt lat="46.030699415132403" lon="8.039518687874079">
        <ele>2263.0799999999999</ele>
        <time>2018-06-19T10:12:39Z</time>
      </trkpt>
      <trkpt lat="46.030713580548763" lon="8.039520783349872">
        <ele>2263.0799999999999</ele>
        <time>2018-06-19T10:12:11Z</time>
      </trkpt>
      <trkpt lat="46.030718358233571" lon="8.03950846195221">
        <ele>2262.5999999999999</ele>
        <time>2018-06-19T10:11:41Z</time>
      </trkpt>
      <trkpt lat="46.030712071806192" lon="8.039499912410975">
        <ele>2262.5999999999999</ele>
        <time>2018-06-19T10:11:21Z</time>
      </trkpt>
      <trkpt lat="46.030709641054273" lon="8.039501002058387">
        <ele>2262.5999999999999</ele>
        <time>2018-06-19T10:11:04Z</time>
      </trkpt>
      <trkpt lat="46.030721962451935" lon="8.039526650682092">
        <ele>2263.0799999999999</ele>
        <time>2018-06-19T10:10:52Z</time>
      </trkpt>
      <trkpt lat="46.030714754015207" lon="8.039489099755883">
        <ele>2263.5599999999999</ele>
        <time>2018-06-19T10:10:44Z</time>
      </trkpt>
      <trkpt lat="46.03068558499217" lon="8.039519777521491">
        <ele>2264.04</ele>
        <time>2018-06-19T10:10:29Z</time>
      </trkpt>
      <trkpt lat="46.030687009915709" lon="8.039540480822325">
        <ele>2263.5599999999999</ele>
        <time>2018-06-19T10:10:20Z</time>
      </trkpt>
      <trkpt lat="46.030693296343088" lon="8.039522962644696">
        <ele>2263.0799999999999</ele>
        <time>2018-06-19T10:10:11Z</time>
      </trkpt>
      <trkpt lat="46.030754819512367" lon="8.039449118077755">
        <ele>2262.1199999999999</ele>
        <time>2018-06-19T10:09:59Z</time>
      </trkpt>
      <trkpt lat="46.030825646594167" lon="8.039426822215319">
        <ele>2261.6399999999999</ele>
        <time>2018-06-19T10:09:49Z</time>
      </trkpt>
      <trkpt lat="46.030870405957103" lon="8.039371753111482">
        <ele>2259.7199999999998</ele>
        <time>2018-06-19T10:09:42Z</time>
      </trkpt>
      <trkpt lat="46.030848193913698" lon="8.039262788370252">
        <ele>2257.79</ele>
        <time>2018-06-19T10:09:32Z</time>
      </trkpt>
      <trkpt lat="46.030816175043583" lon="8.039269410073757">
        <ele>2257.3099999999999</ele>
        <time>2018-06-19T10:09:28Z</time>
      </trkpt>
      <trkpt lat="46.03079597465694" lon="8.039263039827347">
        <ele>2256.8299999999999</ele>
        <time>2018-06-19T10:09:16Z</time>
      </trkpt>
      <trkpt lat="46.030726656317711" lon="8.039272511377931">
        <ele>2256.3499999999999</ele>
        <time>2018-06-19T10:09:05Z</time>
      </trkpt>
      <trkpt lat="46.03071391582489" lon="8.039262620732188">
        <ele>2255.8699999999999</ele>
        <time>2018-06-19T10:09:03Z</time>
      </trkpt>
      <trkpt lat="46.030689859762788" lon="8.039217106997967">
        <ele>2254.9099999999999</ele>
        <time>2018-06-19T10:08:58Z</time>
      </trkpt>
      <trkpt lat="46.030647112056613" lon="8.039164384827018">
        <ele>2254.9099999999999</ele>
        <time>2018-06-19T10:08:47Z</time>
      </trkpt>
      <trkpt lat="46.030622385442257" lon="8.039148459210992">
        <ele>2254.4299999999998</ele>
        <time>2018-06-19T10:08:44Z</time>
      </trkpt>
      <trkpt lat="46.030561365187168" lon="8.039091965183616">
        <ele>2253.4699999999998</ele>
        <time>2018-06-19T10:08:36Z</time>
      </trkpt>
      <trkpt lat="46.03048425167799" lon="8.039040751755238">
        <ele>2252.5100000000002</ele>
        <time>2018-06-19T10:08:27Z</time>
      </trkpt>
      <trkpt lat="46.030464805662632" lon="8.039033962413669">
        <ele>2252.0300000000002</ele>
        <time>2018-06-19T10:08:24Z</time>
      </trkpt>
      <trkpt lat="46.030376041308045" lon="8.039023485034704">
        <ele>2251.0599999999999</ele>
        <time>2018-06-19T10:08:14Z</time>
      </trkpt>
      <trkpt lat="46.030355673283339" lon="8.039030944928527">
        <ele>2250.5799999999999</ele>
        <time>2018-06-19T10:08:11Z</time>
      </trkpt>
      <trkpt lat="46.030309237539768" lon="8.039023233577609">
        <ele>2250.0999999999999</ele>
        <time>2018-06-19T10:08:04Z</time>
      </trkpt>
      <trkpt lat="46.03022382594645" lon="8.039028765633702">
        <ele>2248.6599999999999</ele>
        <time>2018-06-19T10:07:54Z</time>
      </trkpt>
      <trkpt lat="46.030207732692361" lon="8.039032705128193">
        <ele>2248.1799999999998</ele>
        <time>2018-06-19T10:07:51Z</time>
      </trkpt>
      <trkpt lat="46.030126009136438" lon="8.03909020498395">
        <ele>2247.2199999999998</ele>
        <time>2018-06-19T10:07:41Z</time>
      </trkpt>
      <trkpt lat="46.030082926154137" lon="8.039152650162578">
        <ele>2246.2600000000002</ele>
        <time>2018-06-19T10:07:33Z</time>
      </trkpt>
      <trkpt lat="46.030047051608562" lon="8.03922900930047">
        <ele>2244.8200000000002</ele>
        <time>2018-06-19T10:07:22Z</time>
      </trkpt>
      <trkpt lat="46.030025761574507" lon="8.039294136688113">
        <ele>2242.8899999999999</ele>
        <time>2018-06-19T10:07:11Z</time>
      </trkpt>
      <trkpt lat="46.02999659255147" lon="8.039312241598964">
        <ele>2241.4499999999998</ele>
        <time>2018-06-19T10:07:02Z</time>
      </trkpt>
      <trkpt lat="46.03000296279788" lon="8.039228338748217">
        <ele>2240.0100000000002</ele>
        <time>2018-06-19T10:06:53Z</time>
      </trkpt>
      <trkpt lat="46.029996341094375" lon="8.039206713438034">
        <ele>2239.0500000000002</ele>
        <time>2018-06-19T10:06:49Z</time>
      </trkpt>
      <trkpt lat="46.029970441013575" lon="8.039189865812659">
        <ele>2237.6100000000001</ele>
        <time>2018-06-19T10:06:39Z</time>
      </trkpt>
      <trkpt lat="46.029922412708402" lon="8.039197493344545">
        <ele>2236.1599999999999</ele>
        <time>2018-06-19T10:06:29Z</time>
      </trkpt>
      <trkpt lat="46.029868852347136" lon="8.039194224402309">
        <ele>2234.7199999999998</ele>
        <time>2018-06-19T10:06:17Z</time>
      </trkpt>
      <trkpt lat="46.029881257563829" lon="8.039171844720841">
        <ele>2233.2800000000002</ele>
        <time>2018-06-19T10:06:07Z</time>
      </trkpt>
      <trkpt lat="46.02988863363862" lon="8.03913613781333">
        <ele>2231.8400000000001</ele>
        <time>2018-06-19T10:05:57Z</time>
      </trkpt>
      <trkpt lat="46.029929788783193" lon="8.039104286581278">
        <ele>2230.4000000000001</ele>
        <time>2018-06-19T10:05:47Z</time>
      </trkpt>
      <trkpt lat="46.02997119538486" lon="8.039081571623683">
        <ele>2228.4699999999998</ele>
        <time>2018-06-19T10:05:38Z</time>
      </trkpt>
      <trkpt lat="46.02999952621758" lon="8.039047541096807">
        <ele>2226.5500000000002</ele>
        <time>2018-06-19T10:05:29Z</time>
      </trkpt>
      <trkpt lat="46.030011344701052" lon="8.038977636024356">
        <ele>2224.1500000000001</ele>
        <time>2018-06-19T10:05:19Z</time>
      </trkpt>
      <trkpt lat="46.030058115720749" lon="8.0389270093292">
        <ele>2223.1900000000001</ele>
        <time>2018-06-19T10:05:08Z</time>
      </trkpt>
      <trkpt lat="46.030064234510064" lon="8.038922650739551">
        <ele>2222.71</ele>
        <time>2018-06-19T10:05:07Z</time>
      </trkpt>
      <trkpt lat="46.030062641948462" lon="8.038871185854077">
        <ele>2220.7800000000002</ele>
        <time>2018-06-19T10:04:59Z</time>
      </trkpt>
      <trkpt lat="46.03010019287467" lon="8.038773201406002">
        <ele>2219.3400000000001</ele>
        <time>2018-06-19T10:04:49Z</time>
      </trkpt>
      <trkpt lat="46.030015535652637" lon="8.038763478398323">
        <ele>2217.4200000000001</ele>
        <time>2018-06-19T10:04:36Z</time>
      </trkpt>
      <trkpt lat="46.029947893694043" lon="8.038749312981963">
        <ele>2215.5</ele>
        <time>2018-06-19T10:04:27Z</time>
      </trkpt>
      <trkpt lat="46.029897099360824" lon="8.03882198408246">
        <ele>2215.0100000000002</ele>
        <time>2018-06-19T10:04:15Z</time>
      </trkpt>
      <trkpt lat="46.029862314462662" lon="8.038911502808332">
        <ele>2214.0500000000002</ele>
        <time>2018-06-19T10:04:07Z</time>
      </trkpt>
      <trkpt lat="46.029848484322429" lon="8.038966739550233">
        <ele>2212.6100000000001</ele>
        <time>2018-06-19T10:03:59Z</time>
      </trkpt>
      <trkpt lat="46.029770113527775" lon="8.039030693471432">
        <ele>2212.1300000000001</ele>
        <time>2018-06-19T10:03:48Z</time>
      </trkpt>
      <trkpt lat="46.029752930626273" lon="8.039056258276105">
        <ele>2211.1700000000001</ele>
        <time>2018-06-19T10:03:39Z</time>
      </trkpt>
      <trkpt lat="46.02969610132277" lon="8.039102694019675">
        <ele>2209.25</ele>
        <time>2018-06-19T10:03:29Z</time>
      </trkpt>
      <trkpt lat="46.029671374708414" lon="8.039187099784613">
        <ele>2208.29</ele>
        <time>2018-06-19T10:03:18Z</time>
      </trkpt>
      <trkpt lat="46.02960716933012" lon="8.03920746780932">
        <ele>2206.3600000000001</ele>
        <time>2018-06-19T10:03:07Z</time>
      </trkpt>
      <trkpt lat="46.029586046934128" lon="8.039217693731189">
        <ele>2205.4000000000001</ele>
        <time>2018-06-19T10:03:04Z</time>
      </trkpt>
      <trkpt lat="46.029499713331461" lon="8.039255747571588">
        <ele>2203</ele>
        <time>2018-06-19T10:02:53Z</time>
      </trkpt>
      <trkpt lat="46.029425449669361" lon="8.039323976263404">
        <ele>2203</ele>
        <time>2018-06-19T10:02:43Z</time>
      </trkpt>
      <trkpt lat="46.029346073046327" lon="8.039395641535521">
        <ele>2202.52</ele>
        <time>2018-06-19T10:02:32Z</time>
      </trkpt>
      <trkpt lat="46.029198048636317" lon="8.039537547156215">
        <ele>2202.52</ele>
        <time>2018-06-19T10:02:19Z</time>
      </trkpt>
      <trkpt lat="46.029157396405935" lon="8.039586832746863">
        <ele>2202.04</ele>
        <time>2018-06-19T10:01:59Z</time>
      </trkpt>
      <trkpt lat="46.029137363657355" lon="8.039655648171902">
        <ele>2202.04</ele>
        <time>2018-06-19T10:01:49Z</time>
      </trkpt>
      <trkpt lat="46.029127473011613" lon="8.039666377007961">
        <ele>2202.04</ele>
        <time>2018-06-19T10:01:48Z</time>
      </trkpt>
      <trkpt lat="46.029047761112452" lon="8.039774252101779">
        <ele>2202.04</ele>
        <time>2018-06-19T10:01:36Z</time>
      </trkpt>
      <trkpt lat="46.028943993151188" lon="8.039901657029986">
        <ele>2201.0799999999999</ele>
        <time>2018-06-19T10:01:22Z</time>
      </trkpt>
      <trkpt lat="46.02889378555119" lon="8.040034426376224">
        <ele>2201.0799999999999</ele>
        <time>2018-06-19T10:01:13Z</time>
      </trkpt>
      <trkpt lat="46.028915159404278" lon="8.040240621194243">
        <ele>2201.5599999999999</ele>
        <time>2018-06-19T10:01:00Z</time>
      </trkpt>
      <trkpt lat="46.028974335640669" lon="8.040298959240317">
        <ele>2201.0799999999999</ele>
        <time>2018-06-19T10:00:52Z</time>
      </trkpt>
      <trkpt lat="46.029011216014624" lon="8.04033282212913">
        <ele>2201.0799999999999</ele>
        <time>2018-06-19T10:00:48Z</time>
      </trkpt>
      <trkpt lat="46.029036026448011" lon="8.040349585935473">
        <ele>2201.0799999999999</ele>
        <time>2018-06-19T10:00:45Z</time>
      </trkpt>
      <trkpt lat="46.029183296486735" lon="8.040438015013933">
        <ele>2200.5900000000001</ele>
        <time>2018-06-19T10:00:30Z</time>
      </trkpt>
      <trkpt lat="46.029271055012941" lon="8.040517643094063">
        <ele>2201.0799999999999</ele>
        <time>2018-06-19T10:00:20Z</time>
      </trkpt>
      <trkpt lat="46.029352862387896" lon="8.040608670562506">
        <ele>2201.0799999999999</ele>
        <time>2018-06-19T10:00:09Z</time>
      </trkpt>
      <trkpt lat="46.029373314231634" lon="8.040630044415593">
        <ele>2201.0799999999999</ele>
        <time>2018-06-19T09:59:54Z</time>
      </trkpt>
      <trkpt lat="46.029379852116108" lon="8.040632726624608">
        <ele>2201.0799999999999</ele>
        <time>2018-06-19T09:59:42Z</time>
      </trkpt>
      <trkpt lat="46.029487475752831" lon="8.040731213986874">
        <ele>2200.5900000000001</ele>
        <time>2018-06-19T09:59:30Z</time>
      </trkpt>
      <trkpt lat="46.029573976993561" lon="8.040907066315413">
        <ele>2200.1100000000001</ele>
        <time>2018-06-19T09:59:17Z</time>
      </trkpt>
      <trkpt lat="46.02961060591042" lon="8.041104963049293">
        <ele>2199.6300000000001</ele>
        <time>2018-06-19T09:59:05Z</time>
      </trkpt>
      <trkpt lat="46.029686965048313" lon="8.041298668831587">
        <ele>2199.6300000000001</ele>
        <time>2018-06-19T09:58:52Z</time>
      </trkpt>
      <trkpt lat="46.029785368591547" lon="8.041481142863631">
        <ele>2199.1500000000001</ele>
        <time>2018-06-19T09:58:39Z</time>
      </trkpt>
      <trkpt lat="46.029897099360824" lon="8.041650792583823">
        <ele>2199.1500000000001</ele>
        <time>2018-06-19T09:58:26Z</time>
      </trkpt>
      <trkpt lat="46.029937583953142" lon="8.041725307703018">
        <ele>2199.6300000000001</ele>
        <time>2018-06-19T09:58:21Z</time>
      </trkpt>
      <trkpt lat="46.029973207041621" lon="8.041798565536737">
        <ele>2199.6300000000001</ele>
        <time>2018-06-19T09:58:15Z</time>
      </trkpt>
      <trkpt lat="46.029997849836946" lon="8.041866878047586">
        <ele>2199.1500000000001</ele>
        <time>2018-06-19T09:58:11Z</time>
      </trkpt>
      <trkpt lat="46.030057864263654" lon="8.041998976841569">
        <ele>2199.1500000000001</ele>
        <time>2018-06-19T09:58:02Z</time>
      </trkpt>
      <trkpt lat="46.030196752399206" lon="8.042149348184466">
        <ele>2199.1500000000001</ele>
        <time>2018-06-19T09:57:48Z</time>
      </trkpt>
      <trkpt lat="46.030316613614559" lon="8.042295863851905">
        <ele>2199.1500000000001</ele>
        <time>2018-06-19T09:57:34Z</time>
      </trkpt>
      <trkpt lat="46.030351314693689" lon="8.042352106422186">
        <ele>2199.1500000000001</ele>
        <time>2018-06-19T09:57:29Z</time>
      </trkpt>
      <trkpt lat="46.030410993844271" lon="8.042483534663916">
        <ele>2199.1500000000001</ele>
        <time>2018-06-19T09:57:18Z</time>
      </trkpt>
      <trkpt lat="46.030427003279328" lon="8.042511194944382">
        <ele>2198.6700000000001</ele>
        <time>2018-06-19T09:57:15Z</time>
      </trkpt>
      <trkpt lat="46.030445443466306" lon="8.042515553534031">
        <ele>2199.6300000000001</ele>
        <time>2018-06-19T09:57:10Z</time>
      </trkpt>
      <trkpt lat="46.030462710186839" lon="8.042531227692962">
        <ele>2198.6700000000001</ele>
        <time>2018-06-19T09:57:03Z</time>
      </trkpt>
      <trkpt lat="46.030463632196188" lon="8.04253114387393">
        <ele>2198.1900000000001</ele>
        <time>2018-06-19T09:56:51Z</time>
      </trkpt>
      <trkpt lat="46.030446197837591" lon="8.04251697845757">
        <ele>2199.6300000000001</ele>
        <time>2018-06-19T09:56:43Z</time>
      </trkpt>
      <trkpt lat="46.030474612489343" lon="8.042573053389788">
        <ele>2199.6300000000001</ele>
        <time>2018-06-19T09:56:32Z</time>
      </trkpt>
      <trkpt lat="46.030510067939758" lon="8.042598031461239">
        <ele>2198.6700000000001</ele>
        <time>2018-06-19T09:56:26Z</time>
      </trkpt>
      <trkpt lat="46.03051945567131" lon="8.042589146643877">
        <ele>2198.1900000000001</ele>
        <time>2018-06-19T09:56:14Z</time>
      </trkpt>
      <trkpt lat="46.03050185367465" lon="8.042595768347383">
        <ele>2197.23</ele>
        <time>2018-06-19T09:56:04Z</time>
      </trkpt>
      <trkpt lat="46.030476959422231" lon="8.042607335373759">
        <ele>2197.71</ele>
        <time>2018-06-19T09:55:51Z</time>
      </trkpt>
      <trkpt lat="46.030436810106039" lon="8.042609933763742">
        <ele>2197.71</ele>
        <time>2018-06-19T09:55:43Z</time>
      </trkpt>
      <trkpt lat="46.030433876439929" lon="8.042686711996794">
        <ele>2196.27</ele>
        <time>2018-06-19T09:55:35Z</time>
      </trkpt>
      <trkpt lat="46.030431780964136" lon="8.042669110000134">
        <ele>2196.27</ele>
        <time>2018-06-19T09:55:32Z</time>
      </trkpt>
      <trkpt lat="46.030453154817224" lon="8.042648490518332">
        <ele>2195.79</ele>
        <time>2018-06-19T09:55:19Z</time>
      </trkpt>
      <trkpt lat="46.030454747378826" lon="8.042621500790119">
        <ele>2196.27</ele>
        <time>2018-06-19T09:55:08Z</time>
      </trkpt>
      <trkpt lat="46.030459525063634" lon="8.042604234069586">
        <ele>2196.27</ele>
        <time>2018-06-19T09:54:58Z</time>
      </trkpt>
      <trkpt lat="46.030474528670311" lon="8.042598115280271">
        <ele>2197.71</ele>
        <time>2018-06-19T09:54:48Z</time>
      </trkpt>
      <trkpt lat="46.0304647218436" lon="8.042589146643877">
        <ele>2197.71</ele>
        <time>2018-06-19T09:54:32Z</time>
      </trkpt>
      <trkpt lat="46.030463632196188" lon="8.042585458606482">
        <ele>2197.71</ele>
        <time>2018-06-19T09:54:17Z</time>
      </trkpt>
      <trkpt lat="46.030442845076323" lon="8.042631223797798">
        <ele>2196.75</ele>
        <time>2018-06-19T09:54:03Z</time>
      </trkpt>
      <trkpt lat="46.030436223372817" lon="8.042660895735025">
        <ele>2196.27</ele>
        <time>2018-06-19T09:53:47Z</time>
      </trkpt>
      <trkpt lat="46.030449466779828" lon="8.042636755853891">
        <ele>2196.27</ele>
        <time>2018-06-19T09:53:31Z</time>
      </trkpt>
      <trkpt lat="46.030461871996522" lon="8.042615298181772">
        <ele>2196.75</ele>
        <time>2018-06-19T09:53:12Z</time>
      </trkpt>
      <trkpt lat="46.030464386567473" lon="8.042603647336364">
        <ele>2198.1900000000001</ele>
        <time>2018-06-19T09:53:05Z</time>
      </trkpt>
      <trkpt lat="46.030469415709376" lon="8.042617561295629">
        <ele>2197.23</ele>
        <time>2018-06-19T09:52:54Z</time>
      </trkpt>
      <trkpt lat="46.030489532276988" lon="8.042591325938702">
        <ele>2197.71</ele>
        <time>2018-06-19T09:52:44Z</time>
      </trkpt>
      <trkpt lat="46.037440728396177" lon="8.054417856037617">
        <ele>2197.71</ele>
        <time>2018-06-19T09:52:26Z</time>
      </trkpt>
      <trkpt lat="46.045020818710327" lon="8.059089258313179">
        <ele>2180.8899999999999</ele>
        <time>2018-06-19T09:19:05Z</time>
      </trkpt>
      <trkpt lat="46.045036995783448" lon="8.059045504778624">
        <ele>2180.8899999999999</ele>
        <time>2018-06-19T09:18:47Z</time>
      </trkpt>
      <trkpt lat="46.045015035197139" lon="8.059025723487139">
        <ele>2180.4099999999999</ele>
        <time>2018-06-19T09:18:29Z</time>
      </trkpt>
      <trkpt lat="46.045021573081613" lon="8.059015916660428">
        <ele>2180.8899999999999</ele>
        <time>2018-06-19T09:18:11Z</time>
      </trkpt>
      <trkpt lat="46.045033894479275" lon="8.059024969115853">
        <ele>2180.4099999999999</ele>
        <time>2018-06-19T09:17:54Z</time>
      </trkpt>
      <trkpt lat="46.045022578909993" lon="8.059021281078458">
        <ele>2180.4099999999999</ele>
        <time>2018-06-19T09:17:37Z</time>
      </trkpt>
      <trkpt lat="46.045037498697639" lon="8.059011306613684">
        <ele>2180.4099999999999</ele>
        <time>2018-06-19T09:17:20Z</time>
      </trkpt>
      <trkpt lat="46.045036157593131" lon="8.059010300785303">
        <ele>2180.4099999999999</ele>
        <time>2018-06-19T09:17:04Z</time>
      </trkpt>
      <trkpt lat="46.045023920014501" lon="8.059020526707172">
        <ele>2180.4099999999999</ele>
        <time>2018-06-19T09:16:45Z</time>
      </trkpt>
      <trkpt lat="46.045018723234534" lon="8.059006780385971">
        <ele>2180.4099999999999</ele>
        <time>2018-06-19T09:16:34Z</time>
      </trkpt>
      <trkpt lat="46.045013358816504" lon="8.058970319107175">
        <ele>2180.8899999999999</ele>
        <time>2018-06-19T09:16:24Z</time>
      </trkpt>
      <trkpt lat="46.044998271390796" lon="8.058954812586308">
        <ele>2180.4099999999999</ele>
        <time>2018-06-19T09:16:08Z</time>
      </trkpt>
      <trkpt lat="46.045023333281279" lon="8.058962440118194">
        <ele>2180.8899999999999</ele>
        <time>2018-06-19T09:16:00Z</time>
      </trkpt>
      <trkpt lat="46.045019645243883" lon="8.058961350470781">
        <ele>2180.8899999999999</ele>
        <time>2018-06-19T09:15:44Z</time>
      </trkpt>
      <trkpt lat="46.045013526454568" lon="8.058969983831048">
        <ele>2180.8899999999999</ele>
        <time>2018-06-19T09:15:34Z</time>
      </trkpt>
      <trkpt lat="46.045013191178441" lon="8.058955483138561">
        <ele>2180.8899999999999</ele>
        <time>2018-06-19T09:15:25Z</time>
      </trkpt>
      <trkpt lat="46.045004473999143" lon="8.058943664655089">
        <ele>2179.9299999999998</ele>
        <time>2018-06-19T09:15:19Z</time>
      </trkpt>
      <trkpt lat="46.04501947760582" lon="8.058949280530214">
        <ele>2179.9299999999998</ele>
        <time>2018-06-19T09:15:10Z</time>
      </trkpt>
      <trkpt lat="46.045011850073934" lon="8.058943999931216">
        <ele>2179.4499999999998</ele>
        <time>2018-06-19T09:15:01Z</time>
      </trkpt>
      <trkpt lat="46.045011766254902" lon="8.058951208367944">
        <ele>2179.9299999999998</ele>
        <time>2018-06-19T09:14:48Z</time>
      </trkpt>
      <trkpt lat="46.045023920014501" lon="8.058938132598996">
        <ele>2179.9299999999998</ele>
        <time>2018-06-19T09:14:32Z</time>
      </trkpt>
      <trkpt lat="46.045026183128357" lon="8.058952130377293">
        <ele>2179.9299999999998</ele>
        <time>2018-06-19T09:14:21Z</time>
      </trkpt>
      <trkpt lat="46.045024925842881" lon="8.058949364349246">
        <ele>2179.9299999999998</ele>
        <time>2018-06-19T09:13:59Z</time>
      </trkpt>
      <trkpt lat="46.045033475384116" lon="8.058958584442735">
        <ele>2179.9299999999998</ele>
        <time>2018-06-19T09:13:44Z</time>
      </trkpt>
      <trkpt lat="46.045021321624517" lon="8.058958416804671">
        <ele>2179.9299999999998</ele>
        <time>2018-06-19T09:13:36Z</time>
      </trkpt>
      <trkpt lat="46.045002965256572" lon="8.058947185054421">
        <ele>2179.9299999999998</ele>
        <time>2018-06-19T09:13:12Z</time>
      </trkpt>
      <trkpt lat="46.044986117631197" lon="8.058982389047742">
        <ele>2180.8899999999999</ele>
        <time>2018-06-19T09:13:04Z</time>
      </trkpt>
      <trkpt lat="46.044972706586123" lon="8.058976856991649">
        <ele>2180.8899999999999</ele>
        <time>2018-06-19T09:12:56Z</time>
      </trkpt>
      <trkpt lat="46.044985698536038" lon="8.058964032679796">
        <ele>2180.4099999999999</ele>
        <time>2018-06-19T09:12:44Z</time>
      </trkpt>
      <trkpt lat="46.044995756819844" lon="8.0589569080621">
        <ele>2180.8899999999999</ele>
        <time>2018-06-19T09:12:33Z</time>
      </trkpt>
      <trkpt lat="46.044978238642216" lon="8.059004684910178">
        <ele>2180.4099999999999</ele>
        <time>2018-06-19T09:12:24Z</time>
      </trkpt>
      <trkpt lat="46.044996678829193" lon="8.059013318270445">
        <ele>2180.4099999999999</ele>
        <time>2018-06-19T09:12:15Z</time>
      </trkpt>
      <trkpt lat="46.044987039640546" lon="8.05906293913722">
        <ele>2181.3699999999999</ele>
        <time>2018-06-19T09:12:05Z</time>
      </trkpt>
      <trkpt lat="46.044971952214837" lon="8.059160755947232">
        <ele>2181.8499999999999</ele>
        <time>2018-06-19T09:11:56Z</time>
      </trkpt>
      <trkpt lat="46.044957116246223" lon="8.059236193075776">
        <ele>2182.3299999999999</ele>
        <time>2018-06-19T09:11:48Z</time>
      </trkpt>
      <trkpt lat="46.04495057836175" lon="8.059256728738546">
        <ele>2182.3299999999999</ele>
        <time>2018-06-19T09:11:38Z</time>
      </trkpt>
      <trkpt lat="46.044950159266591" lon="8.059357311576605">
        <ele>2181.8499999999999</ele>
        <time>2018-06-19T09:11:27Z</time>
      </trkpt>
      <trkpt lat="46.044956026598811" lon="8.059390168637037">
        <ele>2181.3699999999999</ele>
        <time>2018-06-19T09:11:21Z</time>
      </trkpt>
      <trkpt lat="46.044963151216507" lon="8.059499384835362">
        <ele>2179.9299999999998</ele>
        <time>2018-06-19T09:11:10Z</time>
      </trkpt>
      <trkpt lat="46.04498527944088" lon="8.059608181938529">
        <ele>2179.9299999999998</ele>
        <time>2018-06-19T09:11:00Z</time>
      </trkpt>
      <trkpt lat="46.044980166479945" lon="8.05970155633986">
        <ele>2179.4499999999998</ele>
        <time>2018-06-19T09:10:52Z</time>
      </trkpt>
      <trkpt lat="46.044972287490964" lon="8.059770036488771">
        <ele>2177.52</ele>
        <time>2018-06-19T09:10:42Z</time>
      </trkpt>
      <trkpt lat="46.044972622767091" lon="8.059821836650372">
        <ele>2177.52</ele>
        <time>2018-06-19T09:10:34Z</time>
      </trkpt>
      <trkpt lat="46.044984273612499" lon="8.059883276000619">
        <ele>2176.0799999999999</ele>
        <time>2018-06-19T09:10:27Z</time>
      </trkpt>
      <trkpt lat="46.04499064385891" lon="8.059993917122483">
        <ele>2174.1599999999999</ele>
        <time>2018-06-19T09:10:17Z</time>
      </trkpt>
      <trkpt lat="46.044991230592132" lon="8.060017554089427">
        <ele>2173.6799999999998</ele>
        <time>2018-06-19T09:10:15Z</time>
      </trkpt>
      <trkpt lat="46.045009084045887" lon="8.060117131099105">
        <ele>2173.1999999999998</ele>
        <time>2018-06-19T09:10:07Z</time>
      </trkpt>
      <trkpt lat="46.045015202835202" lon="8.060146383941174">
        <ele>2173.1999999999998</ele>
        <time>2018-06-19T09:10:04Z</time>
      </trkpt>
      <trkpt lat="46.045002713799477" lon="8.060280662029982">
        <ele>2171.7600000000002</ele>
        <time>2018-06-19T09:09:54Z</time>
      </trkpt>
      <trkpt lat="46.04500824585557" lon="8.060350399464369">
        <ele>2171.7600000000002</ele>
        <time>2018-06-19T09:09:49Z</time>
      </trkpt>
      <trkpt lat="46.04500581510365" lon="8.060417706146836">
        <ele>2170.79</ele>
        <time>2018-06-19T09:09:44Z</time>
      </trkpt>
      <trkpt lat="46.045005647465587" lon="8.060491383075714">
        <ele>2170.3099999999999</ele>
        <time>2018-06-19T09:09:35Z</time>
      </trkpt>
      <trkpt lat="46.044997433200479" lon="8.060679724439979">
        <ele>2169.8299999999999</ele>
        <time>2018-06-19T09:09:22Z</time>
      </trkpt>
      <trkpt lat="46.044998606666923" lon="8.060747282579541">
        <ele>2169.3499999999999</ele>
        <time>2018-06-19T09:09:16Z</time>
      </trkpt>
      <trkpt lat="46.045003132894635" lon="8.060783073306084">
        <ele>2169.3499999999999</ele>
        <time>2018-06-19T09:09:13Z</time>
      </trkpt>
      <trkpt lat="46.045012436807156" lon="8.060805033892393">
        <ele>2169.3499999999999</ele>
        <time>2018-06-19T09:09:11Z</time>
      </trkpt>
      <trkpt lat="46.045070523396134" lon="8.060906371101737">
        <ele>2167.9099999999999</ele>
        <time>2018-06-19T09:08:59Z</time>
      </trkpt>
      <trkpt lat="46.045120898634195" lon="8.060950795188546">
        <ele>2165.9899999999998</ele>
        <time>2018-06-19T09:08:49Z</time>
      </trkpt>
      <trkpt lat="46.045130537822843" lon="8.060951717197895">
        <ele>2165.5100000000002</ele>
        <time>2018-06-19T09:08:44Z</time>
      </trkpt>
      <trkpt lat="46.045131459832191" lon="8.060951717197895">
        <ele>2166.4699999999998</ele>
        <time>2018-06-19T09:08:32Z</time>
      </trkpt>
      <trkpt lat="46.045150822028518" lon="8.060973007231951">
        <ele>2165.5100000000002</ele>
        <time>2018-06-19T09:08:21Z</time>
      </trkpt>
      <trkpt lat="46.045169597491622" lon="8.060964709147811">
        <ele>2165.0300000000002</ele>
        <time>2018-06-19T09:08:11Z</time>
      </trkpt>
      <trkpt lat="46.045171525329351" lon="8.060926739126444">
        <ele>2164.0599999999999</ele>
        <time>2018-06-19T09:08:03Z</time>
      </trkpt>
      <trkpt lat="46.045168256387115" lon="8.060900839045644">
        <ele>2163.0999999999999</ele>
        <time>2018-06-19T09:08:00Z</time>
      </trkpt>
      <trkpt lat="46.045142691582441" lon="8.060837052762508">
        <ele>2161.1799999999998</ele>
        <time>2018-06-19T09:07:50Z</time>
      </trkpt>
      <trkpt lat="46.045208238065243" lon="8.060837220400572">
        <ele>2159.7399999999998</ele>
        <time>2018-06-19T09:07:40Z</time>
      </trkpt>
      <trkpt lat="46.045269258320332" lon="8.060798076912761">
        <ele>2157.3400000000001</ele>
        <time>2018-06-19T09:07:30Z</time>
      </trkpt>
      <trkpt lat="46.045235898345709" lon="8.060705037787557">
        <ele>2156.3699999999999</ele>
        <time>2018-06-19T09:07:21Z</time>
      </trkpt>
      <trkpt lat="46.045195581391454" lon="8.060564724728465">
        <ele>2156.3699999999999</ele>
        <time>2018-06-19T09:07:11Z</time>
      </trkpt>
      <trkpt lat="46.045206477865577" lon="8.060460537672043">
        <ele>2156.3699999999999</ele>
        <time>2018-06-19T09:07:04Z</time>
      </trkpt>
      <trkpt lat="46.045233216136694" lon="8.060277560725808">
        <ele>2156.3699999999999</ele>
        <time>2018-06-19T09:06:53Z</time>
      </trkpt>
      <trkpt lat="46.045303707942367" lon="8.060099529102445">
        <ele>2156.3699999999999</ele>
        <time>2018-06-19T09:06:41Z</time>
      </trkpt>
      <trkpt lat="46.045349137857556" lon="8.059946224093437">
        <ele>2155.8899999999999</ele>
        <time>2018-06-19T09:06:31Z</time>
      </trkpt>
      <trkpt lat="46.045380486175418" lon="8.059755535796285">
        <ele>2156.3699999999999</ele>
        <time>2018-06-19T09:06:19Z</time>
      </trkpt>
      <trkpt lat="46.045374283567071" lon="8.059553196653724">
        <ele>2156.8600000000001</ele>
        <time>2018-06-19T09:06:06Z</time>
      </trkpt>
      <trkpt lat="46.045360034331679" lon="8.059510951861739">
        <ele>2157.3400000000001</ele>
        <time>2018-06-19T09:06:02Z</time>
      </trkpt>
      <trkpt lat="46.045326087623835" lon="8.059398466721177">
        <ele>2156.8600000000001</ele>
        <time>2018-06-19T09:05:53Z</time>
      </trkpt>
      <trkpt lat="46.045333128422499" lon="8.05929159745574">
        <ele>2158.3000000000002</ele>
        <time>2018-06-19T09:05:45Z</time>
      </trkpt>
      <trkpt lat="46.045342851430178" lon="8.059247927740216">
        <ele>2159.2600000000002</ele>
        <time>2018-06-19T09:05:41Z</time>
      </trkpt>
      <trkpt lat="46.045329859480262" lon="8.059192355722189">
        <ele>2161.1799999999998</ele>
        <time>2018-06-19T09:05:32Z</time>
      </trkpt>
      <trkpt lat="46.045284932479262" lon="8.059112308546901">
        <ele>2162.6199999999999</ele>
        <time>2018-06-19T09:05:22Z</time>
      </trkpt>
      <trkpt lat="46.045306138694286" lon="8.059046845883131">
        <ele>2162.1399999999999</ele>
        <time>2018-06-19T09:05:17Z</time>
      </trkpt>
      <trkpt lat="46.0452985111624" lon="8.05895933881402">
        <ele>2161.1799999999998</ele>
        <time>2018-06-19T09:05:08Z</time>
      </trkpt>
      <trkpt lat="46.04531024582684" lon="8.058920614421368">
        <ele>2161.1799999999998</ele>
        <time>2018-06-19T09:05:02Z</time>
      </trkpt>
      <trkpt lat="46.045336900278926" lon="8.058830089867115">
        <ele>2162.1399999999999</ele>
        <time>2018-06-19T09:04:52Z</time>
      </trkpt>
      <trkpt lat="46.045315694063902" lon="8.058845847845078">
        <ele>2163.0999999999999</ele>
        <time>2018-06-19T09:04:43Z</time>
      </trkpt>
      <trkpt lat="46.045313347131014" lon="8.058891696855426">
        <ele>2162.6199999999999</ele>
        <time>2018-06-19T09:04:40Z</time>
      </trkpt>
      <trkpt lat="46.045334720984101" lon="8.058795724064112">
        <ele>2163.0999999999999</ele>
        <time>2018-06-19T09:04:28Z</time>
      </trkpt>
      <trkpt lat="46.045350478962064" lon="8.058665720745921">
        <ele>2163.5799999999999</ele>
        <time>2018-06-19T09:04:18Z</time>
      </trkpt>
      <trkpt lat="46.045359866693616" lon="8.05853127501905">
        <ele>2163.0999999999999</ele>
        <time>2018-06-19T09:04:07Z</time>
      </trkpt>
      <trkpt lat="46.045365734025836" lon="8.058497747406364">
        <ele>2163.5799999999999</ele>
        <time>2018-06-19T09:04:01Z</time>
      </trkpt>
      <trkpt lat="46.045358693227172" lon="8.058460112661123">
        <ele>2163.5799999999999</ele>
        <time>2018-06-19T09:03:53Z</time>
      </trkpt>
      <trkpt lat="46.045354083180428" lon="8.058422561734915">
        <ele>2163.5799999999999</ele>
        <time>2018-06-19T09:03:45Z</time>
      </trkpt>
      <trkpt lat="46.045362465083599" lon="8.058395991101861">
        <ele>2164.0599999999999</ele>
        <time>2018-06-19T09:03:33Z</time>
      </trkpt>
      <trkpt lat="46.04536984115839" lon="8.058358021080494">
        <ele>2164.0599999999999</ele>
        <time>2018-06-19T09:03:24Z</time>
      </trkpt>
      <trkpt lat="46.045364057645202" lon="8.058317033573985">
        <ele>2164.0599999999999</ele>
        <time>2018-06-19T09:03:14Z</time>
      </trkpt>
      <trkpt lat="46.045369505882263" lon="8.058300688862801">
        <ele>2164.5500000000002</ele>
        <time>2018-06-19T09:03:04Z</time>
      </trkpt>
      <trkpt lat="46.045364392921329" lon="8.058296581730247">
        <ele>2164.5500000000002</ele>
        <time>2018-06-19T09:02:54Z</time>
      </trkpt>
      <trkpt lat="46.045363638550043" lon="8.058247799053788">
        <ele>2164.5500000000002</ele>
        <time>2018-06-19T09:02:44Z</time>
      </trkpt>
      <trkpt lat="46.04537570849061" lon="8.05808812379837">
        <ele>2164.5500000000002</ele>
        <time>2018-06-19T09:02:32Z</time>
      </trkpt>
      <trkpt lat="46.045434717088938" lon="8.057933729141951">
        <ele>2164.5500000000002</ele>
        <time>2018-06-19T09:02:19Z</time>
      </trkpt>
      <trkpt lat="46.045444272458553" lon="8.057891484349966">
        <ele>2164.5500000000002</ele>
        <time>2018-06-19T09:02:16Z</time>
      </trkpt>
      <trkpt lat="46.045491378754377" lon="8.057732814922929">
        <ele>2164.0599999999999</ele>
        <time>2018-06-19T09:02:05Z</time>
      </trkpt>
      <trkpt lat="46.045542843639851" lon="8.057592753320932">
        <ele>2164.5500000000002</ele>
        <time>2018-06-19T09:01:55Z</time>
      </trkpt>
      <trkpt lat="46.045577796176076" lon="8.057375913485885">
        <ele>2164.5500000000002</ele>
        <time>2018-06-19T09:01:42Z</time>
      </trkpt>
      <trkpt lat="46.045591458678246" lon="8.057231744751334">
        <ele>2164.5500000000002</ele>
        <time>2018-06-19T09:01:33Z</time>
      </trkpt>
      <trkpt lat="46.045630937442183" lon="8.057083804160357">
        <ele>2164.5500000000002</ele>
        <time>2018-06-19T09:01:22Z</time>
      </trkpt>
      <trkpt lat="46.045635379850864" lon="8.057070812210441">
        <ele>2165.0300000000002</ele>
        <time>2018-06-19T09:01:18Z</time>
      </trkpt>
      <trkpt lat="46.045647617429495" lon="8.057031752541661">
        <ele>2164.5500000000002</ele>
        <time>2018-06-19T09:01:08Z</time>
      </trkpt>
      <trkpt lat="46.045654825866222" lon="8.056974923238158">
        <ele>2164.5500000000002</ele>
        <time>2018-06-19T09:00:58Z</time>
      </trkpt>
      <trkpt lat="46.0456473659724" lon="8.056912142783403">
        <ele>2164.5500000000002</ele>
        <time>2018-06-19T09:00:47Z</time>
      </trkpt>
      <trkpt lat="46.045711655169725" lon="8.056807871907949">
        <ele>2164.5500000000002</ele>
        <time>2018-06-19T09:00:35Z</time>
      </trkpt>
      <trkpt lat="46.045770831406116" lon="8.056715168058872">
        <ele>2164.5500000000002</ele>
        <time>2018-06-19T09:00:24Z</time>
      </trkpt>
      <trkpt lat="46.045843251049519" lon="8.056670324876905">
        <ele>2164.5500000000002</ele>
        <time>2018-06-19T09:00:16Z</time>
      </trkpt>
      <trkpt lat="46.045936793088913" lon="8.056520288810134">
        <ele>2165.0300000000002</ele>
        <time>2018-06-19T09:00:04Z</time>
      </trkpt>
      <trkpt lat="46.045915838330984" lon="8.056363966315985">
        <ele>2165.0300000000002</ele>
        <time>2018-06-19T08:59:54Z</time>
      </trkpt>
      <trkpt lat="46.045884825289249" lon="8.056212086230516">
        <ele>2165.0300000000002</ele>
        <time>2018-06-19T08:59:41Z</time>
      </trkpt>
      <trkpt lat="46.045915922150016" lon="8.056085938587785">
        <ele>2165.0300000000002</ele>
        <time>2018-06-19T08:59:33Z</time>
      </trkpt>
      <trkpt lat="46.045969063416123" lon="8.055934980511665">
        <ele>2165.0300000000002</ele>
        <time>2018-06-19T08:59:21Z</time>
      </trkpt>
      <trkpt lat="46.046021869406104" lon="8.055839175358415">
        <ele>2165.0300000000002</ele>
        <time>2018-06-19T08:59:11Z</time>
      </trkpt>
      <trkpt lat="46.046133683994412" lon="8.055670447647572">
        <ele>2165.0300000000002</ele>
        <time>2018-06-19T08:58:56Z</time>
      </trkpt>
      <trkpt lat="46.046185484156013" lon="8.055579587817192">
        <ele>2165.5100000000002</ele>
        <time>2018-06-19T08:58:49Z</time>
      </trkpt>
      <trkpt lat="46.04622689075768" lon="8.055519070476294">
        <ele>2165.5100000000002</ele>
        <time>2018-06-19T08:58:44Z</time>
      </trkpt>
      <trkpt lat="46.046304171904922" lon="8.055384205654264">
        <ele>2165.5100000000002</ele>
        <time>2018-06-19T08:58:32Z</time>
      </trkpt>
      <trkpt lat="46.046377345919609" lon="8.055284880101681">
        <ele>2165.0300000000002</ele>
        <time>2018-06-19T08:58:22Z</time>
      </trkpt>
      <trkpt lat="46.046478347852826" lon="8.05516803637147">
        <ele>2165.5100000000002</ele>
        <time>2018-06-19T08:58:10Z</time>
      </trkpt>
      <trkpt lat="46.046579098328948" lon="8.055041469633579">
        <ele>2165.5100000000002</ele>
        <time>2018-06-19T08:57:58Z</time>
      </trkpt>
      <trkpt lat="46.046605668962002" lon="8.054979862645268">
        <ele>2165.0300000000002</ele>
        <time>2018-06-19T08:57:54Z</time>
      </trkpt>
      <trkpt lat="46.046624947339296" lon="8.054918004199863">
        <ele>2165.5100000000002</ele>
        <time>2018-06-19T08:57:50Z</time>
      </trkpt>
      <trkpt lat="46.046712957322598" lon="8.05471315048635">
        <ele>2165.5100000000002</ele>
        <time>2018-06-19T08:57:36Z</time>
      </trkpt>
      <trkpt lat="46.046796273440123" lon="8.054504105821252">
        <ele>2165.9899999999998</ele>
        <time>2018-06-19T08:57:22Z</time>
      </trkpt>
      <trkpt lat="46.046837847679853" lon="8.054396566003561">
        <ele>2166.4699999999998</ele>
        <time>2018-06-19T08:57:12Z</time>
      </trkpt>
      <trkpt lat="46.04687774553895" lon="8.054312663152814">
        <ele>2165.9899999999998</ele>
        <time>2018-06-19T08:57:02Z</time>
      </trkpt>
      <trkpt lat="46.046945052221417" lon="8.054132452234626">
        <ele>2165.9899999999998</ele>
        <time>2018-06-19T08:56:49Z</time>
      </trkpt>
      <trkpt lat="46.046984028071165" lon="8.054060200229287">
        <ele>2165.9899999999998</ele>
        <time>2018-06-19T08:56:44Z</time>
      </trkpt>
      <trkpt lat="46.047068685293198" lon="8.053875714540482">
        <ele>2165.9899999999998</ele>
        <time>2018-06-19T08:56:31Z</time>
      </trkpt>
      <trkpt lat="46.047165496274829" lon="8.053750237450004">
        <ele>2165.9899999999998</ele>
        <time>2018-06-19T08:56:20Z</time>
      </trkpt>
      <trkpt lat="46.047269683331251" lon="8.053597519174218">
        <ele>2166.4699999999998</ele>
        <time>2018-06-19T08:56:08Z</time>
      </trkpt>
      <trkpt lat="46.047390466555953" lon="8.053435077890754">
        <ele>2166.4699999999998</ele>
        <time>2018-06-19T08:55:55Z</time>
      </trkpt>
      <trkpt lat="46.047501610592008" lon="8.053303062915802">
        <ele>2166.4699999999998</ele>
        <time>2018-06-19T08:55:41Z</time>
      </trkpt>
      <trkpt lat="46.047610826790333" lon="8.053206671029329">
        <ele>2166.4699999999998</ele>
        <time>2018-06-19T08:55:29Z</time>
      </trkpt>
      <trkpt lat="46.047706631943583" lon="8.05310701020062">
        <ele>2166.4699999999998</ele>
        <time>2018-06-19T08:55:18Z</time>
      </trkpt>
      <trkpt lat="46.047813920304179" lon="8.052980862557888">
        <ele>2166.4699999999998</ele>
        <time>2018-06-19T08:55:06Z</time>
      </trkpt>
      <trkpt lat="46.047854404896498" lon="8.052918752655387">
        <ele>2166.4699999999998</ele>
        <time>2018-06-19T08:55:01Z</time>
      </trkpt>
      <trkpt lat="46.047901762649417" lon="8.052833760157228">
        <ele>2166.4699999999998</ele>
        <time>2018-06-19T08:54:52Z</time>
      </trkpt>
      <trkpt lat="46.047973008826375" lon="8.052648268640041">
        <ele>2166.4699999999998</ele>
        <time>2018-06-19T08:54:40Z</time>
      </trkpt>
      <trkpt lat="46.048035873100162" lon="8.052521450445056">
        <ele>2166.4699999999998</ele>
        <time>2018-06-19T08:54:31Z</time>
      </trkpt>
      <trkpt lat="46.048046015202999" lon="8.052501585334539">
        <ele>2166.4699999999998</ele>
        <time>2018-06-19T08:54:29Z</time>
      </trkpt>
      <trkpt lat="46.048185657709837" lon="8.052440397441387">
        <ele>2166.4699999999998</ele>
        <time>2018-06-19T08:54:17Z</time>
      </trkpt>
      <trkpt lat="46.048260508105159" lon="8.052400667220354">
        <ele>2166.9499999999998</ele>
        <time>2018-06-19T08:54:11Z</time>
      </trkpt>
      <trkpt lat="46.04836662299931" lon="8.052274351939559">
        <ele>2166.9499999999998</ele>
        <time>2018-06-19T08:54:00Z</time>
      </trkpt>
      <trkpt lat="46.04839981533587" lon="8.052219450473785">
        <ele>2166.9499999999998</ele>
        <time>2018-06-19T08:53:49Z</time>
      </trkpt>
      <trkpt lat="46.048455471172929" lon="8.05212490260601">
        <ele>2166.4699999999998</ele>
        <time>2018-06-19T08:53:40Z</time>
      </trkpt>
      <trkpt lat="46.048503331840038" lon="8.052113335579634">
        <ele>2166.9499999999998</ele>
        <time>2018-06-19T08:53:35Z</time>
      </trkpt>
      <trkpt lat="46.048598466441035" lon="8.052061619237065">
        <ele>2167.4299999999998</ele>
        <time>2018-06-19T08:53:26Z</time>
      </trkpt>
      <trkpt lat="46.04862461797893" lon="8.052056254819036">
        <ele>2167.4299999999998</ele>
        <time>2018-06-19T08:53:16Z</time>
      </trkpt>
      <trkpt lat="46.048666024580598" lon="8.051938489079475">
        <ele>2167.9099999999999</ele>
        <time>2018-06-19T08:53:07Z</time>
      </trkpt>
      <trkpt lat="46.048668203875422" lon="8.051914852112532">
        <ele>2168.3899999999999</ele>
        <time>2018-06-19T08:53:05Z</time>
      </trkpt>
      <trkpt lat="46.048680944368243" lon="8.051892640069127">
        <ele>2168.8699999999999</ele>
        <time>2018-06-19T08:53:03Z</time>
      </trkpt>
      <trkpt lat="46.04870374314487" lon="8.051871852949262">
        <ele>2167.9099999999999</ele>
        <time>2018-06-19T08:52:58Z</time>
      </trkpt>
      <trkpt lat="46.048720339313149" lon="8.051870595663786">
        <ele>2166.9499999999998</ele>
        <time>2018-06-19T08:52:49Z</time>
      </trkpt>
      <trkpt lat="46.048725703731179" lon="8.05183656513691">
        <ele>2167.9099999999999</ele>
        <time>2018-06-19T08:52:40Z</time>
      </trkpt>
      <trkpt lat="46.04880440980196" lon="8.051819549873471">
        <ele>2167.9099999999999</ele>
        <time>2018-06-19T08:52:30Z</time>
      </trkpt>
      <trkpt lat="46.048854030668736" lon="8.05181410163641">
        <ele>2167.4299999999998</ele>
        <time>2018-06-19T08:52:22Z</time>
      </trkpt>
      <trkpt lat="46.048892168328166" lon="8.051794655621052">
        <ele>2167.4299999999998</ele>
        <time>2018-06-19T08:52:12Z</time>
      </trkpt>
      <trkpt lat="46.048941537737846" lon="8.051816616207361">
        <ele>2167.4299999999998</ele>
        <time>2018-06-19T08:52:07Z</time>
      </trkpt>
      <trkpt lat="46.049070954322815" lon="8.05187956430018">
        <ele>2167.4299999999998</ele>
        <time>2018-06-19T08:51:55Z</time>
      </trkpt>
      <trkpt lat="46.049110684543848" lon="8.051915522664785">
        <ele>2167.4299999999998</ele>
        <time>2018-06-19T08:51:50Z</time>
      </trkpt>
      <trkpt lat="46.049181343987584" lon="8.051950223743916">
        <ele>2167.4299999999998</ele>
        <time>2018-06-19T08:51:44Z</time>
      </trkpt>
      <trkpt lat="46.049316879361868" lon="8.051994480192661">
        <ele>2167.4299999999998</ele>
        <time>2018-06-19T08:51:31Z</time>
      </trkpt>
      <trkpt lat="46.049443865194917" lon="8.05197293870151">
        <ele>2167.4299999999998</ele>
        <time>2018-06-19T08:51:19Z</time>
      </trkpt>
      <trkpt lat="46.04957303032279" lon="8.051942680031061">
        <ele>2167.4299999999998</ele>
        <time>2018-06-19T08:51:07Z</time>
      </trkpt>
      <trkpt lat="46.049599936231971" lon="8.051915103569627">
        <ele>2167.9099999999999</ele>
        <time>2018-06-19T08:51:04Z</time>
      </trkpt>
      <trkpt lat="46.049672439694405" lon="8.051760122179985">
        <ele>2167.9099999999999</ele>
        <time>2018-06-19T08:50:51Z</time>
      </trkpt>
      <trkpt lat="46.049692891538143" lon="8.051732126623392">
        <ele>2167.9099999999999</ele>
        <time>2018-06-19T08:50:48Z</time>
      </trkpt>
      <trkpt lat="46.049782829359174" lon="8.051628777757287">
        <ele>2167.9099999999999</ele>
        <time>2018-06-19T08:50:36Z</time>
      </trkpt>
      <trkpt lat="46.049871509894729" lon="8.051553424447775">
        <ele>2168.3899999999999</ele>
        <time>2018-06-19T08:50:27Z</time>
      </trkpt>
      <trkpt lat="46.049923980608582" lon="8.051618887111545">
        <ele>2167.9099999999999</ele>
        <time>2018-06-19T08:50:21Z</time>
      </trkpt>
      <trkpt lat="46.049956502392888" lon="8.05170027539134">
        <ele>2167.9099999999999</ele>
        <time>2018-06-19T08:50:13Z</time>
      </trkpt>
      <trkpt lat="46.050043841823936" lon="8.051763223484159">
        <ele>2167.9099999999999</ele>
        <time>2018-06-19T08:50:02Z</time>
      </trkpt>
      <trkpt lat="46.050178622826934" lon="8.051801864057779">
        <ele>2167.4299999999998</ele>
        <time>2018-06-19T08:49:50Z</time>
      </trkpt>
      <trkpt lat="46.050219526514411" lon="8.051797337830067">
        <ele>2168.3899999999999</ele>
        <time>2018-06-19T08:49:46Z</time>
      </trkpt>
      <trkpt lat="46.050329077988863" lon="8.051701532676816">
        <ele>2167.4299999999998</ele>
        <time>2018-06-19T08:49:34Z</time>
      </trkpt>
      <trkpt lat="46.050442736595869" lon="8.051539342850447">
        <ele>2168.3899999999999</ele>
        <time>2018-06-19T08:49:22Z</time>
      </trkpt>
      <trkpt lat="46.050436031073332" lon="8.051531463861466">
        <ele>2167.9099999999999</ele>
        <time>2018-06-19T08:49:15Z</time>
      </trkpt>
      <trkpt lat="46.05044667609036" lon="8.051517382264137">
        <ele>2168.3899999999999</ele>
        <time>2018-06-19T08:49:05Z</time>
      </trkpt>
      <trkpt lat="46.050490010529757" lon="8.051452673971653">
        <ele>2167.9099999999999</ele>
        <time>2018-06-19T08:49:00Z</time>
      </trkpt>
      <trkpt lat="46.05055077932775" lon="8.051373464986682">
        <ele>2168.3899999999999</ele>
        <time>2018-06-19T08:48:53Z</time>
      </trkpt>
      <trkpt lat="46.050587240606546" lon="8.051377404481173">
        <ele>2167.9099999999999</ele>
        <time>2018-06-19T08:48:49Z</time>
      </trkpt>
      <trkpt lat="46.050590509548783" lon="8.051378494128585">
        <ele>2167.9099999999999</ele>
        <time>2018-06-19T08:48:48Z</time>
      </trkpt>
      <trkpt lat="46.050675166770816" lon="8.051457116380334">
        <ele>2168.3899999999999</ele>
        <time>2018-06-19T08:48:37Z</time>
      </trkpt>
      <trkpt lat="46.050786729902029" lon="8.051530541852117">
        <ele>2168.3899999999999</ele>
        <time>2018-06-19T08:48:27Z</time>
      </trkpt>
      <trkpt lat="46.05090550146997" lon="8.051593573763967">
        <ele>2168.3899999999999</ele>
        <time>2018-06-19T08:48:16Z</time>
      </trkpt>
      <trkpt lat="46.0510213393718" lon="8.051576474681497">
        <ele>2168.3899999999999</ele>
        <time>2018-06-19T08:48:05Z</time>
      </trkpt>
      <trkpt lat="46.051159221678972" lon="8.05156004615128">
        <ele>2168.3899999999999</ele>
        <time>2018-06-19T08:47:53Z</time>
      </trkpt>
      <trkpt lat="46.051320908591151" lon="8.051529787480831">
        <ele>2167.9099999999999</ele>
        <time>2018-06-19T08:47:38Z</time>
      </trkpt>
      <trkpt lat="46.051364662125707" lon="8.051547724753618">
        <ele>2167.9099999999999</ele>
        <time>2018-06-19T08:47:34Z</time>
      </trkpt>
      <trkpt lat="46.051395675167441" lon="8.051563063636422">
        <ele>2167.9099999999999</ele>
        <time>2018-06-19T08:47:31Z</time>
      </trkpt>
      <trkpt lat="46.051543112844229" lon="8.051618803292513">
        <ele>2168.3899999999999</ele>
        <time>2018-06-19T08:47:18Z</time>
      </trkpt>
      <trkpt lat="46.051685018464923" lon="8.05168024264276">
        <ele>2168.8699999999999</ele>
        <time>2018-06-19T08:47:04Z</time>
      </trkpt>
      <trkpt lat="46.051706140860915" lon="8.051698682829738">
        <ele>2168.3899999999999</ele>
        <time>2018-06-19T08:47:02Z</time>
      </trkpt>
      <trkpt lat="46.051768250763416" lon="8.051735060289502">
        <ele>2168.3899999999999</ele>
        <time>2018-06-19T08:46:56Z</time>
      </trkpt>
      <trkpt lat="46.051793480291963" lon="8.051754087209702">
        <ele>2168.3899999999999</ele>
        <time>2018-06-19T08:46:53Z</time>
      </trkpt>
      <trkpt lat="46.051826672628522" lon="8.051771689206362">
        <ele>2168.3899999999999</ele>
        <time>2018-06-19T08:46:50Z</time>
      </trkpt>
      <trkpt lat="46.051965896040201" lon="8.051870428025723">
        <ele>2167.9099999999999</ele>
        <time>2018-06-19T08:46:36Z</time>
      </trkpt>
      <trkpt lat="46.051991460844874" lon="8.051890209317207">
        <ele>2168.8699999999999</ele>
        <time>2018-06-19T08:46:33Z</time>
      </trkpt>
      <trkpt lat="46.052004368975759" lon="8.051908230409026">
        <ele>2168.3899999999999</ele>
        <time>2018-06-19T08:46:31Z</time>
      </trkpt>
      <trkpt lat="46.052068825811148" lon="8.052085675299168">
        <ele>2168.8699999999999</ele>
        <time>2018-06-19T08:46:19Z</time>
      </trkpt>
      <trkpt lat="46.052177203819156" lon="8.052234537899494">
        <ele>2168.8699999999999</ele>
        <time>2018-06-19T08:46:07Z</time>
      </trkpt>
      <trkpt lat="46.052303854376078" lon="8.05233889259398">
        <ele>2168.8699999999999</ele>
        <time>2018-06-19T08:45:53Z</time>
      </trkpt>
      <trkpt lat="46.052320282906294" lon="8.052360266447067">
        <ele>2168.3899999999999</ele>
        <time>2018-06-19T08:45:51Z</time>
      </trkpt>
      <trkpt lat="46.052401084452868" lon="8.052460514008999">
        <ele>2168.3899999999999</ele>
        <time>2018-06-19T08:45:40Z</time>
      </trkpt>
      <trkpt lat="46.052427822723985" lon="8.052513487637043">
        <ele>2168.8699999999999</ele>
        <time>2018-06-19T08:45:30Z</time>
      </trkpt>
      <trkpt lat="46.05248624458909" lon="8.052566042169929">
        <ele>2168.3899999999999</ele>
        <time>2018-06-19T08:45:19Z</time>
      </trkpt>
      <trkpt lat="46.05253460817039" lon="8.052580794319511">
        <ele>2168.8699999999999</ele>
        <time>2018-06-19T08:45:10Z</time>
      </trkpt>
      <trkpt lat="46.052670646458864" lon="8.052648771554232">
        <ele>2168.8699999999999</ele>
        <time>2018-06-19T08:44:58Z</time>
      </trkpt>
      <trkpt lat="46.052767792716622" lon="8.052613735198975">
        <ele>2168.3899999999999</ele>
        <time>2018-06-19T08:44:47Z</time>
      </trkpt>
      <trkpt lat="46.052881199866533" lon="8.052581464871764">
        <ele>2168.8699999999999</ele>
        <time>2018-06-19T08:44:35Z</time>
      </trkpt>
      <trkpt lat="46.052948590368032" lon="8.05255925282836">
        <ele>2168.3899999999999</ele>
        <time>2018-06-19T08:44:27Z</time>
      </trkpt>
      <trkpt lat="46.052978849038482" lon="8.052559336647391">
        <ele>2168.3899999999999</ele>
        <time>2018-06-19T08:44:23Z</time>
      </trkpt>
      <trkpt lat="46.053020842373371" lon="8.052539052441716">
        <ele>2168.3899999999999</ele>
        <time>2018-06-19T08:44:19Z</time>
      </trkpt>
      <trkpt lat="46.053075743839145" lon="8.052554139867425">
        <ele>2168.3899999999999</ele>
        <time>2018-06-19T08:44:11Z</time>
      </trkpt>
      <trkpt lat="46.053156293928623" lon="8.052520444616675">
        <ele>2168.3899999999999</ele>
        <time>2018-06-19T08:44:01Z</time>
      </trkpt>
      <trkpt lat="46.053260480985045" lon="8.052481552585959">
        <ele>2168.8699999999999</ele>
        <time>2018-06-19T08:43:50Z</time>
      </trkpt>
      <trkpt lat="46.05326215736568" lon="8.052478954195976">
        <ele>2168.8699999999999</ele>
        <time>2018-06-19T08:43:45Z</time>
      </trkpt>
      <trkpt lat="46.053293757140636" lon="8.052463950589299">
        <ele>2168.8699999999999</ele>
        <time>2018-06-19T08:43:37Z</time>
      </trkpt>
      <trkpt lat="46.053363829851151" lon="8.052438385784626">
        <ele>2168.8699999999999</ele>
        <time>2018-06-19T08:43:27Z</time>
      </trkpt>
      <trkpt lat="46.053470950573683" lon="8.05236479267478">
        <ele>2168.3899999999999</ele>
        <time>2018-06-19T08:43:14Z</time>
      </trkpt>
      <trkpt lat="46.053473465144634" lon="8.052358087152243">
        <ele>2168.3899999999999</ele>
        <time>2018-06-19T08:43:11Z</time>
      </trkpt>
      <trkpt lat="46.05348058976233" lon="8.052374599501491">
        <ele>2167.9099999999999</ele>
        <time>2018-06-19T08:43:01Z</time>
      </trkpt>
      <trkpt lat="46.053443541750312" lon="8.052409552037716">
        <ele>2166.4699999999998</ele>
        <time>2018-06-19T08:42:51Z</time>
      </trkpt>
      <trkpt lat="46.053435243666172" lon="8.052453473210335">
        <ele>2165.5100000000002</ele>
        <time>2018-06-19T08:42:41Z</time>
      </trkpt>
      <trkpt lat="46.053488049656153" lon="8.052505105733872">
        <ele>2164.5500000000002</ele>
        <time>2018-06-19T08:42:29Z</time>
      </trkpt>
      <trkpt lat="46.053517637774348" lon="8.052499573677778">
        <ele>2165.0300000000002</ele>
        <time>2018-06-19T08:42:20Z</time>
      </trkpt>
      <trkpt lat="46.053538676351309" lon="8.052502674981952">
        <ele>2165.0300000000002</ele>
        <time>2018-06-19T08:42:09Z</time>
      </trkpt>
      <trkpt lat="46.053599193692207" lon="8.052542069926858">
        <ele>2164.5500000000002</ele>
        <time>2018-06-19T08:41:57Z</time>
      </trkpt>
      <trkpt lat="46.053654178977013" lon="8.052531089633703">
        <ele>2165.0300000000002</ele>
        <time>2018-06-19T08:41:46Z</time>
      </trkpt>
      <trkpt lat="46.053674211725593" lon="8.052534693852067">
        <ele>2163.5799999999999</ele>
        <time>2018-06-19T08:41:43Z</time>
      </trkpt>
      <trkpt lat="46.053707990795374" lon="8.052547853440046">
        <ele>2163.5799999999999</ele>
        <time>2018-06-19T08:41:39Z</time>
      </trkpt>
      <trkpt lat="46.053726514801383" lon="8.052545925602317">
        <ele>2164.5500000000002</ele>
        <time>2018-06-19T08:41:36Z</time>
      </trkpt>
      <trkpt lat="46.053766496479511" lon="8.05252798832953">
        <ele>2165.0300000000002</ele>
        <time>2018-06-19T08:41:28Z</time>
      </trkpt>
      <trkpt lat="46.053845202550292" lon="8.052488341927528">
        <ele>2165.5100000000002</ele>
        <time>2018-06-19T08:41:17Z</time>
      </trkpt>
      <trkpt lat="46.0539017803967" lon="8.052437044680119">
        <ele>2166.4699999999998</ele>
        <time>2018-06-19T08:41:08Z</time>
      </trkpt>
      <trkpt lat="46.053969757631421" lon="8.052394045516849">
        <ele>2166.4699999999998</ele>
        <time>2018-06-19T08:40:58Z</time>
      </trkpt>
      <trkpt lat="46.05397704988718" lon="8.052388848736882">
        <ele>2166.4699999999998</ele>
        <time>2018-06-19T08:40:57Z</time>
      </trkpt>
      <trkpt lat="46.054047457873821" lon="8.05237946100533">
        <ele>2167.9099999999999</ele>
        <time>2018-06-19T08:40:47Z</time>
      </trkpt>
      <trkpt lat="46.054055588319898" lon="8.052380969747901">
        <ele>2168.3899999999999</ele>
        <time>2018-06-19T08:40:46Z</time>
      </trkpt>
      <trkpt lat="46.054048296064138" lon="8.052356075495482">
        <ele>2168.8699999999999</ele>
        <time>2018-06-19T08:40:38Z</time>
      </trkpt>
      <trkpt lat="46.054067155346274" lon="8.052366049960256">
        <ele>2168.8699999999999</ele>
        <time>2018-06-19T08:40:33Z</time>
      </trkpt>
      <trkpt lat="46.054106131196022" lon="8.052414748817682">
        <ele>2169.3499999999999</ele>
        <time>2018-06-19T08:40:21Z</time>
      </trkpt>
      <trkpt lat="46.054127169772983" lon="8.052411815151572">
        <ele>2168.8699999999999</ele>
        <time>2018-06-19T08:40:08Z</time>
      </trkpt>
      <trkpt lat="46.054129851981997" lon="8.052375270053744">
        <ele>2169.3499999999999</ele>
        <time>2018-06-19T08:39:53Z</time>
      </trkpt>
      <trkpt lat="46.054241079837084" lon="8.052514158189297">
        <ele>2168.8699999999999</ele>
        <time>2018-06-19T08:39:39Z</time>
      </trkpt>
      <trkpt lat="46.054353062063456" lon="8.052608873695135">
        <ele>2168.8699999999999</ele>
        <time>2018-06-19T08:39:28Z</time>
      </trkpt>
      <trkpt lat="46.054525813087821" lon="8.052641395479441">
        <ele>2169.8299999999999</ele>
        <time>2018-06-19T08:39:14Z</time>
      </trkpt>
      <trkpt lat="46.054593790322542" lon="8.052607281133533">
        <ele>2171.27</ele>
        <time>2018-06-19T08:39:09Z</time>
      </trkpt>
      <trkpt lat="46.054729409515858" lon="8.052545171231031">
        <ele>2174.6399999999999</ele>
        <time>2018-06-19T08:38:55Z</time>
      </trkpt>
      <trkpt lat="46.054775426164269" lon="8.052517091855407">
        <ele>2176.0799999999999</ele>
        <time>2018-06-19T08:38:50Z</time>
      </trkpt>
      <trkpt lat="46.054915236309171" lon="8.052404522895813">
        <ele>2179.9299999999998</ele>
        <time>2018-06-19T08:38:36Z</time>
      </trkpt>
      <trkpt lat="46.054929569363594" lon="8.052407875657082">
        <ele>2179.9299999999998</ele>
        <time>2018-06-19T08:38:28Z</time>
      </trkpt>
      <trkpt lat="46.055005341768265" lon="8.052371582016349">
        <ele>2182.3299999999999</ele>
        <time>2018-06-19T08:38:17Z</time>
      </trkpt>
      <trkpt lat="46.055081197991967" lon="8.052320536226034">
        <ele>2185.21</ele>
        <time>2018-06-19T08:38:06Z</time>
      </trkpt>
      <trkpt lat="46.055137189105153" lon="8.052290948107839">
        <ele>2188.0999999999999</ele>
        <time>2018-06-19T08:37:56Z</time>
      </trkpt>
      <trkpt lat="46.055201226845384" lon="8.052254403010011">
        <ele>2191.46</ele>
        <time>2018-06-19T08:37:49Z</time>
      </trkpt>
      <trkpt lat="46.055262666195631" lon="8.052212158218026">
        <ele>2194.3499999999999</ele>
        <time>2018-06-19T08:37:42Z</time>
      </trkpt>
      <trkpt lat="46.05536911636591" lon="8.052150886505842">
        <ele>2198.1900000000001</ele>
        <time>2018-06-19T08:37:30Z</time>
      </trkpt>
      <trkpt lat="46.055371128022671" lon="8.05216982960701">
        <ele>2197.71</ele>
        <time>2018-06-19T08:37:24Z</time>
      </trkpt>
      <trkpt lat="46.055464167147875" lon="8.052107887342572">
        <ele>2201.0799999999999</ele>
        <time>2018-06-19T08:37:12Z</time>
      </trkpt>
      <trkpt lat="46.055575562641025" lon="8.052039407193661">
        <ele>2204.4400000000001</ele>
        <time>2018-06-19T08:36:59Z</time>
      </trkpt>
      <trkpt lat="46.055612443014979" lon="8.052025744691491">
        <ele>2205.8800000000001</ele>
        <time>2018-06-19T08:36:54Z</time>
      </trkpt>
      <trkpt lat="46.055691819638014" lon="8.051957851275802">
        <ele>2208.29</ele>
        <time>2018-06-19T08:36:42Z</time>
      </trkpt>
      <trkpt lat="46.055733226239681" lon="8.051941758021712">
        <ele>2209.25</ele>
        <time>2018-06-19T08:36:38Z</time>
      </trkpt>
      <trkpt lat="46.055776309221983" lon="8.051927844062448">
        <ele>2210.6900000000001</ele>
        <time>2018-06-19T08:36:33Z</time>
      </trkpt>
      <trkpt lat="46.055776560679078" lon="8.051909906789661">
        <ele>2211.6500000000001</ele>
        <time>2018-06-19T08:36:26Z</time>
      </trkpt>
      <trkpt lat="46.055810255929828" lon="8.051888197660446">
        <ele>2214.0500000000002</ele>
        <time>2018-06-19T08:36:17Z</time>
      </trkpt>
      <trkpt lat="46.05585191398859" lon="8.05187813937664">
        <ele>2216.46</ele>
        <time>2018-06-19T08:36:08Z</time>
      </trkpt>
      <trkpt lat="46.055881502106786" lon="8.051862549036741">
        <ele>2219.3400000000001</ele>
        <time>2018-06-19T08:35:58Z</time>
      </trkpt>
      <trkpt lat="46.05590807273984" lon="8.051838241517544">
        <ele>2221.2600000000002</ele>
        <time>2018-06-19T08:35:49Z</time>
      </trkpt>
      <trkpt lat="46.055944617837667" lon="8.05181167088449">
        <ele>2224.6300000000001</ele>
        <time>2018-06-19T08:35:39Z</time>
      </trkpt>
      <trkpt lat="46.055967500433326" lon="8.051819549873471">
        <ele>2226.0700000000002</ele>
        <time>2018-06-19T08:35:30Z</time>
      </trkpt>
      <trkpt lat="46.056004464626312" lon="8.05179700255394">
        <ele>2227.9899999999998</ele>
        <time>2018-06-19T08:35:22Z</time>
      </trkpt>
      <trkpt lat="46.056027011945844" lon="8.051779568195343">
        <ele>2229.4299999999998</ele>
        <time>2018-06-19T08:35:18Z</time>
      </trkpt>
      <trkpt lat="46.056058779358864" lon="8.05175987072289">
        <ele>2231.3600000000001</ele>
        <time>2018-06-19T08:35:13Z</time>
      </trkpt>
      <trkpt lat="46.056102281436324" lon="8.051723996177316">
        <ele>2234.2399999999998</ele>
        <time>2018-06-19T08:35:06Z</time>
      </trkpt>
      <trkpt lat="46.056170761585236" lon="8.051705555990338">
        <ele>2237.6100000000001</ele>
        <time>2018-06-19T08:34:56Z</time>
      </trkpt>
      <trkpt lat="46.056227758526802" lon="8.051672782748938">
        <ele>2240.4899999999998</ele>
        <time>2018-06-19T08:34:46Z</time>
      </trkpt>
      <trkpt lat="46.05628240853548" lon="8.05164503864944">
        <ele>2243.3699999999999</ele>
        <time>2018-06-19T08:34:38Z</time>
      </trkpt>
      <trkpt lat="46.056344099342823" lon="8.051613438874483">
        <ele>2246.7399999999998</ele>
        <time>2018-06-19T08:34:28Z</time>
      </trkpt>
      <trkpt lat="46.056392127647996" lon="8.051593992859125">
        <ele>2249.6199999999999</ele>
        <time>2018-06-19T08:34:19Z</time>
      </trkpt>
      <trkpt lat="46.056432109326124" lon="8.051537331193686">
        <ele>2252.9899999999998</ele>
        <time>2018-06-19T08:34:09Z</time>
      </trkpt>
      <trkpt lat="46.056438395753503" lon="8.051529536023736">
        <ele>2253.9499999999998</ele>
        <time>2018-06-19T08:34:07Z</time>
      </trkpt>
      <trkpt lat="46.056480556726456" lon="8.051497684791684">
        <ele>2255.8699999999999</ele>
        <time>2018-06-19T08:33:53Z</time>
      </trkpt>
      <trkpt lat="46.056467229500413" lon="8.05148427374661">
        <ele>2254.9099999999999</ele>
        <time>2018-06-19T08:33:40Z</time>
      </trkpt>
      <trkpt lat="46.056487346068025" lon="8.051485614851117">
        <ele>2255.3899999999999</ele>
        <time>2018-06-19T08:33:26Z</time>
      </trkpt>
      <trkpt lat="46.056501595303416" lon="8.051464324817061">
        <ele>2255.3899999999999</ele>
        <time>2018-06-19T08:33:10Z</time>
      </trkpt>
      <trkpt lat="46.056495225057006" lon="8.051474215462804">
        <ele>2255.3899999999999</ele>
        <time>2018-06-19T08:32:58Z</time>
      </trkpt>
      <trkpt lat="46.056493800133467" lon="8.051478574052453">
        <ele>2255.3899999999999</ele>
        <time>2018-06-19T08:32:39Z</time>
      </trkpt>
      <trkpt lat="46.056504948064685" lon="8.051503133028746">
        <ele>2255.8699999999999</ele>
        <time>2018-06-19T08:32:28Z</time>
      </trkpt>
      <trkpt lat="46.056539816781878" lon="8.051489973440766">
        <ele>2256.8299999999999</ele>
        <time>2018-06-19T08:32:16Z</time>
      </trkpt>
      <trkpt lat="46.056636292487383" lon="8.051423504948616">
        <ele>2257.79</ele>
        <time>2018-06-19T08:32:04Z</time>
      </trkpt>
      <trkpt lat="46.05668012984097" lon="8.051429959014058">
        <ele>2257.79</ele>
        <time>2018-06-19T08:31:59Z</time>
      </trkpt>
      <trkpt lat="46.056741569191217" lon="8.051383355632424">
        <ele>2258.75</ele>
        <time>2018-06-19T08:31:52Z</time>
      </trkpt>
      <trkpt lat="46.056758500635624" lon="8.051376817747951">
        <ele>2259.2399999999998</ele>
        <time>2018-06-19T08:31:50Z</time>
      </trkpt>
      <trkpt lat="46.056766798719764" lon="8.051377991214395">
        <ele>2259.2399999999998</ele>
        <time>2018-06-19T08:31:47Z</time>
      </trkpt>
      <trkpt lat="46.056869309395552" lon="8.051332058385015">
        <ele>2260.6799999999998</ele>
        <time>2018-06-19T08:31:36Z</time>
      </trkpt>
      <trkpt lat="46.056977268308401" lon="8.051270786672831">
        <ele>2263.0799999999999</ele>
        <time>2018-06-19T08:31:24Z</time>
      </trkpt>
      <trkpt lat="46.057072570547462" lon="8.051236672326922">
        <ele>2265.48</ele>
        <time>2018-06-19T08:31:14Z</time>
      </trkpt>
      <trkpt lat="46.057081036269665" lon="8.051234660670161">
        <ele>2265.48</ele>
        <time>2018-06-19T08:31:13Z</time>
      </trkpt>
      <trkpt lat="46.057096291333437" lon="8.051208173856139">
        <ele>2266.9299999999998</ele>
        <time>2018-06-19T08:31:10Z</time>
      </trkpt>
      <trkpt lat="46.057139541953802" lon="8.05118671618402">
        <ele>2267.8899999999999</ele>
        <time>2018-06-19T08:31:03Z</time>
      </trkpt>
      <trkpt lat="46.057225959375501" lon="8.051138939335942">
        <ele>2270.29</ele>
        <time>2018-06-19T08:30:50Z</time>
      </trkpt>
      <trkpt lat="46.057293517515063" lon="8.051096526905894">
        <ele>2272.21</ele>
        <time>2018-06-19T08:30:41Z</time>
      </trkpt>
      <trkpt lat="46.057368870824575" lon="8.05108655244112">
        <ele>2274.6199999999999</ele>
        <time>2018-06-19T08:30:30Z</time>
      </trkpt>
      <trkpt lat="46.057410528883338" lon="8.05103961378336">
        <ele>2277.5</ele>
        <time>2018-06-19T08:30:22Z</time>
      </trkpt>
      <trkpt lat="46.05744288302958" lon="8.050991836935282">
        <ele>2280.3800000000001</ele>
        <time>2018-06-19T08:30:13Z</time>
      </trkpt>
      <trkpt lat="46.057459143921733" lon="8.050979431718588">
        <ele>2281.8299999999999</ele>
        <time>2018-06-19T08:30:09Z</time>
      </trkpt>
      <trkpt lat="46.057479092851281" lon="8.050984712317586">
        <ele>2283.75</ele>
        <time>2018-06-19T08:30:00Z</time>
      </trkpt>
      <trkpt lat="46.057528713718057" lon="8.050981946289539">
        <ele>2286.6300000000001</ele>
        <time>2018-06-19T08:29:48Z</time>
      </trkpt>
      <trkpt lat="46.057559978216887" lon="8.050944227725267">
        <ele>2289.52</ele>
        <time>2018-06-19T08:29:37Z</time>
      </trkpt>
      <trkpt lat="46.05756551027298" lon="8.050921848043799">
        <ele>2290.48</ele>
        <time>2018-06-19T08:29:25Z</time>
      </trkpt>
      <trkpt lat="46.057603899389505" lon="8.050925536081195">
        <ele>2291.9200000000001</ele>
        <time>2018-06-19T08:29:17Z</time>
      </trkpt>
      <trkpt lat="46.057685455307364" lon="8.050884380936623">
        <ele>2292.8800000000001</ele>
        <time>2018-06-19T08:29:07Z</time>
      </trkpt>
      <trkpt lat="46.057791570201516" lon="8.050805255770683">
        <ele>2294.8000000000002</ele>
        <time>2018-06-19T08:28:55Z</time>
      </trkpt>
      <trkpt lat="46.057814788073301" lon="8.05078798905015">
        <ele>2295.77</ele>
        <time>2018-06-19T08:28:46Z</time>
      </trkpt>
      <trkpt lat="46.05791344307363" lon="8.050723783671856">
        <ele>2297.6900000000001</ele>
        <time>2018-06-19T08:28:34Z</time>
      </trkpt>
      <trkpt lat="46.057971781119704" lon="8.050713557749987">
        <ele>2298.6500000000001</ele>
        <time>2018-06-19T08:28:28Z</time>
      </trkpt>
      <trkpt lat="46.058023581281304" lon="8.050688663497567">
        <ele>2300.0900000000001</ele>
        <time>2018-06-19T08:28:21Z</time>
      </trkpt>
      <trkpt lat="46.058060964569449" lon="8.050665613263845">
        <ele>2301.0500000000002</ele>
        <time>2018-06-19T08:28:07Z</time>
      </trkpt>
      <trkpt lat="46.058057276532054" lon="8.050663098692894">
        <ele>2301.0500000000002</ele>
        <time>2018-06-19T08:27:56Z</time>
      </trkpt>
      <trkpt lat="46.058147214353085" lon="8.050611717626452">
        <ele>2303.9400000000001</ele>
        <time>2018-06-19T08:27:44Z</time>
      </trkpt>
      <trkpt lat="46.058220053091645" lon="8.050559917464852">
        <ele>2306.8200000000002</ele>
        <time>2018-06-19T08:27:32Z</time>
      </trkpt>
      <trkpt lat="46.05824620462954" lon="8.050555726513267">
        <ele>2306.8200000000002</ele>
        <time>2018-06-19T08:27:23Z</time>
      </trkpt>
      <trkpt lat="46.05827453546226" lon="8.050570394843817">
        <ele>2306.8200000000002</ele>
        <time>2018-06-19T08:27:11Z</time>
      </trkpt>
      <trkpt lat="46.05834829621017" lon="8.050593445077539">
        <ele>2307.3000000000002</ele>
        <time>2018-06-19T08:27:02Z</time>
      </trkpt>
      <trkpt lat="46.05838249437511" lon="8.050581878051162">
        <ele>2309.6999999999998</ele>
        <time>2018-06-19T08:26:54Z</time>
      </trkpt>
      <trkpt lat="46.058421554043889" lon="8.050568047910929">
        <ele>2312.5900000000001</ele>
        <time>2018-06-19T08:26:45Z</time>
      </trkpt>
      <trkpt lat="46.05844552628696" lon="8.050517169758678">
        <ele>2314.9899999999998</ele>
        <time>2018-06-19T08:26:36Z</time>
      </trkpt>
      <trkpt lat="46.058506378903985" lon="8.050439888611436">
        <ele>2318.3600000000001</ele>
        <time>2018-06-19T08:26:24Z</time>
      </trkpt>
      <trkpt lat="46.058524986729026" lon="8.050448102876544">
        <ele>2318.8400000000001</ele>
        <time>2018-06-19T08:26:22Z</time>
      </trkpt>
      <trkpt lat="46.058540241792798" lon="8.050469560548663">
        <ele>2319.8000000000002</ele>
        <time>2018-06-19T08:26:19Z</time>
      </trkpt>
      <trkpt lat="46.058591790497303" lon="8.050516583025456">
        <ele>2322.1999999999998</ele>
        <time>2018-06-19T08:26:09Z</time>
      </trkpt>
      <trkpt lat="46.058629006147385" lon="8.05058229714632">
        <ele>2322.6799999999998</ele>
        <time>2018-06-19T08:25:59Z</time>
      </trkpt>
      <trkpt lat="46.058686086907983" lon="8.050588080659509">
        <ele>2323.1599999999999</ele>
        <time>2018-06-19T08:25:50Z</time>
      </trkpt>
      <trkpt lat="46.058770911768079" lon="8.050573663786054">
        <ele>2323.1599999999999</ele>
        <time>2018-06-19T08:25:39Z</time>
      </trkpt>
      <trkpt lat="46.058819610625505" lon="8.050567042082548">
        <ele>2323.1599999999999</ele>
        <time>2018-06-19T08:25:33Z</time>
      </trkpt>
      <trkpt lat="46.058905776590109" lon="8.050602832809091">
        <ele>2324.1199999999999</ele>
        <time>2018-06-19T08:25:26Z</time>
      </trkpt>
      <trkpt lat="46.05899864807725" lon="8.0506506934762">
        <ele>2326.5300000000002</ele>
        <time>2018-06-19T08:25:18Z</time>
      </trkpt>
      <trkpt lat="46.059031588956714" lon="8.05063116364181">
        <ele>2327.9699999999998</ele>
        <time>2018-06-19T08:25:15Z</time>
      </trkpt>
      <trkpt lat="46.059034271165729" lon="8.050614567473531">
        <ele>2328.9299999999998</ele>
        <time>2018-06-19T08:25:13Z</time>
      </trkpt>
      <trkpt lat="46.059045000001788" lon="8.050563605502248">
        <ele>2329.4099999999999</ele>
        <time>2018-06-19T08:25:03Z</time>
      </trkpt>
      <trkpt lat="46.058983225375414" lon="8.050462016835809">
        <ele>2331.8099999999999</ele>
        <time>2018-06-19T08:24:49Z</time>
      </trkpt>
      <trkpt lat="46.058974592015147" lon="8.050434775650501">
        <ele>2331.8099999999999</ele>
        <time>2018-06-19T08:24:47Z</time>
      </trkpt>
      <trkpt lat="46.058918097987771" lon="8.050309801474214">
        <ele>2333.7399999999998</ele>
        <time>2018-06-19T08:24:37Z</time>
      </trkpt>
      <trkpt lat="46.058842577040195" lon="8.050196561962366">
        <ele>2336.6199999999999</ele>
        <time>2018-06-19T08:24:26Z</time>
      </trkpt>
      <trkpt lat="46.058827824890614" lon="8.050174852833152">
        <ele>2337.5799999999999</ele>
        <time>2018-06-19T08:24:24Z</time>
      </trkpt>
      <trkpt lat="46.058786250650883" lon="8.050146354362369">
        <ele>2338.0599999999999</ele>
        <time>2018-06-19T08:24:18Z</time>
      </trkpt>
      <trkpt lat="46.058717602863908" lon="8.050115928053856">
        <ele>2338.54</ele>
        <time>2018-06-19T08:24:12Z</time>
      </trkpt>
      <trkpt lat="46.058668568730354" lon="8.050121795386076">
        <ele>2338.54</ele>
        <time>2018-06-19T08:24:02Z</time>
      </trkpt>
      <trkpt lat="46.058675274252892" lon="8.050111401826143">
        <ele>2338.0599999999999</ele>
        <time>2018-06-19T08:23:51Z</time>
      </trkpt>
      <trkpt lat="46.058694133535028" lon="8.050140822306275">
        <ele>2338.0599999999999</ele>
        <time>2018-06-19T08:23:41Z</time>
      </trkpt>
      <trkpt lat="46.058693211525679" lon="8.050110898911953">
        <ele>2338.54</ele>
        <time>2018-06-19T08:23:33Z</time>
      </trkpt>
      <trkpt lat="46.058696899563074" lon="8.050016099587083">
        <ele>2339.9899999999998</ele>
        <time>2018-06-19T08:23:24Z</time>
      </trkpt>
      <trkpt lat="46.058693211525679" lon="8.049945440143347">
        <ele>2339.9899999999998</ele>
        <time>2018-06-19T08:23:16Z</time>
      </trkpt>
      <trkpt lat="46.058660689741373" lon="8.050034288316965">
        <ele>2339.5100000000002</ele>
        <time>2018-06-19T08:23:07Z</time>
      </trkpt>
      <trkpt lat="46.058661276474595" lon="8.05005700327456">
        <ele>2339.5100000000002</ele>
        <time>2018-06-19T08:23:02Z</time>
      </trkpt>
      <trkpt lat="46.058655828237534" lon="8.050056584179401">
        <ele>2339.5100000000002</ele>
        <time>2018-06-19T08:22:46Z</time>
      </trkpt>
      <trkpt lat="46.058701006695628" lon="8.050011238083243">
        <ele>2339.5100000000002</ele>
        <time>2018-06-19T08:22:36Z</time>
      </trkpt>
      <trkpt lat="46.058705030009151" lon="8.050001515075564">
        <ele>2339.9899999999998</ele>
        <time>2018-06-19T08:22:35Z</time>
      </trkpt>
      <trkpt lat="46.058697318658233" lon="8.049977459013462">
        <ele>2339.5100000000002</ele>
        <time>2018-06-19T08:22:27Z</time>
      </trkpt>
      <trkpt lat="46.058699917048216" lon="8.049990199506283">
        <ele>2339.02</ele>
        <time>2018-06-19T08:22:09Z</time>
      </trkpt>
      <trkpt lat="46.058690445497632" lon="8.049980979412794">
        <ele>2339.5100000000002</ele>
        <time>2018-06-19T08:21:59Z</time>
      </trkpt>
      <trkpt lat="46.058695055544376" lon="8.04997444152832">
        <ele>2339.5100000000002</ele>
        <time>2018-06-19T08:21:40Z</time>
      </trkpt>
      <trkpt lat="46.058693630620837" lon="8.049965891987085">
        <ele>2339.5100000000002</ele>
        <time>2018-06-19T08:21:24Z</time>
      </trkpt>
      <trkpt lat="46.058698073029518" lon="8.049971591681242">
        <ele>2338.54</ele>
        <time>2018-06-19T08:21:13Z</time>
      </trkpt>
      <trkpt lat="46.058706287294626" lon="8.04997930303216">
        <ele>2338.54</ele>
        <time>2018-06-19T08:20:49Z</time>
      </trkpt>
      <trkpt lat="46.058701761066914" lon="8.049974190071225">
        <ele>2338.54</ele>
        <time>2018-06-19T08:20:27Z</time>
      </trkpt>
      <trkpt lat="46.058707125484943" lon="8.049996318295598">
        <ele>2338.54</ele>
        <time>2018-06-19T08:20:04Z</time>
      </trkpt>
      <trkpt lat="46.058725230395794" lon="8.049998246133328">
        <ele>2338.54</ele>
        <time>2018-06-19T08:19:35Z</time>
      </trkpt>
      <trkpt lat="46.058723973110318" lon="8.050004784017801">
        <ele>2338.0599999999999</ele>
        <time>2018-06-19T08:19:15Z</time>
      </trkpt>
      <trkpt lat="46.058720787987113" lon="8.049992546439171">
        <ele>2338.54</ele>
        <time>2018-06-19T08:18:48Z</time>
      </trkpt>
      <trkpt lat="46.058716680854559" lon="8.049993049353361">
        <ele>2338.0599999999999</ele>
        <time>2018-06-19T08:18:18Z</time>
      </trkpt>
      <trkpt lat="46.058721877634525" lon="8.049994222819805">
        <ele>2338.0599999999999</ele>
        <time>2018-06-19T08:17:50Z</time>
      </trkpt>
      <trkpt lat="46.058724224567413" lon="8.050003862008452">
        <ele>2338.0599999999999</ele>
        <time>2018-06-19T08:17:28Z</time>
      </trkpt>
      <trkpt lat="46.058721374720335" lon="8.050009896978736">
        <ele>2338.0599999999999</ele>
        <time>2018-06-19T08:17:05Z</time>
      </trkpt>
      <trkpt lat="46.058720871806145" lon="8.050009896978736">
        <ele>2338.54</ele>
        <time>2018-06-19T08:16:43Z</time>
      </trkpt>
      <trkpt lat="46.058719111606479" lon="8.0499944742769">
        <ele>2338.54</ele>
        <time>2018-06-19T08:16:21Z</time>
      </trkpt>
      <trkpt lat="46.058718441054225" lon="8.049997072666884">
        <ele>2338.0599999999999</ele>
        <time>2018-06-19T08:16:00Z</time>
      </trkpt>
      <trkpt lat="46.058713747188449" lon="8.049996569752693">
        <ele>2338.0599999999999</ele>
        <time>2018-06-19T08:15:32Z</time>
      </trkpt>
      <trkpt lat="46.058716177940369" lon="8.049995647743344">
        <ele>2338.0599999999999</ele>
        <time>2018-06-19T08:15:03Z</time>
      </trkpt>
      <trkpt lat="46.058725230395794" lon="8.050013333559036">
        <ele>2338.0599999999999</ele>
        <time>2018-06-19T08:14:43Z</time>
      </trkpt>
      <trkpt lat="46.058722799643874" lon="8.05000813677907">
        <ele>2338.0599999999999</ele>
        <time>2018-06-19T08:14:22Z</time>
      </trkpt>
      <trkpt lat="46.058725984767079" lon="8.050009477883577">
        <ele>2338.0599999999999</ele>
        <time>2018-06-19T08:14:01Z</time>
      </trkpt>
      <trkpt lat="46.058725398033857" lon="8.050004951655865">
        <ele>2337.5799999999999</ele>
        <time>2018-06-19T08:13:35Z</time>
      </trkpt>
      <trkpt lat="46.058720871806145" lon="8.049991456791759">
        <ele>2338.0599999999999</ele>
        <time>2018-06-19T08:13:09Z</time>
      </trkpt>
      <trkpt lat="46.05871768668294" lon="8.049999084323645">
        <ele>2338.0599999999999</ele>
        <time>2018-06-19T08:12:38Z</time>
      </trkpt>
      <trkpt lat="46.058720117434859" lon="8.049990953877568">
        <ele>2337.5799999999999</ele>
        <time>2018-06-19T08:12:14Z</time>
      </trkpt>
      <trkpt lat="46.05872062034905" lon="8.049992043524981">
        <ele>2337.5799999999999</ele>
        <time>2018-06-19T08:11:52Z</time>
      </trkpt>
      <trkpt lat="46.058719111606479" lon="8.049992714077234">
        <ele>2337.0999999999999</ele>
        <time>2018-06-19T08:11:20Z</time>
      </trkpt>
      <trkpt lat="46.058721374720335" lon="8.049990702420473">
        <ele>2337.5799999999999</ele>
        <time>2018-06-19T08:10:55Z</time>
      </trkpt>
      <trkpt lat="46.058722296729684" lon="8.04997980594635">
        <ele>2337.0999999999999</ele>
        <time>2018-06-19T08:10:26Z</time>
      </trkpt>
      <trkpt lat="46.058713160455227" lon="8.049988271668553">
        <ele>2337.0999999999999</ele>
        <time>2018-06-19T08:09:51Z</time>
      </trkpt>
      <trkpt lat="46.058709556236863" lon="8.049988942220807">
        <ele>2337.0999999999999</ele>
        <time>2018-06-19T08:09:34Z</time>
      </trkpt>
      <trkpt lat="46.058705784380436" lon="8.050000257790089">
        <ele>2337.0999999999999</ele>
        <time>2018-06-19T08:09:16Z</time>
      </trkpt>
      <trkpt lat="46.058702850714326" lon="8.049982571974397">
        <ele>2337.0999999999999</ele>
        <time>2018-06-19T08:09:08Z</time>
      </trkpt>
      <trkpt lat="46.058710813522339" lon="8.04997930303216">
        <ele>2336.6199999999999</ele>
        <time>2018-06-19T08:08:52Z</time>
      </trkpt>
      <trkpt lat="46.058713914826512" lon="8.049965221434832">
        <ele>2336.6199999999999</ele>
        <time>2018-06-19T08:08:32Z</time>
      </trkpt>
      <trkpt lat="46.058713663369417" lon="8.049963712692261">
        <ele>2336.6199999999999</ele>
        <time>2018-06-19T08:08:12Z</time>
      </trkpt>
      <trkpt lat="46.058711903169751" lon="8.049966813996434">
        <ele>2336.6199999999999</ele>
        <time>2018-06-19T08:07:41Z</time>
      </trkpt>
      <trkpt lat="46.058711903169751" lon="8.049968909472227">
        <ele>2336.1399999999999</ele>
        <time>2018-06-19T08:07:06Z</time>
      </trkpt>
      <trkpt lat="46.058719698339701" lon="8.04996807128191">
        <ele>2336.1399999999999</ele>
        <time>2018-06-19T08:06:45Z</time>
      </trkpt>
      <trkpt lat="46.058711484074593" lon="8.049971759319305">
        <ele>2335.6599999999999</ele>
        <time>2018-06-19T08:06:20Z</time>
      </trkpt>
      <trkpt lat="46.058708969503641" lon="8.049968825653195">
        <ele>2335.6599999999999</ele>
        <time>2018-06-19T08:05:57Z</time>
      </trkpt>
      <trkpt lat="46.058711484074593" lon="8.049966143444181">
        <ele>2335.6599999999999</ele>
        <time>2018-06-19T08:05:27Z</time>
      </trkpt>
      <trkpt lat="46.058710142970085" lon="8.049974692985416">
        <ele>2335.6599999999999</ele>
        <time>2018-06-19T08:05:05Z</time>
      </trkpt>
      <trkpt lat="46.058712573722005" lon="8.049971340224147">
        <ele>2335.1799999999998</ele>
        <time>2018-06-19T08:04:35Z</time>
      </trkpt>
      <trkpt lat="46.058713831007481" lon="8.049987936392427">
        <ele>2335.6599999999999</ele>
        <time>2018-06-19T08:04:11Z</time>
      </trkpt>
      <trkpt lat="46.058698827400804" lon="8.050045520067215">
        <ele>2335.6599999999999</ele>
        <time>2018-06-19T08:04:02Z</time>
      </trkpt>
      <trkpt lat="46.058716094121337" lon="8.050054404884577">
        <ele>2335.6599999999999</ele>
        <time>2018-06-19T08:03:53Z</time>
      </trkpt>
      <trkpt lat="46.05872405692935" lon="8.050068737939">
        <ele>2335.6599999999999</ele>
        <time>2018-06-19T08:03:40Z</time>
      </trkpt>
      <trkpt lat="46.058735540136695" lon="8.050072677433491">
        <ele>2336.1399999999999</ele>
        <time>2018-06-19T08:03:32Z</time>
      </trkpt>
      <trkpt lat="46.05873579159379" lon="8.050028001889586">
        <ele>2337.0999999999999</ele>
        <time>2018-06-19T08:03:23Z</time>
      </trkpt>
      <trkpt lat="46.058747442439198" lon="8.050016099587083">
        <ele>2337.5799999999999</ele>
        <time>2018-06-19T08:03:19Z</time>
      </trkpt>
      <trkpt lat="46.058754734694958" lon="8.050011824816465">
        <ele>2337.5799999999999</ele>
        <time>2018-06-19T08:03:00Z</time>
      </trkpt>
      <trkpt lat="46.058773510158062" lon="8.05002573877573">
        <ele>2337.0999999999999</ele>
        <time>2018-06-19T08:02:48Z</time>
      </trkpt>
      <trkpt lat="46.058848612010479" lon="8.050035294145346">
        <ele>2334.2199999999998</ele>
        <time>2018-06-19T08:02:37Z</time>
      </trkpt>
      <trkpt lat="46.058854563161731" lon="8.050052309408784">
        <ele>2333.7399999999998</ele>
        <time>2018-06-19T08:02:32Z</time>
      </trkpt>
      <trkpt lat="46.05887602083385" lon="8.050120370462537">
        <ele>2332.7800000000002</ele>
        <time>2018-06-19T08:02:21Z</time>
      </trkpt>
      <trkpt lat="46.058881636708975" lon="8.050155993551016">
        <ele>2332.3000000000002</ele>
        <time>2018-06-19T08:02:11Z</time>
      </trkpt>
      <trkpt lat="46.058898232877254" lon="8.050103941932321">
        <ele>2331.3299999999999</ele>
        <time>2018-06-19T08:02:04Z</time>
      </trkpt>
      <trkpt lat="46.058895634487271" lon="8.050109725445509">
        <ele>2331.3299999999999</ele>
        <time>2018-06-19T08:01:55Z</time>
      </trkpt>
      <trkpt lat="46.058906363323331" lon="8.050100421532989">
        <ele>2331.3299999999999</ele>
        <time>2018-06-19T08:01:31Z</time>
      </trkpt>
      <trkpt lat="46.058923043310642" lon="8.050095224753022">
        <ele>2331.3299999999999</ele>
        <time>2018-06-19T08:01:05Z</time>
      </trkpt>
      <trkpt lat="46.058937208727002" lon="8.050096062943339">
        <ele>2331.3299999999999</ele>
        <time>2018-06-19T08:00:49Z</time>
      </trkpt>
      <trkpt lat="46.058918433263898" lon="8.050118861719966">
        <ele>2331.3299999999999</ele>
        <time>2018-06-19T08:00:32Z</time>
      </trkpt>
      <trkpt lat="46.058916673064232" lon="8.050120119005442">
        <ele>2331.8099999999999</ele>
        <time>2018-06-19T08:00:25Z</time>
      </trkpt>
      <trkpt lat="46.058948943391442" lon="8.05010586977005">
        <ele>2329.8899999999999</ele>
        <time>2018-06-19T08:00:15Z</time>
      </trkpt>
      <trkpt lat="46.05897911824286" lon="8.050104947760701">
        <ele>2328.9299999999998</ele>
        <time>2018-06-19T08:00:08Z</time>
      </trkpt>
      <trkpt lat="46.059005353599787" lon="8.050132859498262">
        <ele>2327.9699999999998</ele>
        <time>2018-06-19T07:59:56Z</time>
      </trkpt>
      <trkpt lat="46.059049777686596" lon="8.05025833658874">
        <ele>2325.5700000000002</ele>
        <time>2018-06-19T07:59:45Z</time>
      </trkpt>
      <trkpt lat="46.059064362198114" lon="8.050413569435477">
        <ele>2325.0900000000001</ele>
        <time>2018-06-19T07:59:34Z</time>
      </trkpt>
      <trkpt lat="46.059061512351036" lon="8.050456317141652">
        <ele>2324.6100000000001</ele>
        <time>2018-06-19T07:59:30Z</time>
      </trkpt>
      <trkpt lat="46.059012813493609" lon="8.050582800060511">
        <ele>2323.1599999999999</ele>
        <time>2018-06-19T07:59:18Z</time>
      </trkpt>
      <trkpt lat="46.059035779908299" lon="8.050646921619773">
        <ele>2322.6799999999998</ele>
        <time>2018-06-19T07:59:13Z</time>
      </trkpt>
      <trkpt lat="46.05907341465354" lon="8.050638791173697">
        <ele>2322.1999999999998</ele>
        <time>2018-06-19T07:58:59Z</time>
      </trkpt>
      <trkpt lat="46.059076683595777" lon="8.05065262131393">
        <ele>2322.1999999999998</ele>
        <time>2018-06-19T07:58:46Z</time>
      </trkpt>
      <trkpt lat="46.059069810435176" lon="8.050683550536633">
        <ele>2322.1999999999998</ele>
        <time>2018-06-19T07:58:29Z</time>
      </trkpt>
      <trkpt lat="46.059097722172737" lon="8.050743062049151">
        <ele>2320.7600000000002</ele>
        <time>2018-06-19T07:58:20Z</time>
      </trkpt>
      <trkpt lat="46.059118928387761" lon="8.050797125324607">
        <ele>2318.8400000000001</ele>
        <time>2018-06-19T07:58:11Z</time>
      </trkpt>
      <trkpt lat="46.059147929772735" lon="8.050850434228778">
        <ele>2316.4299999999998</ele>
        <time>2018-06-19T07:58:02Z</time>
      </trkpt>
      <trkpt lat="46.059170141816139" lon="8.050923608243465">
        <ele>2314.5100000000002</ele>
        <time>2018-06-19T07:57:51Z</time>
      </trkpt>
      <trkpt lat="46.059190677478909" lon="8.051058473065496">
        <ele>2314.0300000000002</ele>
        <time>2018-06-19T07:57:38Z</time>
      </trkpt>
      <trkpt lat="46.059197299182415" lon="8.051100550219417">
        <ele>2313.5500000000002</ele>
        <time>2018-06-19T07:57:34Z</time>
      </trkpt>
      <trkpt lat="46.059210123494267" lon="8.051213202998042">
        <ele>2311.1500000000001</ele>
        <time>2018-06-19T07:57:25Z</time>
      </trkpt>
      <trkpt lat="46.05918874964118" lon="8.05123901925981">
        <ele>2310.6700000000001</ele>
        <time>2018-06-19T07:57:09Z</time>
      </trkpt>
      <trkpt lat="46.059199227020144" lon="8.051339350640774">
        <ele>2309.2199999999998</ele>
        <time>2018-06-19T07:57:00Z</time>
      </trkpt>
      <trkpt lat="46.059225797653198" lon="8.051418559625745">
        <ele>2308.7399999999998</ele>
        <time>2018-06-19T07:56:53Z</time>
      </trkpt>
      <trkpt lat="46.059229066595435" lon="8.05144663900137">
        <ele>2308.2600000000002</ele>
        <time>2018-06-19T07:56:51Z</time>
      </trkpt>
      <trkpt lat="46.0592429805547" lon="8.05147061124444">
        <ele>2308.2600000000002</ele>
        <time>2018-06-19T07:56:39Z</time>
      </trkpt>
      <trkpt lat="46.059259325265884" lon="8.051465079188347">
        <ele>2308.2600000000002</ele>
        <time>2018-06-19T07:56:29Z</time>
      </trkpt>
      <trkpt lat="46.059307605028152" lon="8.051458038389683">
        <ele>2306.3400000000001</ele>
        <time>2018-06-19T07:56:21Z</time>
      </trkpt>
      <trkpt lat="46.059377007186413" lon="8.05143247358501">
        <ele>2303.9400000000001</ele>
        <time>2018-06-19T07:56:10Z</time>
      </trkpt>
      <trkpt lat="46.059445654973388" lon="8.051424259319902">
        <ele>2301.5300000000002</ele>
        <time>2018-06-19T07:55:59Z</time>
      </trkpt>
      <trkpt lat="46.059465687721968" lon="8.051423840224743">
        <ele>2300.0900000000001</ele>
        <time>2018-06-19T07:55:56Z</time>
      </trkpt>
      <trkpt lat="46.059495275840163" lon="8.051390815526247">
        <ele>2298.6500000000001</ele>
        <time>2018-06-19T07:55:49Z</time>
      </trkpt>
      <trkpt lat="46.059532156214118" lon="8.051319736987352">
        <ele>2296.73</ele>
        <time>2018-06-19T07:55:40Z</time>
      </trkpt>
      <trkpt lat="46.059553613886237" lon="8.051281683146954">
        <ele>2295.77</ele>
        <time>2018-06-19T07:55:31Z</time>
      </trkpt>
      <trkpt lat="46.059572724625468" lon="8.051308002322912">
        <ele>2295.77</ele>
        <time>2018-06-19T07:55:14Z</time>
      </trkpt>
      <trkpt lat="46.059576664119959" lon="8.051299536600709">
        <ele>2295.77</ele>
        <time>2018-06-19T07:54:57Z</time>
      </trkpt>
      <trkpt lat="46.059617567807436" lon="8.051302134990692">
        <ele>2295.2800000000002</ele>
        <time>2018-06-19T07:54:48Z</time>
      </trkpt>
      <trkpt lat="46.059656711295247" lon="8.051295932382345">
        <ele>2294.3200000000002</ele>
        <time>2018-06-19T07:54:40Z</time>
      </trkpt>
      <trkpt lat="46.059686299413443" lon="8.051391569897533">
        <ele>2292.4000000000001</ele>
        <time>2018-06-19T07:54:29Z</time>
      </trkpt>
      <trkpt lat="46.059708008542657" lon="8.051469521597028">
        <ele>2291.4400000000001</ele>
        <time>2018-06-19T07:54:21Z</time>
      </trkpt>
      <trkpt lat="46.05976827442646" lon="8.051515370607376">
        <ele>2290.48</ele>
        <time>2018-06-19T07:54:10Z</time>
      </trkpt>
      <trkpt lat="46.059788642451167" lon="8.051532218232751">
        <ele>2290</ele>
        <time>2018-06-19T07:54:07Z</time>
      </trkpt>
      <trkpt lat="46.059795264154673" lon="8.051535151898861">
        <ele>2290</ele>
        <time>2018-06-19T07:54:06Z</time>
      </trkpt>
      <trkpt lat="46.059848489239812" lon="8.051584186032414">
        <ele>2288.5599999999999</ele>
        <time>2018-06-19T07:53:55Z</time>
      </trkpt>
      <trkpt lat="46.059897020459175" lon="8.051582342013717">
        <ele>2287.5900000000001</ele>
        <time>2018-06-19T07:53:47Z</time>
      </trkpt>
      <trkpt lat="46.059949910268188" lon="8.051574882119894">
        <ele>2285.6700000000001</ele>
        <time>2018-06-19T07:53:37Z</time>
      </trkpt>
      <trkpt lat="46.059988550841808" lon="8.051592484116554">
        <ele>2284.23</ele>
        <time>2018-06-19T07:53:28Z</time>
      </trkpt>
      <trkpt lat="46.060041189193726" lon="8.051560381427407">
        <ele>2282.3099999999999</ele>
        <time>2018-06-19T07:53:19Z</time>
      </trkpt>
      <trkpt lat="46.06004286557436" lon="8.051552753895521">
        <ele>2282.79</ele>
        <time>2018-06-19T07:53:18Z</time>
      </trkpt>
      <trkpt lat="46.0600839368999" lon="8.051521824672818">
        <ele>2280.8699999999999</ele>
        <time>2018-06-19T07:53:09Z</time>
      </trkpt>
      <trkpt lat="46.060169516131282" lon="8.051523081958294">
        <ele>2281.3499999999999</ele>
        <time>2018-06-19T07:52:59Z</time>
      </trkpt>
      <trkpt lat="46.060175802558661" lon="8.051526686176658">
        <ele>2281.8299999999999</ele>
        <time>2018-06-19T07:52:57Z</time>
      </trkpt>
      <trkpt lat="46.060189800336957" lon="8.051528781652451">
        <ele>2280.8699999999999</ele>
        <time>2018-06-19T07:52:45Z</time>
      </trkpt>
      <trkpt lat="46.060241013765335" lon="8.051516879349947">
        <ele>2279.9000000000001</ele>
        <time>2018-06-19T07:52:37Z</time>
      </trkpt>
      <trkpt lat="46.06027303263545" lon="8.051516208797693">
        <ele>2278.46</ele>
        <time>2018-06-19T07:52:27Z</time>
      </trkpt>
      <trkpt lat="46.0603291913867" lon="8.051524758338928">
        <ele>2277.02</ele>
        <time>2018-06-19T07:52:17Z</time>
      </trkpt>
      <trkpt lat="46.060377554967999" lon="8.051550406962633">
        <ele>2277.5</ele>
        <time>2018-06-19T07:52:10Z</time>
      </trkpt>
      <trkpt lat="46.06037613004446" lon="8.051599860191345">
        <ele>2278.46</ele>
        <time>2018-06-19T07:52:04Z</time>
      </trkpt>
      <trkpt lat="46.06036925688386" lon="8.051650570705533">
        <ele>2277.02</ele>
        <time>2018-06-19T07:51:57Z</time>
      </trkpt>
      <trkpt lat="46.060371603816748" lon="8.051702789962292">
        <ele>2276.54</ele>
        <time>2018-06-19T07:51:48Z</time>
      </trkpt>
      <trkpt lat="46.060378141701221" lon="8.051762217655778">
        <ele>2275.5799999999999</ele>
        <time>2018-06-19T07:51:40Z</time>
      </trkpt>
      <trkpt lat="46.060388870537281" lon="8.051810413599014">
        <ele>2274.1399999999999</ele>
        <time>2018-06-19T07:51:32Z</time>
      </trkpt>
      <trkpt lat="46.060392810031772" lon="8.05186397396028">
        <ele>2274.1399999999999</ele>
        <time>2018-06-19T07:51:24Z</time>
      </trkpt>
      <trkpt lat="46.060396498069167" lon="8.051893562078476">
        <ele>2273.6599999999999</ele>
        <time>2018-06-19T07:51:20Z</time>
      </trkpt>
      <trkpt lat="46.060412172228098" lon="8.051929771900177">
        <ele>2272.6900000000001</ele>
        <time>2018-06-19T07:51:07Z</time>
      </trkpt>
      <trkpt lat="46.060461709275842" lon="8.051934130489826">
        <ele>2271.73</ele>
        <time>2018-06-19T07:50:59Z</time>
      </trkpt>
      <trkpt lat="46.060480736196041" lon="8.051986265927553">
        <ele>2271.25</ele>
        <time>2018-06-19T07:50:50Z</time>
      </trkpt>
      <trkpt lat="46.060502361506224" lon="8.052022475749254">
        <ele>2271.25</ele>
        <time>2018-06-19T07:50:45Z</time>
      </trkpt>
      <trkpt lat="46.060521556064487" lon="8.052065474912524">
        <ele>2270.77</ele>
        <time>2018-06-19T07:50:36Z</time>
      </trkpt>
      <trkpt lat="46.060529099777341" lon="8.05214929394424">
        <ele>2270.29</ele>
        <time>2018-06-19T07:50:27Z</time>
      </trkpt>
      <trkpt lat="46.060529183596373" lon="8.052194723859429">
        <ele>2269.3299999999999</ele>
        <time>2018-06-19T07:50:21Z</time>
      </trkpt>
      <trkpt lat="46.06050462462008" lon="8.052268819883466">
        <ele>2269.3299999999999</ele>
        <time>2018-06-19T07:50:13Z</time>
      </trkpt>
      <trkpt lat="46.0605139285326" lon="8.052358254790306">
        <ele>2269.3299999999999</ele>
        <time>2018-06-19T07:50:07Z</time>
      </trkpt>
      <trkpt lat="46.060564136132598" lon="8.052440648898482">
        <ele>2268.8499999999999</ele>
        <time>2018-06-19T07:49:57Z</time>
      </trkpt>
      <trkpt lat="46.060576792806387" lon="8.052451880648732">
        <ele>2268.3699999999999</ele>
        <time>2018-06-19T07:49:54Z</time>
      </trkpt>
      <trkpt lat="46.060579307377338" lon="8.052526479586959">
        <ele>2267.4099999999999</ele>
        <time>2018-06-19T07:49:45Z</time>
      </trkpt>
      <trkpt lat="46.060548797249794" lon="8.052584649994969">
        <ele>2265.48</ele>
        <time>2018-06-19T07:49:37Z</time>
      </trkpt>
      <trkpt lat="46.060529937967658" lon="8.052669977769256">
        <ele>2264.04</ele>
        <time>2018-06-19T07:49:28Z</time>
      </trkpt>
      <trkpt lat="46.060522142797709" lon="8.052768297493458">
        <ele>2263.5599999999999</ele>
        <time>2018-06-19T07:49:19Z</time>
      </trkpt>
      <trkpt lat="46.060508731752634" lon="8.052847338840365">
        <ele>2262.5999999999999</ele>
        <time>2018-06-19T07:49:07Z</time>
      </trkpt>
      <trkpt lat="46.060509653761983" lon="8.052930235862732">
        <ele>2262.1199999999999</ele>
        <time>2018-06-19T07:48:58Z</time>
      </trkpt>
      <trkpt lat="46.060531865805387" lon="8.052969546988607">
        <ele>2262.1199999999999</ele>
        <time>2018-06-19T07:48:54Z</time>
      </trkpt>
      <trkpt lat="46.060532787814736" lon="8.05305378511548">
        <ele>2263.0799999999999</ele>
        <time>2018-06-19T07:48:48Z</time>
      </trkpt>
      <trkpt lat="46.060546198859811" lon="8.053087564185262">
        <ele>2263.0799999999999</ele>
        <time>2018-06-19T07:48:45Z</time>
      </trkpt>
      <trkpt lat="46.060552150011063" lon="8.053097287192941">
        <ele>2263.5599999999999</ele>
        <time>2018-06-19T07:48:44Z</time>
      </trkpt>
      <trkpt lat="46.060555167496204" lon="8.053169120103121">
        <ele>2263.0799999999999</ele>
        <time>2018-06-19T07:48:37Z</time>
      </trkpt>
      <trkpt lat="46.060574194416404" lon="8.053209772333503">
        <ele>2261.6399999999999</ele>
        <time>2018-06-19T07:48:30Z</time>
      </trkpt>
      <trkpt lat="46.060598669573665" lon="8.053253190591931">
        <ele>2259.7199999999998</ele>
        <time>2018-06-19T07:48:22Z</time>
      </trkpt>
      <trkpt lat="46.060603866353631" lon="8.053263500332832">
        <ele>2258.75</ele>
        <time>2018-06-19T07:48:12Z</time>
      </trkpt>
      <trkpt lat="46.060560783371329" lon="8.053280096501112">
        <ele>2257.3099999999999</ele>
        <time>2018-06-19T07:48:03Z</time>
      </trkpt>
      <trkpt lat="46.060561370104551" lon="8.053307421505451">
        <ele>2256.3499999999999</ele>
        <time>2018-06-19T07:47:52Z</time>
      </trkpt>
      <trkpt lat="46.060563549399376" lon="8.05335620418191">
        <ele>2254.4299999999998</ele>
        <time>2018-06-19T07:47:42Z</time>
      </trkpt>
      <trkpt lat="46.060532536357641" lon="8.053344050422311">
        <ele>2252.9899999999998</ele>
        <time>2018-06-19T07:47:33Z</time>
      </trkpt>
      <trkpt lat="46.060509653761983" lon="8.053364250808954">
        <ele>2251.54</ele>
        <time>2018-06-19T07:47:21Z</time>
      </trkpt>
      <trkpt lat="46.06048408895731" lon="8.053422588855028">
        <ele>2249.6199999999999</ele>
        <time>2018-06-19T07:47:12Z</time>
      </trkpt>
      <trkpt lat="46.060483250766993" lon="8.053465839475393">
        <ele>2248.6599999999999</ele>
        <time>2018-06-19T07:47:05Z</time>
      </trkpt>
      <trkpt lat="46.060471432283521" lon="8.053503055125475">
        <ele>2247.2199999999998</ele>
        <time>2018-06-19T07:46:57Z</time>
      </trkpt>
      <trkpt lat="46.060453578829765" lon="8.053556112572551">
        <ele>2245.7800000000002</ele>
        <time>2018-06-19T07:46:47Z</time>
      </trkpt>
      <trkpt lat="46.060458440333605" lon="8.053607074543834">
        <ele>2243.8499999999999</ele>
        <time>2018-06-19T07:46:38Z</time>
      </trkpt>
      <trkpt lat="46.060446202754974" lon="8.053641188889742">
        <ele>2242.4099999999999</ele>
        <time>2018-06-19T07:46:30Z</time>
      </trkpt>
      <trkpt lat="46.060424158349633" lon="8.053659377619624">
        <ele>2240.9699999999998</ele>
        <time>2018-06-19T07:46:22Z</time>
      </trkpt>
      <trkpt lat="46.060403119772673" lon="8.053735569119453">
        <ele>2239.0500000000002</ele>
        <time>2018-06-19T07:46:12Z</time>
      </trkpt>
      <trkpt lat="46.06037856079638" lon="8.053803546354175">
        <ele>2237.6100000000001</ele>
        <time>2018-06-19T07:46:03Z</time>
      </trkpt>
      <trkpt lat="46.060345955193043" lon="8.053928352892399">
        <ele>2235.6799999999998</ele>
        <time>2018-06-19T07:45:53Z</time>
      </trkpt>
      <trkpt lat="46.060344446450472" lon="8.053980320692062">
        <ele>2235.6799999999998</ele>
        <time>2018-06-19T07:45:50Z</time>
      </trkpt>
      <trkpt lat="46.060333382338285" lon="8.054078640416265">
        <ele>2235.1999999999998</ele>
        <time>2018-06-19T07:45:43Z</time>
      </trkpt>
      <trkpt lat="46.060322066769004" lon="8.054120549932122">
        <ele>2234.7199999999998</ele>
        <time>2018-06-19T07:45:40Z</time>
      </trkpt>
      <trkpt lat="46.060292981564999" lon="8.054295647889376">
        <ele>2233.7600000000002</ele>
        <time>2018-06-19T07:45:28Z</time>
      </trkpt>
      <trkpt lat="46.060315445065498" lon="8.054357506334782">
        <ele>2233.7600000000002</ele>
        <time>2018-06-19T07:45:22Z</time>
      </trkpt>
      <trkpt lat="46.060326425358653" lon="8.054365133866668">
        <ele>2233.7600000000002</ele>
        <time>2018-06-19T07:45:18Z</time>
      </trkpt>
      <trkpt lat="46.060307985171676" lon="8.054430428892374">
        <ele>2233.7600000000002</ele>
        <time>2018-06-19T07:45:10Z</time>
      </trkpt>
      <trkpt lat="46.060299687087536" lon="8.054460436105728">
        <ele>2233.7600000000002</ele>
        <time>2018-06-19T07:45:07Z</time>
      </trkpt>
      <trkpt lat="46.060299016535282" lon="8.054526820778847">
        <ele>2233.7600000000002</ele>
        <time>2018-06-19T07:44:59Z</time>
      </trkpt>
      <trkpt lat="46.060281917452812" lon="8.054569400846958">
        <ele>2232.3200000000002</ele>
        <time>2018-06-19T07:44:49Z</time>
      </trkpt>
      <trkpt lat="46.060235984623432" lon="8.0546466819942">
        <ele>2230.8800000000001</ele>
        <time>2018-06-19T07:44:40Z</time>
      </trkpt>
      <trkpt lat="46.060213353484869" lon="8.054705690592527">
        <ele>2230.4000000000001</ele>
        <time>2018-06-19T07:44:31Z</time>
      </trkpt>
      <trkpt lat="46.060194158926606" lon="8.054715665057302">
        <ele>2228.4699999999998</ele>
        <time>2018-06-19T07:44:22Z</time>
      </trkpt>
      <trkpt lat="46.060162056237459" lon="8.054757658392191">
        <ele>2227.5100000000002</ele>
        <time>2018-06-19T07:44:11Z</time>
      </trkpt>
      <trkpt lat="46.06011226773262" lon="8.054845752194524">
        <ele>2227.5100000000002</ele>
        <time>2018-06-19T07:44:01Z</time>
      </trkpt>
      <trkpt lat="46.060050576925278" lon="8.054904928430915">
        <ele>2227.5100000000002</ele>
        <time>2018-06-19T07:43:53Z</time>
      </trkpt>
      <trkpt lat="46.060016294941306" lon="8.05491641163826">
        <ele>2227.5100000000002</ele>
        <time>2018-06-19T07:43:48Z</time>
      </trkpt>
      <trkpt lat="46.059995675459504" lon="8.054937282577157">
        <ele>2227.5100000000002</ele>
        <time>2018-06-19T07:43:38Z</time>
      </trkpt>
      <trkpt lat="46.059998860582709" lon="8.054963769391179">
        <ele>2227.5100000000002</ele>
        <time>2018-06-19T07:43:29Z</time>
      </trkpt>
      <trkpt lat="46.059977486729622" lon="8.054992854595184">
        <ele>2227.5100000000002</ele>
        <time>2018-06-19T07:43:20Z</time>
      </trkpt>
      <trkpt lat="46.059937505051494" lon="8.055121265351772">
        <ele>2226.5500000000002</ele>
        <time>2018-06-19T07:43:10Z</time>
      </trkpt>
      <trkpt lat="46.059925770387053" lon="8.05516803637147">
        <ele>2226.0700000000002</ele>
        <time>2018-06-19T07:43:06Z</time>
      </trkpt>
      <trkpt lat="46.059926021844149" lon="8.055234756320715">
        <ele>2225.1100000000001</ele>
        <time>2018-06-19T07:42:58Z</time>
      </trkpt>
      <trkpt lat="46.059899786487222" lon="8.055262416601181">
        <ele>2222.71</ele>
        <time>2018-06-19T07:42:50Z</time>
      </trkpt>
      <trkpt lat="46.059861816465855" lon="8.055204413831234">
        <ele>2220.3000000000002</ele>
        <time>2018-06-19T07:42:42Z</time>
      </trkpt>
      <trkpt lat="46.05981906875968" lon="8.055202485993505">
        <ele>2219.3400000000001</ele>
        <time>2018-06-19T07:42:32Z</time>
      </trkpt>
      <trkpt lat="46.059802724048495" lon="8.055251520127058">
        <ele>2217.9000000000001</ele>
        <time>2018-06-19T07:42:23Z</time>
      </trkpt>
      <trkpt lat="46.05978587642312" lon="8.055279264226556">
        <ele>2217.9000000000001</ele>
        <time>2018-06-19T07:42:06Z</time>
      </trkpt>
      <trkpt lat="46.059786882251501" lon="8.055324191227555">
        <ele>2217.4200000000001</ele>
        <time>2018-06-19T07:41:58Z</time>
      </trkpt>
      <trkpt lat="46.059809764847159" lon="8.055357048287988">
        <ele>2215.98</ele>
        <time>2018-06-19T07:41:51Z</time>
      </trkpt>
      <trkpt lat="46.059792917221785" lon="8.055388061329722">
        <ele>2214.5300000000002</ele>
        <time>2018-06-19T07:41:43Z</time>
      </trkpt>
      <trkpt lat="46.059792498126626" lon="8.055409267544746">
        <ele>2212.6100000000001</ele>
        <time>2018-06-19T07:41:32Z</time>
      </trkpt>
      <trkpt lat="46.059762826189399" lon="8.055430725216866">
        <ele>2211.1700000000001</ele>
        <time>2018-06-19T07:41:24Z</time>
      </trkpt>
      <trkpt lat="46.059722928330302" lon="8.055437011644244">
        <ele>2209.73</ele>
        <time>2018-06-19T07:41:16Z</time>
      </trkpt>
      <trkpt lat="46.059687221422791" lon="8.055478082969785">
        <ele>2208.29</ele>
        <time>2018-06-19T07:41:07Z</time>
      </trkpt>
      <trkpt lat="46.05964757502079" lon="8.055518483743072">
        <ele>2206.3600000000001</ele>
        <time>2018-06-19T07:40:58Z</time>
      </trkpt>
      <trkpt lat="46.059660315513611" lon="8.055558381602168">
        <ele>2205.4000000000001</ele>
        <time>2018-06-19T07:40:48Z</time>
      </trkpt>
      <trkpt lat="46.059650341048837" lon="8.055559974163771">
        <ele>2204.4400000000001</ele>
        <time>2018-06-19T07:40:40Z</time>
      </trkpt>
      <trkpt lat="46.059616478160024" lon="8.055606745183468">
        <ele>2203</ele>
        <time>2018-06-19T07:40:31Z</time>
      </trkpt>
      <trkpt lat="46.059581860899925" lon="8.055638177320361">
        <ele>2201.5599999999999</ele>
        <time>2018-06-19T07:40:22Z</time>
      </trkpt>
      <trkpt lat="46.059582950547338" lon="8.055703220888972">
        <ele>2199.6300000000001</ele>
        <time>2018-06-19T07:40:13Z</time>
      </trkpt>
      <trkpt lat="46.059573814272881" lon="8.055728198960424">
        <ele>2198.6700000000001</ele>
        <time>2018-06-19T07:40:06Z</time>
      </trkpt>
      <trkpt lat="46.059570712968707" lon="8.055744459852576">
        <ele>2197.71</ele>
        <time>2018-06-19T07:40:03Z</time>
      </trkpt>
      <trkpt lat="46.059559900313616" lon="8.05579299107194">
        <ele>2195.79</ele>
        <time>2018-06-19T07:39:54Z</time>
      </trkpt>
      <trkpt lat="46.059551686048508" lon="8.055848479270935">
        <ele>2194.3499999999999</ele>
        <time>2018-06-19T07:39:47Z</time>
      </trkpt>
      <trkpt lat="46.059584207832813" lon="8.055935148149729">
        <ele>2193.8699999999999</ele>
        <time>2018-06-19T07:39:37Z</time>
      </trkpt>
      <trkpt lat="46.05959820561111" lon="8.055934058502317">
        <ele>2193.3899999999999</ele>
        <time>2018-06-19T07:39:33Z</time>
      </trkpt>
      <trkpt lat="46.059615723788738" lon="8.055952079594135">
        <ele>2191.46</ele>
        <time>2018-06-19T07:39:23Z</time>
      </trkpt>
      <trkpt lat="46.059621423482895" lon="8.055991223081946">
        <ele>2189.54</ele>
        <time>2018-06-19T07:39:15Z</time>
      </trkpt>
      <trkpt lat="46.059582782909274" lon="8.056006897240877">
        <ele>2187.6199999999999</ele>
        <time>2018-06-19T07:39:05Z</time>
      </trkpt>
      <trkpt lat="46.059558056294918" lon="8.056032964959741">
        <ele>2186.1799999999998</ele>
        <time>2018-06-19T07:38:56Z</time>
      </trkpt>
      <trkpt lat="46.059563923627138" lon="8.056066744029522">
        <ele>2184.25</ele>
        <time>2018-06-19T07:38:48Z</time>
      </trkpt>
      <trkpt lat="46.059522517025471" lon="8.056081496179104">
        <ele>2182.8099999999999</ele>
        <time>2018-06-19T07:38:38Z</time>
      </trkpt>
      <trkpt lat="46.059513883665204" lon="8.056103875860572">
        <ele>2181.3699999999999</ele>
        <time>2018-06-19T07:38:33Z</time>
      </trkpt>
      <trkpt lat="46.059480607509613" lon="8.056098259985447">
        <ele>2180.4099999999999</ele>
        <time>2018-06-19T07:38:24Z</time>
      </trkpt>
      <trkpt lat="46.059444649145007" lon="8.056107647716999">
        <ele>2178.9699999999998</ele>
        <time>2018-06-19T07:38:16Z</time>
      </trkpt>
      <trkpt lat="46.059450684115291" lon="8.056134050711989">
        <ele>2177.04</ele>
        <time>2018-06-19T07:38:05Z</time>
      </trkpt>
      <trkpt lat="46.059443056583405" lon="8.056133631616831">
        <ele>2177.04</ele>
        <time>2018-06-19T07:37:57Z</time>
      </trkpt>
      <trkpt lat="46.059447750449181" lon="8.056170595809817">
        <ele>2176.0799999999999</ele>
        <time>2018-06-19T07:37:50Z</time>
      </trkpt>
      <trkpt lat="46.059430651366711" lon="8.056178223341703">
        <ele>2174.1599999999999</ele>
        <time>2018-06-19T07:37:41Z</time>
      </trkpt>
      <trkpt lat="46.059433333575726" lon="8.056197082623839">
        <ele>2173.6799999999998</ele>
        <time>2018-06-19T07:37:33Z</time>
      </trkpt>
      <trkpt lat="46.059408020228148" lon="8.056228430941701">
        <ele>2172.7199999999998</ele>
        <time>2018-06-19T07:37:23Z</time>
      </trkpt>
      <trkpt lat="46.059413887560368" lon="8.056287355720997">
        <ele>2170.79</ele>
        <time>2018-06-19T07:37:14Z</time>
      </trkpt>
      <trkpt lat="46.05944037437439" lon="8.056308729574084">
        <ele>2169.8299999999999</ele>
        <time>2018-06-19T07:37:06Z</time>
      </trkpt>
      <trkpt lat="46.059412965551019" lon="8.056324487552047">
        <ele>2167.9099999999999</ele>
        <time>2018-06-19T07:36:57Z</time>
      </trkpt>
      <trkpt lat="46.059368038550019" lon="8.056338485330343">
        <ele>2166.4699999999998</ele>
        <time>2018-06-19T07:36:46Z</time>
      </trkpt>
      <trkpt lat="46.05933140963316" lon="8.056334545835853">
        <ele>2164.5500000000002</ele>
        <time>2018-06-19T07:36:37Z</time>
      </trkpt>
      <trkpt lat="46.059336187317967" lon="8.05635541677475">
        <ele>2163.5799999999999</ele>
        <time>2018-06-19T07:36:31Z</time>
      </trkpt>
      <trkpt lat="46.059318166226149" lon="8.05639011785388">
        <ele>2162.1399999999999</ele>
        <time>2018-06-19T07:36:25Z</time>
      </trkpt>
      <trkpt lat="46.05927960947156" lon="8.056385591626167">
        <ele>2160.6999999999998</ele>
        <time>2018-06-19T07:36:16Z</time>
      </trkpt>
      <trkpt lat="46.059249434620142" lon="8.05642775259912">
        <ele>2159.2600000000002</ele>
        <time>2018-06-19T07:36:07Z</time>
      </trkpt>
      <trkpt lat="46.059253457933664" lon="8.056465052068234">
        <ele>2157.8200000000002</ele>
        <time>2018-06-19T07:35:57Z</time>
      </trkpt>
      <trkpt lat="46.05926058255136" lon="8.056489024311304">
        <ele>2156.3699999999999</ele>
        <time>2018-06-19T07:35:49Z</time>
      </trkpt>
      <trkpt lat="46.059263851493597" lon="8.056542500853539">
        <ele>2154.4499999999998</ele>
        <time>2018-06-19T07:35:40Z</time>
      </trkpt>
      <trkpt lat="46.059243315830827" lon="8.056543171405792">
        <ele>2153.0100000000002</ele>
        <time>2018-06-19T07:35:31Z</time>
      </trkpt>
      <trkpt lat="46.059217918664217" lon="8.056559348478913">
        <ele>2151.5700000000002</ele>
        <time>2018-06-19T07:35:23Z</time>
      </trkpt>
      <trkpt lat="46.059220349416137" lon="8.056598491966724">
        <ele>2149.6500000000001</ele>
        <time>2018-06-19T07:35:14Z</time>
      </trkpt>
      <trkpt lat="46.05920341797173" lon="8.056669821962714">
        <ele>2148.1999999999998</ele>
        <time>2018-06-19T07:35:06Z</time>
      </trkpt>
      <trkpt lat="46.059215068817139" lon="8.056741990149021">
        <ele>2146.7600000000002</ele>
        <time>2018-06-19T07:34:57Z</time>
      </trkpt>
      <trkpt lat="46.059213224798441" lon="8.056825892999768">
        <ele>2146.7600000000002</ele>
        <time>2018-06-19T07:34:50Z</time>
      </trkpt>
      <trkpt lat="46.05922831222415" lon="8.056896552443504">
        <ele>2146.7600000000002</ele>
        <time>2018-06-19T07:34:42Z</time>
      </trkpt>
      <trkpt lat="46.05920534580946" lon="8.056927984580398">
        <ele>2145.8000000000002</ele>
        <time>2018-06-19T07:34:35Z</time>
      </trkpt>
      <trkpt lat="46.059161927551031" lon="8.056985903531313">
        <ele>2143.8800000000001</ele>
        <time>2018-06-19T07:34:22Z</time>
      </trkpt>
      <trkpt lat="46.059134351089597" lon="8.057035692036152">
        <ele>2142.9200000000001</ele>
        <time>2018-06-19T07:34:13Z</time>
      </trkpt>
      <trkpt lat="46.05909738689661" lon="8.057026974856854">
        <ele>2140.9899999999998</ele>
        <time>2018-06-19T07:34:04Z</time>
      </trkpt>
      <trkpt lat="46.059057908132672" lon="8.057037368416786">
        <ele>2139.5500000000002</ele>
        <time>2018-06-19T07:33:56Z</time>
      </trkpt>
      <trkpt lat="46.059006191790104" lon="8.057068549096584">
        <ele>2138.1100000000001</ele>
        <time>2018-06-19T07:33:46Z</time>
      </trkpt>
      <trkpt lat="46.058967635035515" lon="8.05709520354867">
        <ele>2137.1500000000001</ele>
        <time>2018-06-19T07:33:38Z</time>
      </trkpt>
      <trkpt lat="46.058903932571411" lon="8.057171478867531">
        <ele>2136.1900000000001</ele>
        <time>2018-06-19T07:33:28Z</time>
      </trkpt>
      <trkpt lat="46.058834949508309" lon="8.05727256461978">
        <ele>2135.23</ele>
        <time>2018-06-19T07:33:18Z</time>
      </trkpt>
      <trkpt lat="46.058803098276258" lon="8.057297626510263">
        <ele>2134.7399999999998</ele>
        <time>2018-06-19T07:33:14Z</time>
      </trkpt>
      <trkpt lat="46.058778706938028" lon="8.057344481348991">
        <ele>2134.2600000000002</ele>
        <time>2018-06-19T07:33:08Z</time>
      </trkpt>
      <trkpt lat="46.058757249265909" lon="8.057398544624448">
        <ele>2132.3400000000001</ele>
        <time>2018-06-19T07:33:00Z</time>
      </trkpt>
      <trkpt lat="46.058723973110318" lon="8.057478927075863">
        <ele>2130.9000000000001</ele>
        <time>2018-06-19T07:32:51Z</time>
      </trkpt>
      <trkpt lat="46.058741323649883" lon="8.057574313133955">
        <ele>2129.9400000000001</ele>
        <time>2018-06-19T07:32:41Z</time>
      </trkpt>
      <trkpt lat="46.058757416903973" lon="8.057595603168011">
        <ele>2128.5</ele>
        <time>2018-06-19T07:32:33Z</time>
      </trkpt>
      <trkpt lat="46.058729840442538" lon="8.057630136609078">
        <ele>2126.5700000000002</ele>
        <time>2018-06-19T07:32:23Z</time>
      </trkpt>
      <trkpt lat="46.058727325871587" lon="8.057641871273518">
        <ele>2125.6100000000001</ele>
        <time>2018-06-19T07:32:17Z</time>
      </trkpt>
      <trkpt lat="46.058727158233523" lon="8.057651678100228">
        <ele>2125.6100000000001</ele>
        <time>2018-06-19T07:32:01Z</time>
      </trkpt>
      <trkpt lat="46.058717267587781" lon="8.057669783011079">
        <ele>2124.6500000000001</ele>
        <time>2018-06-19T07:31:48Z</time>
      </trkpt>
      <trkpt lat="46.058717519044876" lon="8.057674812152982">
        <ele>2124.1700000000001</ele>
        <time>2018-06-19T07:31:41Z</time>
      </trkpt>
      <trkpt lat="46.058682985603809" lon="8.05767372250557">
        <ele>2122.25</ele>
        <time>2018-06-19T07:31:31Z</time>
      </trkpt>
      <trkpt lat="46.058650715276599" lon="8.057699203491211">
        <ele>2120.3200000000002</ele>
        <time>2018-06-19T07:31:19Z</time>
      </trkpt>
      <trkpt lat="46.058626072481275" lon="8.0577411968261">
        <ele>2118.8800000000001</ele>
        <time>2018-06-19T07:31:09Z</time>
      </trkpt>
      <trkpt lat="46.058624060824513" lon="8.057745471596718">
        <ele>2118.4000000000001</ele>
        <time>2018-06-19T07:31:08Z</time>
      </trkpt>
      <trkpt lat="46.058585504069924" lon="8.05774949491024">
        <ele>2117.4400000000001</ele>
        <time>2018-06-19T07:30:57Z</time>
      </trkpt>
      <trkpt lat="46.058571925386786" lon="8.057769862934947">
        <ele>2117.4400000000001</ele>
        <time>2018-06-19T07:30:47Z</time>
      </trkpt>
      <trkpt lat="46.05858625844121" lon="8.057777993381023">
        <ele>2116.48</ele>
        <time>2018-06-19T07:30:35Z</time>
      </trkpt>
      <trkpt lat="46.058583660051227" lon="8.057784782722592">
        <ele>2116.96</ele>
        <time>2018-06-19T07:30:26Z</time>
      </trkpt>
      <trkpt lat="46.058597574010491" lon="8.057788051664829">
        <ele>2116.96</ele>
        <time>2018-06-19T07:30:04Z</time>
      </trkpt>
      <trkpt lat="46.058588605374098" lon="8.057800373062491">
        <ele>2116.96</ele>
        <time>2018-06-19T07:29:42Z</time>
      </trkpt>
      <trkpt lat="46.058601178228855" lon="8.057796349748969">
        <ele>2116.48</ele>
        <time>2018-06-19T07:29:15Z</time>
      </trkpt>
      <trkpt lat="46.058605788275599" lon="8.05779148824513">
        <ele>2116.48</ele>
        <time>2018-06-19T07:28:39Z</time>
      </trkpt>
      <trkpt lat="46.058610398322344" lon="8.057798445224762">
        <ele>2116.48</ele>
        <time>2018-06-19T07:28:11Z</time>
      </trkpt>
      <trkpt lat="46.058593802154064" lon="8.057791823521256">
        <ele>2116.48</ele>
        <time>2018-06-19T07:27:47Z</time>
      </trkpt>
      <trkpt lat="46.058592041954398" lon="8.057795930653811">
        <ele>2116</ele>
        <time>2018-06-19T07:27:17Z</time>
      </trkpt>
      <trkpt lat="46.05859212577343" lon="8.057793918997049">
        <ele>2116</ele>
        <time>2018-06-19T07:26:57Z</time>
      </trkpt>
      <trkpt lat="46.058584833517671" lon="8.057795260101557">
        <ele>2116</ele>
        <time>2018-06-19T07:26:34Z</time>
      </trkpt>
      <trkpt lat="46.058582821860909" lon="8.057794505730271">
        <ele>2115.52</ele>
        <time>2018-06-19T07:26:06Z</time>
      </trkpt>
      <trkpt lat="46.058593718335032" lon="8.057751171290875">
        <ele>2115.04</ele>
        <time>2018-06-19T07:25:48Z</time>
      </trkpt>
      <trkpt lat="46.058594221249223" lon="8.057756032794714">
        <ele>2117.9200000000001</ele>
        <time>2018-06-19T07:25:47Z</time>
      </trkpt>
      <trkpt lat="46.058592461049557" lon="8.057759553194046">
        <ele>2115.04</ele>
        <time>2018-06-19T07:25:46Z</time>
      </trkpt>
      <trkpt lat="46.058594724163413" lon="8.05775729008019">
        <ele>2111.6700000000001</ele>
        <time>2018-06-19T07:25:45Z</time>
      </trkpt>
      <trkpt lat="46.058596400544047" lon="8.057757709175348">
        <ele>2115.52</ele>
        <time>2018-06-19T07:25:31Z</time>
      </trkpt>
      <trkpt lat="46.058591203764081" lon="8.057768689468503">
        <ele>2115.04</ele>
        <time>2018-06-19T07:25:20Z</time>
      </trkpt>
      <trkpt lat="46.058597238734365" lon="8.057799199596047">
        <ele>2115.04</ele>
        <time>2018-06-19T07:25:11Z</time>
      </trkpt>
      <trkpt lat="46.058597574010491" lon="8.057793667539954">
        <ele>2115.52</ele>
        <time>2018-06-19T07:25:09Z</time>
      </trkpt>
      <trkpt lat="46.058595143258572" lon="8.057786962017417">
        <ele>2115.52</ele>
        <time>2018-06-19T07:24:50Z</time>
      </trkpt>
      <trkpt lat="46.058598831295967" lon="8.057785117998719">
        <ele>2115.52</ele>
        <time>2018-06-19T07:24:29Z</time>
      </trkpt>
      <trkpt lat="46.058587431907654" lon="8.057806994765997">
        <ele>2115.04</ele>
        <time>2018-06-19T07:24:08Z</time>
      </trkpt>
      <trkpt lat="46.058595981448889" lon="8.057805066928268">
        <ele>2115.04</ele>
        <time>2018-06-19T07:23:43Z</time>
      </trkpt>
      <trkpt lat="46.058590449392796" lon="8.057798193767667">
        <ele>2115.04</ele>
        <time>2018-06-19T07:23:25Z</time>
      </trkpt>
      <trkpt lat="46.058585084974766" lon="8.057799115777016">
        <ele>2114.5599999999999</ele>
        <time>2018-06-19T07:22:57Z</time>
      </trkpt>
      <trkpt lat="46.058586593717337" lon="8.057800121605396">
        <ele>2114.0799999999999</ele>
        <time>2018-06-19T07:22:31Z</time>
      </trkpt>
      <trkpt lat="46.05859455652535" lon="8.057798109948635">
        <ele>2114.0799999999999</ele>
        <time>2018-06-19T07:22:08Z</time>
      </trkpt>
      <trkpt lat="46.058594221249223" lon="8.057805821299553">
        <ele>2114.0799999999999</ele>
        <time>2018-06-19T07:21:33Z</time>
      </trkpt>
      <trkpt lat="46.058570835739374" lon="8.057828452438116">
        <ele>2113.5999999999999</ele>
        <time>2018-06-19T07:21:14Z</time>
      </trkpt>
      <trkpt lat="46.058571422472596" lon="8.057823926210403">
        <ele>2113.1199999999999</ele>
        <time>2018-06-19T07:20:48Z</time>
      </trkpt>
      <trkpt lat="46.058553401380777" lon="8.057839935645461">
        <ele>2113.1199999999999</ele>
        <time>2018-06-19T07:20:29Z</time>
      </trkpt>
      <trkpt lat="46.058538062497973" lon="8.057854268699884">
        <ele>2112.6300000000001</ele>
        <time>2018-06-19T07:20:18Z</time>
      </trkpt>
      <trkpt lat="46.058557340875268" lon="8.057824093848467">
        <ele>2113.1199999999999</ele>
        <time>2018-06-19T07:20:02Z</time>
      </trkpt>
      <trkpt lat="46.058565890416503" lon="8.057834571227431">
        <ele>2112.6300000000001</ele>
        <time>2018-06-19T07:19:43Z</time>
      </trkpt>
      <trkpt lat="46.058567650616169" lon="8.057825434952974">
        <ele>2112.1500000000001</ele>
        <time>2018-06-19T07:19:22Z</time>
      </trkpt>
      <trkpt lat="46.058587599545717" lon="8.05782032199204">
        <ele>2112.1500000000001</ele>
        <time>2018-06-19T07:19:06Z</time>
      </trkpt>
      <trkpt lat="46.058582738041878" lon="8.057821579277515">
        <ele>2112.1500000000001</ele>
        <time>2018-06-19T07:18:51Z</time>
      </trkpt>
      <trkpt lat="46.058586174622178" lon="8.057829877361655">
        <ele>2112.6300000000001</ele>
        <time>2018-06-19T07:18:26Z</time>
      </trkpt>
      <trkpt lat="46.058565555140376" lon="8.057833984494209">
        <ele>2111.6700000000001</ele>
        <time>2018-06-19T07:18:00Z</time>
      </trkpt>
      <trkpt lat="46.058582235127687" lon="8.057827614247799">
        <ele>2111.6700000000001</ele>
        <time>2018-06-19T07:17:31Z</time>
      </trkpt>
      <trkpt lat="46.058572260662913" lon="8.057809928432107">
        <ele>2111.6700000000001</ele>
        <time>2018-06-19T07:17:20Z</time>
      </trkpt>
      <trkpt lat="46.058578127995133" lon="8.057790230959654">
        <ele>2111.6700000000001</ele>
        <time>2018-06-19T07:17:08Z</time>
      </trkpt>
      <trkpt lat="46.058581983670592" lon="8.057763073593378">
        <ele>2111.6700000000001</ele>
        <time>2018-06-19T07:16:51Z</time>
      </trkpt>
      <trkpt lat="46.05857016518712" lon="8.057784782722592">
        <ele>2111.1900000000001</ele>
        <time>2018-06-19T07:16:40Z</time>
      </trkpt>
      <trkpt lat="46.058542504906654" lon="8.057805486023426">
        <ele>2111.1900000000001</ele>
        <time>2018-06-19T07:16:28Z</time>
      </trkpt>
      <trkpt lat="46.058518197387457" lon="8.057830296456814">
        <ele>2110.23</ele>
        <time>2018-06-19T07:16:20Z</time>
      </trkpt>
      <trkpt lat="46.058464217931032" lon="8.057875307276845">
        <ele>2109.27</ele>
        <time>2018-06-19T07:16:09Z</time>
      </trkpt>
      <trkpt lat="46.058412417769432" lon="8.057880084961653">
        <ele>2107.3499999999999</ele>
        <time>2018-06-19T07:16:00Z</time>
      </trkpt>
      <trkpt lat="46.058352403342724" lon="8.057908331975341">
        <ele>2105.9099999999999</ele>
        <time>2018-06-19T07:15:50Z</time>
      </trkpt>
      <trkpt lat="46.058293813839555" lon="8.057904476299882">
        <ele>2104.9400000000001</ele>
        <time>2018-06-19T07:15:40Z</time>
      </trkpt>
      <trkpt lat="46.058249892666936" lon="8.057949487119913">
        <ele>2103.5</ele>
        <time>2018-06-19T07:15:30Z</time>
      </trkpt>
      <trkpt lat="46.058254670351744" lon="8.057979326695204">
        <ele>2102.0599999999999</ele>
        <time>2018-06-19T07:15:23Z</time>
      </trkpt>
      <trkpt lat="46.058227680623531" lon="8.057981925085187">
        <ele>2100.6199999999999</ele>
        <time>2018-06-19T07:15:14Z</time>
      </trkpt>
      <trkpt lat="46.058203624561429" lon="8.058034731075168">
        <ele>2098.6999999999998</ele>
        <time>2018-06-19T07:15:04Z</time>
      </trkpt>
      <trkpt lat="46.058201193809509" lon="8.058056440204382">
        <ele>2097.73</ele>
        <time>2018-06-19T07:14:59Z</time>
      </trkpt>
      <trkpt lat="46.058191973716021" lon="8.058097595348954">
        <ele>2096.77</ele>
        <time>2018-06-19T07:14:50Z</time>
      </trkpt>
      <trkpt lat="46.058174455538392" lon="8.058158028870821">
        <ele>2095.3299999999999</ele>
        <time>2018-06-19T07:14:40Z</time>
      </trkpt>
      <trkpt lat="46.058163307607174" lon="8.058189293369651">
        <ele>2093.8899999999999</ele>
        <time>2018-06-19T07:14:32Z</time>
      </trkpt>
      <trkpt lat="46.058117877691984" lon="8.058207230642438">
        <ele>2093.8899999999999</ele>
        <time>2018-06-19T07:14:23Z</time>
      </trkpt>
      <trkpt lat="46.058115363121033" lon="8.058246960863471">
        <ele>2091</ele>
        <time>2018-06-19T07:14:15Z</time>
      </trkpt>
      <trkpt lat="46.058064484968781" lon="8.058248469606042">
        <ele>2089.5599999999999</ele>
        <time>2018-06-19T07:14:07Z</time>
      </trkpt>
      <trkpt lat="46.058032130822539" lon="8.05830161087215">
        <ele>2088.1199999999999</ele>
        <time>2018-06-19T07:13:56Z</time>
      </trkpt>
      <trkpt lat="46.057980917394161" lon="8.058276129886508">
        <ele>2086.6799999999998</ele>
        <time>2018-06-19T07:13:47Z</time>
      </trkpt>
      <trkpt lat="46.05791243724525" lon="8.05826741270721">
        <ele>2084.7600000000002</ele>
        <time>2018-06-19T07:13:36Z</time>
      </trkpt>
      <trkpt lat="46.057870611548424" lon="8.058303287252784">
        <ele>2083.3099999999999</ele>
        <time>2018-06-19T07:13:27Z</time>
      </trkpt>
      <trkpt lat="46.057827528566122" lon="8.05834854952991">
        <ele>2081.3899999999999</ele>
        <time>2018-06-19T07:13:18Z</time>
      </trkpt>
      <trkpt lat="46.057790815830231" lon="8.058381909504533">
        <ele>2080.9099999999999</ele>
        <time>2018-06-19T07:12:59Z</time>
      </trkpt>
      <trkpt lat="46.057763658463955" lon="8.058393811807036">
        <ele>2079.4699999999998</ele>
        <time>2018-06-19T07:12:51Z</time>
      </trkpt>
      <trkpt lat="46.057744883000851" lon="8.05833681486547">
        <ele>2077.5500000000002</ele>
        <time>2018-06-19T07:12:42Z</time>
      </trkpt>
      <trkpt lat="46.057725856080651" lon="8.058326337486506">
        <ele>2074.6599999999999</ele>
        <time>2018-06-19T07:12:29Z</time>
      </trkpt>
      <trkpt lat="46.057706996798515" lon="8.058327930048108">
        <ele>2075.1399999999999</ele>
        <time>2018-06-19T07:12:13Z</time>
      </trkpt>
      <trkpt lat="46.057721665129066" lon="8.058338575065136">
        <ele>2074.6599999999999</ele>
        <time>2018-06-19T07:12:02Z</time>
      </trkpt>
      <trkpt lat="46.057720826938748" lon="8.058299850672483">
        <ele>2072.7399999999998</ele>
        <time>2018-06-19T07:11:52Z</time>
      </trkpt>
      <trkpt lat="46.05770917609334" lon="8.058252241462469">
        <ele>2071.3000000000002</ele>
        <time>2018-06-19T07:11:43Z</time>
      </trkpt>
      <trkpt lat="46.057704398408532" lon="8.05825861170888">
        <ele>2070.3400000000001</ele>
        <time>2018-06-19T07:11:34Z</time>
      </trkpt>
      <trkpt lat="46.057664500549436" lon="8.058247715234757">
        <ele>2068.4099999999999</ele>
        <time>2018-06-19T07:11:24Z</time>
      </trkpt>
      <trkpt lat="46.057647066190839" lon="8.058233130723238">
        <ele>2067.9299999999998</ele>
        <time>2018-06-19T07:11:22Z</time>
      </trkpt>
      <trkpt lat="46.057634241878986" lon="8.058239500969648">
        <ele>2067.4499999999998</ele>
        <time>2018-06-19T07:11:20Z</time>
      </trkpt>
      <trkpt lat="46.057632733136415" lon="8.058262970298529">
        <ele>2067.4499999999998</ele>
        <time>2018-06-19T07:11:16Z</time>
      </trkpt>
      <trkpt lat="46.057571964338422" lon="8.058328935876489">
        <ele>2066.0100000000002</ele>
        <time>2018-06-19T07:11:07Z</time>
      </trkpt>
      <trkpt lat="46.057573053985834" lon="8.058358188718557">
        <ele>2065.0500000000002</ele>
        <time>2018-06-19T07:10:59Z</time>
      </trkpt>
      <trkpt lat="46.057547740638256" lon="8.058369839563966">
        <ele>2063.6100000000001</ele>
        <time>2018-06-19T07:10:51Z</time>
      </trkpt>
      <trkpt lat="46.057546902447939" lon="8.058288786560297">
        <ele>2061.6799999999998</ele>
        <time>2018-06-19T07:10:41Z</time>
      </trkpt>
      <trkpt lat="46.05754254385829" lon="8.058289708569646">
        <ele>2061.1999999999998</ele>
        <time>2018-06-19T07:10:38Z</time>
      </trkpt>
      <trkpt lat="46.057511866092682" lon="8.058259785175324">
        <ele>2059.7600000000002</ele>
        <time>2018-06-19T07:10:30Z</time>
      </trkpt>
      <trkpt lat="46.057504154741764" lon="8.058231370523572">
        <ele>2059.2800000000002</ele>
        <time>2018-06-19T07:10:21Z</time>
      </trkpt>
      <trkpt lat="46.057488648220897" lon="8.058248637244105">
        <ele>2056.8800000000001</ele>
        <time>2018-06-19T07:10:11Z</time>
      </trkpt>
      <trkpt lat="46.057475488632917" lon="8.05825618095696">
        <ele>2055.4400000000001</ele>
        <time>2018-06-19T07:10:03Z</time>
      </trkpt>
      <trkpt lat="46.057463753968477" lon="8.058254169300199">
        <ele>2053.9899999999998</ele>
        <time>2018-06-19T07:09:56Z</time>
      </trkpt>
      <trkpt lat="46.057422766461968" lon="8.058243189007044">
        <ele>2052.5500000000002</ele>
        <time>2018-06-19T07:09:48Z</time>
      </trkpt>
      <trkpt lat="46.057394687086344" lon="8.058150233700872">
        <ele>2050.6300000000001</ele>
        <time>2018-06-19T07:09:34Z</time>
      </trkpt>
      <trkpt lat="46.057364093139768" lon="8.058178145438433">
        <ele>2048.71</ele>
        <time>2018-06-19T07:09:25Z</time>
      </trkpt>
      <trkpt lat="46.057326709851623" lon="8.058207146823406">
        <ele>2047.26</ele>
        <time>2018-06-19T07:09:16Z</time>
      </trkpt>
      <trkpt lat="46.057297205552459" lon="8.058232460170984">
        <ele>2045.8199999999999</ele>
        <time>2018-06-19T07:09:09Z</time>
      </trkpt>
      <trkpt lat="46.057261833921075" lon="8.058272777125239">
        <ele>2043.9000000000001</ele>
        <time>2018-06-19T07:09:00Z</time>
      </trkpt>
      <trkpt lat="46.057262253016233" lon="8.058283254504204">
        <ele>2043.4200000000001</ele>
        <time>2018-06-19T07:08:57Z</time>
      </trkpt>
      <trkpt lat="46.057213386520743" lon="8.058273028582335">
        <ele>2041.98</ele>
        <time>2018-06-19T07:08:48Z</time>
      </trkpt>
      <trkpt lat="46.057172399014235" lon="8.05833195336163">
        <ele>2040.05</ele>
        <time>2018-06-19T07:08:34Z</time>
      </trkpt>
      <trkpt lat="46.057169297710061" lon="8.058340167626739">
        <ele>2040.54</ele>
        <time>2018-06-19T07:08:22Z</time>
      </trkpt>
      <trkpt lat="46.057125041261315" lon="8.058370174840093">
        <ele>2040.54</ele>
        <time>2018-06-19T07:08:14Z</time>
      </trkpt>
      <trkpt lat="46.057091262191534" lon="8.05835047736764">
        <ele>2039.0899999999999</ele>
        <time>2018-06-19T07:08:05Z</time>
      </trkpt>
      <trkpt lat="46.057085730135441" lon="8.058348298072815">
        <ele>2039.0899999999999</ele>
        <time>2018-06-19T07:08:04Z</time>
      </trkpt>
      <trkpt lat="46.057035271078348" lon="8.058377550914884">
        <ele>2037.6500000000001</ele>
        <time>2018-06-19T07:07:54Z</time>
      </trkpt>
      <trkpt lat="46.056984225288033" lon="8.05840278044343">
        <ele>2036.21</ele>
        <time>2018-06-19T07:07:42Z</time>
      </trkpt>
      <trkpt lat="46.056932006031275" lon="8.058444103226066">
        <ele>2033.8099999999999</ele>
        <time>2018-06-19T07:07:32Z</time>
      </trkpt>
      <trkpt lat="46.05688096024096" lon="8.058466482907534">
        <ele>2033.8099999999999</ele>
        <time>2018-06-19T07:07:23Z</time>
      </trkpt>
      <trkpt lat="46.056816419586539" lon="8.058539321646094">
        <ele>2032.3599999999999</ele>
        <time>2018-06-19T07:07:13Z</time>
      </trkpt>
      <trkpt lat="46.056812899187207" lon="8.058538734912872">
        <ele>2031.8800000000001</ele>
        <time>2018-06-19T07:07:11Z</time>
      </trkpt>
      <trkpt lat="46.056787502020597" lon="8.058531526476145">
        <ele>2030.4400000000001</ele>
        <time>2018-06-19T07:07:04Z</time>
      </trkpt>
      <trkpt lat="46.056738803163171" lon="8.058519205078483">
        <ele>2028.52</ele>
        <time>2018-06-19T07:06:54Z</time>
      </trkpt>
      <trkpt lat="46.056692702695727" lon="8.058479055762291">
        <ele>2026.5999999999999</ele>
        <time>2018-06-19T07:06:42Z</time>
      </trkpt>
      <trkpt lat="46.056612571701407" lon="8.058478385210037">
        <ele>2024.6700000000001</ele>
        <time>2018-06-19T07:06:31Z</time>
      </trkpt>
      <trkpt lat="46.056558843702078" lon="8.058503866195679">
        <ele>2024.1900000000001</ele>
        <time>2018-06-19T07:06:25Z</time>
      </trkpt>
      <trkpt lat="46.056564124301076" lon="8.058498585596681">
        <ele>2025.6400000000001</ele>
        <time>2018-06-19T07:06:18Z</time>
      </trkpt>
      <trkpt lat="46.056517269462347" lon="8.058528928086162">
        <ele>2023.71</ele>
        <time>2018-06-19T07:06:10Z</time>
      </trkpt>
      <trkpt lat="46.056468486785889" lon="8.058570921421051">
        <ele>2022.75</ele>
        <time>2018-06-19T07:06:03Z</time>
      </trkpt>
      <trkpt lat="46.056398162618279" lon="8.058622051030397">
        <ele>2021.79</ele>
        <time>2018-06-19T07:05:54Z</time>
      </trkpt>
      <trkpt lat="46.056335885077715" lon="8.058679718524218">
        <ele>2020.8299999999999</ele>
        <time>2018-06-19T07:05:45Z</time>
      </trkpt>
      <trkpt lat="46.056316439062357" lon="8.05871257558465">
        <ele>2019.8699999999999</ele>
        <time>2018-06-19T07:05:41Z</time>
      </trkpt>
      <trkpt lat="46.056291544809937" lon="8.058732189238071">
        <ele>2019.8699999999999</ele>
        <time>2018-06-19T07:05:38Z</time>
      </trkpt>
      <trkpt lat="46.056215604767203" lon="8.058763956651092">
        <ele>2018.9100000000001</ele>
        <time>2018-06-19T07:05:28Z</time>
      </trkpt>
      <trkpt lat="46.05618366971612" lon="8.0587790440768">
        <ele>2017.46</ele>
        <time>2018-06-19T07:05:17Z</time>
      </trkpt>
      <trkpt lat="46.056128852069378" lon="8.058781139552593">
        <ele>2015.54</ele>
        <time>2018-06-19T07:05:07Z</time>
      </trkpt>
      <trkpt lat="46.056076968088746" lon="8.058854145929217">
        <ele>2013.1400000000001</ele>
        <time>2018-06-19T07:04:55Z</time>
      </trkpt>
      <trkpt lat="46.056075543165207" lon="8.058907371014357">
        <ele>2012.6600000000001</ele>
        <time>2018-06-19T07:04:46Z</time>
      </trkpt>
      <trkpt lat="46.056038243696094" lon="8.058918854221702">
        <ele>2011.7</ele>
        <time>2018-06-19T07:04:41Z</time>
      </trkpt>
      <trkpt lat="46.05599164031446" lon="8.058955650776625">
        <ele>2009.77</ele>
        <time>2018-06-19T07:04:32Z</time>
      </trkpt>
      <trkpt lat="46.055894661694765" lon="8.05899546481669">
        <ele>2008.8099999999999</ele>
        <time>2018-06-19T07:04:19Z</time>
      </trkpt>
      <trkpt lat="46.055858619511127" lon="8.059005020186305">
        <ele>2008.3299999999999</ele>
        <time>2018-06-19T07:04:14Z</time>
      </trkpt>
      <trkpt lat="46.055855182930827" lon="8.059007618576288">
        <ele>2008.3299999999999</ele>
        <time>2018-06-19T07:04:13Z</time>
      </trkpt>
      <trkpt lat="46.055795587599277" lon="8.059006948024035">
        <ele>2006.8900000000001</ele>
        <time>2018-06-19T07:04:03Z</time>
      </trkpt>
      <trkpt lat="46.055738925933838" lon="8.058988843113184">
        <ele>2006.4100000000001</ele>
        <time>2018-06-19T07:03:55Z</time>
      </trkpt>
      <trkpt lat="46.055727358907461" lon="8.058998482301831">
        <ele>2005.9300000000001</ele>
        <time>2018-06-19T07:03:47Z</time>
      </trkpt>
      <trkpt lat="46.055664410814643" lon="8.059000661596656">
        <ele>2004.97</ele>
        <time>2018-06-19T07:03:37Z</time>
      </trkpt>
      <trkpt lat="46.055630631744862" lon="8.058998147025704">
        <ele>2003.52</ele>
        <time>2018-06-19T07:03:27Z</time>
      </trkpt>
      <trkpt lat="46.055622585117817" lon="8.058942323550582">
        <ele>2002.0799999999999</ele>
        <time>2018-06-19T07:03:18Z</time>
      </trkpt>
      <trkpt lat="46.055602803826332" lon="8.058881219476461">
        <ele>2000.6400000000001</ele>
        <time>2018-06-19T07:03:09Z</time>
      </trkpt>
      <trkpt lat="46.055538430809975" lon="8.05883277207613">
        <ele>1999.6800000000001</ele>
        <time>2018-06-19T07:03:00Z</time>
      </trkpt>
      <trkpt lat="46.05554211884737" lon="8.058865545317531">
        <ele>1999.6800000000001</ele>
        <time>2018-06-19T07:02:56Z</time>
      </trkpt>
      <trkpt lat="46.055517392233014" lon="8.058905443176627">
        <ele>1998.24</ele>
        <time>2018-06-19T07:02:48Z</time>
      </trkpt>
      <trkpt lat="46.055512111634016" lon="8.058907706290484">
        <ele>1998.24</ele>
        <time>2018-06-19T07:02:47Z</time>
      </trkpt>
      <trkpt lat="46.055460730567575" lon="8.058919608592987">
        <ele>1996.3199999999999</ele>
        <time>2018-06-19T07:02:38Z</time>
      </trkpt>
      <trkpt lat="46.055458886548877" lon="8.058928996324539">
        <ele>1996.3199999999999</ele>
        <time>2018-06-19T07:02:37Z</time>
      </trkpt>
      <trkpt lat="46.055460143834352" lon="8.05895539931953">
        <ele>1996.3199999999999</ele>
        <time>2018-06-19T07:02:29Z</time>
      </trkpt>
      <trkpt lat="46.055452600121498" lon="8.058903515338898">
        <ele>1994.3900000000001</ele>
        <time>2018-06-19T07:02:22Z</time>
      </trkpt>
      <trkpt lat="46.055442625656724" lon="8.058887589722872">
        <ele>1994.3900000000001</ele>
        <time>2018-06-19T07:02:16Z</time>
      </trkpt>
      <trkpt lat="46.055437680333853" lon="8.058857414871454">
        <ele>1992.47</ele>
        <time>2018-06-19T07:02:08Z</time>
      </trkpt>
      <trkpt lat="46.055441284552217" lon="8.058796310797334">
        <ele>1991.03</ele>
        <time>2018-06-19T07:02:03Z</time>
      </trkpt>
      <trkpt lat="46.055445978417993" lon="8.058764711022377">
        <ele>1989.5899999999999</ele>
        <time>2018-06-19T07:01:55Z</time>
      </trkpt>
      <trkpt lat="46.055408176034689" lon="8.058760352432728">
        <ele>1988.1400000000001</ele>
        <time>2018-06-19T07:01:46Z</time>
      </trkpt>
      <trkpt lat="46.055393340066075" lon="8.05873797275126">
        <ele>1986.7</ele>
        <time>2018-06-19T07:01:40Z</time>
      </trkpt>
      <trkpt lat="46.055385209619999" lon="8.058705870062113">
        <ele>1986.22</ele>
        <time>2018-06-19T07:01:31Z</time>
      </trkpt>
      <trkpt lat="46.055351933464408" lon="8.058689860627055">
        <ele>1984.78</ele>
        <time>2018-06-19T07:01:22Z</time>
      </trkpt>
      <trkpt lat="46.055334415286779" lon="8.058740319684148">
        <ele>1983.8199999999999</ele>
        <time>2018-06-19T07:01:11Z</time>
      </trkpt>
      <trkpt lat="46.055325446650386" lon="8.058744845911861">
        <ele>1982.8599999999999</ele>
        <time>2018-06-19T07:01:07Z</time>
      </trkpt>
      <trkpt lat="46.055290745571256" lon="8.058766974136233">
        <ele>1981.9000000000001</ele>
        <time>2018-06-19T07:01:00Z</time>
      </trkpt>
      <trkpt lat="46.055259145796299" lon="8.058803603053093">
        <ele>1980.9300000000001</ele>
        <time>2018-06-19T07:00:53Z</time>
      </trkpt>
      <trkpt lat="46.055240286514163" lon="8.058785246685147">
        <ele>1979.49</ele>
        <time>2018-06-19T07:00:44Z</time>
      </trkpt>
      <trkpt lat="46.055242884904146" lon="8.05874677374959">
        <ele>1977.5699999999999</ele>
        <time>2018-06-19T07:00:37Z</time>
      </trkpt>
      <trkpt lat="46.055218074470758" lon="8.058672593906522">
        <ele>1976.1300000000001</ele>
        <time>2018-06-19T07:00:26Z</time>
      </trkpt>
      <trkpt lat="46.055173482745886" lon="8.058634204789996">
        <ele>1976.1300000000001</ele>
        <time>2018-06-19T07:00:15Z</time>
      </trkpt>
      <trkpt lat="46.055166106671095" lon="8.058646777644754">
        <ele>1974.6900000000001</ele>
        <time>2018-06-19T07:00:13Z</time>
      </trkpt>
      <trkpt lat="46.055134003981948" lon="8.058664798736572">
        <ele>1973.24</ele>
        <time>2018-06-19T07:00:03Z</time>
      </trkpt>
      <trkpt lat="46.055093435570598" lon="8.058696649968624">
        <ele>1971.3199999999999</ele>
        <time>2018-06-19T06:59:53Z</time>
      </trkpt>
      <trkpt lat="46.055088993161917" lon="8.058704193681479">
        <ele>1970.8399999999999</ele>
        <time>2018-06-19T06:59:50Z</time>
      </trkpt>
      <trkpt lat="46.055044988170266" lon="8.058742331340909">
        <ele>1969.4000000000001</ele>
        <time>2018-06-19T06:59:40Z</time>
      </trkpt>
      <trkpt lat="46.055040545761585" lon="8.058788264170289">
        <ele>1968.4400000000001</ele>
        <time>2018-06-19T06:59:33Z</time>
      </trkpt>
      <trkpt lat="46.055041216313839" lon="8.058799412101507">
        <ele>1967.96</ele>
        <time>2018-06-19T06:59:30Z</time>
      </trkpt>
      <trkpt lat="46.055018249899149" lon="8.058763621374965">
        <ele>1966.03</ele>
        <time>2018-06-19T06:59:20Z</time>
      </trkpt>
      <trkpt lat="46.054987153038383" lon="8.058735122904182">
        <ele>1964.5899999999999</ele>
        <time>2018-06-19T06:59:11Z</time>
      </trkpt>
      <trkpt lat="46.054983967915177" lon="8.058761190623045">
        <ele>1963.6300000000001</ele>
        <time>2018-06-19T06:59:03Z</time>
      </trkpt>
      <trkpt lat="46.054961001500487" lon="8.05879027582705">
        <ele>1961.23</ele>
        <time>2018-06-19T06:58:53Z</time>
      </trkpt>
      <trkpt lat="46.054934430867434" lon="8.058786671608686">
        <ele>1959.3</ele>
        <time>2018-06-19T06:58:43Z</time>
      </trkpt>
      <trkpt lat="46.054909704253078" lon="8.058761525899172">
        <ele>1958.3399999999999</ele>
        <time>2018-06-19T06:58:36Z</time>
      </trkpt>
      <trkpt lat="46.054857904091477" lon="8.058848613873124">
        <ele>1956.4200000000001</ele>
        <time>2018-06-19T06:58:26Z</time>
      </trkpt>
      <trkpt lat="46.054858574643731" lon="8.058868646621704">
        <ele>1956.4200000000001</ele>
        <time>2018-06-19T06:58:24Z</time>
      </trkpt>
      <trkpt lat="46.054889168590307" lon="8.058932600542903">
        <ele>1955.9400000000001</ele>
        <time>2018-06-19T06:58:19Z</time>
      </trkpt>
      <trkpt lat="46.054911380633712" lon="8.058981383219361">
        <ele>1956.4200000000001</ele>
        <time>2018-06-19T06:58:13Z</time>
      </trkpt>
      <trkpt lat="46.054892186075449" lon="8.059024382382631">
        <ele>1953.54</ele>
        <time>2018-06-19T06:58:04Z</time>
      </trkpt>
      <trkpt lat="46.054866369813681" lon="8.059065286070108">
        <ele>1952.0899999999999</ele>
        <time>2018-06-19T06:57:56Z</time>
      </trkpt>
      <trkpt lat="46.054853294044733" lon="8.059098897501826">
        <ele>1950.6500000000001</ele>
        <time>2018-06-19T06:57:49Z</time>
      </trkpt>
      <trkpt lat="46.054836697876453" lon="8.059207275509834">
        <ele>1949.21</ele>
        <time>2018-06-19T06:57:40Z</time>
      </trkpt>
      <trkpt lat="46.054837955161929" lon="8.059231080114842">
        <ele>1948.25</ele>
        <time>2018-06-19T06:57:27Z</time>
      </trkpt>
      <trkpt lat="46.054821945726871" lon="8.059243652969599">
        <ele>1947.77</ele>
        <time>2018-06-19T06:57:14Z</time>
      </trkpt>
      <trkpt lat="46.054810462519526" lon="8.059323616325855">
        <ele>1945.8499999999999</ele>
        <time>2018-06-19T06:57:04Z</time>
      </trkpt>
      <trkpt lat="46.054817000404" lon="8.059343146160245">
        <ele>1945.3599999999999</ele>
        <time>2018-06-19T06:57:02Z</time>
      </trkpt>
      <trkpt lat="46.054826052859426" lon="8.059383714571595">
        <ele>1944.4000000000001</ele>
        <time>2018-06-19T06:56:53Z</time>
      </trkpt>
      <trkpt lat="46.054829237982631" lon="8.059424953535199">
        <ele>1942.48</ele>
        <time>2018-06-19T06:56:44Z</time>
      </trkpt>
      <trkpt lat="46.054820017889142" lon="8.059438364580274">
        <ele>1941.04</ele>
        <time>2018-06-19T06:56:37Z</time>
      </trkpt>
      <trkpt lat="46.054808953776956" lon="8.059422103688121">
        <ele>1941.04</ele>
        <time>2018-06-19T06:56:35Z</time>
      </trkpt>
      <trkpt lat="46.054768804460764" lon="8.059414979070425">
        <ele>1939.1199999999999</ele>
        <time>2018-06-19T06:56:25Z</time>
      </trkpt>
      <trkpt lat="46.054717339575291" lon="8.059393689036369">
        <ele>1937.6700000000001</ele>
        <time>2018-06-19T06:56:15Z</time>
      </trkpt>
      <trkpt lat="46.054705353453755" lon="8.059386480599642">
        <ele>1938.6400000000001</ele>
        <time>2018-06-19T06:56:12Z</time>
      </trkpt>
      <trkpt lat="46.054689846932888" lon="8.059369381517172">
        <ele>1937.1900000000001</ele>
        <time>2018-06-19T06:56:09Z</time>
      </trkpt>
      <trkpt lat="46.0546650364995" lon="8.059326130896807">
        <ele>1936.23</ele>
        <time>2018-06-19T06:56:01Z</time>
      </trkpt>
      <trkpt lat="46.054636957123876" lon="8.059297800064087">
        <ele>1934.79</ele>
        <time>2018-06-19T06:55:54Z</time>
      </trkpt>
      <trkpt lat="46.054592281579971" lon="8.059277348220348">
        <ele>1932.8699999999999</ele>
        <time>2018-06-19T06:55:46Z</time>
      </trkpt>
      <trkpt lat="46.054605357348919" lon="8.059224793687463">
        <ele>1931.4300000000001</ele>
        <time>2018-06-19T06:55:36Z</time>
      </trkpt>
      <trkpt lat="46.054615499451756" lon="8.059146674349904">
        <ele>1929.98</ele>
        <time>2018-06-19T06:55:27Z</time>
      </trkpt>
      <trkpt lat="46.054591108113527" lon="8.059107614681125">
        <ele>1928.54</ele>
        <time>2018-06-19T06:55:19Z</time>
      </trkpt>
      <trkpt lat="46.054543750360608" lon="8.059147261083126">
        <ele>1926.1400000000001</ele>
        <time>2018-06-19T06:55:08Z</time>
      </trkpt>
      <trkpt lat="46.054533440619707" lon="8.059119516983628">
        <ele>1924.7</ele>
        <time>2018-06-19T06:54:59Z</time>
      </trkpt>
      <trkpt lat="46.054520951583982" lon="8.059118930250406">
        <ele>1924.22</ele>
        <time>2018-06-19T06:54:45Z</time>
      </trkpt>
      <trkpt lat="46.054542744532228" lon="8.059075260534883">
        <ele>1922.77</ele>
        <time>2018-06-19T06:54:35Z</time>
      </trkpt>
      <trkpt lat="46.05451843701303" lon="8.059052210301161">
        <ele>1920.8499999999999</ele>
        <time>2018-06-19T06:54:26Z</time>
      </trkpt>
      <trkpt lat="46.054503433406353" lon="8.059031255543232">
        <ele>1919.4100000000001</ele>
        <time>2018-06-19T06:54:19Z</time>
      </trkpt>
      <trkpt lat="46.054464625194669" lon="8.059040224179626">
        <ele>1917.97</ele>
        <time>2018-06-19T06:54:12Z</time>
      </trkpt>
      <trkpt lat="46.054454147815704" lon="8.059022119268775">
        <ele>1916.53</ele>
        <time>2018-06-19T06:54:08Z</time>
      </trkpt>
      <trkpt lat="46.054450543597341" lon="8.058979539200664">
        <ele>1915.5599999999999</ele>
        <time>2018-06-19T06:54:01Z</time>
      </trkpt>
      <trkpt lat="46.054417183622718" lon="8.058976521715522">
        <ele>1913.1600000000001</ele>
        <time>2018-06-19T06:53:52Z</time>
      </trkpt>
      <trkpt lat="46.054386757314205" lon="8.05898523889482">
        <ele>1912.2</ele>
        <time>2018-06-19T06:53:46Z</time>
      </trkpt>
      <trkpt lat="46.054361527785659" lon="8.059006026014686">
        <ele>1910.28</ele>
        <time>2018-06-19T06:53:37Z</time>
      </trkpt>
      <trkpt lat="46.054345183074474" lon="8.059001080691814">
        <ele>1909.3199999999999</ele>
        <time>2018-06-19T06:53:29Z</time>
      </trkpt>
      <trkpt lat="46.054347194731236" lon="8.058927822858095">
        <ele>1907.3900000000001</ele>
        <time>2018-06-19T06:53:19Z</time>
      </trkpt>
      <trkpt lat="46.054351637139916" lon="8.058900162577629">
        <ele>1906.9100000000001</ele>
        <time>2018-06-19T06:53:16Z</time>
      </trkpt>
      <trkpt lat="46.054357755929232" lon="8.058853223919869">
        <ele>1905.95</ele>
        <time>2018-06-19T06:53:07Z</time>
      </trkpt>
      <trkpt lat="46.05437183752656" lon="8.058804189786315">
        <ele>1904.51</ele>
        <time>2018-06-19T06:52:59Z</time>
      </trkpt>
      <trkpt lat="46.054353564977646" lon="8.058754233643413">
        <ele>1903.0699999999999</ele>
        <time>2018-06-19T06:52:49Z</time>
      </trkpt>
      <trkpt lat="46.054316768422723" lon="8.058751383796334">
        <ele>1901.1400000000001</ele>
        <time>2018-06-19T06:52:40Z</time>
      </trkpt>
      <trkpt lat="46.054308637976646" lon="8.05873453617096">
        <ele>1899.22</ele>
        <time>2018-06-19T06:52:28Z</time>
      </trkpt>
      <trkpt lat="46.054291035979986" lon="8.058663625270128">
        <ele>1897.3</ele>
        <time>2018-06-19T06:52:18Z</time>
      </trkpt>
      <trkpt lat="46.054278966039419" lon="8.058646190911531">
        <ele>1897.78</ele>
        <time>2018-06-19T06:52:10Z</time>
      </trkpt>
      <trkpt lat="46.054258598014712" lon="8.058688770979643">
        <ele>1894.9000000000001</ele>
        <time>2018-06-19T06:52:03Z</time>
      </trkpt>
      <trkpt lat="46.054230434820056" lon="8.058708216995001">
        <ele>1893.9300000000001</ele>
        <time>2018-06-19T06:51:56Z</time>
      </trkpt>
      <trkpt lat="46.0542057082057" lon="8.058673851191998">
        <ele>1892.49</ele>
        <time>2018-06-19T06:51:47Z</time>
      </trkpt>
      <trkpt lat="46.054177796468139" lon="8.058652896434069">
        <ele>1891.05</ele>
        <time>2018-06-19T06:51:40Z</time>
      </trkpt>
      <trkpt lat="46.054148795083165" lon="8.058681143447757">
        <ele>1889.1300000000001</ele>
        <time>2018-06-19T06:51:34Z</time>
      </trkpt>
      <trkpt lat="46.054153153672814" lon="8.058686843141913">
        <ele>1887.6900000000001</ele>
        <time>2018-06-19T06:51:25Z</time>
      </trkpt>
      <trkpt lat="46.054130438715219" lon="8.058692710474134">
        <ele>1886.72</ele>
        <time>2018-06-19T06:51:11Z</time>
      </trkpt>
      <trkpt lat="46.054122056812048" lon="8.058707714080811">
        <ele>1885.76</ele>
        <time>2018-06-19T06:51:05Z</time>
      </trkpt>
      <trkpt lat="46.054110154509544" lon="8.058788180351257">
        <ele>1884.8</ele>
        <time>2018-06-19T06:50:56Z</time>
      </trkpt>
      <trkpt lat="46.054093139246106" lon="8.058742247521877">
        <ele>1883.8399999999999</ele>
        <time>2018-06-19T06:50:48Z</time>
      </trkpt>
      <trkpt lat="46.054084170609713" lon="8.058703104034066">
        <ele>1881.9200000000001</ele>
        <time>2018-06-19T06:50:39Z</time>
      </trkpt>
      <trkpt lat="46.054075034335256" lon="8.058664631098509">
        <ele>1880.48</ele>
        <time>2018-06-19T06:50:30Z</time>
      </trkpt>
      <trkpt lat="46.054045278578997" lon="8.058637473732233">
        <ele>1879.03</ele>
        <time>2018-06-19T06:50:22Z</time>
      </trkpt>
      <trkpt lat="46.054018456488848" lon="8.058661697432399">
        <ele>1877.5899999999999</ele>
        <time>2018-06-19T06:50:14Z</time>
      </trkpt>
      <trkpt lat="46.053993310779333" lon="8.058586847037077">
        <ele>1875.6700000000001</ele>
        <time>2018-06-19T06:50:04Z</time>
      </trkpt>
      <trkpt lat="46.05396187864244" lon="8.058606712147594">
        <ele>1874.23</ele>
        <time>2018-06-19T06:49:55Z</time>
      </trkpt>
      <trkpt lat="46.053959866985679" lon="8.058641161769629">
        <ele>1871.8199999999999</ele>
        <time>2018-06-19T06:49:46Z</time>
      </trkpt>
      <trkpt lat="46.053922735154629" lon="8.058539237827063">
        <ele>1871.3399999999999</ele>
        <time>2018-06-19T06:49:35Z</time>
      </trkpt>
      <trkpt lat="46.053909491747618" lon="8.058497244492173">
        <ele>1870.3800000000001</ele>
        <time>2018-06-19T06:49:28Z</time>
      </trkpt>
      <trkpt lat="46.053868671879172" lon="8.058490119874477">
        <ele>1868.9400000000001</ele>
        <time>2018-06-19T06:49:19Z</time>
      </trkpt>
      <trkpt lat="46.053840508684516" lon="8.058481737971306">
        <ele>1867.02</ele>
        <time>2018-06-19T06:49:11Z</time>
      </trkpt>
      <trkpt lat="46.053818967193365" lon="8.058491963893175">
        <ele>1865.5799999999999</ele>
        <time>2018-06-19T06:49:02Z</time>
      </trkpt>
      <trkpt lat="46.053785188123584" lon="8.058518199250102">
        <ele>1863.6500000000001</ele>
        <time>2018-06-19T06:48:53Z</time>
      </trkpt>
      <trkpt lat="46.053769597783685" lon="8.05853957310319">
        <ele>1862.21</ele>
        <time>2018-06-19T06:48:43Z</time>
      </trkpt>
      <trkpt lat="46.053728442639112" lon="8.058485006913543">
        <ele>1860.77</ele>
        <time>2018-06-19T06:48:32Z</time>
      </trkpt>
      <trkpt lat="46.053684437647462" lon="8.058480145409703">
        <ele>1859.3299999999999</ele>
        <time>2018-06-19T06:48:22Z</time>
      </trkpt>
      <trkpt lat="46.053688209503889" lon="8.058536723256111">
        <ele>1858.3699999999999</ele>
        <time>2018-06-19T06:48:13Z</time>
      </trkpt>
      <trkpt lat="46.053688377141953" lon="8.058574609458447">
        <ele>1857.4000000000001</ele>
        <time>2018-06-19T06:48:03Z</time>
      </trkpt>
      <trkpt lat="46.053659208118916" lon="8.058564383536577">
        <ele>1855</ele>
        <time>2018-06-19T06:47:54Z</time>
      </trkpt>
      <trkpt lat="46.053637163713574" lon="8.058572094887495">
        <ele>1853.5599999999999</ele>
        <time>2018-06-19T06:47:45Z</time>
      </trkpt>
      <trkpt lat="46.053614281117916" lon="8.058568574488163">
        <ele>1852.1199999999999</ele>
        <time>2018-06-19T06:47:39Z</time>
      </trkpt>
      <trkpt lat="46.053575053811073" lon="8.058563461527228">
        <ele>1850.1900000000001</ele>
        <time>2018-06-19T06:47:29Z</time>
      </trkpt>
      <trkpt lat="46.053558541461825" lon="8.058530520647764">
        <ele>1848.75</ele>
        <time>2018-06-19T06:47:18Z</time>
      </trkpt>
      <trkpt lat="46.05354898609221" lon="8.058522222563624">
        <ele>1848.27</ele>
        <time>2018-06-19T06:47:08Z</time>
      </trkpt>
      <trkpt lat="46.05352551676333" lon="8.058473775163293">
        <ele>1846.3499999999999</ele>
        <time>2018-06-19T06:46:58Z</time>
      </trkpt>
      <trkpt lat="46.053502298891544" lon="8.058438235893846">
        <ele>1844.4300000000001</ele>
        <time>2018-06-19T06:46:50Z</time>
      </trkpt>
      <trkpt lat="46.053469944745302" lon="8.058430189266801">
        <ele>1842.02</ele>
        <time>2018-06-19T06:46:37Z</time>
      </trkpt>
      <trkpt lat="46.053456030786037" lon="8.058392889797688">
        <ele>1839.6199999999999</ele>
        <time>2018-06-19T06:46:28Z</time>
      </trkpt>
      <trkpt lat="46.05341169051826" lon="8.058363804593682">
        <ele>1836.74</ele>
        <time>2018-06-19T06:46:18Z</time>
      </trkpt>
      <trkpt lat="46.053380761295557" lon="8.058364391326904">
        <ele>1837.22</ele>
        <time>2018-06-19T06:46:06Z</time>
      </trkpt>
      <trkpt lat="46.053387131541967" lon="8.058314686641097">
        <ele>1834.8099999999999</ele>
        <time>2018-06-19T06:45:49Z</time>
      </trkpt>
      <trkpt lat="46.053356705233455" lon="8.058277973905206">
        <ele>1832.4100000000001</ele>
        <time>2018-06-19T06:45:37Z</time>
      </trkpt>
      <trkpt lat="46.053332732990384" lon="8.058228855952621">
        <ele>1830.97</ele>
        <time>2018-06-19T06:45:28Z</time>
      </trkpt>
      <trkpt lat="46.05331052094698" lon="8.058257102966309">
        <ele>1830.49</ele>
        <time>2018-06-19T06:45:18Z</time>
      </trkpt>
      <trkpt lat="46.05331689119339" lon="8.058248301967979">
        <ele>1830.97</ele>
        <time>2018-06-19T06:45:16Z</time>
      </trkpt>
      <trkpt lat="46.053341533988714" lon="8.058257605880499">
        <ele>1830.97</ele>
        <time>2018-06-19T06:45:05Z</time>
      </trkpt>
      <trkpt lat="46.053333068266511" lon="8.058261796832085">
        <ele>1830.97</ele>
        <time>2018-06-19T06:44:52Z</time>
      </trkpt>
      <trkpt lat="46.053330972790718" lon="8.058249475434423">
        <ele>1830.49</ele>
        <time>2018-06-19T06:44:35Z</time>
      </trkpt>
      <trkpt lat="46.053337762132287" lon="8.058232543990016">
        <ele>1830.49</ele>
        <time>2018-06-19T06:44:22Z</time>
      </trkpt>
      <trkpt lat="46.053349496796727" lon="8.058246793225408">
        <ele>1830.97</ele>
        <time>2018-06-19T06:44:12Z</time>
      </trkpt>
      <trkpt lat="46.053362488746643" lon="8.058237992227078">
        <ele>1830.97</ele>
        <time>2018-06-19T06:44:00Z</time>
      </trkpt>
      <trkpt lat="46.05337112210691" lon="8.05820295587182">
        <ele>1830.01</ele>
        <time>2018-06-19T06:43:54Z</time>
      </trkpt>
      <trkpt lat="46.053367769345641" lon="8.058206979185343">
        <ele>1830.01</ele>
        <time>2018-06-19T06:43:49Z</time>
      </trkpt>
      <trkpt lat="46.053318148478866" lon="8.058238746598363">
        <ele>1830.01</ele>
        <time>2018-06-19T06:43:27Z</time>
      </trkpt>
      <trkpt lat="46.053321752697229" lon="8.058253666386008">
        <ele>1830.01</ele>
        <time>2018-06-19T06:43:13Z</time>
      </trkpt>
      <trkpt lat="46.053305575624108" lon="8.058257354423404">
        <ele>1830.01</ele>
        <time>2018-06-19T06:43:06Z</time>
      </trkpt>
      <trkpt lat="46.053304485976696" lon="8.058234807103872">
        <ele>1830.49</ele>
        <time>2018-06-19T06:42:58Z</time>
      </trkpt>
      <trkpt lat="46.053272048011422" lon="8.058262886479497">
        <ele>1830.01</ele>
        <time>2018-06-19T06:42:50Z</time>
      </trkpt>
      <trkpt lat="46.053276238963008" lon="8.058362044394016">
        <ele>1828.5599999999999</ele>
        <time>2018-06-19T06:42:40Z</time>
      </trkpt>
      <trkpt lat="46.053279927000403" lon="8.058383753523231">
        <ele>1828.5599999999999</ele>
        <time>2018-06-19T06:42:38Z</time>
      </trkpt>
      <trkpt lat="46.053306916728616" lon="8.058430692180991">
        <ele>1828.0799999999999</ele>
        <time>2018-06-19T06:42:33Z</time>
      </trkpt>
      <trkpt lat="46.053296774625778" lon="8.058457765728235">
        <ele>1827.1199999999999</ele>
        <time>2018-06-19T06:42:29Z</time>
      </trkpt>
      <trkpt lat="46.053297277539968" lon="8.058579303324223">
        <ele>1825.6800000000001</ele>
        <time>2018-06-19T06:42:19Z</time>
      </trkpt>
      <trkpt lat="46.05331496335566" lon="8.058585841208696">
        <ele>1825.2</ele>
        <time>2018-06-19T06:42:16Z</time>
      </trkpt>
      <trkpt lat="46.053315130993724" lon="8.058690028265119">
        <ele>1824.72</ele>
        <time>2018-06-19T06:42:04Z</time>
      </trkpt>
      <trkpt lat="46.053315801545978" lon="8.058802597224712">
        <ele>1822.3199999999999</ele>
        <time>2018-06-19T06:41:53Z</time>
      </trkpt>
      <trkpt lat="46.053314879536629" lon="8.05884107016027">
        <ele>1822.3199999999999</ele>
        <time>2018-06-19T06:41:50Z</time>
      </trkpt>
      <trkpt lat="46.053285207599401" lon="8.05891533382237">
        <ele>1821.3499999999999</ele>
        <time>2018-06-19T06:41:43Z</time>
      </trkpt>
      <trkpt lat="46.053260313346982" lon="8.058995045721531">
        <ele>1819.9100000000001</ele>
        <time>2018-06-19T06:41:34Z</time>
      </trkpt>
      <trkpt lat="46.053235586732626" lon="8.059087162837386">
        <ele>1819.4300000000001</ele>
        <time>2018-06-19T06:41:25Z</time>
      </trkpt>
      <trkpt lat="46.053226199001074" lon="8.059133095666766">
        <ele>1817.51</ele>
        <time>2018-06-19T06:41:17Z</time>
      </trkpt>
      <trkpt lat="46.05315319262445" lon="8.059121361002326">
        <ele>1816.55</ele>
        <time>2018-06-19T06:41:09Z</time>
      </trkpt>
      <trkpt lat="46.053092088550329" lon="8.059126306325197">
        <ele>1817.51</ele>
        <time>2018-06-19T06:41:00Z</time>
      </trkpt>
      <trkpt lat="46.053074738010764" lon="8.059121863916516">
        <ele>1818.47</ele>
        <time>2018-06-19T06:40:56Z</time>
      </trkpt>
      <trkpt lat="46.052978010848165" lon="8.059170059859753">
        <ele>1818.47</ele>
        <time>2018-06-19T06:40:47Z</time>
      </trkpt>
      <trkpt lat="46.052948338910937" lon="8.059227559715509">
        <ele>1817.99</ele>
        <time>2018-06-19T06:40:41Z</time>
      </trkpt>
      <trkpt lat="46.052955379709601" lon="8.059331746771932">
        <ele>1816.55</ele>
        <time>2018-06-19T06:40:31Z</time>
      </trkpt>
      <trkpt lat="46.05293920263648" lon="8.059368627145886">
        <ele>1815.1099999999999</ele>
        <time>2018-06-19T06:40:27Z</time>
      </trkpt>
      <trkpt lat="46.052951691672206" lon="8.059447919949889">
        <ele>1815.1099999999999</ele>
        <time>2018-06-19T06:40:20Z</time>
      </trkpt>
      <trkpt lat="46.052965605631471" lon="8.059481866657734">
        <ele>1813.1800000000001</ele>
        <time>2018-06-19T06:40:17Z</time>
      </trkpt>
      <trkpt lat="46.052977424114943" lon="8.05951246060431">
        <ele>1813.1800000000001</ele>
        <time>2018-06-19T06:40:15Z</time>
      </trkpt>
      <trkpt lat="46.05301002971828" lon="8.059654030948877">
        <ele>1813.1800000000001</ele>
        <time>2018-06-19T06:40:02Z</time>
      </trkpt>
      <trkpt lat="46.05301832780242" lon="8.059756876900792">
        <ele>1812.22</ele>
        <time>2018-06-19T06:39:53Z</time>
      </trkpt>
      <trkpt lat="46.053009945899248" lon="8.059845808893442">
        <ele>1810.78</ele>
        <time>2018-06-19T06:39:44Z</time>
      </trkpt>
      <trkpt lat="46.053009694442153" lon="8.059892579913139">
        <ele>1810.3</ele>
        <time>2018-06-19T06:39:40Z</time>
      </trkpt>
      <trkpt lat="46.052994355559349" lon="8.059954773634672">
        <ele>1808.3800000000001</ele>
        <time>2018-06-19T06:39:31Z</time>
      </trkpt>
      <trkpt lat="46.05300709605217" lon="8.059975225478411">
        <ele>1808.3800000000001</ele>
        <time>2018-06-19T06:39:29Z</time>
      </trkpt>
      <trkpt lat="46.053012628108263" lon="8.060010597109795">
        <ele>1807.9000000000001</ele>
        <time>2018-06-19T06:39:26Z</time>
      </trkpt>
      <trkpt lat="46.052993182092905" lon="8.06003775447607">
        <ele>1807.9000000000001</ele>
        <time>2018-06-19T06:39:23Z</time>
      </trkpt>
      <trkpt lat="46.052974406629801" lon="8.060081256553531">
        <ele>1807.4200000000001</ele>
        <time>2018-06-19T06:39:20Z</time>
      </trkpt>
      <trkpt lat="46.052959151566029" lon="8.060230538249016">
        <ele>1806.9400000000001</ele>
        <time>2018-06-19T06:39:06Z</time>
      </trkpt>
      <trkpt lat="46.052954960614443" lon="8.060251493006945">
        <ele>1806.45</ele>
        <time>2018-06-19T06:39:04Z</time>
      </trkpt>
      <trkpt lat="46.052945321425796" lon="8.060375796630979">
        <ele>1805.49</ele>
        <time>2018-06-19T06:38:54Z</time>
      </trkpt>
      <trkpt lat="46.05294942855835" lon="8.06041200645268">
        <ele>1805.49</ele>
        <time>2018-06-19T06:38:51Z</time>
      </trkpt>
      <trkpt lat="46.052967114374042" lon="8.06047210469842">
        <ele>1804.53</ele>
        <time>2018-06-19T06:38:45Z</time>
      </trkpt>
      <trkpt lat="46.05293869972229" lon="8.060582326725125">
        <ele>1803.0899999999999</ele>
        <time>2018-06-19T06:38:36Z</time>
      </trkpt>
      <trkpt lat="46.052947333082557" lon="8.060608226805925">
        <ele>1802.6099999999999</ele>
        <time>2018-06-19T06:38:32Z</time>
      </trkpt>
      <trkpt lat="46.052964264526963" lon="8.060695817694068">
        <ele>1801.6500000000001</ele>
        <time>2018-06-19T06:38:24Z</time>
      </trkpt>
      <trkpt lat="46.053001983091235" lon="8.060752898454666">
        <ele>1800.21</ele>
        <time>2018-06-19T06:38:13Z</time>
      </trkpt>
      <trkpt lat="46.052969126030803" lon="8.06083370000124">
        <ele>1800.21</ele>
        <time>2018-06-19T06:38:07Z</time>
      </trkpt>
      <trkpt lat="46.052947835996747" lon="8.060867562890053">
        <ele>1799.24</ele>
        <time>2018-06-19T06:38:02Z</time>
      </trkpt>
      <trkpt lat="46.05294993147254" lon="8.060874184593558">
        <ele>1800.21</ele>
        <time>2018-06-19T06:38:01Z</time>
      </trkpt>
      <trkpt lat="46.052958564832807" lon="8.060932438820601">
        <ele>1797.3199999999999</ele>
        <time>2018-06-19T06:37:52Z</time>
      </trkpt>
      <trkpt lat="46.05295529589057" lon="8.060968900099397">
        <ele>1796.8399999999999</ele>
        <time>2018-06-19T06:37:47Z</time>
      </trkpt>
      <trkpt lat="46.052961247041821" lon="8.061015503481031">
        <ele>1795.4000000000001</ele>
        <time>2018-06-19T06:37:41Z</time>
      </trkpt>
      <trkpt lat="46.052956469357014" lon="8.06110049597919">
        <ele>1794.4400000000001</ele>
        <time>2018-06-19T06:37:33Z</time>
      </trkpt>
      <trkpt lat="46.052906094118953" lon="8.061190852895379">
        <ele>1793</ele>
        <time>2018-06-19T06:37:23Z</time>
      </trkpt>
      <trkpt lat="46.05290450155735" lon="8.061215411871672">
        <ele>1792.52</ele>
        <time>2018-06-19T06:37:21Z</time>
      </trkpt>
      <trkpt lat="46.052927216514945" lon="8.061314905062318">
        <ele>1791.55</ele>
        <time>2018-06-19T06:37:11Z</time>
      </trkpt>
      <trkpt lat="46.052928138524294" lon="8.061355641111732">
        <ele>1791.55</ele>
        <time>2018-06-19T06:37:08Z</time>
      </trkpt>
      <trkpt lat="46.052911290898919" lon="8.061427725479007">
        <ele>1790.1099999999999</ele>
        <time>2018-06-19T06:37:00Z</time>
      </trkpt>
      <trkpt lat="46.052882876247168" lon="8.061498971655965">
        <ele>1790.1099999999999</ele>
        <time>2018-06-19T06:36:55Z</time>
      </trkpt>
      <trkpt lat="46.052877511829138" lon="8.061564601957798">
        <ele>1789.6300000000001</ele>
        <time>2018-06-19T06:36:51Z</time>
      </trkpt>
      <trkpt lat="46.052882876247168" lon="8.0616335850209">
        <ele>1789.1500000000001</ele>
        <time>2018-06-19T06:36:45Z</time>
      </trkpt>
      <trkpt lat="46.052884804084897" lon="8.061689911410213">
        <ele>1789.6300000000001</ele>
        <time>2018-06-19T06:36:42Z</time>
      </trkpt>
      <trkpt lat="46.052878014743328" lon="8.061723606660962">
        <ele>1790.5899999999999</ele>
        <time>2018-06-19T06:36:39Z</time>
      </trkpt>
      <trkpt lat="46.052852869033813" lon="8.06176207959652">
        <ele>1790.5899999999999</ele>
        <time>2018-06-19T06:36:35Z</time>
      </trkpt>
      <trkpt lat="46.052780030295253" lon="8.06184028275311">
        <ele>1790.1099999999999</ele>
        <time>2018-06-19T06:36:27Z</time>
      </trkpt>
      <trkpt lat="46.05277843773365" lon="8.061838019639254">
        <ele>1790.1099999999999</ele>
        <time>2018-06-19T06:36:26Z</time>
      </trkpt>
      <trkpt lat="46.05279260315001" lon="8.061908762902021">
        <ele>1790.1099999999999</ele>
        <time>2018-06-19T06:36:17Z</time>
      </trkpt>
      <trkpt lat="46.05279159732163" lon="8.061970872804523">
        <ele>1790.5899999999999</ele>
        <time>2018-06-19T06:36:12Z</time>
      </trkpt>
      <trkpt lat="46.052793608978391" lon="8.062000712379813">
        <ele>1790.5899999999999</ele>
        <time>2018-06-19T06:36:10Z</time>
      </trkpt>
      <trkpt lat="46.052783718332648" lon="8.062063828110695">
        <ele>1790.5899999999999</ele>
        <time>2018-06-19T06:36:06Z</time>
      </trkpt>
      <trkpt lat="46.05276863090694" lon="8.062098529189825">
        <ele>1790.1099999999999</ele>
        <time>2018-06-19T06:36:03Z</time>
      </trkpt>
      <trkpt lat="46.05277843773365" lon="8.062181510031223">
        <ele>1789.6300000000001</ele>
        <time>2018-06-19T06:35:57Z</time>
      </trkpt>
      <trkpt lat="46.052785729989409" lon="8.06224973872304">
        <ele>1789.1500000000001</ele>
        <time>2018-06-19T06:35:53Z</time>
      </trkpt>
      <trkpt lat="46.052771648392081" lon="8.062312183901668">
        <ele>1788.6700000000001</ele>
        <time>2018-06-19T06:35:48Z</time>
      </trkpt>
      <trkpt lat="46.052793022245169" lon="8.06238267570734">
        <ele>1787.71</ele>
        <time>2018-06-19T06:35:43Z</time>
      </trkpt>
      <trkpt lat="46.052807606756687" lon="8.06240463629365">
        <ele>1788.1900000000001</ele>
        <time>2018-06-19T06:35:41Z</time>
      </trkpt>
      <trkpt lat="46.052808361127973" lon="8.062432548031211">
        <ele>1788.1900000000001</ele>
        <time>2018-06-19T06:35:39Z</time>
      </trkpt>
      <trkpt lat="46.052837027236819" lon="8.062462471425533">
        <ele>1787.71</ele>
        <time>2018-06-19T06:35:23Z</time>
      </trkpt>
      <trkpt lat="46.052886312827468" lon="8.062472362071276">
        <ele>1787.71</ele>
        <time>2018-06-19T06:35:13Z</time>
      </trkpt>
      <trkpt lat="46.052914727479219" lon="8.062535477802157">
        <ele>1785.79</ele>
        <time>2018-06-19T06:35:03Z</time>
      </trkpt>
      <trkpt lat="46.052936604246497" lon="8.062601778656244">
        <ele>1784.8199999999999</ele>
        <time>2018-06-19T06:34:54Z</time>
      </trkpt>
      <trkpt lat="46.052936185151339" lon="8.062657183036208">
        <ele>1784.8199999999999</ele>
        <time>2018-06-19T06:34:46Z</time>
      </trkpt>
      <trkpt lat="46.05297633446753" lon="8.062703115865588">
        <ele>1785.79</ele>
        <time>2018-06-19T06:34:40Z</time>
      </trkpt>
      <trkpt lat="46.052970383316278" lon="8.062750557437539">
        <ele>1784.8199999999999</ele>
        <time>2018-06-19T06:34:32Z</time>
      </trkpt>
      <trkpt lat="46.052946913987398" lon="8.062775954604149">
        <ele>1783.3800000000001</ele>
        <time>2018-06-19T06:34:25Z</time>
      </trkpt>
      <trkpt lat="46.05291523039341" lon="8.062842255458236">
        <ele>1781.9400000000001</ele>
        <time>2018-06-19T06:34:16Z</time>
      </trkpt>
      <trkpt lat="46.052912967279553" lon="8.062865557149053">
        <ele>1781.46</ele>
        <time>2018-06-19T06:34:13Z</time>
      </trkpt>
      <trkpt lat="46.052900142967701" lon="8.062925571575761">
        <ele>1780.02</ele>
        <time>2018-06-19T06:34:03Z</time>
      </trkpt>
      <trkpt lat="46.052899891510606" lon="8.062980808317661">
        <ele>1778.0999999999999</ele>
        <time>2018-06-19T06:33:53Z</time>
      </trkpt>
      <trkpt lat="46.052905423566699" lon="8.063041912391782">
        <ele>1775.6900000000001</ele>
        <time>2018-06-19T06:33:42Z</time>
      </trkpt>
      <trkpt lat="46.052885474637151" lon="8.063130341470242">
        <ele>1774.73</ele>
        <time>2018-06-19T06:33:33Z</time>
      </trkpt>
      <trkpt lat="46.052859323099256" lon="8.063182812184095">
        <ele>1773.29</ele>
        <time>2018-06-19T06:33:27Z</time>
      </trkpt>
      <trkpt lat="46.052818167954683" lon="8.063207371160388">
        <ele>1773.77</ele>
        <time>2018-06-19T06:33:22Z</time>
      </trkpt>
      <trkpt lat="46.052799811586738" lon="8.063248107209802">
        <ele>1774.25</ele>
        <time>2018-06-19T06:33:18Z</time>
      </trkpt>
      <trkpt lat="46.052807858213782" lon="8.06330225430429">
        <ele>1773.29</ele>
        <time>2018-06-19T06:33:10Z</time>
      </trkpt>
      <trkpt lat="46.052854545414448" lon="8.063331004232168">
        <ele>1770.8900000000001</ele>
        <time>2018-06-19T06:32:59Z</time>
      </trkpt>
      <trkpt lat="46.05283853597939" lon="8.063377859070897">
        <ele>1768.96</ele>
        <time>2018-06-19T06:32:51Z</time>
      </trkpt>
      <trkpt lat="46.052875332534313" lon="8.063407111912966">
        <ele>1768</ele>
        <time>2018-06-19T06:32:43Z</time>
      </trkpt>
      <trkpt lat="46.052874913439155" lon="8.063439298421145">
        <ele>1766.0799999999999</ele>
        <time>2018-06-19T06:32:36Z</time>
      </trkpt>
      <trkpt lat="46.052883630618453" lon="8.063501995056868">
        <ele>1764.1600000000001</ele>
        <time>2018-06-19T06:32:27Z</time>
      </trkpt>
      <trkpt lat="46.052863597869873" lon="8.063593693077564">
        <ele>1762.23</ele>
        <time>2018-06-19T06:32:18Z</time>
      </trkpt>
      <trkpt lat="46.052860077470541" lon="8.063636440783739">
        <ele>1759.8299999999999</ele>
        <time>2018-06-19T06:32:09Z</time>
      </trkpt>
      <trkpt lat="46.052892180159688" lon="8.063740208745003">
        <ele>1758.3900000000001</ele>
        <time>2018-06-19T06:32:00Z</time>
      </trkpt>
      <trkpt lat="46.052871393039823" lon="8.063802989199758">
        <ele>1757.4300000000001</ele>
        <time>2018-06-19T06:31:52Z</time>
      </trkpt>
      <trkpt lat="46.052813474088907" lon="8.063931567594409">
        <ele>1756.95</ele>
        <time>2018-06-19T06:31:41Z</time>
      </trkpt>
      <trkpt lat="46.05279847048223" lon="8.063968531787396">
        <ele>1756.47</ele>
        <time>2018-06-19T06:31:38Z</time>
      </trkpt>
      <trkpt lat="46.052781036123633" lon="8.06404153816402">
        <ele>1755.99</ele>
        <time>2018-06-19T06:31:31Z</time>
      </trkpt>
      <trkpt lat="46.052754046395421" lon="8.064129967242479">
        <ele>1755.5</ele>
        <time>2018-06-19T06:31:21Z</time>
      </trkpt>
      <trkpt lat="46.052775671705604" lon="8.064213953912258">
        <ele>1753.5799999999999</ele>
        <time>2018-06-19T06:31:11Z</time>
      </trkpt>
      <trkpt lat="46.052779695019126" lon="8.064221832901239">
        <ele>1752.1400000000001</ele>
        <time>2018-06-19T06:31:09Z</time>
      </trkpt>
      <trkpt lat="46.052808025851846" lon="8.064297689124942">
        <ele>1751.1800000000001</ele>
        <time>2018-06-19T06:30:59Z</time>
      </trkpt>
      <trkpt lat="46.052814396098256" lon="8.064388129860163">
        <ele>1750.22</ele>
        <time>2018-06-19T06:30:50Z</time>
      </trkpt>
      <trkpt lat="46.052807858213782" lon="8.064431548118591">
        <ele>1750.22</ele>
        <time>2018-06-19T06:30:46Z</time>
      </trkpt>
      <trkpt lat="46.052855886518955" lon="8.064512014389038">
        <ele>1748.29</ele>
        <time>2018-06-19T06:30:37Z</time>
      </trkpt>
      <trkpt lat="46.052823951467872" lon="8.064537579193711">
        <ele>1748.78</ele>
        <time>2018-06-19T06:30:25Z</time>
      </trkpt>
      <trkpt lat="46.052844068035483" lon="8.064565239474177">
        <ele>1748.78</ele>
        <time>2018-06-19T06:30:11Z</time>
      </trkpt>
      <trkpt lat="46.0528673697263" lon="8.064616788178682">
        <ele>1746.8499999999999</ele>
        <time>2018-06-19T06:30:01Z</time>
      </trkpt>
      <trkpt lat="46.052910704165697" lon="8.064665570855141">
        <ele>1745.4100000000001</ele>
        <time>2018-06-19T06:29:51Z</time>
      </trkpt>
      <trkpt lat="46.052917409688234" lon="8.064666911959648">
        <ele>1745.4100000000001</ele>
        <time>2018-06-19T06:29:42Z</time>
      </trkpt>
      <trkpt lat="46.05292403139174" lon="8.064693231135607">
        <ele>1744.9300000000001</ele>
        <time>2018-06-19T06:29:23Z</time>
      </trkpt>
      <trkpt lat="46.052919672802091" lon="8.064787108451128">
        <ele>1744.9300000000001</ele>
        <time>2018-06-19T06:29:12Z</time>
      </trkpt>
      <trkpt lat="46.052922355011106" lon="8.064797502011061">
        <ele>1744.45</ele>
        <time>2018-06-19T06:29:11Z</time>
      </trkpt>
      <trkpt lat="46.052919840440154" lon="8.064915770664811">
        <ele>1745.4100000000001</ele>
        <time>2018-06-19T06:29:02Z</time>
      </trkpt>
      <trkpt lat="46.052923947572708" lon="8.06494502350688">
        <ele>1746.3699999999999</ele>
        <time>2018-06-19T06:28:58Z</time>
      </trkpt>
      <trkpt lat="46.052915481850505" lon="8.064964301884174">
        <ele>1746.3699999999999</ele>
        <time>2018-06-19T06:28:56Z</time>
      </trkpt>
      <trkpt lat="46.052903663367033" lon="8.065006127581">
        <ele>1744.9300000000001</ele>
        <time>2018-06-19T06:28:52Z</time>
      </trkpt>
      <trkpt lat="46.052880780771375" lon="8.065078798681498">
        <ele>1744.9300000000001</ele>
        <time>2018-06-19T06:28:43Z</time>
      </trkpt>
      <trkpt lat="46.052868794649839" lon="8.065165719017386">
        <ele>1744.9300000000001</ele>
        <time>2018-06-19T06:28:34Z</time>
      </trkpt>
      <trkpt lat="46.052861586213112" lon="8.065225481987">
        <ele>1743.01</ele>
        <time>2018-06-19T06:28:25Z</time>
      </trkpt>
      <trkpt lat="46.05283853597939" lon="8.065300835296512">
        <ele>1742.53</ele>
        <time>2018-06-19T06:28:16Z</time>
      </trkpt>
      <trkpt lat="46.052808025851846" lon="8.065376188606024">
        <ele>1742.53</ele>
        <time>2018-06-19T06:28:07Z</time>
      </trkpt>
      <trkpt lat="46.052824454382062" lon="8.06544098071754">
        <ele>1743.97</ele>
        <time>2018-06-19T06:28:00Z</time>
      </trkpt>
      <trkpt lat="46.052834009751678" lon="8.065531840547919">
        <ele>1745.8900000000001</ele>
        <time>2018-06-19T06:27:49Z</time>
      </trkpt>
      <trkpt lat="46.052876254543662" lon="8.065596632659435">
        <ele>1745.8900000000001</ele>
        <time>2018-06-19T06:27:40Z</time>
      </trkpt>
      <trkpt lat="46.052897125482559" lon="8.065579617395997">
        <ele>1743.97</ele>
        <time>2018-06-19T06:27:31Z</time>
      </trkpt>
      <trkpt lat="46.052899975329638" lon="8.065622197464109">
        <ele>1742.53</ele>
        <time>2018-06-19T06:27:23Z</time>
      </trkpt>
      <trkpt lat="46.05290693230927" lon="8.065658742561936">
        <ele>1740.1199999999999</ele>
        <time>2018-06-19T06:27:13Z</time>
      </trkpt>
      <trkpt lat="46.052918415516615" lon="8.065689923241735">
        <ele>1739.1600000000001</ele>
        <time>2018-06-19T06:27:06Z</time>
      </trkpt>
      <trkpt lat="46.052934508770704" lon="8.065720517188311">
        <ele>1736.76</ele>
        <time>2018-06-19T06:26:55Z</time>
      </trkpt>
      <trkpt lat="46.05295529589057" lon="8.065825626254082">
        <ele>1734.8399999999999</ele>
        <time>2018-06-19T06:26:44Z</time>
      </trkpt>
      <trkpt lat="46.052921516820788" lon="8.06591204367578">
        <ele>1733.3900000000001</ele>
        <time>2018-06-19T06:26:35Z</time>
      </trkpt>
      <trkpt lat="46.052929982542992" lon="8.065956048667431">
        <ele>1730.99</ele>
        <time>2018-06-19T06:26:26Z</time>
      </trkpt>
      <trkpt lat="46.052923193201423" lon="8.066007932648063">
        <ele>1729.55</ele>
        <time>2018-06-19T06:26:17Z</time>
      </trkpt>
      <trkpt lat="46.052918080240488" lon="8.066072640940547">
        <ele>1729.0699999999999</ele>
        <time>2018-06-19T06:26:09Z</time>
      </trkpt>
      <trkpt lat="46.052886815741658" lon="8.066153693944216">
        <ele>1726.6700000000001</ele>
        <time>2018-06-19T06:25:59Z</time>
      </trkpt>
      <trkpt lat="46.052917661145329" lon="8.06620473973453">
        <ele>1724.26</ele>
        <time>2018-06-19T06:25:49Z</time>
      </trkpt>
      <trkpt lat="46.052925875410438" lon="8.066311106085777">
        <ele>1723.3</ele>
        <time>2018-06-19T06:25:39Z</time>
      </trkpt>
      <trkpt lat="46.052893940359354" lon="8.066358463838697">
        <ele>1722.3399999999999</ele>
        <time>2018-06-19T06:25:34Z</time>
      </trkpt>
      <trkpt lat="46.052867453545332" lon="8.066438091918826">
        <ele>1720.9000000000001</ele>
        <time>2018-06-19T06:25:25Z</time>
      </trkpt>
      <trkpt lat="46.052806349471211" lon="8.06650422513485">
        <ele>1720.4200000000001</ele>
        <time>2018-06-19T06:25:16Z</time>
      </trkpt>
      <trkpt lat="46.052725715562701" lon="8.066534986719489">
        <ele>1721.3800000000001</ele>
        <time>2018-06-19T06:25:07Z</time>
      </trkpt>
      <trkpt lat="46.052689421921968" lon="8.066541524603963">
        <ele>1720.9000000000001</ele>
        <time>2018-06-19T06:25:02Z</time>
      </trkpt>
      <trkpt lat="46.052676346153021" lon="8.066543368622661">
        <ele>1720.4200000000001</ele>
        <time>2018-06-19T06:25:00Z</time>
      </trkpt>
      <trkpt lat="46.052634185180068" lon="8.066595084965229">
        <ele>1718.01</ele>
        <time>2018-06-19T06:24:50Z</time>
      </trkpt>
      <trkpt lat="46.052603423595428" lon="8.066646549850702">
        <ele>1715.6099999999999</ele>
        <time>2018-06-19T06:24:37Z</time>
      </trkpt>
      <trkpt lat="46.052561094984412" lon="8.066723495721817">
        <ele>1713.6900000000001</ele>
        <time>2018-06-19T06:24:25Z</time>
      </trkpt>
      <trkpt lat="46.052484568208456" lon="8.066845452412963">
        <ele>1713.21</ele>
        <time>2018-06-19T06:24:13Z</time>
      </trkpt>
      <trkpt lat="46.052474677562714" lon="8.066865736618638">
        <ele>1713.21</ele>
        <time>2018-06-19T06:24:10Z</time>
      </trkpt>
      <trkpt lat="46.052436120808125" lon="8.06690588593483">
        <ele>1711.76</ele>
        <time>2018-06-19T06:24:01Z</time>
      </trkpt>
      <trkpt lat="46.052427152171731" lon="8.06698065251112">
        <ele>1710.3199999999999</ele>
        <time>2018-06-19T06:23:52Z</time>
      </trkpt>
      <trkpt lat="46.052378537133336" lon="8.067071596160531">
        <ele>1708.8800000000001</ele>
        <time>2018-06-19T06:23:43Z</time>
      </trkpt>
      <trkpt lat="46.052396055310965" lon="8.06713605299592">
        <ele>1707.4400000000001</ele>
        <time>2018-06-19T06:23:34Z</time>
      </trkpt>
      <trkpt lat="46.052417596802115" lon="8.067201348021627">
        <ele>1706.48</ele>
        <time>2018-06-19T06:23:27Z</time>
      </trkpt>
      <trkpt lat="46.052419440820813" lon="8.067210651934147">
        <ele>1706.48</ele>
        <time>2018-06-19T06:23:26Z</time>
      </trkpt>
      <trkpt lat="46.052401252090931" lon="8.06731978431344">
        <ele>1705.04</ele>
        <time>2018-06-19T06:23:16Z</time>
      </trkpt>
      <trkpt lat="46.052395300939679" lon="8.067337134853005">
        <ele>1704.55</ele>
        <time>2018-06-19T06:23:14Z</time>
      </trkpt>
      <trkpt lat="46.052376944571733" lon="8.06739354506135">
        <ele>1702.6300000000001</ele>
        <time>2018-06-19T06:23:05Z</time>
      </trkpt>
      <trkpt lat="46.0523596778512" lon="8.067441657185555">
        <ele>1700.23</ele>
        <time>2018-06-19T06:22:55Z</time>
      </trkpt>
      <trkpt lat="46.052347188815475" lon="8.067497899755836">
        <ele>1697.8299999999999</ele>
        <time>2018-06-19T06:22:46Z</time>
      </trkpt>
      <trkpt lat="46.052235038951039" lon="8.067659251391888">
        <ele>1697.8299999999999</ele>
        <time>2018-06-19T06:22:34Z</time>
      </trkpt>
      <trkpt lat="46.05218960903585" lon="8.067767713218927">
        <ele>1697.3399999999999</ele>
        <time>2018-06-19T06:22:25Z</time>
      </trkpt>
      <trkpt lat="46.052173264324665" lon="8.067808616906405">
        <ele>1696.8599999999999</ele>
        <time>2018-06-19T06:22:22Z</time>
      </trkpt>
      <trkpt lat="46.052166726440191" lon="8.06783870793879">
        <ele>1696.3800000000001</ele>
        <time>2018-06-19T06:22:20Z</time>
      </trkpt>
      <trkpt lat="46.052182065322995" lon="8.067910708487034">
        <ele>1695.9000000000001</ele>
        <time>2018-06-19T06:22:14Z</time>
      </trkpt>
      <trkpt lat="46.052232524380088" lon="8.067988995462656">
        <ele>1694.9400000000001</ele>
        <time>2018-06-19T06:22:06Z</time>
      </trkpt>
      <trkpt lat="46.052238307893276" lon="8.067993354052305">
        <ele>1694.9400000000001</ele>
        <time>2018-06-19T06:22:05Z</time>
      </trkpt>
      <trkpt lat="46.052259430289268" lon="8.068037023767829">
        <ele>1694.46</ele>
        <time>2018-06-19T06:21:53Z</time>
      </trkpt>
      <trkpt lat="46.052243420854211" lon="8.068100223317742">
        <ele>1692.54</ele>
        <time>2018-06-19T06:21:44Z</time>
      </trkpt>
      <trkpt lat="46.052202181890607" lon="8.068117406219244">
        <ele>1690.6199999999999</ele>
        <time>2018-06-19T06:21:36Z</time>
      </trkpt>
      <trkpt lat="46.052189692854881" lon="8.068149173632264">
        <ele>1688.6900000000001</ele>
        <time>2018-06-19T06:21:27Z</time>
      </trkpt>
      <trkpt lat="46.052157171070576" lon="8.068164261057973">
        <ele>1686.77</ele>
        <time>2018-06-19T06:21:20Z</time>
      </trkpt>
      <trkpt lat="46.052121045067906" lon="8.068201476708055">
        <ele>1684.8499999999999</ele>
        <time>2018-06-19T06:21:10Z</time>
      </trkpt>
      <trkpt lat="46.052119620144367" lon="8.068241374567151">
        <ele>1683.4100000000001</ele>
        <time>2018-06-19T06:21:02Z</time>
      </trkpt>
      <trkpt lat="46.052109058946371" lon="8.068269370123744">
        <ele>1682.9300000000001</ele>
        <time>2018-06-19T06:20:53Z</time>
      </trkpt>
      <trkpt lat="46.052074022591114" lon="8.068324355408549">
        <ele>1681.48</ele>
        <time>2018-06-19T06:20:46Z</time>
      </trkpt>
      <trkpt lat="46.052001938223839" lon="8.068322511389852">
        <ele>1680.52</ele>
        <time>2018-06-19T06:20:36Z</time>
      </trkpt>
      <trkpt lat="46.05192038230598" lon="8.068279344588518">
        <ele>1680.04</ele>
        <time>2018-06-19T06:20:26Z</time>
      </trkpt>
      <trkpt lat="46.051846873015165" lon="8.068241542205215">
        <ele>1678.5999999999999</ele>
        <time>2018-06-19T06:20:17Z</time>
      </trkpt>
      <trkpt lat="46.051829103380442" lon="8.068255372345448">
        <ele>1678.1199999999999</ele>
        <time>2018-06-19T06:20:13Z</time>
      </trkpt>
      <trkpt lat="46.051768669858575" lon="8.068252857774496">
        <ele>1676.6800000000001</ele>
        <time>2018-06-19T06:20:03Z</time>
      </trkpt>
      <trkpt lat="46.051707984879613" lon="8.068247996270657">
        <ele>1675.23</ele>
        <time>2018-06-19T06:19:54Z</time>
      </trkpt>
      <trkpt lat="46.051688957959414" lon="8.068237854167819">
        <ele>1674.75</ele>
        <time>2018-06-19T06:19:51Z</time>
      </trkpt>
      <trkpt lat="46.05162475258112" lon="8.068236010149121">
        <ele>1672.8299999999999</ele>
        <time>2018-06-19T06:19:41Z</time>
      </trkpt>
      <trkpt lat="46.051569934934378" lon="8.068235842511058">
        <ele>1670.9100000000001</ele>
        <time>2018-06-19T06:19:31Z</time>
      </trkpt>
      <trkpt lat="46.051529031246901" lon="8.068281188607216">
        <ele>1670.4300000000001</ele>
        <time>2018-06-19T06:19:22Z</time>
      </trkpt>
      <trkpt lat="46.051530539989471" lon="8.06828822940588">
        <ele>1670.4300000000001</ele>
        <time>2018-06-19T06:19:20Z</time>
      </trkpt>
      <trkpt lat="46.051514111459255" lon="8.06834053248167">
        <ele>1669.47</ele>
        <time>2018-06-19T06:19:10Z</time>
      </trkpt>
      <trkpt lat="46.051402883604169" lon="8.068334916606545">
        <ele>1668.99</ele>
        <time>2018-06-19T06:19:00Z</time>
      </trkpt>
      <trkpt lat="46.051304060965776" lon="8.068316895514727">
        <ele>1667.0599999999999</ele>
        <time>2018-06-19T06:18:48Z</time>
      </trkpt>
      <trkpt lat="46.051258044317365" lon="8.068284122273326">
        <ele>1666.5799999999999</ele>
        <time>2018-06-19T06:18:43Z</time>
      </trkpt>
      <trkpt lat="46.051238682121038" lon="8.06827649474144">
        <ele>1666.5799999999999</ele>
        <time>2018-06-19T06:18:41Z</time>
      </trkpt>
      <trkpt lat="46.05117179453373" lon="8.06823693215847">
        <ele>1666.0999999999999</ele>
        <time>2018-06-19T06:18:34Z</time>
      </trkpt>
      <trkpt lat="46.05110633186996" lon="8.068170631304383">
        <ele>1665.6199999999999</ele>
        <time>2018-06-19T06:18:26Z</time>
      </trkpt>
      <trkpt lat="46.051082527264953" lon="8.068169625476003">
        <ele>1665.1400000000001</ele>
        <time>2018-06-19T06:18:24Z</time>
      </trkpt>
      <trkpt lat="46.051038941368461" lon="8.068109024316073">
        <ele>1664.6600000000001</ele>
        <time>2018-06-19T06:18:19Z</time>
      </trkpt>
      <trkpt lat="46.051032654941082" lon="8.068095026537776">
        <ele>1664.6600000000001</ele>
        <time>2018-06-19T06:18:17Z</time>
      </trkpt>
      <trkpt lat="46.051055705174804" lon="8.068094188347459">
        <ele>1664.6600000000001</ele>
        <time>2018-06-19T06:17:59Z</time>
      </trkpt>
      <trkpt lat="46.051013963297009" lon="8.068103659898043">
        <ele>1663.7</ele>
        <time>2018-06-19T06:17:49Z</time>
      </trkpt>
      <trkpt lat="46.050954954698682" lon="8.068031072616577">
        <ele>1662.26</ele>
        <time>2018-06-19T06:17:38Z</time>
      </trkpt>
      <trkpt lat="46.050902232527733" lon="8.067974075675011">
        <ele>1661.3</ele>
        <time>2018-06-19T06:17:28Z</time>
      </trkpt>
      <trkpt lat="46.050877338275313" lon="8.068023445084691">
        <ele>1659.3699999999999</ele>
        <time>2018-06-19T06:17:20Z</time>
      </trkpt>
      <trkpt lat="46.050860323011875" lon="8.068121010437608">
        <ele>1657.9300000000001</ele>
        <time>2018-06-19T06:17:10Z</time>
      </trkpt>
      <trkpt lat="46.050867950543761" lon="8.068168116733432">
        <ele>1656.49</ele>
        <time>2018-06-19T06:17:02Z</time>
      </trkpt>
      <trkpt lat="46.050864849239588" lon="8.068216564133763">
        <ele>1654.5699999999999</ele>
        <time>2018-06-19T06:16:54Z</time>
      </trkpt>
      <trkpt lat="46.050901059061289" lon="8.068315722048283">
        <ele>1652.6400000000001</ele>
        <time>2018-06-19T06:16:44Z</time>
      </trkpt>
      <trkpt lat="46.050944477319717" lon="8.068369366228581">
        <ele>1651.2</ele>
        <time>2018-06-19T06:16:34Z</time>
      </trkpt>
      <trkpt lat="46.050946656614542" lon="8.068412449210882">
        <ele>1648.8</ele>
        <time>2018-06-19T06:16:25Z</time>
      </trkpt>
      <trkpt lat="46.050938023254275" lon="8.068427285179496">
        <ele>1647.3599999999999</ele>
        <time>2018-06-19T06:16:21Z</time>
      </trkpt>
      <trkpt lat="46.050915056839585" lon="8.068448910489678">
        <ele>1646.8800000000001</ele>
        <time>2018-06-19T06:16:06Z</time>
      </trkpt>
      <trkpt lat="46.050900975242257" lon="8.068514540791512">
        <ele>1645.4300000000001</ele>
        <time>2018-06-19T06:15:56Z</time>
      </trkpt>
      <trkpt lat="46.050903238356113" lon="8.068540189415216">
        <ele>1643.03</ele>
        <time>2018-06-19T06:15:45Z</time>
      </trkpt>
      <trkpt lat="46.050891000777483" lon="8.068546308204532">
        <ele>1642.0699999999999</ele>
        <time>2018-06-19T06:15:38Z</time>
      </trkpt>
      <trkpt lat="46.050878763198853" lon="8.068591486662626">
        <ele>1640.1500000000001</ele>
        <time>2018-06-19T06:15:28Z</time>
      </trkpt>
      <trkpt lat="46.050860239192843" lon="8.068597940728068">
        <ele>1639.6700000000001</ele>
        <time>2018-06-19T06:15:25Z</time>
      </trkpt>
      <trkpt lat="46.050815312191844" lon="8.068559300154448">
        <ele>1638.22</ele>
        <time>2018-06-19T06:15:16Z</time>
      </trkpt>
      <trkpt lat="46.050814893096685" lon="8.068608082830906">
        <ele>1636.3</ele>
        <time>2018-06-19T06:15:09Z</time>
      </trkpt>
      <trkpt lat="46.050796872004867" lon="8.068614033982158">
        <ele>1634.3800000000001</ele>
        <time>2018-06-19T06:14:59Z</time>
      </trkpt>
      <trkpt lat="46.050769547000527" lon="8.06857991963625">
        <ele>1633.4200000000001</ele>
        <time>2018-06-19T06:14:51Z</time>
      </trkpt>
      <trkpt lat="46.050755213946104" lon="8.068573633208871">
        <ele>1632.9400000000001</ele>
        <time>2018-06-19T06:14:43Z</time>
      </trkpt>
      <trkpt lat="46.050734678283334" lon="8.068507080897689">
        <ele>1631.49</ele>
        <time>2018-06-19T06:14:36Z</time>
      </trkpt>
      <trkpt lat="46.050708359107375" lon="8.068449413403869">
        <ele>1630.53</ele>
        <time>2018-06-19T06:14:28Z</time>
      </trkpt>
      <trkpt lat="46.050686649978161" lon="8.068422507494688">
        <ele>1629.0899999999999</ele>
        <time>2018-06-19T06:14:19Z</time>
      </trkpt>
      <trkpt lat="46.050653290003538" lon="8.068402726203203">
        <ele>1627.1700000000001</ele>
        <time>2018-06-19T06:14:11Z</time>
      </trkpt>
      <trkpt lat="46.050622863695025" lon="8.068423513323069">
        <ele>1625.73</ele>
        <time>2018-06-19T06:14:01Z</time>
      </trkpt>
      <trkpt lat="46.050606099888682" lon="8.068428626284003">
        <ele>1623.8</ele>
        <time>2018-06-19T06:13:53Z</time>
      </trkpt>
      <trkpt lat="46.050596879795194" lon="8.068464584648609">
        <ele>1622.3599999999999</ele>
        <time>2018-06-19T06:13:45Z</time>
      </trkpt>
      <trkpt lat="46.050560921430588" lon="8.068495178595185">
        <ele>1620.4400000000001</ele>
        <time>2018-06-19T06:13:35Z</time>
      </trkpt>
      <trkpt lat="46.050522113218904" lon="8.06853742338717">
        <ele>1618.04</ele>
        <time>2018-06-19T06:13:25Z</time>
      </trkpt>
      <trkpt lat="46.050510462373495" lon="8.068565586581826">
        <ele>1616.1099999999999</ele>
        <time>2018-06-19T06:13:14Z</time>
      </trkpt>
      <trkpt lat="46.050478527322412" lon="8.068594168871641">
        <ele>1614.6700000000001</ele>
        <time>2018-06-19T06:13:05Z</time>
      </trkpt>
      <trkpt lat="46.050458326935768" lon="8.068627193570137">
        <ele>1612.75</ele>
        <time>2018-06-19T06:12:57Z</time>
      </trkpt>
      <trkpt lat="46.050487076863647" lon="8.068638006225228">
        <ele>1611.3099999999999</ele>
        <time>2018-06-19T06:12:50Z</time>
      </trkpt>
      <trkpt lat="46.050521777942777" lon="8.068681424483657">
        <ele>1609.8599999999999</ele>
        <time>2018-06-19T06:12:40Z</time>
      </trkpt>
      <trkpt lat="46.050547426566482" lon="8.068693662062287">
        <ele>1608.9000000000001</ele>
        <time>2018-06-19T06:12:36Z</time>
      </trkpt>
      <trkpt lat="46.050543989986181" lon="8.068757951259613">
        <ele>1607.46</ele>
        <time>2018-06-19T06:12:27Z</time>
      </trkpt>
      <trkpt lat="46.050554718822241" lon="8.068767255172133">
        <ele>1607.46</ele>
        <time>2018-06-19T06:12:25Z</time>
      </trkpt>
      <trkpt lat="46.050511552020907" lon="8.068725764751434">
        <ele>1605.54</ele>
        <time>2018-06-19T06:12:14Z</time>
      </trkpt>
      <trkpt lat="46.05046084150672" lon="8.068718556314707">
        <ele>1603.1400000000001</ele>
        <time>2018-06-19T06:12:04Z</time>
      </trkpt>
      <trkpt lat="46.05039780959487" lon="8.068695338442922">
        <ele>1601.21</ele>
        <time>2018-06-19T06:11:54Z</time>
      </trkpt>
      <trkpt lat="46.050346931442618" lon="8.068800950422883">
        <ele>1598.8099999999999</ele>
        <time>2018-06-19T06:11:43Z</time>
      </trkpt>
      <trkpt lat="46.050274427980185" lon="8.068894492462277">
        <ele>1596.4100000000001</ele>
        <time>2018-06-19T06:11:32Z</time>
      </trkpt>
      <trkpt lat="46.050226232036948" lon="8.069031201303005">
        <ele>1594.48</ele>
        <time>2018-06-19T06:11:18Z</time>
      </trkpt>
      <trkpt lat="46.050218688324094" lon="8.069092305377126">
        <ele>1594</ele>
        <time>2018-06-19T06:11:13Z</time>
      </trkpt>
      <trkpt lat="46.050185076892376" lon="8.069191882386804">
        <ele>1591.5999999999999</ele>
        <time>2018-06-19T06:11:02Z</time>
      </trkpt>
      <trkpt lat="46.050162026658654" lon="8.069270588457584">
        <ele>1590.1600000000001</ele>
        <time>2018-06-19T06:10:54Z</time>
      </trkpt>
      <trkpt lat="46.050186334177852" lon="8.069297494366765">
        <ele>1589.2</ele>
        <time>2018-06-19T06:10:50Z</time>
      </trkpt>
      <trkpt lat="46.050261771306396" lon="8.069333955645561">
        <ele>1587.75</ele>
        <time>2018-06-19T06:10:39Z</time>
      </trkpt>
      <trkpt lat="46.050302255898714" lon="8.069337224587798">
        <ele>1586.3099999999999</ele>
        <time>2018-06-19T06:10:33Z</time>
      </trkpt>
      <trkpt lat="46.050300998613238" lon="8.06935834698379">
        <ele>1585.3499999999999</ele>
        <time>2018-06-19T06:10:28Z</time>
      </trkpt>
      <trkpt lat="46.050302674993873" lon="8.06935541331768">
        <ele>1585.3499999999999</ele>
        <time>2018-06-19T06:10:22Z</time>
      </trkpt>
      <trkpt lat="46.050282726064324" lon="8.069352395832539">
        <ele>1584.3900000000001</ele>
        <time>2018-06-19T06:10:03Z</time>
      </trkpt>
      <trkpt lat="46.050249198451638" lon="8.069396652281284">
        <ele>1583.9100000000001</ele>
        <time>2018-06-19T06:09:39Z</time>
      </trkpt>
      <trkpt lat="46.050289180129766" lon="8.069344852119684">
        <ele>1583.9100000000001</ele>
        <time>2018-06-19T06:09:16Z</time>
      </trkpt>
      <trkpt lat="46.050287503749132" lon="8.069334039464593">
        <ele>1584.8699999999999</ele>
        <time>2018-06-19T06:09:07Z</time>
      </trkpt>
      <trkpt lat="46.050319941714406" lon="8.06939447298646">
        <ele>1582.95</ele>
        <time>2018-06-19T06:08:58Z</time>
      </trkpt>
      <trkpt lat="46.050354391336441" lon="8.069373853504658">
        <ele>1581.99</ele>
        <time>2018-06-19T06:08:52Z</time>
      </trkpt>
      <trkpt lat="46.050459165126085" lon="8.069343008100987">
        <ele>1581.03</ele>
        <time>2018-06-19T06:08:41Z</time>
      </trkpt>
      <trkpt lat="46.050471570342779" lon="8.069347701966763">
        <ele>1580.0599999999999</ele>
        <time>2018-06-19T06:08:36Z</time>
      </trkpt>
      <trkpt lat="46.050509456545115" lon="8.069412829354405">
        <ele>1578.1400000000001</ele>
        <time>2018-06-19T06:08:26Z</time>
      </trkpt>
      <trkpt lat="46.05054683983326" lon="8.069460857659578">
        <ele>1574.3</ele>
        <time>2018-06-19T06:08:15Z</time>
      </trkpt>
      <trkpt lat="46.050568548962474" lon="8.069498324766755">
        <ele>1574.3</ele>
        <time>2018-06-19T06:08:06Z</time>
      </trkpt>
      <trkpt lat="46.050579948350787" lon="8.069547023624182">
        <ele>1571.8900000000001</ele>
        <time>2018-06-19T06:07:53Z</time>
      </trkpt>
      <trkpt lat="46.050620516762137" lon="8.069599326699972">
        <ele>1569.97</ele>
        <time>2018-06-19T06:07:44Z</time>
      </trkpt>
      <trkpt lat="46.050596544519067" lon="8.069620030000806">
        <ele>1568.53</ele>
        <time>2018-06-19T06:07:35Z</time>
      </trkpt>
      <trkpt lat="46.050600316375494" lon="8.069666298106313">
        <ele>1567.0899999999999</ele>
        <time>2018-06-19T06:07:28Z</time>
      </trkpt>
      <trkpt lat="46.050601238384843" lon="8.069701753556728">
        <ele>1565.6400000000001</ele>
        <time>2018-06-19T06:07:21Z</time>
      </trkpt>
      <trkpt lat="46.050639459863305" lon="8.069746596738696">
        <ele>1564.2</ele>
        <time>2018-06-19T06:07:12Z</time>
      </trkpt>
      <trkpt lat="46.050640968605876" lon="8.069782136008143">
        <ele>1562.28</ele>
        <time>2018-06-19T06:07:03Z</time>
      </trkpt>
      <trkpt lat="46.050622528418899" lon="8.069771826267242">
        <ele>1560.8399999999999</ele>
        <time>2018-06-19T06:06:55Z</time>
      </trkpt>
      <trkpt lat="46.050627809017897" lon="8.069787919521332">
        <ele>1560.3599999999999</ele>
        <time>2018-06-19T06:06:53Z</time>
      </trkpt>
      <trkpt lat="46.050646752119064" lon="8.069834019988775">
        <ele>1558.9200000000001</ele>
        <time>2018-06-19T06:06:45Z</time>
      </trkpt>
      <trkpt lat="46.050678268074989" lon="8.069893950596452">
        <ele>1557.47</ele>
        <time>2018-06-19T06:06:38Z</time>
      </trkpt>
      <trkpt lat="46.050706179812551" lon="8.069913312792778">
        <ele>1556.03</ele>
        <time>2018-06-19T06:06:33Z</time>
      </trkpt>
      <trkpt lat="46.05067634023726" lon="8.06991976685822">
        <ele>1554.1099999999999</ele>
        <time>2018-06-19T06:06:24Z</time>
      </trkpt>
      <trkpt lat="46.050672233104706" lon="8.069968884810805">
        <ele>1552.1900000000001</ele>
        <time>2018-06-19T06:06:16Z</time>
      </trkpt>
      <trkpt lat="46.050708191469312" lon="8.070061756297946">
        <ele>1550.26</ele>
        <time>2018-06-19T06:06:05Z</time>
      </trkpt>
      <trkpt lat="46.050747921690345" lon="8.07013526558876">
        <ele>1549.78</ele>
        <time>2018-06-19T06:05:54Z</time>
      </trkpt>
      <trkpt lat="46.050762003287673" lon="8.070217240601778">
        <ele>1546.9000000000001</ele>
        <time>2018-06-19T06:05:44Z</time>
      </trkpt>
      <trkpt lat="46.050747586414218" lon="8.070271890610457">
        <ele>1544.5</ele>
        <time>2018-06-19T06:05:34Z</time>
      </trkpt>
      <trkpt lat="46.050782455131412" lon="8.070326540619135">
        <ele>1543.05</ele>
        <time>2018-06-19T06:05:24Z</time>
      </trkpt>
      <trkpt lat="46.05079066939652" lon="8.070352943614125">
        <ele>1542.0899999999999</ele>
        <time>2018-06-19T06:05:21Z</time>
      </trkpt>
      <trkpt lat="46.050800643861294" lon="8.070459645241499">
        <ele>1539.6900000000001</ele>
        <time>2018-06-19T06:05:11Z</time>
      </trkpt>
      <trkpt lat="46.050819335505366" lon="8.07054229080677">
        <ele>1538.25</ele>
        <time>2018-06-19T06:05:03Z</time>
      </trkpt>
      <trkpt lat="46.050827046856284" lon="8.070564921945334">
        <ele>1537.77</ele>
        <time>2018-06-19T06:05:00Z</time>
      </trkpt>
      <trkpt lat="46.050892677158117" lon="8.070628875866532">
        <ele>1536.3199999999999</ele>
        <time>2018-06-19T06:04:49Z</time>
      </trkpt>
      <trkpt lat="46.050912793725729" lon="8.070680927485228">
        <ele>1533.9200000000001</ele>
        <time>2018-06-19T06:04:40Z</time>
      </trkpt>
      <trkpt lat="46.050851186737418" lon="8.070661230012775">
        <ele>1532</ele>
        <time>2018-06-19T06:04:31Z</time>
      </trkpt>
      <trkpt lat="46.050790501758456" lon="8.070713449269533">
        <ele>1529.5899999999999</ele>
        <time>2018-06-19T06:04:22Z</time>
      </trkpt>
      <trkpt lat="46.050851019099355" lon="8.070816630497575">
        <ele>1528.6300000000001</ele>
        <time>2018-06-19T06:04:11Z</time>
      </trkpt>
      <trkpt lat="46.050889575853944" lon="8.070834316313267">
        <ele>1528.1500000000001</ele>
        <time>2018-06-19T06:04:07Z</time>
      </trkpt>
      <trkpt lat="46.050936095416546" lon="8.070881171151996">
        <ele>1526.23</ele>
        <time>2018-06-19T06:03:59Z</time>
      </trkpt>
      <trkpt lat="46.050867112353444" lon="8.070863569155335">
        <ele>1525.27</ele>
        <time>2018-06-19T06:03:50Z</time>
      </trkpt>
      <trkpt lat="46.050846828147769" lon="8.070896174758673">
        <ele>1522.8699999999999</ele>
        <time>2018-06-19T06:03:40Z</time>
      </trkpt>
      <trkpt lat="46.050888318568468" lon="8.070938587188721">
        <ele>1520.9400000000001</ele>
        <time>2018-06-19T06:03:28Z</time>
      </trkpt>
      <trkpt lat="46.050879266113043" lon="8.070936994627118">
        <ele>1521.4200000000001</ele>
        <time>2018-06-19T06:03:27Z</time>
      </trkpt>
      <trkpt lat="46.050809528678656" lon="8.070940682664514">
        <ele>1519.02</ele>
        <time>2018-06-19T06:03:17Z</time>
      </trkpt>
      <trkpt lat="46.05073107406497" lon="8.070952165871859">
        <ele>1518.0599999999999</ele>
        <time>2018-06-19T06:03:03Z</time>
      </trkpt>
      <trkpt lat="46.05077700689435" lon="8.070999188348651">
        <ele>1515.1800000000001</ele>
        <time>2018-06-19T06:02:51Z</time>
      </trkpt>
      <trkpt lat="46.050737863406539" lon="8.071066746488214">
        <ele>1513.25</ele>
        <time>2018-06-19T06:02:40Z</time>
      </trkpt>
      <trkpt lat="46.050752783194184" lon="8.071122737601399">
        <ele>1511.8099999999999</ele>
        <time>2018-06-19T06:02:33Z</time>
      </trkpt>
      <trkpt lat="46.050783293321729" lon="8.071157019585371">
        <ele>1510.8499999999999</ele>
        <time>2018-06-19T06:02:21Z</time>
      </trkpt>
      <trkpt lat="46.050823274999857" lon="8.071187948808074">
        <ele>1508.9300000000001</ele>
        <time>2018-06-19T06:02:10Z</time>
      </trkpt>
      <trkpt lat="46.050794189795852" lon="8.071242934092879">
        <ele>1507.48</ele>
        <time>2018-06-19T06:02:01Z</time>
      </trkpt>
      <trkpt lat="46.050732918083668" lon="8.071248130872846">
        <ele>1505.0799999999999</ele>
        <time>2018-06-19T06:01:49Z</time>
      </trkpt>
      <trkpt lat="46.050665024667978" lon="8.071228014305234">
        <ele>1503.1600000000001</ele>
        <time>2018-06-19T06:01:40Z</time>
      </trkpt>
      <trkpt lat="46.050665527582169" lon="8.071323065087199">
        <ele>1501.24</ele>
        <time>2018-06-19T06:01:29Z</time>
      </trkpt>
      <trkpt lat="46.050680950284004" lon="8.071359191089869">
        <ele>1500.76</ele>
        <time>2018-06-19T06:01:25Z</time>
      </trkpt>
      <trkpt lat="46.050726464018226" lon="8.071433873847127">
        <ele>1498.3499999999999</ele>
        <time>2018-06-19T06:01:14Z</time>
      </trkpt>
      <trkpt lat="46.050769882276654" lon="8.071475280448794">
        <ele>1495.95</ele>
        <time>2018-06-19T06:01:04Z</time>
      </trkpt>
      <trkpt lat="46.05075353756547" lon="8.07151023298502">
        <ele>1493.55</ele>
        <time>2018-06-19T06:00:54Z</time>
      </trkpt>
      <trkpt lat="46.050645830109715" lon="8.071535713970661">
        <ele>1493.0599999999999</ele>
        <time>2018-06-19T06:00:42Z</time>
      </trkpt>
      <trkpt lat="46.050650859251618" lon="8.071553902700543">
        <ele>1492.5799999999999</ele>
        <time>2018-06-19T06:00:40Z</time>
      </trkpt>
      <trkpt lat="46.050597801804543" lon="8.071601511910558">
        <ele>1491.1400000000001</ele>
        <time>2018-06-19T06:00:31Z</time>
      </trkpt>
      <trkpt lat="46.050556059926748" lon="8.071599500253797">
        <ele>1490.1800000000001</ele>
        <time>2018-06-19T06:00:23Z</time>
      </trkpt>
      <trkpt lat="46.05051901191473" lon="8.071596901863813">
        <ele>1488.74</ele>
        <time>2018-06-19T06:00:15Z</time>
      </trkpt>
      <trkpt lat="46.050480203703046" lon="8.071558345109224">
        <ele>1486.8199999999999</ele>
        <time>2018-06-19T06:00:06Z</time>
      </trkpt>
      <trkpt lat="46.050436953082681" lon="8.071519117802382">
        <ele>1484.8900000000001</ele>
        <time>2018-06-19T05:59:56Z</time>
      </trkpt>
      <trkpt lat="46.050392612814903" lon="8.071444937959313">
        <ele>1482.97</ele>
        <time>2018-06-19T05:59:46Z</time>
      </trkpt>
      <trkpt lat="46.050346596166492" lon="8.071445440873504">
        <ele>1481.53</ele>
        <time>2018-06-19T05:59:37Z</time>
      </trkpt>
      <trkpt lat="46.050313403829932" lon="8.071523392572999">
        <ele>1480.5699999999999</ele>
        <time>2018-06-19T05:59:28Z</time>
      </trkpt>
      <trkpt lat="46.050295885652304" lon="8.071549544110894">
        <ele>1480.0899999999999</ele>
        <time>2018-06-19T05:59:23Z</time>
      </trkpt>
      <trkpt lat="46.050216760486364" lon="8.071522554382682">
        <ele>1477.6800000000001</ele>
        <time>2018-06-19T05:59:11Z</time>
      </trkpt>
      <trkpt lat="46.05021508410573" lon="8.071522135287523">
        <ele>1477.6800000000001</ele>
        <time>2018-06-19T05:59:09Z</time>
      </trkpt>
      <trkpt lat="46.050186166539788" lon="8.0714819021523">
        <ele>1475.76</ele>
        <time>2018-06-19T05:58:58Z</time>
      </trkpt>
      <trkpt lat="46.050145598128438" lon="8.071465473622084">
        <ele>1473.3599999999999</ele>
        <time>2018-06-19T05:58:47Z</time>
      </trkpt>
      <trkpt lat="46.050130762159824" lon="8.071426749229431">
        <ele>1471.9200000000001</ele>
        <time>2018-06-19T05:58:39Z</time>
      </trkpt>
      <trkpt lat="46.050091618672013" lon="8.071328429505229">
        <ele>1469.03</ele>
        <time>2018-06-19T05:58:28Z</time>
      </trkpt>
      <trkpt lat="46.050043674185872" lon="8.071338990703225">
        <ele>1467.5899999999999</ele>
        <time>2018-06-19T05:58:18Z</time>
      </trkpt>
      <trkpt lat="46.049984078854322" lon="8.071373524144292">
        <ele>1465.6700000000001</ele>
        <time>2018-06-19T05:58:07Z</time>
      </trkpt>
      <trkpt lat="46.049941498786211" lon="8.071366986259818">
        <ele>1463.26</ele>
        <time>2018-06-19T05:57:56Z</time>
      </trkpt>
      <trkpt lat="46.049901014193892" lon="8.071324825286865">
        <ele>1461.8199999999999</ele>
        <time>2018-06-19T05:57:45Z</time>
      </trkpt>
      <trkpt lat="46.04983932338655" lon="8.071349635720253">
        <ele>1459.9000000000001</ele>
        <time>2018-06-19T05:57:35Z</time>
      </trkpt>
      <trkpt lat="46.049816440790892" lon="8.071380062028766">
        <ele>1457.98</ele>
        <time>2018-06-19T05:57:25Z</time>
      </trkpt>
      <trkpt lat="46.049799844622612" lon="8.071425911039114">
        <ele>1457.02</ele>
        <time>2018-06-19T05:57:16Z</time>
      </trkpt>
      <trkpt lat="46.049831276759505" lon="8.071514759212732">
        <ele>1456.53</ele>
        <time>2018-06-19T05:57:08Z</time>
      </trkpt>
      <trkpt lat="46.049827337265015" lon="8.071552729234099">
        <ele>1455.0899999999999</ele>
        <time>2018-06-19T05:57:01Z</time>
      </trkpt>
      <trkpt lat="46.049795988947153" lon="8.071599248796701">
        <ele>1452.6900000000001</ele>
        <time>2018-06-19T05:56:50Z</time>
      </trkpt>
      <trkpt lat="46.04975868947804" lon="8.071652725338936">
        <ele>1450.77</ele>
        <time>2018-06-19T05:56:41Z</time>
      </trkpt>
      <trkpt lat="46.04973379522562" lon="8.071700753644109">
        <ele>1448.8399999999999</ele>
        <time>2018-06-19T05:56:31Z</time>
      </trkpt>
      <trkpt lat="46.049708649516106" lon="8.07174283079803">
        <ele>1447.4000000000001</ele>
        <time>2018-06-19T05:56:23Z</time>
      </trkpt>
      <trkpt lat="46.049651568755507" lon="8.07174869813025">
        <ele>1445.96</ele>
        <time>2018-06-19T05:56:14Z</time>
      </trkpt>
      <trkpt lat="46.049623237922788" lon="8.07169346138835">
        <ele>1444.52</ele>
        <time>2018-06-19T05:56:04Z</time>
      </trkpt>
      <trkpt lat="46.049615275114775" lon="8.07164459489286">
        <ele>1443.5599999999999</ele>
        <time>2018-06-19T05:55:59Z</time>
      </trkpt>
      <trkpt lat="46.049585938453674" lon="8.071559770032764">
        <ele>1440.6700000000001</ele>
        <time>2018-06-19T05:55:48Z</time>
      </trkpt>
      <trkpt lat="46.04955056682229" lon="8.071616431698203">
        <ele>1439.23</ele>
        <time>2018-06-19T05:55:39Z</time>
      </trkpt>
      <trkpt lat="46.049499437212944" lon="8.071611905470491">
        <ele>1437.79</ele>
        <time>2018-06-19T05:55:30Z</time>
      </trkpt>
      <trkpt lat="46.049453755840659" lon="8.071566727012396">
        <ele>1435.8699999999999</ele>
        <time>2018-06-19T05:55:20Z</time>
      </trkpt>
      <trkpt lat="46.049417797476053" lon="8.071573348715901">
        <ele>1434.4200000000001</ele>
        <time>2018-06-19T05:55:12Z</time>
      </trkpt>
      <trkpt lat="46.049338923767209" lon="8.071601763367653">
        <ele>1431.54</ele>
        <time>2018-06-19T05:55:01Z</time>
      </trkpt>
      <trkpt lat="46.04932576417923" lon="8.071601008996368">
        <ele>1430.5799999999999</ele>
        <time>2018-06-19T05:54:54Z</time>
      </trkpt>
      <trkpt lat="46.049321154132485" lon="8.071572510525584">
        <ele>1429.1400000000001</ele>
        <time>2018-06-19T05:54:44Z</time>
      </trkpt>
      <trkpt lat="46.04926566593349" lon="8.071482153609395">
        <ele>1427.7</ele>
        <time>2018-06-19T05:54:32Z</time>
      </trkpt>
      <trkpt lat="46.049218727275729" lon="8.071446949616075">
        <ele>1425.77</ele>
        <time>2018-06-19T05:54:23Z</time>
      </trkpt>
      <trkpt lat="46.049198862165213" lon="8.071480561047792">
        <ele>1424.8099999999999</ele>
        <time>2018-06-19T05:54:15Z</time>
      </trkpt>
      <trkpt lat="46.049200622364879" lon="8.07159966789186">
        <ele>1423.3699999999999</ele>
        <time>2018-06-19T05:54:03Z</time>
      </trkpt>
      <trkpt lat="46.049195593222976" lon="8.07161626406014">
        <ele>1422.8900000000001</ele>
        <time>2018-06-19T05:54:01Z</time>
      </trkpt>
      <trkpt lat="46.049151588231325" lon="8.071664376184344">
        <ele>1421.45</ele>
        <time>2018-06-19T05:53:50Z</time>
      </trkpt>
      <trkpt lat="46.049145804718137" lon="8.071662783622742">
        <ele>1421.9300000000001</ele>
        <time>2018-06-19T05:53:49Z</time>
      </trkpt>
      <trkpt lat="46.049108672887087" lon="8.071607295423746">
        <ele>1418.5599999999999</ele>
        <time>2018-06-19T05:53:40Z</time>
      </trkpt>
      <trkpt lat="46.049096686765552" lon="8.071692120283842">
        <ele>1416.6400000000001</ele>
        <time>2018-06-19T05:53:32Z</time>
      </trkpt>
      <trkpt lat="46.049071373417974" lon="8.071774514392018">
        <ele>1415.2</ele>
        <time>2018-06-19T05:53:23Z</time>
      </trkpt>
      <trkpt lat="46.049031307920814" lon="8.071786081418395">
        <ele>1413.28</ele>
        <time>2018-06-19T05:53:13Z</time>
      </trkpt>
      <trkpt lat="46.048976490274072" lon="8.071756660938263">
        <ele>1410.8699999999999</ele>
        <time>2018-06-19T05:53:02Z</time>
      </trkpt>
      <trkpt lat="46.048965426161885" lon="8.071659011766315">
        <ele>1408.95</ele>
        <time>2018-06-19T05:52:52Z</time>
      </trkpt>
      <trkpt lat="46.048933994024992" lon="8.071607546880841">
        <ele>1407.51</ele>
        <time>2018-06-19T05:52:42Z</time>
      </trkpt>
      <trkpt lat="46.048878841102123" lon="8.07160746306181">
        <ele>1405.5799999999999</ele>
        <time>2018-06-19T05:52:33Z</time>
      </trkpt>
      <trkpt lat="46.048806756734848" lon="8.071565134450793">
        <ele>1404.1400000000001</ele>
        <time>2018-06-19T05:52:24Z</time>
      </trkpt>
      <trkpt lat="46.048790663480759" lon="8.071555159986019">
        <ele>1403.6600000000001</ele>
        <time>2018-06-19T05:52:22Z</time>
      </trkpt>
      <trkpt lat="46.048727883026004" lon="8.071532445028424">
        <ele>1402.7</ele>
        <time>2018-06-19T05:52:12Z</time>
      </trkpt>
      <trkpt lat="46.048708185553551" lon="8.071503359824419">
        <ele>1402.22</ele>
        <time>2018-06-19T05:52:09Z</time>
      </trkpt>
      <trkpt lat="46.048575583845377" lon="8.071472179144621">
        <ele>1400.78</ele>
        <time>2018-06-19T05:51:56Z</time>
      </trkpt>
      <trkpt lat="46.048497129231691" lon="8.07143647223711">
        <ele>1397.8900000000001</ele>
        <time>2018-06-19T05:51:42Z</time>
      </trkpt>
      <trkpt lat="46.0484569799155" lon="8.071413338184357">
        <ele>1396.45</ele>
        <time>2018-06-19T05:51:33Z</time>
      </trkpt>
      <trkpt lat="46.048416327685118" lon="8.071403447538614">
        <ele>1394.53</ele>
        <time>2018-06-19T05:51:24Z</time>
      </trkpt>
      <trkpt lat="46.048386404290795" lon="8.071397831663489">
        <ele>1393.5699999999999</ele>
        <time>2018-06-19T05:51:14Z</time>
      </trkpt>
      <trkpt lat="46.048355139791965" lon="8.071354161947966">
        <ele>1392.6099999999999</ele>
        <time>2018-06-19T05:51:06Z</time>
      </trkpt>
      <trkpt lat="46.048344913870096" lon="8.071299344301224">
        <ele>1391.6500000000001</ele>
        <time>2018-06-19T05:51:02Z</time>
      </trkpt>
      <trkpt lat="46.048313565552235" lon="8.071261625736952">
        <ele>1390.2</ele>
        <time>2018-06-19T05:50:53Z</time>
      </trkpt>
      <trkpt lat="46.048279702663422" lon="8.071230193600059">
        <ele>1388.76</ele>
        <time>2018-06-19T05:50:43Z</time>
      </trkpt>
      <trkpt lat="46.048261933028698" lon="8.071181494742632">
        <ele>1387.3199999999999</ele>
        <time>2018-06-19T05:50:36Z</time>
      </trkpt>
      <trkpt lat="46.04825078509748" lon="8.071111086755991">
        <ele>1385.8800000000001</ele>
        <time>2018-06-19T05:50:28Z</time>
      </trkpt>
      <trkpt lat="46.048212731257081" lon="8.071155762299895">
        <ele>1383.96</ele>
        <time>2018-06-19T05:50:19Z</time>
      </trkpt>
      <trkpt lat="46.048191860318184" lon="8.071232791990042">
        <ele>1381.55</ele>
        <time>2018-06-19T05:50:08Z</time>
      </trkpt>
      <trkpt lat="46.048178784549236" lon="8.071298254653812">
        <ele>1380.1099999999999</ele>
        <time>2018-06-19T05:50:00Z</time>
      </trkpt>
      <trkpt lat="46.048154477030039" lon="8.071279060095549">
        <ele>1379.1500000000001</ele>
        <time>2018-06-19T05:49:52Z</time>
      </trkpt>
      <trkpt lat="46.048119524493814" lon="8.071298003196716">
        <ele>1376.75</ele>
        <time>2018-06-19T05:49:42Z</time>
      </trkpt>
      <trkpt lat="46.048128828406334" lon="8.071372183039784">
        <ele>1376.75</ele>
        <time>2018-06-19T05:49:33Z</time>
      </trkpt>
      <trkpt lat="46.048150369897485" lon="8.071433622390032">
        <ele>1375.3</ele>
        <time>2018-06-19T05:49:25Z</time>
      </trkpt>
      <trkpt lat="46.048140646889806" lon="8.071469245478511">
        <ele>1374.3399999999999</ele>
        <time>2018-06-19T05:49:17Z</time>
      </trkpt>
      <trkpt lat="46.048115417361259" lon="8.071439573541284">
        <ele>1371.46</ele>
        <time>2018-06-19T05:49:08Z</time>
      </trkpt>
      <trkpt lat="46.048058588057756" lon="8.071401938796043">
        <ele>1369.05</ele>
        <time>2018-06-19T05:48:58Z</time>
      </trkpt>
      <trkpt lat="46.048030843958259" lon="8.071424905210733">
        <ele>1368.5699999999999</ele>
        <time>2018-06-19T05:48:54Z</time>
      </trkpt>
      <trkpt lat="46.048029838129878" lon="8.071431610733271">
        <ele>1368.0899999999999</ele>
        <time>2018-06-19T05:48:53Z</time>
      </trkpt>
      <trkpt lat="46.048043332993984" lon="8.071490535512567">
        <ele>1365.6900000000001</ele>
        <time>2018-06-19T05:48:44Z</time>
      </trkpt>
      <trkpt lat="46.048020953312516" lon="8.071597991511226">
        <ele>1363.29</ele>
        <time>2018-06-19T05:48:33Z</time>
      </trkpt>
      <trkpt lat="46.048023300245404" lon="8.071644678711891">
        <ele>1361.8399999999999</ele>
        <time>2018-06-19T05:48:29Z</time>
      </trkpt>
      <trkpt lat="46.048024389892817" lon="8.071654569357634">
        <ele>1361.8399999999999</ele>
        <time>2018-06-19T05:48:28Z</time>
      </trkpt>
      <trkpt lat="46.04805096052587" lon="8.071706704795361">
        <ele>1361.3599999999999</ele>
        <time>2018-06-19T05:48:16Z</time>
      </trkpt>
      <trkpt lat="46.048054732382298" lon="8.07170226238668">
        <ele>1361.3599999999999</ele>
        <time>2018-06-19T05:48:00Z</time>
      </trkpt>
      <trkpt lat="46.04804215952754" lon="8.071657251566649">
        <ele>1361.3599999999999</ele>
        <time>2018-06-19T05:47:43Z</time>
      </trkpt>
      <trkpt lat="46.048034615814686" lon="8.071683486923575">
        <ele>1361.3599999999999</ele>
        <time>2018-06-19T05:47:30Z</time>
      </trkpt>
      <trkpt lat="46.048058923333883" lon="8.071736041456461">
        <ele>1358.48</ele>
        <time>2018-06-19T05:47:21Z</time>
      </trkpt>
      <trkpt lat="46.048107538372278" lon="8.071827152743936">
        <ele>1357.52</ele>
        <time>2018-06-19T05:47:11Z</time>
      </trkpt>
      <trkpt lat="46.048255562782288" lon="8.071936536580324">
        <ele>1356.5599999999999</ele>
        <time>2018-06-19T05:46:57Z</time>
      </trkpt>
      <trkpt lat="46.048271991312504" lon="8.071974841877818">
        <ele>1356.5599999999999</ele>
        <time>2018-06-19T05:46:43Z</time>
      </trkpt>
      <trkpt lat="46.048255478963256" lon="8.072127308696508">
        <ele>1356.0799999999999</ele>
        <time>2018-06-19T05:46:30Z</time>
      </trkpt>
      <trkpt lat="46.048258915543556" lon="8.072138540446758">
        <ele>1355.5999999999999</ele>
        <time>2018-06-19T05:46:28Z</time>
      </trkpt>
      <trkpt lat="46.048169229179621" lon="8.072190843522549">
        <ele>1356.0799999999999</ele>
        <time>2018-06-19T05:46:18Z</time>
      </trkpt>
      <trkpt lat="46.048126481473446" lon="8.072284469380975">
        <ele>1356.5599999999999</ele>
        <time>2018-06-19T05:46:09Z</time>
      </trkpt>
      <trkpt lat="46.048133941367269" lon="8.07230425067246">
        <ele>1356.0799999999999</ele>
        <time>2018-06-19T05:46:07Z</time>
      </trkpt>
      <trkpt lat="46.048197224736214" lon="8.072455208748579">
        <ele>1355.5999999999999</ele>
        <time>2018-06-19T05:45:55Z</time>
      </trkpt>
      <trkpt lat="46.048175934702158" lon="8.072519665583968">
        <ele>1356.5599999999999</ele>
        <time>2018-06-19T05:45:51Z</time>
      </trkpt>
      <trkpt lat="46.0481340251863" lon="8.072598706930876">
        <ele>1358</ele>
        <time>2018-06-19T05:45:45Z</time>
      </trkpt>
      <trkpt lat="46.048150453716516" lon="8.072658469900489">
        <ele>1357.04</ele>
        <time>2018-06-19T05:45:41Z</time>
      </trkpt>
      <trkpt lat="46.048191525042057" lon="8.072724435478449">
        <ele>1355.5999999999999</ele>
        <time>2018-06-19T05:45:35Z</time>
      </trkpt>
      <trkpt lat="46.048222202807665" lon="8.072868352755904">
        <ele>1355.5999999999999</ele>
        <time>2018-06-19T05:45:27Z</time>
      </trkpt>
      <trkpt lat="46.048233769834042" lon="8.072866257280111">
        <ele>1355.5999999999999</ele>
        <time>2018-06-19T05:45:22Z</time>
      </trkpt>
      <trkpt lat="46.048197895288467" lon="8.072966421023011">
        <ele>1355.5999999999999</ele>
        <time>2018-06-19T05:45:11Z</time>
      </trkpt>
      <trkpt lat="46.048161434009671" lon="8.07309583760798">
        <ele>1354.1500000000001</ele>
        <time>2018-06-19T05:45:01Z</time>
      </trkpt>
      <trkpt lat="46.048107957467437" lon="8.073297422379255">
        <ele>1353.6700000000001</ele>
        <time>2018-06-19T05:44:48Z</time>
      </trkpt>
      <trkpt lat="46.048066718503833" lon="8.073340337723494">
        <ele>1353.6700000000001</ele>
        <time>2018-06-19T05:44:44Z</time>
      </trkpt>
      <trkpt lat="46.048087421804667" lon="8.073436394333839">
        <ele>1354.1500000000001</ele>
        <time>2018-06-19T05:44:38Z</time>
      </trkpt>
      <trkpt lat="46.048089433461428" lon="8.073489619418979">
        <ele>1353.6700000000001</ele>
        <time>2018-06-19T05:44:34Z</time>
      </trkpt>
      <trkpt lat="46.048107873648405" lon="8.073594057932496">
        <ele>1353.1900000000001</ele>
        <time>2018-06-19T05:44:28Z</time>
      </trkpt>
      <trkpt lat="46.048171073198318" lon="8.073742836713791">
        <ele>1353.1900000000001</ele>
        <time>2018-06-19T05:44:17Z</time>
      </trkpt>
      <trkpt lat="46.04826251976192" lon="8.073940146714449">
        <ele>1353.6700000000001</ele>
        <time>2018-06-19T05:44:03Z</time>
      </trkpt>
      <trkpt lat="46.048293951898813" lon="8.073995802551508">
        <ele>1353.6700000000001</ele>
        <time>2018-06-19T05:43:59Z</time>
      </trkpt>
      <trkpt lat="46.048347428441048" lon="8.074214737862349">
        <ele>1354.1500000000001</ele>
        <time>2018-06-19T05:43:46Z</time>
      </trkpt>
      <trkpt lat="46.048372155055404" lon="8.074331497773528">
        <ele>1354.6300000000001</ele>
        <time>2018-06-19T05:43:40Z</time>
      </trkpt>
      <trkpt lat="46.048443065956235" lon="8.074562922120094">
        <ele>1355.1199999999999</ele>
        <time>2018-06-19T05:43:27Z</time>
      </trkpt>
      <trkpt lat="46.048523867502809" lon="8.074815720319748">
        <ele>1356.0799999999999</ele>
        <time>2018-06-19T05:43:12Z</time>
      </trkpt>
      <trkpt lat="46.048547085374594" lon="8.075046557933092">
        <ele>1356.5599999999999</ele>
        <time>2018-06-19T05:42:59Z</time>
      </trkpt>
      <trkpt lat="46.048654289916158" lon="8.07534352876246">
        <ele>1356.5599999999999</ele>
        <time>2018-06-19T05:42:44Z</time>
      </trkpt>
      <trkpt lat="46.049279579892755" lon="8.076481875032187">
        <ele>1357.04</ele>
        <time>2018-06-19T05:41:31Z</time>
      </trkpt>
      <trkpt lat="46.049281004816294" lon="8.07655094191432">
        <ele>1356.5599999999999</ele>
        <time>2018-06-19T05:41:25Z</time>
      </trkpt>
      <trkpt lat="46.049278909340501" lon="8.076802399009466">
        <ele>1357.52</ele>
        <time>2018-06-19T05:41:13Z</time>
      </trkpt>
      <trkpt lat="46.049292823299766" lon="8.077088473364711">
        <ele>1357.52</ele>
        <time>2018-06-19T05:41:00Z</time>
      </trkpt>
      <trkpt lat="46.049316376447678" lon="8.077099621295929">
        <ele>1357.52</ele>
        <time>2018-06-19T05:40:43Z</time>
      </trkpt>
      <trkpt lat="46.049358285963535" lon="8.077164497226477">
        <ele>1357.04</ele>
        <time>2018-06-19T05:40:29Z</time>
      </trkpt>
      <trkpt lat="46.049427352845669" lon="8.077387791126967">
        <ele>1357.52</ele>
        <time>2018-06-19T05:40:15Z</time>
      </trkpt>
      <trkpt lat="46.049437327310443" lon="8.077475465834141">
        <ele>1357.52</ele>
        <time>2018-06-19T05:40:10Z</time>
      </trkpt>
      <trkpt lat="46.049462221562862" lon="8.077551070600748">
        <ele>1357.52</ele>
        <time>2018-06-19T05:40:05Z</time>
      </trkpt>
      <trkpt lat="46.049475632607937" lon="8.077520644292235">
        <ele>1357.52</ele>
        <time>2018-06-19T05:39:59Z</time>
      </trkpt>
      <trkpt lat="46.049480075016618" lon="8.077670847997069">
        <ele>1357.52</ele>
        <time>2018-06-19T05:39:48Z</time>
      </trkpt>
      <trkpt lat="46.049465909600258" lon="8.077696245163679">
        <ele>1357.52</ele>
        <time>2018-06-19T05:39:46Z</time>
      </trkpt>
      <trkpt lat="46.049459790810943" lon="8.077726252377033">
        <ele>1357.52</ele>
        <time>2018-06-19T05:39:44Z</time>
      </trkpt>
      <trkpt lat="46.049476470798254" lon="8.077718624845147">
        <ele>1357.52</ele>
        <time>2018-06-19T05:39:35Z</time>
      </trkpt>
      <trkpt lat="46.049408493563533" lon="8.077646959573031">
        <ele>1357.52</ele>
        <time>2018-06-19T05:39:24Z</time>
      </trkpt>
      <trkpt lat="46.049278406426311" lon="8.077643187716603">
        <ele>1357.52</ele>
        <time>2018-06-19T05:39:13Z</time>
      </trkpt>
      <trkpt lat="46.049117473885417" lon="8.077631369233131">
        <ele>1357.52</ele>
        <time>2018-06-19T05:38:59Z</time>
      </trkpt>
      <trkpt lat="46.048977999016643" lon="8.077633380889893">
        <ele>1357.52</ele>
        <time>2018-06-19T05:38:48Z</time>
      </trkpt>
      <trkpt lat="46.048811199143529" lon="8.077667411416769">
        <ele>1357.52</ele>
        <time>2018-06-19T05:38:34Z</time>
      </trkpt>
      <trkpt lat="46.048654457554221" lon="8.077678307890892">
        <ele>1357.52</ele>
        <time>2018-06-19T05:38:22Z</time>
      </trkpt>
      <trkpt lat="46.04848044924438" lon="8.077708566561341">
        <ele>1357.52</ele>
        <time>2018-06-19T05:38:08Z</time>
      </trkpt>
      <trkpt lat="46.048315661028028" lon="8.077733544632793">
        <ele>1357.04</ele>
        <time>2018-06-19T05:37:56Z</time>
      </trkpt>
      <trkpt lat="46.048121368512511" lon="8.077786350622773">
        <ele>1358.48</ele>
        <time>2018-06-19T05:37:42Z</time>
      </trkpt>
      <trkpt lat="46.047996478155255" lon="8.07782918214798">
        <ele>1357.04</ele>
        <time>2018-06-19T05:37:31Z</time>
      </trkpt>
      <trkpt lat="46.047867983579636" lon="8.077903781086206">
        <ele>1357.04</ele>
        <time>2018-06-19T05:37:20Z</time>
      </trkpt>
      <trkpt lat="46.047817692160606" lon="8.077893303707242">
        <ele>1357.04</ele>
        <time>2018-06-19T05:36:58Z</time>
      </trkpt>
      <trkpt lat="46.047747787088156" lon="8.077928340062499">
        <ele>1357.04</ele>
        <time>2018-06-19T05:36:47Z</time>
      </trkpt>
      <trkpt lat="46.047709314152598" lon="8.077943762764335">
        <ele>1357.04</ele>
        <time>2018-06-19T05:36:44Z</time>
      </trkpt>
      <trkpt lat="46.047602193430066" lon="8.078005705028772">
        <ele>1357.04</ele>
        <time>2018-06-19T05:36:34Z</time>
      </trkpt>
      <trkpt lat="46.047457857057452" lon="8.078080555424094">
        <ele>1357.04</ele>
        <time>2018-06-19T05:36:21Z</time>
      </trkpt>
      <trkpt lat="46.047301953658462" lon="8.078167056664825">
        <ele>1356.5599999999999</ele>
        <time>2018-06-19T05:36:07Z</time>
      </trkpt>
      <trkpt lat="46.047233054414392" lon="8.078160183504224">
        <ele>1356.5599999999999</ele>
        <time>2018-06-19T05:36:02Z</time>
      </trkpt>
      <trkpt lat="46.047200784087181" lon="8.078189939260483">
        <ele>1357.04</ele>
        <time>2018-06-19T05:35:59Z</time>
      </trkpt>
      <trkpt lat="46.047170525416732" lon="8.078189436346293">
        <ele>1357.04</ele>
        <time>2018-06-19T05:35:55Z</time>
      </trkpt>
      <trkpt lat="46.047160802409053" lon="8.078234950080514">
        <ele>1357.04</ele>
        <time>2018-06-19T05:35:46Z</time>
      </trkpt>
      <trkpt lat="46.047128112986684" lon="8.078363025560975">
        <ele>1356.5599999999999</ele>
        <time>2018-06-19T05:35:35Z</time>
      </trkpt>
      <trkpt lat="46.047119060531259" lon="8.078391691669822">
        <ele>1357.04</ele>
        <time>2018-06-19T05:35:33Z</time>
      </trkpt>
      <trkpt lat="46.047101207077503" lon="8.078484479337931">
        <ele>1356.5599999999999</ele>
        <time>2018-06-19T05:35:26Z</time>
      </trkpt>
      <trkpt lat="46.047076648101211" lon="8.078606855124235">
        <ele>1355.5999999999999</ele>
        <time>2018-06-19T05:35:17Z</time>
      </trkpt>
      <trkpt lat="46.047073965892196" lon="8.078691847622395">
        <ele>1355.1199999999999</ele>
        <time>2018-06-19T05:35:10Z</time>
      </trkpt>
      <trkpt lat="46.047074804082513" lon="8.078750018030405">
        <ele>1354.6300000000001</ele>
        <time>2018-06-19T05:35:04Z</time>
      </trkpt>
      <trkpt lat="46.047077318653464" lon="8.078881949186325">
        <ele>1354.1500000000001</ele>
        <time>2018-06-19T05:34:55Z</time>
      </trkpt>
      <trkpt lat="46.047077737748623" lon="8.078895024955273">
        <ele>1353.6700000000001</ele>
        <time>2018-06-19T05:34:54Z</time>
      </trkpt>
      <trkpt lat="46.047070948407054" lon="8.078940454870462">
        <ele>1354.1500000000001</ele>
        <time>2018-06-19T05:34:41Z</time>
      </trkpt>
    </trkseg>
  </trk>

</gpx>